<?xml version="1.0" encoding="UTF-8" standalone="no" ?>
<gpx xmlns="http://www.topografix.com/GPX/1/1" xmlns:xsi="http://www.w3.org/2001/XMLSchema-instance" xsi:schemaLocation="http://www.topografix.com/GPX/1/1 http://www.topografix.com/GPX/1/1/gpx.xsd" version="1.1" creator="VisuGPX - https://www.visugpx.com">
  <metadata>
    <name>Vexin-sur-Epte VTT</name>
    <desc><![CDATA[Boucle Ecos-Ecos organisée par l?agglo de Véxin sur Epte]]></desc>
  </metadata>
  <trk>
    <name><![CDATA[Vexin-sur-Epte VTT_1]]></name>
    <trkseg>
      <trkpt lat="49.15755" lon="1.59831">
        <ele>113.2</ele>
        <time>2021-09-12T06:25:19Z</time>
      </trkpt>
      <trkpt lat="49.15755" lon="1.5983">
        <ele>113.2</ele>
        <time>2021-09-12T06:25:20Z</time>
      </trkpt>
      <trkpt lat="49.15748" lon="1.59816">
        <ele>113.2</ele>
        <time>2021-09-12T06:26:16Z</time>
      </trkpt>
      <trkpt lat="49.1575" lon="1.5982">
        <ele>113.2</ele>
        <time>2021-09-12T06:26:19Z</time>
      </trkpt>
      <trkpt lat="49.15748" lon="1.59831">
        <ele>113</ele>
        <time>2021-09-12T06:26:24Z</time>
      </trkpt>
      <trkpt lat="49.15741" lon="1.59843">
        <ele>113</ele>
        <time>2021-09-12T06:26:31Z</time>
      </trkpt>
      <trkpt lat="49.15734" lon="1.59854">
        <ele>113</ele>
        <time>2021-09-12T06:26:36Z</time>
      </trkpt>
      <trkpt lat="49.15726" lon="1.59872">
        <ele>112.8</ele>
        <time>2021-09-12T06:26:42Z</time>
      </trkpt>
      <trkpt lat="49.15721" lon="1.59912">
        <ele>112.8</ele>
        <time>2021-09-12T06:26:50Z</time>
      </trkpt>
      <trkpt lat="49.15717" lon="1.59944">
        <ele>112.2</ele>
        <time>2021-09-12T06:26:55Z</time>
      </trkpt>
      <trkpt lat="49.15714" lon="1.59956">
        <ele>111.6</ele>
        <time>2021-09-12T06:26:57Z</time>
      </trkpt>
      <trkpt lat="49.15713" lon="1.59962">
        <ele>111.4</ele>
        <time>2021-09-12T06:26:58Z</time>
      </trkpt>
      <trkpt lat="49.15709" lon="1.59971">
        <ele>111</ele>
        <time>2021-09-12T06:27:00Z</time>
      </trkpt>
      <trkpt lat="49.15704" lon="1.59977">
        <ele>110.6</ele>
        <time>2021-09-12T06:27:02Z</time>
      </trkpt>
      <trkpt lat="49.15697" lon="1.59978">
        <ele>110.4</ele>
        <time>2021-09-12T06:27:04Z</time>
      </trkpt>
      <trkpt lat="49.15683" lon="1.59979">
        <ele>110.2</ele>
        <time>2021-09-12T06:27:08Z</time>
      </trkpt>
      <trkpt lat="49.15664" lon="1.59981">
        <ele>110</ele>
        <time>2021-09-12T06:27:13Z</time>
      </trkpt>
      <trkpt lat="49.15645" lon="1.59983">
        <ele>109.8</ele>
        <time>2021-09-12T06:27:18Z</time>
      </trkpt>
      <trkpt lat="49.15618" lon="1.59989">
        <ele>109.2</ele>
        <time>2021-09-12T06:27:25Z</time>
      </trkpt>
      <trkpt lat="49.15607" lon="1.59992">
        <ele>109</ele>
        <time>2021-09-12T06:27:28Z</time>
      </trkpt>
      <trkpt lat="49.15583" lon="1.60001">
        <ele>108.8</ele>
        <time>2021-09-12T06:27:34Z</time>
      </trkpt>
      <trkpt lat="49.15546" lon="1.60024">
        <ele>108.4</ele>
        <time>2021-09-12T06:27:44Z</time>
      </trkpt>
      <trkpt lat="49.1552" lon="1.60042">
        <ele>108.4</ele>
        <time>2021-09-12T06:27:52Z</time>
      </trkpt>
      <trkpt lat="49.15516" lon="1.60049">
        <ele>108.2</ele>
        <time>2021-09-12T06:27:55Z</time>
      </trkpt>
      <trkpt lat="49.15517" lon="1.60051">
        <ele>108.2</ele>
        <time>2021-09-12T06:27:56Z</time>
      </trkpt>
      <trkpt lat="49.1552" lon="1.60058">
        <ele>108.2</ele>
        <time>2021-09-12T06:27:59Z</time>
      </trkpt>
      <trkpt lat="49.15525" lon="1.60066">
        <ele>108.2</ele>
        <time>2021-09-12T06:28:02Z</time>
      </trkpt>
      <trkpt lat="49.15534" lon="1.60086">
        <ele>108.2</ele>
        <time>2021-09-12T06:28:08Z</time>
      </trkpt>
      <trkpt lat="49.15539" lon="1.60097">
        <ele>108</ele>
        <time>2021-09-12T06:28:11Z</time>
      </trkpt>
      <trkpt lat="49.15546" lon="1.60109">
        <ele>107.8</ele>
        <time>2021-09-12T06:28:15Z</time>
      </trkpt>
      <trkpt lat="49.15557" lon="1.60134">
        <ele>107</ele>
        <time>2021-09-12T06:28:21Z</time>
      </trkpt>
      <trkpt lat="49.15559" lon="1.60139">
        <ele>106.8</ele>
        <time>2021-09-12T06:28:22Z</time>
      </trkpt>
      <trkpt lat="49.15567" lon="1.60155">
        <ele>106.6</ele>
        <time>2021-09-12T06:28:26Z</time>
      </trkpt>
      <trkpt lat="49.15584" lon="1.60191">
        <ele>106.2</ele>
        <time>2021-09-12T06:28:34Z</time>
      </trkpt>
      <trkpt lat="49.15597" lon="1.60219">
        <ele>105.8</ele>
        <time>2021-09-12T06:28:40Z</time>
      </trkpt>
      <trkpt lat="49.15599" lon="1.60223">
        <ele>105.8</ele>
        <time>2021-09-12T06:28:41Z</time>
      </trkpt>
      <trkpt lat="49.1561" lon="1.60251">
        <ele>105.6</ele>
        <time>2021-09-12T06:28:48Z</time>
      </trkpt>
      <trkpt lat="49.15612" lon="1.60255">
        <ele>105.6</ele>
        <time>2021-09-12T06:28:51Z</time>
      </trkpt>
      <trkpt lat="49.15612" lon="1.60258">
        <ele>104.6</ele>
        <time>2021-09-12T06:30:15Z</time>
      </trkpt>
      <trkpt lat="49.15616" lon="1.60277">
        <ele>104.6</ele>
        <time>2021-09-12T06:30:21Z</time>
      </trkpt>
      <trkpt lat="49.15615" lon="1.60286">
        <ele>104.8</ele>
        <time>2021-09-12T06:30:23Z</time>
      </trkpt>
      <trkpt lat="49.1561" lon="1.60292">
        <ele>104.8</ele>
        <time>2021-09-12T06:30:25Z</time>
      </trkpt>
      <trkpt lat="49.15601" lon="1.60302">
        <ele>104.6</ele>
        <time>2021-09-12T06:30:28Z</time>
      </trkpt>
      <trkpt lat="49.15592" lon="1.60311">
        <ele>104.4</ele>
        <time>2021-09-12T06:30:30Z</time>
      </trkpt>
      <trkpt lat="49.15565" lon="1.60341">
        <ele>103.8</ele>
        <time>2021-09-12T06:30:36Z</time>
      </trkpt>
      <trkpt lat="49.15562" lon="1.60347">
        <ele>103.6</ele>
        <time>2021-09-12T06:30:37Z</time>
      </trkpt>
      <trkpt lat="49.15555" lon="1.60366">
        <ele>102.4</ele>
        <time>2021-09-12T06:30:40Z</time>
      </trkpt>
      <trkpt lat="49.15552" lon="1.60378">
        <ele>102</ele>
        <time>2021-09-12T06:30:42Z</time>
      </trkpt>
      <trkpt lat="49.15547" lon="1.60397">
        <ele>101.4</ele>
        <time>2021-09-12T06:30:45Z</time>
      </trkpt>
      <trkpt lat="49.15542" lon="1.60416">
        <ele>100.8</ele>
        <time>2021-09-12T06:30:48Z</time>
      </trkpt>
      <trkpt lat="49.15541" lon="1.60424">
        <ele>100.6</ele>
        <time>2021-09-12T06:30:49Z</time>
      </trkpt>
      <trkpt lat="49.15541" lon="1.60438">
        <ele>100.4</ele>
        <time>2021-09-12T06:30:51Z</time>
      </trkpt>
      <trkpt lat="49.15543" lon="1.60457">
        <ele>99.8</ele>
        <time>2021-09-12T06:30:54Z</time>
      </trkpt>
      <trkpt lat="49.15545" lon="1.60471">
        <ele>99.2</ele>
        <time>2021-09-12T06:30:57Z</time>
      </trkpt>
      <trkpt lat="49.15546" lon="1.60476">
        <ele>98.6</ele>
        <time>2021-09-12T06:30:59Z</time>
      </trkpt>
      <trkpt lat="49.15547" lon="1.6048">
        <ele>98</ele>
        <time>2021-09-12T06:31:01Z</time>
      </trkpt>
      <trkpt lat="49.15548" lon="1.60493">
        <ele>97</ele>
        <time>2021-09-12T06:31:06Z</time>
      </trkpt>
      <trkpt lat="49.15548" lon="1.60497">
        <ele>97</ele>
        <time>2021-09-12T06:31:08Z</time>
      </trkpt>
      <trkpt lat="49.15548" lon="1.60506">
        <ele>96.8</ele>
        <time>2021-09-12T06:31:11Z</time>
      </trkpt>
      <trkpt lat="49.15552" lon="1.60522">
        <ele>96.4</ele>
        <time>2021-09-12T06:31:15Z</time>
      </trkpt>
      <trkpt lat="49.15553" lon="1.60527">
        <ele>96.2</ele>
        <time>2021-09-12T06:31:16Z</time>
      </trkpt>
      <trkpt lat="49.15556" lon="1.60559">
        <ele>96</ele>
        <time>2021-09-12T06:31:22Z</time>
      </trkpt>
      <trkpt lat="49.15556" lon="1.60565">
        <ele>96</ele>
        <time>2021-09-12T06:31:23Z</time>
      </trkpt>
      <trkpt lat="49.15553" lon="1.60589">
        <ele>95.2</ele>
        <time>2021-09-12T06:31:27Z</time>
      </trkpt>
      <trkpt lat="49.15552" lon="1.60603">
        <ele>95</ele>
        <time>2021-09-12T06:31:29Z</time>
      </trkpt>
      <trkpt lat="49.15549" lon="1.60637">
        <ele>94.2</ele>
        <time>2021-09-12T06:31:33Z</time>
      </trkpt>
      <trkpt lat="49.15547" lon="1.60654">
        <ele>93.8</ele>
        <time>2021-09-12T06:31:35Z</time>
      </trkpt>
      <trkpt lat="49.15544" lon="1.60682">
        <ele>92.4</ele>
        <time>2021-09-12T06:31:39Z</time>
      </trkpt>
      <trkpt lat="49.15538" lon="1.6069">
        <ele>91.6</ele>
        <time>2021-09-12T06:31:41Z</time>
      </trkpt>
      <trkpt lat="49.15534" lon="1.60691">
        <ele>91</ele>
        <time>2021-09-12T06:31:42Z</time>
      </trkpt>
      <trkpt lat="49.15529" lon="1.60689">
        <ele>90.6</ele>
        <time>2021-09-12T06:31:43Z</time>
      </trkpt>
      <trkpt lat="49.15525" lon="1.60688">
        <ele>90.2</ele>
        <time>2021-09-12T06:31:44Z</time>
      </trkpt>
      <trkpt lat="49.15507" lon="1.60685">
        <ele>89</ele>
        <time>2021-09-12T06:31:48Z</time>
      </trkpt>
      <trkpt lat="49.15503" lon="1.60684">
        <ele>88.6</ele>
        <time>2021-09-12T06:31:49Z</time>
      </trkpt>
      <trkpt lat="49.15498" lon="1.60684">
        <ele>88.2</ele>
        <time>2021-09-12T06:31:50Z</time>
      </trkpt>
      <trkpt lat="49.1549" lon="1.60687">
        <ele>87.4</ele>
        <time>2021-09-12T06:31:52Z</time>
      </trkpt>
      <trkpt lat="49.15486" lon="1.6069">
        <ele>87.2</ele>
        <time>2021-09-12T06:31:53Z</time>
      </trkpt>
      <trkpt lat="49.15482" lon="1.60692">
        <ele>86.8</ele>
        <time>2021-09-12T06:31:54Z</time>
      </trkpt>
      <trkpt lat="49.15477" lon="1.60696">
        <ele>86.4</ele>
        <time>2021-09-12T06:31:55Z</time>
      </trkpt>
      <trkpt lat="49.15465" lon="1.60705">
        <ele>85.4</ele>
        <time>2021-09-12T06:31:58Z</time>
      </trkpt>
      <trkpt lat="49.15461" lon="1.60708">
        <ele>85</ele>
        <time>2021-09-12T06:31:59Z</time>
      </trkpt>
      <trkpt lat="49.15457" lon="1.60711">
        <ele>84.4</ele>
        <time>2021-09-12T06:32:00Z</time>
      </trkpt>
      <trkpt lat="49.15445" lon="1.60721">
        <ele>83</ele>
        <time>2021-09-12T06:32:03Z</time>
      </trkpt>
      <trkpt lat="49.15436" lon="1.6073">
        <ele>81.6</ele>
        <time>2021-09-12T06:32:06Z</time>
      </trkpt>
      <trkpt lat="49.15428" lon="1.60737">
        <ele>80.4</ele>
        <time>2021-09-12T06:32:09Z</time>
      </trkpt>
      <trkpt lat="49.15419" lon="1.60743">
        <ele>79.2</ele>
        <time>2021-09-12T06:32:12Z</time>
      </trkpt>
      <trkpt lat="49.15403" lon="1.60753">
        <ele>78.2</ele>
        <time>2021-09-12T06:32:16Z</time>
      </trkpt>
      <trkpt lat="49.15398" lon="1.60755">
        <ele>78</ele>
        <time>2021-09-12T06:32:17Z</time>
      </trkpt>
      <trkpt lat="49.15395" lon="1.60758">
        <ele>77.8</ele>
        <time>2021-09-12T06:32:18Z</time>
      </trkpt>
      <trkpt lat="49.15388" lon="1.60764">
        <ele>77.6</ele>
        <time>2021-09-12T06:32:20Z</time>
      </trkpt>
      <trkpt lat="49.15387" lon="1.60769">
        <ele>77.4</ele>
        <time>2021-09-12T06:32:21Z</time>
      </trkpt>
      <trkpt lat="49.15387" lon="1.60774">
        <ele>77</ele>
        <time>2021-09-12T06:32:22Z</time>
      </trkpt>
      <trkpt lat="49.1539" lon="1.60784">
        <ele>76.6</ele>
        <time>2021-09-12T06:32:24Z</time>
      </trkpt>
      <trkpt lat="49.15392" lon="1.60789">
        <ele>76.4</ele>
        <time>2021-09-12T06:32:25Z</time>
      </trkpt>
      <trkpt lat="49.15403" lon="1.60816">
        <ele>76.2</ele>
        <time>2021-09-12T06:32:31Z</time>
      </trkpt>
      <trkpt lat="49.1542" lon="1.60848">
        <ele>76.6</ele>
        <time>2021-09-12T06:32:39Z</time>
      </trkpt>
      <trkpt lat="49.15436" lon="1.6088">
        <ele>76.8</ele>
        <time>2021-09-12T06:32:47Z</time>
      </trkpt>
      <trkpt lat="49.15447" lon="1.60896">
        <ele>77.2</ele>
        <time>2021-09-12T06:32:53Z</time>
      </trkpt>
      <trkpt lat="49.15448" lon="1.609">
        <ele>77.2</ele>
        <time>2021-09-12T06:32:55Z</time>
      </trkpt>
      <trkpt lat="49.15446" lon="1.60902">
        <ele>77.4</ele>
        <time>2021-09-12T06:32:57Z</time>
      </trkpt>
      <trkpt lat="49.1544" lon="1.60899">
        <ele>77.6</ele>
        <time>2021-09-12T06:33:00Z</time>
      </trkpt>
      <trkpt lat="49.15438" lon="1.60897">
        <ele>78</ele>
        <time>2021-09-12T06:33:01Z</time>
      </trkpt>
      <trkpt lat="49.15434" lon="1.60892">
        <ele>78.2</ele>
        <time>2021-09-12T06:33:03Z</time>
      </trkpt>
      <trkpt lat="49.15426" lon="1.60881">
        <ele>78.6</ele>
        <time>2021-09-12T06:33:07Z</time>
      </trkpt>
      <trkpt lat="49.15422" lon="1.60876">
        <ele>78.8</ele>
        <time>2021-09-12T06:33:09Z</time>
      </trkpt>
      <trkpt lat="49.1542" lon="1.60873">
        <ele>79</ele>
        <time>2021-09-12T06:33:10Z</time>
      </trkpt>
      <trkpt lat="49.15411" lon="1.60858">
        <ele>79.6</ele>
        <time>2021-09-12T06:33:16Z</time>
      </trkpt>
      <trkpt lat="49.15406" lon="1.60844">
        <ele>79.8</ele>
        <time>2021-09-12T06:33:22Z</time>
      </trkpt>
      <trkpt lat="49.15401" lon="1.60837">
        <ele>80.2</ele>
        <time>2021-09-12T06:33:25Z</time>
      </trkpt>
      <trkpt lat="49.15397" lon="1.60832">
        <ele>80.4</ele>
        <time>2021-09-12T06:33:28Z</time>
      </trkpt>
      <trkpt lat="49.15388" lon="1.60815">
        <ele>80.8</ele>
        <time>2021-09-12T06:33:35Z</time>
      </trkpt>
      <trkpt lat="49.15386" lon="1.60812">
        <ele>81</ele>
        <time>2021-09-12T06:33:36Z</time>
      </trkpt>
      <trkpt lat="49.15381" lon="1.60798">
        <ele>81.6</ele>
        <time>2021-09-12T06:33:41Z</time>
      </trkpt>
      <trkpt lat="49.15376" lon="1.60787">
        <ele>82</ele>
        <time>2021-09-12T06:33:45Z</time>
      </trkpt>
      <trkpt lat="49.15374" lon="1.60781">
        <ele>82.2</ele>
        <time>2021-09-12T06:33:47Z</time>
      </trkpt>
      <trkpt lat="49.15363" lon="1.60764">
        <ele>83</ele>
        <time>2021-09-12T06:33:53Z</time>
      </trkpt>
      <trkpt lat="49.15361" lon="1.60761">
        <ele>83.2</ele>
        <time>2021-09-12T06:33:54Z</time>
      </trkpt>
      <trkpt lat="49.15354" lon="1.60754">
        <ele>83.8</ele>
        <time>2021-09-12T06:33:58Z</time>
      </trkpt>
      <trkpt lat="49.15347" lon="1.60748">
        <ele>84.4</ele>
        <time>2021-09-12T06:34:01Z</time>
      </trkpt>
      <trkpt lat="49.15343" lon="1.60745">
        <ele>84.6</ele>
        <time>2021-09-12T06:34:03Z</time>
      </trkpt>
      <trkpt lat="49.15341" lon="1.60744">
        <ele>84.8</ele>
        <time>2021-09-12T06:34:04Z</time>
      </trkpt>
      <trkpt lat="49.15335" lon="1.60741">
        <ele>85.6</ele>
        <time>2021-09-12T06:34:07Z</time>
      </trkpt>
      <trkpt lat="49.1533" lon="1.60737">
        <ele>86</ele>
        <time>2021-09-12T06:34:10Z</time>
      </trkpt>
      <trkpt lat="49.15328" lon="1.60736">
        <ele>86.2</ele>
        <time>2021-09-12T06:34:11Z</time>
      </trkpt>
      <trkpt lat="49.15325" lon="1.60733">
        <ele>86.6</ele>
        <time>2021-09-12T06:34:13Z</time>
      </trkpt>
      <trkpt lat="49.15318" lon="1.60728">
        <ele>87.8</ele>
        <time>2021-09-12T06:34:17Z</time>
      </trkpt>
      <trkpt lat="49.15316" lon="1.60727">
        <ele>88</ele>
        <time>2021-09-12T06:34:18Z</time>
      </trkpt>
      <trkpt lat="49.15308" lon="1.60721">
        <ele>88.8</ele>
        <time>2021-09-12T06:34:22Z</time>
      </trkpt>
      <trkpt lat="49.15305" lon="1.6072">
        <ele>89.4</ele>
        <time>2021-09-12T06:34:24Z</time>
      </trkpt>
      <trkpt lat="49.15299" lon="1.60717">
        <ele>89.8</ele>
        <time>2021-09-12T06:34:27Z</time>
      </trkpt>
      <trkpt lat="49.15293" lon="1.60714">
        <ele>90.2</ele>
        <time>2021-09-12T06:34:30Z</time>
      </trkpt>
      <trkpt lat="49.15281" lon="1.6071">
        <ele>90.8</ele>
        <time>2021-09-12T06:34:36Z</time>
      </trkpt>
      <trkpt lat="49.15276" lon="1.60709">
        <ele>91</ele>
        <time>2021-09-12T06:34:38Z</time>
      </trkpt>
      <trkpt lat="49.15269" lon="1.60707">
        <ele>91.4</ele>
        <time>2021-09-12T06:34:41Z</time>
      </trkpt>
      <trkpt lat="49.15265" lon="1.60706">
        <ele>91.8</ele>
        <time>2021-09-12T06:34:43Z</time>
      </trkpt>
      <trkpt lat="49.15256" lon="1.60706">
        <ele>92.4</ele>
        <time>2021-09-12T06:34:47Z</time>
      </trkpt>
      <trkpt lat="49.1525" lon="1.60709">
        <ele>92.8</ele>
        <time>2021-09-12T06:34:50Z</time>
      </trkpt>
      <trkpt lat="49.15245" lon="1.6071">
        <ele>93.6</ele>
        <time>2021-09-12T06:34:52Z</time>
      </trkpt>
      <trkpt lat="49.15244" lon="1.60712">
        <ele>94</ele>
        <time>2021-09-12T06:34:53Z</time>
      </trkpt>
      <trkpt lat="49.15241" lon="1.60714">
        <ele>94.2</ele>
        <time>2021-09-12T06:34:55Z</time>
      </trkpt>
      <trkpt lat="49.15237" lon="1.60716">
        <ele>94.8</ele>
        <time>2021-09-12T06:34:57Z</time>
      </trkpt>
      <trkpt lat="49.1523" lon="1.60719">
        <ele>95.8</ele>
        <time>2021-09-12T06:35:01Z</time>
      </trkpt>
      <trkpt lat="49.15229" lon="1.60721">
        <ele>96</ele>
        <time>2021-09-12T06:35:02Z</time>
      </trkpt>
      <trkpt lat="49.15225" lon="1.60724">
        <ele>97</ele>
        <time>2021-09-12T06:35:05Z</time>
      </trkpt>
      <trkpt lat="49.1522" lon="1.60729">
        <ele>97.8</ele>
        <time>2021-09-12T06:35:08Z</time>
      </trkpt>
      <trkpt lat="49.15219" lon="1.6073">
        <ele>98</ele>
        <time>2021-09-12T06:35:09Z</time>
      </trkpt>
      <trkpt lat="49.15216" lon="1.60732">
        <ele>98.6</ele>
        <time>2021-09-12T06:35:11Z</time>
      </trkpt>
      <trkpt lat="49.15213" lon="1.60734">
        <ele>99.2</ele>
        <time>2021-09-12T06:35:13Z</time>
      </trkpt>
      <trkpt lat="49.15211" lon="1.60735">
        <ele>99.4</ele>
        <time>2021-09-12T06:35:14Z</time>
      </trkpt>
      <trkpt lat="49.15206" lon="1.60739">
        <ele>100</ele>
        <time>2021-09-12T06:35:17Z</time>
      </trkpt>
      <trkpt lat="49.15202" lon="1.60742">
        <ele>100.4</ele>
        <time>2021-09-12T06:35:19Z</time>
      </trkpt>
      <trkpt lat="49.15198" lon="1.60746">
        <ele>100.8</ele>
        <time>2021-09-12T06:35:21Z</time>
      </trkpt>
      <trkpt lat="49.15191" lon="1.60754">
        <ele>101.6</ele>
        <time>2021-09-12T06:35:25Z</time>
      </trkpt>
      <trkpt lat="49.15187" lon="1.60759">
        <ele>102</ele>
        <time>2021-09-12T06:35:27Z</time>
      </trkpt>
      <trkpt lat="49.1518" lon="1.60768">
        <ele>102.6</ele>
        <time>2021-09-12T06:35:31Z</time>
      </trkpt>
      <trkpt lat="49.15177" lon="1.60772">
        <ele>103</ele>
        <time>2021-09-12T06:35:33Z</time>
      </trkpt>
      <trkpt lat="49.15169" lon="1.60784">
        <ele>103.6</ele>
        <time>2021-09-12T06:35:38Z</time>
      </trkpt>
      <trkpt lat="49.15167" lon="1.60787">
        <ele>103.8</ele>
        <time>2021-09-12T06:35:39Z</time>
      </trkpt>
      <trkpt lat="49.15165" lon="1.60792">
        <ele>104.2</ele>
        <time>2021-09-12T06:35:41Z</time>
      </trkpt>
      <trkpt lat="49.15166" lon="1.608">
        <ele>104.6</ele>
        <time>2021-09-12T06:35:44Z</time>
      </trkpt>
      <trkpt lat="49.15167" lon="1.60806">
        <ele>104.6</ele>
        <time>2021-09-12T06:35:46Z</time>
      </trkpt>
      <trkpt lat="49.15167" lon="1.60808">
        <ele>104.6</ele>
        <time>2021-09-12T06:35:47Z</time>
      </trkpt>
      <trkpt lat="49.15171" lon="1.60819">
        <ele>105</ele>
        <time>2021-09-12T06:35:51Z</time>
      </trkpt>
      <trkpt lat="49.15178" lon="1.60834">
        <ele>105.4</ele>
        <time>2021-09-12T06:35:57Z</time>
      </trkpt>
      <trkpt lat="49.1518" lon="1.6084">
        <ele>105.4</ele>
        <time>2021-09-12T06:36:00Z</time>
      </trkpt>
      <trkpt lat="49.15183" lon="1.60844">
        <ele>105.4</ele>
        <time>2021-09-12T06:36:02Z</time>
      </trkpt>
      <trkpt lat="49.15184" lon="1.60847">
        <ele>105.6</ele>
        <time>2021-09-12T06:36:03Z</time>
      </trkpt>
      <trkpt lat="49.15185" lon="1.60849">
        <ele>105.6</ele>
        <time>2021-09-12T06:36:04Z</time>
      </trkpt>
      <trkpt lat="49.15198" lon="1.60863">
        <ele>105.6</ele>
        <time>2021-09-12T06:36:10Z</time>
      </trkpt>
      <trkpt lat="49.15201" lon="1.60869">
        <ele>105.8</ele>
        <time>2021-09-12T06:36:12Z</time>
      </trkpt>
      <trkpt lat="49.15203" lon="1.60882">
        <ele>105.8</ele>
        <time>2021-09-12T06:36:15Z</time>
      </trkpt>
      <trkpt lat="49.15207" lon="1.60902">
        <ele>105.6</ele>
        <time>2021-09-12T06:36:20Z</time>
      </trkpt>
      <trkpt lat="49.15208" lon="1.60923">
        <ele>105.6</ele>
        <time>2021-09-12T06:36:26Z</time>
      </trkpt>
      <trkpt lat="49.15201" lon="1.60934">
        <ele>105.6</ele>
        <time>2021-09-12T06:36:31Z</time>
      </trkpt>
      <trkpt lat="49.15193" lon="1.6095">
        <ele>105.8</ele>
        <time>2021-09-12T06:36:37Z</time>
      </trkpt>
      <trkpt lat="49.15186" lon="1.60962">
        <ele>106.2</ele>
        <time>2021-09-12T06:36:42Z</time>
      </trkpt>
      <trkpt lat="49.15183" lon="1.60966">
        <ele>106.2</ele>
        <time>2021-09-12T06:36:44Z</time>
      </trkpt>
      <trkpt lat="49.15176" lon="1.60976">
        <ele>106.6</ele>
        <time>2021-09-12T06:36:48Z</time>
      </trkpt>
      <trkpt lat="49.15173" lon="1.60981">
        <ele>106.8</ele>
        <time>2021-09-12T06:36:50Z</time>
      </trkpt>
      <trkpt lat="49.1517" lon="1.60985">
        <ele>106.8</ele>
        <time>2021-09-12T06:36:52Z</time>
      </trkpt>
      <trkpt lat="49.15163" lon="1.60994">
        <ele>107</ele>
        <time>2021-09-12T06:36:56Z</time>
      </trkpt>
      <trkpt lat="49.15157" lon="1.61002">
        <ele>107.2</ele>
        <time>2021-09-12T06:36:59Z</time>
      </trkpt>
      <trkpt lat="49.15148" lon="1.61014">
        <ele>107.2</ele>
        <time>2021-09-12T06:37:04Z</time>
      </trkpt>
      <trkpt lat="49.15146" lon="1.61015">
        <ele>107.4</ele>
        <time>2021-09-12T06:37:05Z</time>
      </trkpt>
      <trkpt lat="49.15136" lon="1.61025">
        <ele>107.6</ele>
        <time>2021-09-12T06:37:10Z</time>
      </trkpt>
      <trkpt lat="49.15123" lon="1.61038">
        <ele>107.8</ele>
        <time>2021-09-12T06:37:15Z</time>
      </trkpt>
      <trkpt lat="49.15115" lon="1.61042">
        <ele>108</ele>
        <time>2021-09-12T06:37:18Z</time>
      </trkpt>
      <trkpt lat="49.15113" lon="1.61041">
        <ele>108</ele>
        <time>2021-09-12T06:37:19Z</time>
      </trkpt>
      <trkpt lat="49.15102" lon="1.61036">
        <ele>108</ele>
        <time>2021-09-12T06:37:24Z</time>
      </trkpt>
      <trkpt lat="49.15097" lon="1.61034">
        <ele>108</ele>
        <time>2021-09-12T06:37:26Z</time>
      </trkpt>
      <trkpt lat="49.15086" lon="1.6103">
        <ele>108</ele>
        <time>2021-09-12T06:37:29Z</time>
      </trkpt>
      <trkpt lat="49.15083" lon="1.61029">
        <ele>108</ele>
        <time>2021-09-12T06:37:30Z</time>
      </trkpt>
      <trkpt lat="49.15071" lon="1.6102">
        <ele>108</ele>
        <time>2021-09-12T06:37:35Z</time>
      </trkpt>
      <trkpt lat="49.15058" lon="1.61005">
        <ele>108.4</ele>
        <time>2021-09-12T06:37:40Z</time>
      </trkpt>
      <trkpt lat="49.15046" lon="1.61006">
        <ele>109</ele>
        <time>2021-09-12T06:37:44Z</time>
      </trkpt>
      <trkpt lat="49.15042" lon="1.61007">
        <ele>109.2</ele>
        <time>2021-09-12T06:37:45Z</time>
      </trkpt>
      <trkpt lat="49.15033" lon="1.61011">
        <ele>109.4</ele>
        <time>2021-09-12T06:37:48Z</time>
      </trkpt>
      <trkpt lat="49.15018" lon="1.61029">
        <ele>109.4</ele>
        <time>2021-09-12T06:37:54Z</time>
      </trkpt>
      <trkpt lat="49.15008" lon="1.61043">
        <ele>109.4</ele>
        <time>2021-09-12T06:37:59Z</time>
      </trkpt>
      <trkpt lat="49.14996" lon="1.61058">
        <ele>109.6</ele>
        <time>2021-09-12T06:38:04Z</time>
      </trkpt>
      <trkpt lat="49.14986" lon="1.61073">
        <ele>109.8</ele>
        <time>2021-09-12T06:38:09Z</time>
      </trkpt>
      <trkpt lat="49.14973" lon="1.61097">
        <ele>109.8</ele>
        <time>2021-09-12T06:38:16Z</time>
      </trkpt>
      <trkpt lat="49.14968" lon="1.61108">
        <ele>109.8</ele>
        <time>2021-09-12T06:38:19Z</time>
      </trkpt>
      <trkpt lat="49.14965" lon="1.61116">
        <ele>110</ele>
        <time>2021-09-12T06:38:21Z</time>
      </trkpt>
      <trkpt lat="49.14964" lon="1.61119">
        <ele>110</ele>
        <time>2021-09-12T06:38:22Z</time>
      </trkpt>
      <trkpt lat="49.14962" lon="1.61124">
        <ele>109.8</ele>
        <time>2021-09-12T06:38:25Z</time>
      </trkpt>
      <trkpt lat="49.14962" lon="1.61128">
        <ele>109.4</ele>
        <time>2021-09-12T06:38:44Z</time>
      </trkpt>
      <trkpt lat="49.14965" lon="1.61134">
        <ele>109.4</ele>
        <time>2021-09-12T06:38:47Z</time>
      </trkpt>
      <trkpt lat="49.14971" lon="1.61149">
        <ele>109.4</ele>
        <time>2021-09-12T06:38:51Z</time>
      </trkpt>
      <trkpt lat="49.14986" lon="1.61184">
        <ele>109.2</ele>
        <time>2021-09-12T06:38:58Z</time>
      </trkpt>
      <trkpt lat="49.14991" lon="1.61196">
        <ele>108.8</ele>
        <time>2021-09-12T06:39:00Z</time>
      </trkpt>
      <trkpt lat="49.15009" lon="1.61239">
        <ele>108.2</ele>
        <time>2021-09-12T06:39:07Z</time>
      </trkpt>
      <trkpt lat="49.15019" lon="1.61262">
        <ele>107.8</ele>
        <time>2021-09-12T06:39:11Z</time>
      </trkpt>
      <trkpt lat="49.15034" lon="1.61298">
        <ele>107.2</ele>
        <time>2021-09-12T06:39:17Z</time>
      </trkpt>
      <trkpt lat="49.15045" lon="1.61323">
        <ele>106.6</ele>
        <time>2021-09-12T06:39:21Z</time>
      </trkpt>
      <trkpt lat="49.15055" lon="1.61348">
        <ele>106.2</ele>
        <time>2021-09-12T06:39:25Z</time>
      </trkpt>
      <trkpt lat="49.15068" lon="1.61379">
        <ele>105.6</ele>
        <time>2021-09-12T06:39:30Z</time>
      </trkpt>
      <trkpt lat="49.15081" lon="1.61408">
        <ele>105.2</ele>
        <time>2021-09-12T06:39:35Z</time>
      </trkpt>
      <trkpt lat="49.15094" lon="1.61443">
        <ele>104.6</ele>
        <time>2021-09-12T06:39:42Z</time>
      </trkpt>
      <trkpt lat="49.15094" lon="1.61447">
        <ele>104.6</ele>
        <time>2021-09-12T06:39:43Z</time>
      </trkpt>
      <trkpt lat="49.15091" lon="1.61455">
        <ele>104.4</ele>
        <time>2021-09-12T06:39:45Z</time>
      </trkpt>
      <trkpt lat="49.15084" lon="1.61458">
        <ele>104.4</ele>
        <time>2021-09-12T06:39:47Z</time>
      </trkpt>
      <trkpt lat="49.15073" lon="1.61466">
        <ele>104.2</ele>
        <time>2021-09-12T06:39:50Z</time>
      </trkpt>
      <trkpt lat="49.15043" lon="1.61488">
        <ele>104.4</ele>
        <time>2021-09-12T06:39:57Z</time>
      </trkpt>
      <trkpt lat="49.15014" lon="1.61518">
        <ele>105.2</ele>
        <time>2021-09-12T06:40:05Z</time>
      </trkpt>
      <trkpt lat="49.15002" lon="1.61538">
        <ele>105.6</ele>
        <time>2021-09-12T06:40:09Z</time>
      </trkpt>
      <trkpt lat="49.14995" lon="1.61554">
        <ele>106</ele>
        <time>2021-09-12T06:40:12Z</time>
      </trkpt>
      <trkpt lat="49.14983" lon="1.6159">
        <ele>106.8</ele>
        <time>2021-09-12T06:40:19Z</time>
      </trkpt>
      <trkpt lat="49.14981" lon="1.61595">
        <ele>106.8</ele>
        <time>2021-09-12T06:40:20Z</time>
      </trkpt>
      <trkpt lat="49.14967" lon="1.61639">
        <ele>107.8</ele>
        <time>2021-09-12T06:40:28Z</time>
      </trkpt>
      <trkpt lat="49.14964" lon="1.6165">
        <ele>108</ele>
        <time>2021-09-12T06:40:30Z</time>
      </trkpt>
      <trkpt lat="49.14953" lon="1.61682">
        <ele>108.8</ele>
        <time>2021-09-12T06:40:36Z</time>
      </trkpt>
      <trkpt lat="49.14944" lon="1.61701">
        <ele>109.2</ele>
        <time>2021-09-12T06:40:40Z</time>
      </trkpt>
      <trkpt lat="49.14931" lon="1.61724">
        <ele>109.8</ele>
        <time>2021-09-12T06:40:45Z</time>
      </trkpt>
      <trkpt lat="49.14919" lon="1.6174">
        <ele>110.6</ele>
        <time>2021-09-12T06:40:49Z</time>
      </trkpt>
      <trkpt lat="49.1491" lon="1.61751">
        <ele>111</ele>
        <time>2021-09-12T06:40:52Z</time>
      </trkpt>
      <trkpt lat="49.14897" lon="1.61765">
        <ele>111.4</ele>
        <time>2021-09-12T06:40:56Z</time>
      </trkpt>
      <trkpt lat="49.14875" lon="1.61789">
        <ele>112</ele>
        <time>2021-09-12T06:41:03Z</time>
      </trkpt>
      <trkpt lat="49.14855" lon="1.6181">
        <ele>112.6</ele>
        <time>2021-09-12T06:41:09Z</time>
      </trkpt>
      <trkpt lat="49.14818" lon="1.6185">
        <ele>113</ele>
        <time>2021-09-12T06:41:20Z</time>
      </trkpt>
      <trkpt lat="49.14808" lon="1.61861">
        <ele>113</ele>
        <time>2021-09-12T06:41:23Z</time>
      </trkpt>
      <trkpt lat="49.14778" lon="1.61893">
        <ele>113.6</ele>
        <time>2021-09-12T06:41:32Z</time>
      </trkpt>
      <trkpt lat="49.14757" lon="1.61913">
        <ele>114.2</ele>
        <time>2021-09-12T06:41:38Z</time>
      </trkpt>
      <trkpt lat="49.14751" lon="1.61919">
        <ele>114.6</ele>
        <time>2021-09-12T06:41:40Z</time>
      </trkpt>
      <trkpt lat="49.14723" lon="1.61942">
        <ele>115.2</ele>
        <time>2021-09-12T06:41:48Z</time>
      </trkpt>
      <trkpt lat="49.14716" lon="1.61948">
        <ele>115.4</ele>
        <time>2021-09-12T06:41:50Z</time>
      </trkpt>
      <trkpt lat="49.14697" lon="1.61965">
        <ele>116</ele>
        <time>2021-09-12T06:41:56Z</time>
      </trkpt>
      <trkpt lat="49.14691" lon="1.61971">
        <ele>116.4</ele>
        <time>2021-09-12T06:41:58Z</time>
      </trkpt>
      <trkpt lat="49.14671" lon="1.61988">
        <ele>117.4</ele>
        <time>2021-09-12T06:42:05Z</time>
      </trkpt>
      <trkpt lat="49.14662" lon="1.62002">
        <ele>118.6</ele>
        <time>2021-09-12T06:42:10Z</time>
      </trkpt>
      <trkpt lat="49.14661" lon="1.62006">
        <ele>118.8</ele>
        <time>2021-09-12T06:42:11Z</time>
      </trkpt>
      <trkpt lat="49.14661" lon="1.62018">
        <ele>119.6</ele>
        <time>2021-09-12T06:42:14Z</time>
      </trkpt>
      <trkpt lat="49.14664" lon="1.62037">
        <ele>120.6</ele>
        <time>2021-09-12T06:42:18Z</time>
      </trkpt>
      <trkpt lat="49.14665" lon="1.62059">
        <ele>121.8</ele>
        <time>2021-09-12T06:42:23Z</time>
      </trkpt>
      <trkpt lat="49.14666" lon="1.6208">
        <ele>123</ele>
        <time>2021-09-12T06:42:28Z</time>
      </trkpt>
      <trkpt lat="49.14667" lon="1.62092">
        <ele>124</ele>
        <time>2021-09-12T06:42:31Z</time>
      </trkpt>
      <trkpt lat="49.14669" lon="1.62104">
        <ele>124.6</ele>
        <time>2021-09-12T06:42:34Z</time>
      </trkpt>
      <trkpt lat="49.1467" lon="1.62112">
        <ele>125</ele>
        <time>2021-09-12T06:42:36Z</time>
      </trkpt>
      <trkpt lat="49.14673" lon="1.62126">
        <ele>126</ele>
        <time>2021-09-12T06:42:40Z</time>
      </trkpt>
      <trkpt lat="49.14674" lon="1.62134">
        <ele>126.6</ele>
        <time>2021-09-12T06:42:42Z</time>
      </trkpt>
      <trkpt lat="49.14676" lon="1.62141">
        <ele>127.2</ele>
        <time>2021-09-12T06:42:44Z</time>
      </trkpt>
      <trkpt lat="49.14676" lon="1.62155">
        <ele>128.2</ele>
        <time>2021-09-12T06:42:48Z</time>
      </trkpt>
      <trkpt lat="49.14675" lon="1.62158">
        <ele>128.4</ele>
        <time>2021-09-12T06:42:49Z</time>
      </trkpt>
      <trkpt lat="49.14672" lon="1.62171">
        <ele>129.4</ele>
        <time>2021-09-12T06:42:53Z</time>
      </trkpt>
      <trkpt lat="49.14667" lon="1.62182">
        <ele>130.6</ele>
        <time>2021-09-12T06:42:57Z</time>
      </trkpt>
      <trkpt lat="49.14666" lon="1.62185">
        <ele>131</ele>
        <time>2021-09-12T06:42:58Z</time>
      </trkpt>
      <trkpt lat="49.14661" lon="1.62193">
        <ele>131.8</ele>
        <time>2021-09-12T06:43:01Z</time>
      </trkpt>
      <trkpt lat="49.14655" lon="1.62204">
        <ele>132.8</ele>
        <time>2021-09-12T06:43:05Z</time>
      </trkpt>
      <trkpt lat="49.14653" lon="1.62206">
        <ele>133</ele>
        <time>2021-09-12T06:43:06Z</time>
      </trkpt>
      <trkpt lat="49.14648" lon="1.62214">
        <ele>134</ele>
        <time>2021-09-12T06:43:09Z</time>
      </trkpt>
      <trkpt lat="49.14639" lon="1.62224">
        <ele>135.2</ele>
        <time>2021-09-12T06:43:14Z</time>
      </trkpt>
      <trkpt lat="49.14637" lon="1.62224">
        <ele>135.4</ele>
        <time>2021-09-12T06:43:15Z</time>
      </trkpt>
      <trkpt lat="49.1463" lon="1.62219">
        <ele>136</ele>
        <time>2021-09-12T06:43:18Z</time>
      </trkpt>
      <trkpt lat="49.14628" lon="1.62216">
        <ele>136.4</ele>
        <time>2021-09-12T06:43:19Z</time>
      </trkpt>
      <trkpt lat="49.14615" lon="1.62199">
        <ele>137.4</ele>
        <time>2021-09-12T06:43:24Z</time>
      </trkpt>
      <trkpt lat="49.14609" lon="1.62193">
        <ele>138</ele>
        <time>2021-09-12T06:43:26Z</time>
      </trkpt>
      <trkpt lat="49.14587" lon="1.62173">
        <ele>138</ele>
        <time>2021-09-12T06:43:33Z</time>
      </trkpt>
      <trkpt lat="49.1456" lon="1.62146">
        <ele>138.2</ele>
        <time>2021-09-12T06:43:42Z</time>
      </trkpt>
      <trkpt lat="49.14543" lon="1.62127">
        <ele>138.4</ele>
        <time>2021-09-12T06:43:49Z</time>
      </trkpt>
      <trkpt lat="49.14538" lon="1.62121">
        <ele>138.4</ele>
        <time>2021-09-12T06:43:51Z</time>
      </trkpt>
      <trkpt lat="49.14523" lon="1.62102">
        <ele>138.6</ele>
        <time>2021-09-12T06:43:57Z</time>
      </trkpt>
      <trkpt lat="49.14503" lon="1.62074">
        <ele>138.8</ele>
        <time>2021-09-12T06:44:05Z</time>
      </trkpt>
      <trkpt lat="49.14478" lon="1.62033">
        <ele>138.8</ele>
        <time>2021-09-12T06:44:15Z</time>
      </trkpt>
      <trkpt lat="49.14456" lon="1.6199">
        <ele>139</ele>
        <time>2021-09-12T06:44:24Z</time>
      </trkpt>
      <trkpt lat="49.14443" lon="1.61953">
        <ele>139</ele>
        <time>2021-09-12T06:44:31Z</time>
      </trkpt>
      <trkpt lat="49.14433" lon="1.61914">
        <ele>138.8</ele>
        <time>2021-09-12T06:44:38Z</time>
      </trkpt>
      <trkpt lat="49.14422" lon="1.61872">
        <ele>139</ele>
        <time>2021-09-12T06:44:46Z</time>
      </trkpt>
      <trkpt lat="49.14412" lon="1.61869">
        <ele>138.8</ele>
        <time>2021-09-12T06:44:49Z</time>
      </trkpt>
      <trkpt lat="49.14401" lon="1.61872">
        <ele>138.6</ele>
        <time>2021-09-12T06:44:52Z</time>
      </trkpt>
      <trkpt lat="49.14387" lon="1.61876">
        <ele>138.6</ele>
        <time>2021-09-12T06:44:56Z</time>
      </trkpt>
      <trkpt lat="49.14353" lon="1.61883">
        <ele>138.8</ele>
        <time>2021-09-12T06:45:05Z</time>
      </trkpt>
      <trkpt lat="49.14313" lon="1.61893">
        <ele>138.6</ele>
        <time>2021-09-12T06:45:15Z</time>
      </trkpt>
      <trkpt lat="49.1429" lon="1.61898">
        <ele>138</ele>
        <time>2021-09-12T06:45:21Z</time>
      </trkpt>
      <trkpt lat="49.14275" lon="1.61903">
        <ele>137.8</ele>
        <time>2021-09-12T06:45:24Z</time>
      </trkpt>
      <trkpt lat="49.14263" lon="1.6191">
        <ele>137.8</ele>
        <time>2021-09-12T06:45:26Z</time>
      </trkpt>
      <trkpt lat="49.14251" lon="1.61919">
        <ele>137.4</ele>
        <time>2021-09-12T06:45:28Z</time>
      </trkpt>
      <trkpt lat="49.14228" lon="1.61936">
        <ele>136.4</ele>
        <time>2021-09-12T06:45:32Z</time>
      </trkpt>
      <trkpt lat="49.14222" lon="1.6194">
        <ele>136</ele>
        <time>2021-09-12T06:45:33Z</time>
      </trkpt>
      <trkpt lat="49.1421" lon="1.6195">
        <ele>134.8</ele>
        <time>2021-09-12T06:45:35Z</time>
      </trkpt>
      <trkpt lat="49.14197" lon="1.6196">
        <ele>133.6</ele>
        <time>2021-09-12T06:45:37Z</time>
      </trkpt>
      <trkpt lat="49.14183" lon="1.61971">
        <ele>132.6</ele>
        <time>2021-09-12T06:45:39Z</time>
      </trkpt>
      <trkpt lat="49.14175" lon="1.61977">
        <ele>132</ele>
        <time>2021-09-12T06:45:40Z</time>
      </trkpt>
      <trkpt lat="49.1416" lon="1.61988">
        <ele>131</ele>
        <time>2021-09-12T06:45:42Z</time>
      </trkpt>
      <trkpt lat="49.14144" lon="1.62001">
        <ele>129.4</ele>
        <time>2021-09-12T06:45:44Z</time>
      </trkpt>
      <trkpt lat="49.14127" lon="1.62014">
        <ele>128</ele>
        <time>2021-09-12T06:45:46Z</time>
      </trkpt>
      <trkpt lat="49.14118" lon="1.62021">
        <ele>126.2</ele>
        <time>2021-09-12T06:45:47Z</time>
      </trkpt>
      <trkpt lat="49.14101" lon="1.62034">
        <ele>124.2</ele>
        <time>2021-09-12T06:45:49Z</time>
      </trkpt>
      <trkpt lat="49.14085" lon="1.62047">
        <ele>122.4</ele>
        <time>2021-09-12T06:45:51Z</time>
      </trkpt>
      <trkpt lat="49.14069" lon="1.62059">
        <ele>120.6</ele>
        <time>2021-09-12T06:45:53Z</time>
      </trkpt>
      <trkpt lat="49.14061" lon="1.62066">
        <ele>119.4</ele>
        <time>2021-09-12T06:45:54Z</time>
      </trkpt>
      <trkpt lat="49.14053" lon="1.62072">
        <ele>118.4</ele>
        <time>2021-09-12T06:45:55Z</time>
      </trkpt>
      <trkpt lat="49.14045" lon="1.62078">
        <ele>117.4</ele>
        <time>2021-09-12T06:45:56Z</time>
      </trkpt>
      <trkpt lat="49.1403" lon="1.62089">
        <ele>116</ele>
        <time>2021-09-12T06:45:58Z</time>
      </trkpt>
      <trkpt lat="49.14015" lon="1.62101">
        <ele>114.8</ele>
        <time>2021-09-12T06:46:00Z</time>
      </trkpt>
      <trkpt lat="49.14001" lon="1.62111">
        <ele>113.6</ele>
        <time>2021-09-12T06:46:02Z</time>
      </trkpt>
      <trkpt lat="49.13981" lon="1.62127">
        <ele>112.2</ele>
        <time>2021-09-12T06:46:05Z</time>
      </trkpt>
      <trkpt lat="49.13948" lon="1.62147">
        <ele>111</ele>
        <time>2021-09-12T06:46:10Z</time>
      </trkpt>
      <trkpt lat="49.1391" lon="1.62163">
        <ele>109.8</ele>
        <time>2021-09-12T06:46:16Z</time>
      </trkpt>
      <trkpt lat="49.13898" lon="1.62171">
        <ele>109.8</ele>
        <time>2021-09-12T06:46:18Z</time>
      </trkpt>
      <trkpt lat="49.13861" lon="1.62192">
        <ele>109.6</ele>
        <time>2021-09-12T06:46:25Z</time>
      </trkpt>
      <trkpt lat="49.13809" lon="1.62218">
        <ele>109.4</ele>
        <time>2021-09-12T06:46:35Z</time>
      </trkpt>
      <trkpt lat="49.13764" lon="1.62239">
        <ele>109</ele>
        <time>2021-09-12T06:46:44Z</time>
      </trkpt>
      <trkpt lat="49.1376" lon="1.6224">
        <ele>108.8</ele>
        <time>2021-09-12T06:46:45Z</time>
      </trkpt>
      <trkpt lat="49.13734" lon="1.62251">
        <ele>108.8</ele>
        <time>2021-09-12T06:46:51Z</time>
      </trkpt>
      <trkpt lat="49.13716" lon="1.62259">
        <ele>108.8</ele>
        <time>2021-09-12T06:46:55Z</time>
      </trkpt>
      <trkpt lat="49.13703" lon="1.62265">
        <ele>108.6</ele>
        <time>2021-09-12T06:46:58Z</time>
      </trkpt>
      <trkpt lat="49.13674" lon="1.62274">
        <ele>108.6</ele>
        <time>2021-09-12T06:47:05Z</time>
      </trkpt>
      <trkpt lat="49.1364" lon="1.62281">
        <ele>108.4</ele>
        <time>2021-09-12T06:47:12Z</time>
      </trkpt>
      <trkpt lat="49.13618" lon="1.62287">
        <ele>108.2</ele>
        <time>2021-09-12T06:47:16Z</time>
      </trkpt>
      <trkpt lat="49.13606" lon="1.62288">
        <ele>107.8</ele>
        <time>2021-09-12T06:47:18Z</time>
      </trkpt>
      <trkpt lat="49.13577" lon="1.62291">
        <ele>106.6</ele>
        <time>2021-09-12T06:47:23Z</time>
      </trkpt>
      <trkpt lat="49.13559" lon="1.62294">
        <ele>105.8</ele>
        <time>2021-09-12T06:47:26Z</time>
      </trkpt>
      <trkpt lat="49.13547" lon="1.62296">
        <ele>105.2</ele>
        <time>2021-09-12T06:47:28Z</time>
      </trkpt>
      <trkpt lat="49.13509" lon="1.62302">
        <ele>104.8</ele>
        <time>2021-09-12T06:47:35Z</time>
      </trkpt>
      <trkpt lat="49.13475" lon="1.62306">
        <ele>105.2</ele>
        <time>2021-09-12T06:47:43Z</time>
      </trkpt>
      <trkpt lat="49.13452" lon="1.62308">
        <ele>106.4</ele>
        <time>2021-09-12T06:47:48Z</time>
      </trkpt>
      <trkpt lat="49.13434" lon="1.62311">
        <ele>106.6</ele>
        <time>2021-09-12T06:47:52Z</time>
      </trkpt>
      <trkpt lat="49.13392" lon="1.62318">
        <ele>106.8</ele>
        <time>2021-09-12T06:48:01Z</time>
      </trkpt>
      <trkpt lat="49.13354" lon="1.6232">
        <ele>106.8</ele>
        <time>2021-09-12T06:48:10Z</time>
      </trkpt>
      <trkpt lat="49.13345" lon="1.62316">
        <ele>106.8</ele>
        <time>2021-09-12T06:48:13Z</time>
      </trkpt>
      <trkpt lat="49.13343" lon="1.62312">
        <ele>106.8</ele>
        <time>2021-09-12T06:48:14Z</time>
      </trkpt>
      <trkpt lat="49.13343" lon="1.62298">
        <ele>106.8</ele>
        <time>2021-09-12T06:48:17Z</time>
      </trkpt>
      <trkpt lat="49.13344" lon="1.62292">
        <ele>106.8</ele>
        <time>2021-09-12T06:48:18Z</time>
      </trkpt>
      <trkpt lat="49.13349" lon="1.62258">
        <ele>107.2</ele>
        <time>2021-09-12T06:48:24Z</time>
      </trkpt>
      <trkpt lat="49.13352" lon="1.62236">
        <ele>107.4</ele>
        <time>2021-09-12T06:48:28Z</time>
      </trkpt>
      <trkpt lat="49.13352" lon="1.62214">
        <ele>107.8</ele>
        <time>2021-09-12T06:48:32Z</time>
      </trkpt>
      <trkpt lat="49.13349" lon="1.62189">
        <ele>108.4</ele>
        <time>2021-09-12T06:48:37Z</time>
      </trkpt>
      <trkpt lat="49.13347" lon="1.62178">
        <ele>108.6</ele>
        <time>2021-09-12T06:48:39Z</time>
      </trkpt>
      <trkpt lat="49.13334" lon="1.62134">
        <ele>109.4</ele>
        <time>2021-09-12T06:48:48Z</time>
      </trkpt>
      <trkpt lat="49.13321" lon="1.62088">
        <ele>110</ele>
        <time>2021-09-12T06:48:57Z</time>
      </trkpt>
      <trkpt lat="49.13312" lon="1.6205">
        <ele>110.6</ele>
        <time>2021-09-12T06:49:04Z</time>
      </trkpt>
      <trkpt lat="49.13307" lon="1.62027">
        <ele>111</ele>
        <time>2021-09-12T06:49:08Z</time>
      </trkpt>
      <trkpt lat="49.13297" lon="1.61965">
        <ele>111.6</ele>
        <time>2021-09-12T06:49:19Z</time>
      </trkpt>
      <trkpt lat="49.13295" lon="1.61954">
        <ele>111.8</ele>
        <time>2021-09-12T06:49:21Z</time>
      </trkpt>
      <trkpt lat="49.13287" lon="1.61904">
        <ele>112.6</ele>
        <time>2021-09-12T06:49:30Z</time>
      </trkpt>
      <trkpt lat="49.13285" lon="1.61887">
        <ele>112.8</ele>
        <time>2021-09-12T06:49:33Z</time>
      </trkpt>
      <trkpt lat="49.13277" lon="1.61836">
        <ele>113.8</ele>
        <time>2021-09-12T06:49:42Z</time>
      </trkpt>
      <trkpt lat="49.13269" lon="1.61795">
        <ele>114.6</ele>
        <time>2021-09-12T06:49:50Z</time>
      </trkpt>
      <trkpt lat="49.13264" lon="1.61769">
        <ele>115</ele>
        <time>2021-09-12T06:49:55Z</time>
      </trkpt>
      <trkpt lat="49.13253" lon="1.61713">
        <ele>116</ele>
        <time>2021-09-12T06:50:05Z</time>
      </trkpt>
      <trkpt lat="49.13242" lon="1.61651">
        <ele>116</ele>
        <time>2021-09-12T06:50:16Z</time>
      </trkpt>
      <trkpt lat="49.1324" lon="1.61639">
        <ele>116</ele>
        <time>2021-09-12T06:50:18Z</time>
      </trkpt>
      <trkpt lat="49.13235" lon="1.61615">
        <ele>116</ele>
        <time>2021-09-12T06:50:22Z</time>
      </trkpt>
      <trkpt lat="49.13233" lon="1.61603">
        <ele>116</ele>
        <time>2021-09-12T06:50:24Z</time>
      </trkpt>
      <trkpt lat="49.13226" lon="1.61567">
        <ele>116</ele>
        <time>2021-09-12T06:50:30Z</time>
      </trkpt>
      <trkpt lat="49.13217" lon="1.6151">
        <ele>116</ele>
        <time>2021-09-12T06:50:39Z</time>
      </trkpt>
      <trkpt lat="49.13216" lon="1.61504">
        <ele>116.2</ele>
        <time>2021-09-12T06:50:40Z</time>
      </trkpt>
      <trkpt lat="49.13212" lon="1.6146">
        <ele>116.4</ele>
        <time>2021-09-12T06:50:47Z</time>
      </trkpt>
      <trkpt lat="49.13207" lon="1.61404">
        <ele>116.8</ele>
        <time>2021-09-12T06:50:56Z</time>
      </trkpt>
      <trkpt lat="49.13201" lon="1.61344">
        <ele>117</ele>
        <time>2021-09-12T06:51:06Z</time>
      </trkpt>
      <trkpt lat="49.132" lon="1.61332">
        <ele>117.2</ele>
        <time>2021-09-12T06:51:08Z</time>
      </trkpt>
      <trkpt lat="49.13195" lon="1.61308">
        <ele>117.4</ele>
        <time>2021-09-12T06:51:13Z</time>
      </trkpt>
      <trkpt lat="49.1319" lon="1.61284">
        <ele>117.6</ele>
        <time>2021-09-12T06:51:19Z</time>
      </trkpt>
      <trkpt lat="49.13192" lon="1.61252">
        <ele>117.8</ele>
        <time>2021-09-12T06:51:26Z</time>
      </trkpt>
      <trkpt lat="49.13191" lon="1.61248">
        <ele>118</ele>
        <time>2021-09-12T06:51:27Z</time>
      </trkpt>
      <trkpt lat="49.13187" lon="1.61245">
        <ele>118</ele>
        <time>2021-09-12T06:51:29Z</time>
      </trkpt>
      <trkpt lat="49.13178" lon="1.61246">
        <ele>118</ele>
        <time>2021-09-12T06:51:32Z</time>
      </trkpt>
      <trkpt lat="49.13167" lon="1.61248">
        <ele>118</ele>
        <time>2021-09-12T06:51:35Z</time>
      </trkpt>
      <trkpt lat="49.13141" lon="1.61254">
        <ele>118.2</ele>
        <time>2021-09-12T06:51:42Z</time>
      </trkpt>
      <trkpt lat="49.13098" lon="1.61264">
        <ele>118</ele>
        <time>2021-09-12T06:51:52Z</time>
      </trkpt>
      <trkpt lat="49.13066" lon="1.61271">
        <ele>118</ele>
        <time>2021-09-12T06:51:59Z</time>
      </trkpt>
      <trkpt lat="49.13031" lon="1.61279">
        <ele>118</ele>
        <time>2021-09-12T06:52:07Z</time>
      </trkpt>
      <trkpt lat="49.12997" lon="1.61285">
        <ele>117.8</ele>
        <time>2021-09-12T06:52:16Z</time>
      </trkpt>
      <trkpt lat="49.12952" lon="1.61293">
        <ele>118</ele>
        <time>2021-09-12T06:52:28Z</time>
      </trkpt>
      <trkpt lat="49.12926" lon="1.61299">
        <ele>118</ele>
        <time>2021-09-12T06:52:37Z</time>
      </trkpt>
      <trkpt lat="49.12917" lon="1.61301">
        <ele>118</ele>
        <time>2021-09-12T06:52:41Z</time>
      </trkpt>
      <trkpt lat="49.12913" lon="1.61296">
        <ele>118</ele>
        <time>2021-09-12T06:52:43Z</time>
      </trkpt>
      <trkpt lat="49.12909" lon="1.61282">
        <ele>118.2</ele>
        <time>2021-09-12T06:52:46Z</time>
      </trkpt>
      <trkpt lat="49.12908" lon="1.61277">
        <ele>118.2</ele>
        <time>2021-09-12T06:52:47Z</time>
      </trkpt>
      <trkpt lat="49.12899" lon="1.61249">
        <ele>118.4</ele>
        <time>2021-09-12T06:52:52Z</time>
      </trkpt>
      <trkpt lat="49.12896" lon="1.61238">
        <ele>118.4</ele>
        <time>2021-09-12T06:52:54Z</time>
      </trkpt>
      <trkpt lat="49.12885" lon="1.61193">
        <ele>118.4</ele>
        <time>2021-09-12T06:53:02Z</time>
      </trkpt>
      <trkpt lat="49.12882" lon="1.61155">
        <ele>118.8</ele>
        <time>2021-09-12T06:53:08Z</time>
      </trkpt>
      <trkpt lat="49.12883" lon="1.61116">
        <ele>118.8</ele>
        <time>2021-09-12T06:53:15Z</time>
      </trkpt>
      <trkpt lat="49.12886" lon="1.61083">
        <ele>118.8</ele>
        <time>2021-09-12T06:53:21Z</time>
      </trkpt>
      <trkpt lat="49.12893" lon="1.61033">
        <ele>118.6</ele>
        <time>2021-09-12T06:53:30Z</time>
      </trkpt>
      <trkpt lat="49.12897" lon="1.61007">
        <ele>118.6</ele>
        <time>2021-09-12T06:53:35Z</time>
      </trkpt>
      <trkpt lat="49.12903" lon="1.60975">
        <ele>118.4</ele>
        <time>2021-09-12T06:53:41Z</time>
      </trkpt>
      <trkpt lat="49.12903" lon="1.60956">
        <ele>118.4</ele>
        <time>2021-09-12T06:53:47Z</time>
      </trkpt>
      <trkpt lat="49.12903" lon="1.60953">
        <ele>118.4</ele>
        <time>2021-09-12T06:53:50Z</time>
      </trkpt>
      <trkpt lat="49.12903" lon="1.6095">
        <ele>117.8</ele>
        <time>2021-09-12T06:54:03Z</time>
      </trkpt>
      <trkpt lat="49.12903" lon="1.60949">
        <ele>117.8</ele>
        <time>2021-09-12T06:54:04Z</time>
      </trkpt>
      <trkpt lat="49.12902" lon="1.60946">
        <ele>117.8</ele>
        <time>2021-09-12T06:54:09Z</time>
      </trkpt>
      <trkpt lat="49.12901" lon="1.60944">
        <ele>117.8</ele>
        <time>2021-09-12T06:54:12Z</time>
      </trkpt>
      <trkpt lat="49.129" lon="1.60942">
        <ele>117.8</ele>
        <time>2021-09-12T06:54:14Z</time>
      </trkpt>
      <trkpt lat="49.12896" lon="1.6094">
        <ele>117.8</ele>
        <time>2021-09-12T06:54:21Z</time>
      </trkpt>
      <trkpt lat="49.12886" lon="1.60937">
        <ele>117.8</ele>
        <time>2021-09-12T06:54:27Z</time>
      </trkpt>
      <trkpt lat="49.1287" lon="1.60934">
        <ele>117.6</ele>
        <time>2021-09-12T06:54:32Z</time>
      </trkpt>
      <trkpt lat="49.12843" lon="1.6093">
        <ele>117.6</ele>
        <time>2021-09-12T06:54:39Z</time>
      </trkpt>
      <trkpt lat="49.12821" lon="1.60924">
        <ele>117.6</ele>
        <time>2021-09-12T06:54:45Z</time>
      </trkpt>
      <trkpt lat="49.12798" lon="1.6092">
        <ele>117.8</ele>
        <time>2021-09-12T06:54:52Z</time>
      </trkpt>
      <trkpt lat="49.12777" lon="1.60918">
        <ele>118.2</ele>
        <time>2021-09-12T06:54:58Z</time>
      </trkpt>
      <trkpt lat="49.12757" lon="1.60916">
        <ele>118.4</ele>
        <time>2021-09-12T06:55:03Z</time>
      </trkpt>
      <trkpt lat="49.12738" lon="1.60914">
        <ele>118.6</ele>
        <time>2021-09-12T06:55:09Z</time>
      </trkpt>
      <trkpt lat="49.12726" lon="1.60916">
        <ele>118.8</ele>
        <time>2021-09-12T06:55:13Z</time>
      </trkpt>
      <trkpt lat="49.1272" lon="1.60917">
        <ele>119</ele>
        <time>2021-09-12T06:55:15Z</time>
      </trkpt>
      <trkpt lat="49.12705" lon="1.60916">
        <ele>119.2</ele>
        <time>2021-09-12T06:55:19Z</time>
      </trkpt>
      <trkpt lat="49.12682" lon="1.60913">
        <ele>119.2</ele>
        <time>2021-09-12T06:55:25Z</time>
      </trkpt>
      <trkpt lat="49.12663" lon="1.6091">
        <ele>118.8</ele>
        <time>2021-09-12T06:55:31Z</time>
      </trkpt>
      <trkpt lat="49.12654" lon="1.60906">
        <ele>118.4</ele>
        <time>2021-09-12T06:55:37Z</time>
      </trkpt>
      <trkpt lat="49.12641" lon="1.60905">
        <ele>118</ele>
        <time>2021-09-12T06:55:44Z</time>
      </trkpt>
      <trkpt lat="49.12631" lon="1.60908">
        <ele>117.8</ele>
        <time>2021-09-12T06:55:47Z</time>
      </trkpt>
      <trkpt lat="49.12611" lon="1.60913">
        <ele>117.8</ele>
        <time>2021-09-12T06:55:51Z</time>
      </trkpt>
      <trkpt lat="49.12601" lon="1.60911">
        <ele>117.6</ele>
        <time>2021-09-12T06:55:53Z</time>
      </trkpt>
      <trkpt lat="49.12595" lon="1.6091">
        <ele>117.6</ele>
        <time>2021-09-12T06:55:54Z</time>
      </trkpt>
      <trkpt lat="49.12585" lon="1.60906">
        <ele>116.8</ele>
        <time>2021-09-12T06:55:56Z</time>
      </trkpt>
      <trkpt lat="49.12574" lon="1.60903">
        <ele>116</ele>
        <time>2021-09-12T06:55:58Z</time>
      </trkpt>
      <trkpt lat="49.12562" lon="1.60905">
        <ele>115.8</ele>
        <time>2021-09-12T06:56:00Z</time>
      </trkpt>
      <trkpt lat="49.12539" lon="1.60911">
        <ele>115.6</ele>
        <time>2021-09-12T06:56:04Z</time>
      </trkpt>
      <trkpt lat="49.12518" lon="1.60915">
        <ele>114.6</ele>
        <time>2021-09-12T06:56:08Z</time>
      </trkpt>
      <trkpt lat="49.12514" lon="1.60915">
        <ele>114.4</ele>
        <time>2021-09-12T06:56:09Z</time>
      </trkpt>
      <trkpt lat="49.12504" lon="1.60918">
        <ele>113.4</ele>
        <time>2021-09-12T06:56:13Z</time>
      </trkpt>
      <trkpt lat="49.125" lon="1.60919">
        <ele>112.2</ele>
        <time>2021-09-12T06:56:16Z</time>
      </trkpt>
      <trkpt lat="49.12494" lon="1.6092">
        <ele>111.8</ele>
        <time>2021-09-12T06:56:19Z</time>
      </trkpt>
      <trkpt lat="49.12479" lon="1.60923">
        <ele>111.2</ele>
        <time>2021-09-12T06:56:24Z</time>
      </trkpt>
      <trkpt lat="49.12476" lon="1.60923">
        <ele>110.8</ele>
        <time>2021-09-12T06:56:27Z</time>
      </trkpt>
      <trkpt lat="49.12474" lon="1.60921">
        <ele>108.2</ele>
        <time>2021-09-12T06:56:39Z</time>
      </trkpt>
      <trkpt lat="49.1247" lon="1.60922">
        <ele>108</ele>
        <time>2021-09-12T06:56:46Z</time>
      </trkpt>
      <trkpt lat="49.12469" lon="1.60923">
        <ele>107.8</ele>
        <time>2021-09-12T06:56:49Z</time>
      </trkpt>
      <trkpt lat="49.12467" lon="1.60924">
        <ele>107.8</ele>
        <time>2021-09-12T06:56:52Z</time>
      </trkpt>
      <trkpt lat="49.12465" lon="1.60924">
        <ele>107.6</ele>
        <time>2021-09-12T06:56:55Z</time>
      </trkpt>
      <trkpt lat="49.12458" lon="1.60923">
        <ele>107.6</ele>
        <time>2021-09-12T06:57:03Z</time>
      </trkpt>
      <trkpt lat="49.12447" lon="1.60922">
        <ele>107.6</ele>
        <time>2021-09-12T06:57:09Z</time>
      </trkpt>
      <trkpt lat="49.12434" lon="1.60923">
        <ele>107.4</ele>
        <time>2021-09-12T06:57:13Z</time>
      </trkpt>
      <trkpt lat="49.12425" lon="1.60926">
        <ele>107.2</ele>
        <time>2021-09-12T06:57:15Z</time>
      </trkpt>
      <trkpt lat="49.12409" lon="1.60927">
        <ele>106.6</ele>
        <time>2021-09-12T06:57:18Z</time>
      </trkpt>
      <trkpt lat="49.12397" lon="1.60929">
        <ele>106.2</ele>
        <time>2021-09-12T06:57:20Z</time>
      </trkpt>
      <trkpt lat="49.12379" lon="1.60932">
        <ele>105.6</ele>
        <time>2021-09-12T06:57:23Z</time>
      </trkpt>
      <trkpt lat="49.1236" lon="1.60937">
        <ele>104.6</ele>
        <time>2021-09-12T06:57:26Z</time>
      </trkpt>
      <trkpt lat="49.12348" lon="1.60941">
        <ele>104.2</ele>
        <time>2021-09-12T06:57:28Z</time>
      </trkpt>
      <trkpt lat="49.12325" lon="1.60946">
        <ele>103.8</ele>
        <time>2021-09-12T06:57:32Z</time>
      </trkpt>
      <trkpt lat="49.1231" lon="1.60947">
        <ele>103.8</ele>
        <time>2021-09-12T06:57:35Z</time>
      </trkpt>
      <trkpt lat="49.12278" lon="1.6095">
        <ele>104</ele>
        <time>2021-09-12T06:57:41Z</time>
      </trkpt>
      <trkpt lat="49.12258" lon="1.60951">
        <ele>105</ele>
        <time>2021-09-12T06:57:46Z</time>
      </trkpt>
      <trkpt lat="49.12239" lon="1.60954">
        <ele>105.8</ele>
        <time>2021-09-12T06:57:51Z</time>
      </trkpt>
      <trkpt lat="49.12225" lon="1.60954">
        <ele>106.8</ele>
        <time>2021-09-12T06:57:55Z</time>
      </trkpt>
      <trkpt lat="49.12214" lon="1.60955">
        <ele>107.6</ele>
        <time>2021-09-12T06:57:58Z</time>
      </trkpt>
      <trkpt lat="49.12208" lon="1.60955">
        <ele>108</ele>
        <time>2021-09-12T06:58:00Z</time>
      </trkpt>
      <trkpt lat="49.12194" lon="1.60957">
        <ele>109.2</ele>
        <time>2021-09-12T06:58:05Z</time>
      </trkpt>
      <trkpt lat="49.12182" lon="1.6096">
        <ele>110.8</ele>
        <time>2021-09-12T06:58:09Z</time>
      </trkpt>
      <trkpt lat="49.12164" lon="1.60958">
        <ele>111.8</ele>
        <time>2021-09-12T06:58:14Z</time>
      </trkpt>
      <trkpt lat="49.12145" lon="1.60957">
        <ele>112.8</ele>
        <time>2021-09-12T06:58:19Z</time>
      </trkpt>
      <trkpt lat="49.12141" lon="1.60958">
        <ele>113</ele>
        <time>2021-09-12T06:58:20Z</time>
      </trkpt>
      <trkpt lat="49.12124" lon="1.60962">
        <ele>113.4</ele>
        <time>2021-09-12T06:58:25Z</time>
      </trkpt>
      <trkpt lat="49.12102" lon="1.60971">
        <ele>113.4</ele>
        <time>2021-09-12T06:58:31Z</time>
      </trkpt>
      <trkpt lat="49.12088" lon="1.60975">
        <ele>113.2</ele>
        <time>2021-09-12T06:58:35Z</time>
      </trkpt>
      <trkpt lat="49.12061" lon="1.60983">
        <ele>113</ele>
        <time>2021-09-12T06:58:42Z</time>
      </trkpt>
      <trkpt lat="49.1203" lon="1.60991">
        <ele>113.6</ele>
        <time>2021-09-12T06:58:50Z</time>
      </trkpt>
      <trkpt lat="49.11999" lon="1.60996">
        <ele>113.6</ele>
        <time>2021-09-12T06:58:57Z</time>
      </trkpt>
      <trkpt lat="49.11994" lon="1.60997">
        <ele>113.6</ele>
        <time>2021-09-12T06:58:58Z</time>
      </trkpt>
      <trkpt lat="49.11981" lon="1.60997">
        <ele>113.8</ele>
        <time>2021-09-12T06:59:01Z</time>
      </trkpt>
      <trkpt lat="49.11961" lon="1.60993">
        <ele>113.8</ele>
        <time>2021-09-12T06:59:06Z</time>
      </trkpt>
      <trkpt lat="49.11954" lon="1.6099">
        <ele>113.8</ele>
        <time>2021-09-12T06:59:08Z</time>
      </trkpt>
      <trkpt lat="49.1194" lon="1.60988">
        <ele>114</ele>
        <time>2021-09-12T06:59:12Z</time>
      </trkpt>
      <trkpt lat="49.11915" lon="1.60983">
        <ele>114</ele>
        <time>2021-09-12T06:59:18Z</time>
      </trkpt>
      <trkpt lat="49.11894" lon="1.60977">
        <ele>113.8</ele>
        <time>2021-09-12T06:59:24Z</time>
      </trkpt>
      <trkpt lat="49.11875" lon="1.60971">
        <ele>113.4</ele>
        <time>2021-09-12T06:59:29Z</time>
      </trkpt>
      <trkpt lat="49.11852" lon="1.60964">
        <ele>112.8</ele>
        <time>2021-09-12T06:59:34Z</time>
      </trkpt>
      <trkpt lat="49.11843" lon="1.60961">
        <ele>112.4</ele>
        <time>2021-09-12T06:59:36Z</time>
      </trkpt>
      <trkpt lat="49.11829" lon="1.60953">
        <ele>111.6</ele>
        <time>2021-09-12T06:59:40Z</time>
      </trkpt>
      <trkpt lat="49.11821" lon="1.60946">
        <ele>111.2</ele>
        <time>2021-09-12T06:59:42Z</time>
      </trkpt>
      <trkpt lat="49.11794" lon="1.60925">
        <ele>110.6</ele>
        <time>2021-09-12T06:59:48Z</time>
      </trkpt>
      <trkpt lat="49.11783" lon="1.60914">
        <ele>110.6</ele>
        <time>2021-09-12T06:59:51Z</time>
      </trkpt>
      <trkpt lat="49.11773" lon="1.60906">
        <ele>110.6</ele>
        <time>2021-09-12T06:59:54Z</time>
      </trkpt>
      <trkpt lat="49.11748" lon="1.60883">
        <ele>110.6</ele>
        <time>2021-09-12T07:00:01Z</time>
      </trkpt>
      <trkpt lat="49.1173" lon="1.60868">
        <ele>111</ele>
        <time>2021-09-12T07:00:07Z</time>
      </trkpt>
      <trkpt lat="49.11716" lon="1.60851">
        <ele>111.4</ele>
        <time>2021-09-12T07:00:13Z</time>
      </trkpt>
      <trkpt lat="49.11711" lon="1.60846">
        <ele>111.6</ele>
        <time>2021-09-12T07:00:15Z</time>
      </trkpt>
      <trkpt lat="49.11699" lon="1.60833">
        <ele>112.4</ele>
        <time>2021-09-12T07:00:19Z</time>
      </trkpt>
      <trkpt lat="49.11678" lon="1.60816">
        <ele>112.6</ele>
        <time>2021-09-12T07:00:25Z</time>
      </trkpt>
      <trkpt lat="49.11659" lon="1.60793">
        <ele>112.6</ele>
        <time>2021-09-12T07:00:30Z</time>
      </trkpt>
      <trkpt lat="49.11643" lon="1.60775">
        <ele>112.6</ele>
        <time>2021-09-12T07:00:35Z</time>
      </trkpt>
      <trkpt lat="49.11639" lon="1.60771">
        <ele>112.6</ele>
        <time>2021-09-12T07:00:36Z</time>
      </trkpt>
      <trkpt lat="49.11627" lon="1.60752">
        <ele>113</ele>
        <time>2021-09-12T07:00:41Z</time>
      </trkpt>
      <trkpt lat="49.11616" lon="1.60736">
        <ele>113.6</ele>
        <time>2021-09-12T07:00:45Z</time>
      </trkpt>
      <trkpt lat="49.11614" lon="1.60734">
        <ele>113.8</ele>
        <time>2021-09-12T07:00:46Z</time>
      </trkpt>
      <trkpt lat="49.11604" lon="1.60724">
        <ele>114.2</ele>
        <time>2021-09-12T07:00:49Z</time>
      </trkpt>
      <trkpt lat="49.1159" lon="1.60709">
        <ele>114.4</ele>
        <time>2021-09-12T07:00:53Z</time>
      </trkpt>
      <trkpt lat="49.1157" lon="1.60684">
        <ele>114.6</ele>
        <time>2021-09-12T07:00:59Z</time>
      </trkpt>
      <trkpt lat="49.11559" lon="1.60668">
        <ele>114.6</ele>
        <time>2021-09-12T07:01:03Z</time>
      </trkpt>
      <trkpt lat="49.11551" lon="1.60657">
        <ele>114.6</ele>
        <time>2021-09-12T07:01:08Z</time>
      </trkpt>
      <trkpt lat="49.11541" lon="1.60647">
        <ele>113.8</ele>
        <time>2021-09-12T07:01:13Z</time>
      </trkpt>
      <trkpt lat="49.11526" lon="1.60642">
        <ele>113</ele>
        <time>2021-09-12T07:01:17Z</time>
      </trkpt>
      <trkpt lat="49.11522" lon="1.60642">
        <ele>112.8</ele>
        <time>2021-09-12T07:01:18Z</time>
      </trkpt>
      <trkpt lat="49.11502" lon="1.60646">
        <ele>111.2</ele>
        <time>2021-09-12T07:01:23Z</time>
      </trkpt>
      <trkpt lat="49.11475" lon="1.60651">
        <ele>110.2</ele>
        <time>2021-09-12T07:01:29Z</time>
      </trkpt>
      <trkpt lat="49.11453" lon="1.60659">
        <ele>110.8</ele>
        <time>2021-09-12T07:01:35Z</time>
      </trkpt>
      <trkpt lat="49.11439" lon="1.60665">
        <ele>112.2</ele>
        <time>2021-09-12T07:01:39Z</time>
      </trkpt>
      <trkpt lat="49.11424" lon="1.60671">
        <ele>113</ele>
        <time>2021-09-12T07:01:44Z</time>
      </trkpt>
      <trkpt lat="49.11419" lon="1.60674">
        <ele>113.4</ele>
        <time>2021-09-12T07:01:46Z</time>
      </trkpt>
      <trkpt lat="49.11415" lon="1.60676">
        <ele>114</ele>
        <time>2021-09-12T07:01:48Z</time>
      </trkpt>
      <trkpt lat="49.11412" lon="1.60677">
        <ele>114.2</ele>
        <time>2021-09-12T07:01:49Z</time>
      </trkpt>
      <trkpt lat="49.11409" lon="1.60678">
        <ele>114.8</ele>
        <time>2021-09-12T07:01:50Z</time>
      </trkpt>
      <trkpt lat="49.11402" lon="1.60681">
        <ele>115.4</ele>
        <time>2021-09-12T07:01:52Z</time>
      </trkpt>
      <trkpt lat="49.11394" lon="1.60686">
        <ele>115.8</ele>
        <time>2021-09-12T07:01:54Z</time>
      </trkpt>
      <trkpt lat="49.11368" lon="1.607">
        <ele>116.8</ele>
        <time>2021-09-12T07:02:01Z</time>
      </trkpt>
      <trkpt lat="49.11343" lon="1.60718">
        <ele>117.2</ele>
        <time>2021-09-12T07:02:08Z</time>
      </trkpt>
      <trkpt lat="49.11323" lon="1.60738">
        <ele>117.2</ele>
        <time>2021-09-12T07:02:13Z</time>
      </trkpt>
      <trkpt lat="49.11309" lon="1.60746">
        <ele>117.2</ele>
        <time>2021-09-12T07:02:15Z</time>
      </trkpt>
      <trkpt lat="49.11282" lon="1.60759">
        <ele>117.2</ele>
        <time>2021-09-12T07:02:19Z</time>
      </trkpt>
      <trkpt lat="49.11263" lon="1.6077">
        <ele>116.8</ele>
        <time>2021-09-12T07:02:22Z</time>
      </trkpt>
      <trkpt lat="49.11252" lon="1.60779">
        <ele>115.6</ele>
        <time>2021-09-12T07:02:24Z</time>
      </trkpt>
      <trkpt lat="49.11246" lon="1.60783">
        <ele>115.4</ele>
        <time>2021-09-12T07:02:25Z</time>
      </trkpt>
      <trkpt lat="49.11241" lon="1.60786">
        <ele>114.8</ele>
        <time>2021-09-12T07:02:26Z</time>
      </trkpt>
      <trkpt lat="49.11236" lon="1.60789">
        <ele>114.4</ele>
        <time>2021-09-12T07:02:27Z</time>
      </trkpt>
      <trkpt lat="49.11225" lon="1.60794">
        <ele>113.6</ele>
        <time>2021-09-12T07:02:29Z</time>
      </trkpt>
      <trkpt lat="49.11219" lon="1.60796">
        <ele>113.4</ele>
        <time>2021-09-12T07:02:30Z</time>
      </trkpt>
      <trkpt lat="49.11204" lon="1.60799">
        <ele>112.8</ele>
        <time>2021-09-12T07:02:32Z</time>
      </trkpt>
      <trkpt lat="49.11197" lon="1.608">
        <ele>112.6</ele>
        <time>2021-09-12T07:02:33Z</time>
      </trkpt>
      <trkpt lat="49.11188" lon="1.608">
        <ele>112.4</ele>
        <time>2021-09-12T07:02:34Z</time>
      </trkpt>
      <trkpt lat="49.11151" lon="1.60797">
        <ele>111</ele>
        <time>2021-09-12T07:02:38Z</time>
      </trkpt>
      <trkpt lat="49.11133" lon="1.60794">
        <ele>109.6</ele>
        <time>2021-09-12T07:02:40Z</time>
      </trkpt>
      <trkpt lat="49.11115" lon="1.60792">
        <ele>108.2</ele>
        <time>2021-09-12T07:02:42Z</time>
      </trkpt>
      <trkpt lat="49.11097" lon="1.60788">
        <ele>106.2</ele>
        <time>2021-09-12T07:02:44Z</time>
      </trkpt>
      <trkpt lat="49.11089" lon="1.60786">
        <ele>105.2</ele>
        <time>2021-09-12T07:02:45Z</time>
      </trkpt>
      <trkpt lat="49.11082" lon="1.60785">
        <ele>104.2</ele>
        <time>2021-09-12T07:02:46Z</time>
      </trkpt>
      <trkpt lat="49.11069" lon="1.60782">
        <ele>102.8</ele>
        <time>2021-09-12T07:02:48Z</time>
      </trkpt>
      <trkpt lat="49.11065" lon="1.60781">
        <ele>101.8</ele>
        <time>2021-09-12T07:02:49Z</time>
      </trkpt>
      <trkpt lat="49.11061" lon="1.60781">
        <ele>101.4</ele>
        <time>2021-09-12T07:02:50Z</time>
      </trkpt>
      <trkpt lat="49.11054" lon="1.60779">
        <ele>100.2</ele>
        <time>2021-09-12T07:02:52Z</time>
      </trkpt>
      <trkpt lat="49.11047" lon="1.60777">
        <ele>99.8</ele>
        <time>2021-09-12T07:02:54Z</time>
      </trkpt>
      <trkpt lat="49.11034" lon="1.60771">
        <ele>99.2</ele>
        <time>2021-09-12T07:02:58Z</time>
      </trkpt>
      <trkpt lat="49.11023" lon="1.60766">
        <ele>99</ele>
        <time>2021-09-12T07:03:02Z</time>
      </trkpt>
      <trkpt lat="49.11018" lon="1.60765">
        <ele>99</ele>
        <time>2021-09-12T07:03:07Z</time>
      </trkpt>
      <trkpt lat="49.11014" lon="1.60763">
        <ele>98.8</ele>
        <time>2021-09-12T07:03:10Z</time>
      </trkpt>
      <trkpt lat="49.11009" lon="1.6076">
        <ele>98.8</ele>
        <time>2021-09-12T07:03:13Z</time>
      </trkpt>
      <trkpt lat="49.10995" lon="1.60755">
        <ele>98.6</ele>
        <time>2021-09-12T07:03:18Z</time>
      </trkpt>
      <trkpt lat="49.10981" lon="1.60749">
        <ele>98.2</ele>
        <time>2021-09-12T07:03:23Z</time>
      </trkpt>
      <trkpt lat="49.10975" lon="1.60746">
        <ele>98</ele>
        <time>2021-09-12T07:03:25Z</time>
      </trkpt>
      <trkpt lat="49.10954" lon="1.60732">
        <ele>97.6</ele>
        <time>2021-09-12T07:03:31Z</time>
      </trkpt>
      <trkpt lat="49.10926" lon="1.60712">
        <ele>97.4</ele>
        <time>2021-09-12T07:03:37Z</time>
      </trkpt>
      <trkpt lat="49.10915" lon="1.60704">
        <ele>97.2</ele>
        <time>2021-09-12T07:03:39Z</time>
      </trkpt>
      <trkpt lat="49.10909" lon="1.60701">
        <ele>96.8</ele>
        <time>2021-09-12T07:03:40Z</time>
      </trkpt>
      <trkpt lat="49.10896" lon="1.60697">
        <ele>96.2</ele>
        <time>2021-09-12T07:03:42Z</time>
      </trkpt>
      <trkpt lat="49.10889" lon="1.60696">
        <ele>95.8</ele>
        <time>2021-09-12T07:03:43Z</time>
      </trkpt>
      <trkpt lat="49.10864" lon="1.60696">
        <ele>94.8</ele>
        <time>2021-09-12T07:03:46Z</time>
      </trkpt>
      <trkpt lat="49.10857" lon="1.60697">
        <ele>94.2</ele>
        <time>2021-09-12T07:03:47Z</time>
      </trkpt>
      <trkpt lat="49.10842" lon="1.607">
        <ele>93.4</ele>
        <time>2021-09-12T07:03:49Z</time>
      </trkpt>
      <trkpt lat="49.10835" lon="1.60703">
        <ele>93.4</ele>
        <time>2021-09-12T07:03:50Z</time>
      </trkpt>
      <trkpt lat="49.10828" lon="1.60707">
        <ele>93</ele>
        <time>2021-09-12T07:03:51Z</time>
      </trkpt>
      <trkpt lat="49.10814" lon="1.60714">
        <ele>91.6</ele>
        <time>2021-09-12T07:03:53Z</time>
      </trkpt>
      <trkpt lat="49.10791" lon="1.60721">
        <ele>90.6</ele>
        <time>2021-09-12T07:03:56Z</time>
      </trkpt>
      <trkpt lat="49.10757" lon="1.60715">
        <ele>90.2</ele>
        <time>2021-09-12T07:04:00Z</time>
      </trkpt>
      <trkpt lat="49.10749" lon="1.60711">
        <ele>90.2</ele>
        <time>2021-09-12T07:04:01Z</time>
      </trkpt>
      <trkpt lat="49.10731" lon="1.60703">
        <ele>89.6</ele>
        <time>2021-09-12T07:04:03Z</time>
      </trkpt>
      <trkpt lat="49.10705" lon="1.60693">
        <ele>88.4</ele>
        <time>2021-09-12T07:04:06Z</time>
      </trkpt>
      <trkpt lat="49.10697" lon="1.60691">
        <ele>87.6</ele>
        <time>2021-09-12T07:04:07Z</time>
      </trkpt>
      <trkpt lat="49.10688" lon="1.60689">
        <ele>87</ele>
        <time>2021-09-12T07:04:08Z</time>
      </trkpt>
      <trkpt lat="49.10673" lon="1.60686">
        <ele>85.8</ele>
        <time>2021-09-12T07:04:10Z</time>
      </trkpt>
      <trkpt lat="49.10667" lon="1.60687">
        <ele>84.8</ele>
        <time>2021-09-12T07:04:11Z</time>
      </trkpt>
      <trkpt lat="49.10663" lon="1.60691">
        <ele>84</ele>
        <time>2021-09-12T07:04:12Z</time>
      </trkpt>
      <trkpt lat="49.10658" lon="1.60705">
        <ele>82.6</ele>
        <time>2021-09-12T07:04:14Z</time>
      </trkpt>
      <trkpt lat="49.10657" lon="1.60713">
        <ele>82.2</ele>
        <time>2021-09-12T07:04:15Z</time>
      </trkpt>
      <trkpt lat="49.10656" lon="1.60721">
        <ele>82</ele>
        <time>2021-09-12T07:04:16Z</time>
      </trkpt>
      <trkpt lat="49.10648" lon="1.60752">
        <ele>81.6</ele>
        <time>2021-09-12T07:04:19Z</time>
      </trkpt>
      <trkpt lat="49.10645" lon="1.60764">
        <ele>81.4</ele>
        <time>2021-09-12T07:04:20Z</time>
      </trkpt>
      <trkpt lat="49.10634" lon="1.60785">
        <ele>81.2</ele>
        <time>2021-09-12T07:04:22Z</time>
      </trkpt>
      <trkpt lat="49.10623" lon="1.60806">
        <ele>81</ele>
        <time>2021-09-12T07:04:24Z</time>
      </trkpt>
      <trkpt lat="49.1062" lon="1.60817">
        <ele>80.8</ele>
        <time>2021-09-12T07:04:25Z</time>
      </trkpt>
      <trkpt lat="49.10618" lon="1.6083">
        <ele>80.4</ele>
        <time>2021-09-12T07:04:26Z</time>
      </trkpt>
      <trkpt lat="49.10617" lon="1.60858">
        <ele>79</ele>
        <time>2021-09-12T07:04:28Z</time>
      </trkpt>
      <trkpt lat="49.10618" lon="1.60873">
        <ele>77.8</ele>
        <time>2021-09-12T07:04:29Z</time>
      </trkpt>
      <trkpt lat="49.10621" lon="1.60887">
        <ele>76.6</ele>
        <time>2021-09-12T07:04:30Z</time>
      </trkpt>
      <trkpt lat="49.10625" lon="1.60902">
        <ele>75.8</ele>
        <time>2021-09-12T07:04:31Z</time>
      </trkpt>
      <trkpt lat="49.1063" lon="1.60917">
        <ele>74.8</ele>
        <time>2021-09-12T07:04:32Z</time>
      </trkpt>
      <trkpt lat="49.10639" lon="1.60947">
        <ele>73.2</ele>
        <time>2021-09-12T07:04:34Z</time>
      </trkpt>
      <trkpt lat="49.10648" lon="1.60978">
        <ele>71.2</ele>
        <time>2021-09-12T07:04:36Z</time>
      </trkpt>
      <trkpt lat="49.10652" lon="1.60994">
        <ele>69.4</ele>
        <time>2021-09-12T07:04:37Z</time>
      </trkpt>
      <trkpt lat="49.10656" lon="1.61009">
        <ele>67.6</ele>
        <time>2021-09-12T07:04:38Z</time>
      </trkpt>
      <trkpt lat="49.1066" lon="1.61025">
        <ele>66.2</ele>
        <time>2021-09-12T07:04:39Z</time>
      </trkpt>
      <trkpt lat="49.10663" lon="1.61041">
        <ele>64.6</ele>
        <time>2021-09-12T07:04:40Z</time>
      </trkpt>
      <trkpt lat="49.10666" lon="1.61057">
        <ele>63</ele>
        <time>2021-09-12T07:04:41Z</time>
      </trkpt>
      <trkpt lat="49.10667" lon="1.61073">
        <ele>61.6</ele>
        <time>2021-09-12T07:04:42Z</time>
      </trkpt>
      <trkpt lat="49.10667" lon="1.6109">
        <ele>60</ele>
        <time>2021-09-12T07:04:43Z</time>
      </trkpt>
      <trkpt lat="49.10666" lon="1.61105">
        <ele>58.4</ele>
        <time>2021-09-12T07:04:44Z</time>
      </trkpt>
      <trkpt lat="49.10662" lon="1.61121">
        <ele>57</ele>
        <time>2021-09-12T07:04:45Z</time>
      </trkpt>
      <trkpt lat="49.10659" lon="1.61137">
        <ele>55.6</ele>
        <time>2021-09-12T07:04:46Z</time>
      </trkpt>
      <trkpt lat="49.10656" lon="1.61153">
        <ele>54.6</ele>
        <time>2021-09-12T07:04:47Z</time>
      </trkpt>
      <trkpt lat="49.10652" lon="1.6117">
        <ele>53</ele>
        <time>2021-09-12T07:04:48Z</time>
      </trkpt>
      <trkpt lat="49.10649" lon="1.61186">
        <ele>51.8</ele>
        <time>2021-09-12T07:04:49Z</time>
      </trkpt>
      <trkpt lat="49.10645" lon="1.61203">
        <ele>49.6</ele>
        <time>2021-09-12T07:04:50Z</time>
      </trkpt>
      <trkpt lat="49.10641" lon="1.61219">
        <ele>48.8</ele>
        <time>2021-09-12T07:04:51Z</time>
      </trkpt>
      <trkpt lat="49.10636" lon="1.61235">
        <ele>47.8</ele>
        <time>2021-09-12T07:04:52Z</time>
      </trkpt>
      <trkpt lat="49.10631" lon="1.6125">
        <ele>46.4</ele>
        <time>2021-09-12T07:04:53Z</time>
      </trkpt>
      <trkpt lat="49.10625" lon="1.61265">
        <ele>45</ele>
        <time>2021-09-12T07:04:54Z</time>
      </trkpt>
      <trkpt lat="49.1062" lon="1.61279">
        <ele>43.8</ele>
        <time>2021-09-12T07:04:55Z</time>
      </trkpt>
      <trkpt lat="49.10615" lon="1.61292">
        <ele>42.4</ele>
        <time>2021-09-12T07:04:56Z</time>
      </trkpt>
      <trkpt lat="49.1061" lon="1.61303">
        <ele>41</ele>
        <time>2021-09-12T07:04:57Z</time>
      </trkpt>
      <trkpt lat="49.10606" lon="1.61313">
        <ele>39.8</ele>
        <time>2021-09-12T07:04:58Z</time>
      </trkpt>
      <trkpt lat="49.10602" lon="1.61322">
        <ele>38.6</ele>
        <time>2021-09-12T07:04:59Z</time>
      </trkpt>
      <trkpt lat="49.106" lon="1.61327">
        <ele>37.6</ele>
        <time>2021-09-12T07:05:00Z</time>
      </trkpt>
      <trkpt lat="49.10598" lon="1.61331">
        <ele>36.4</ele>
        <time>2021-09-12T07:05:01Z</time>
      </trkpt>
      <trkpt lat="49.10597" lon="1.61334">
        <ele>35.8</ele>
        <time>2021-09-12T07:05:02Z</time>
      </trkpt>
      <trkpt lat="49.10597" lon="1.61336">
        <ele>35.4</ele>
        <time>2021-09-12T07:05:03Z</time>
      </trkpt>
      <trkpt lat="49.10597" lon="1.61336">
        <ele>35</ele>
        <time>2021-09-12T07:05:05Z</time>
      </trkpt>
      <trkpt lat="49.10597" lon="1.61333">
        <ele>35.4</ele>
        <time>2021-09-12T07:08:35Z</time>
      </trkpt>
      <trkpt lat="49.10594" lon="1.61335">
        <ele>35.4</ele>
        <time>2021-09-12T07:08:38Z</time>
      </trkpt>
      <trkpt lat="49.10591" lon="1.61344">
        <ele>35.4</ele>
        <time>2021-09-12T07:08:41Z</time>
      </trkpt>
      <trkpt lat="49.1059" lon="1.61348">
        <ele>35.4</ele>
        <time>2021-09-12T07:08:42Z</time>
      </trkpt>
      <trkpt lat="49.10581" lon="1.61371">
        <ele>35</ele>
        <time>2021-09-12T07:08:46Z</time>
      </trkpt>
      <trkpt lat="49.10569" lon="1.61396">
        <ele>34.8</ele>
        <time>2021-09-12T07:08:50Z</time>
      </trkpt>
      <trkpt lat="49.10564" lon="1.61409">
        <ele>34.6</ele>
        <time>2021-09-12T07:08:52Z</time>
      </trkpt>
      <trkpt lat="49.10552" lon="1.61435">
        <ele>33.4</ele>
        <time>2021-09-12T07:08:56Z</time>
      </trkpt>
      <trkpt lat="49.10546" lon="1.61448">
        <ele>32.2</ele>
        <time>2021-09-12T07:08:58Z</time>
      </trkpt>
      <trkpt lat="49.10539" lon="1.61462">
        <ele>31.8</ele>
        <time>2021-09-12T07:09:00Z</time>
      </trkpt>
      <trkpt lat="49.10531" lon="1.61477">
        <ele>31.2</ele>
        <time>2021-09-12T07:09:02Z</time>
      </trkpt>
      <trkpt lat="49.10516" lon="1.61506">
        <ele>30</ele>
        <time>2021-09-12T07:09:06Z</time>
      </trkpt>
      <trkpt lat="49.10508" lon="1.6152">
        <ele>29.2</ele>
        <time>2021-09-12T07:09:08Z</time>
      </trkpt>
      <trkpt lat="49.10505" lon="1.61527">
        <ele>29</ele>
        <time>2021-09-12T07:09:09Z</time>
      </trkpt>
      <trkpt lat="49.10487" lon="1.61562">
        <ele>28</ele>
        <time>2021-09-12T07:09:14Z</time>
      </trkpt>
      <trkpt lat="49.10475" lon="1.61583">
        <ele>27.4</ele>
        <time>2021-09-12T07:09:17Z</time>
      </trkpt>
      <trkpt lat="49.10462" lon="1.61604">
        <ele>27</ele>
        <time>2021-09-12T07:09:20Z</time>
      </trkpt>
      <trkpt lat="49.10436" lon="1.61648">
        <ele>25.8</ele>
        <time>2021-09-12T07:09:26Z</time>
      </trkpt>
      <trkpt lat="49.10432" lon="1.61655">
        <ele>25.4</ele>
        <time>2021-09-12T07:09:27Z</time>
      </trkpt>
      <trkpt lat="49.10412" lon="1.61689">
        <ele>24.8</ele>
        <time>2021-09-12T07:09:32Z</time>
      </trkpt>
      <trkpt lat="49.10385" lon="1.61735">
        <ele>23.8</ele>
        <time>2021-09-12T07:09:39Z</time>
      </trkpt>
      <trkpt lat="49.10382" lon="1.61741">
        <ele>23.8</ele>
        <time>2021-09-12T07:09:40Z</time>
      </trkpt>
      <trkpt lat="49.10376" lon="1.61751">
        <ele>23.6</ele>
        <time>2021-09-12T07:09:42Z</time>
      </trkpt>
      <trkpt lat="49.10375" lon="1.61757">
        <ele>23.6</ele>
        <time>2021-09-12T07:09:43Z</time>
      </trkpt>
      <trkpt lat="49.10379" lon="1.61773">
        <ele>23.6</ele>
        <time>2021-09-12T07:09:46Z</time>
      </trkpt>
      <trkpt lat="49.10383" lon="1.61777">
        <ele>23.6</ele>
        <time>2021-09-12T07:09:47Z</time>
      </trkpt>
      <trkpt lat="49.10406" lon="1.61804">
        <ele>23.6</ele>
        <time>2021-09-12T07:09:53Z</time>
      </trkpt>
      <trkpt lat="49.10439" lon="1.61835">
        <ele>23.6</ele>
        <time>2021-09-12T07:10:00Z</time>
      </trkpt>
      <trkpt lat="49.10455" lon="1.61848">
        <ele>23.6</ele>
        <time>2021-09-12T07:10:03Z</time>
      </trkpt>
      <trkpt lat="49.10463" lon="1.61862">
        <ele>23.4</ele>
        <time>2021-09-12T07:10:05Z</time>
      </trkpt>
      <trkpt lat="49.10464" lon="1.61888">
        <ele>23.4</ele>
        <time>2021-09-12T07:10:08Z</time>
      </trkpt>
      <trkpt lat="49.10456" lon="1.61901">
        <ele>23</ele>
        <time>2021-09-12T07:10:10Z</time>
      </trkpt>
      <trkpt lat="49.10451" lon="1.61907">
        <ele>23</ele>
        <time>2021-09-12T07:10:11Z</time>
      </trkpt>
      <trkpt lat="49.10429" lon="1.61941">
        <ele>22.6</ele>
        <time>2021-09-12T07:10:17Z</time>
      </trkpt>
      <trkpt lat="49.10415" lon="1.61941">
        <ele>22.6</ele>
        <time>2021-09-12T07:10:20Z</time>
      </trkpt>
      <trkpt lat="49.10407" lon="1.61932">
        <ele>22.6</ele>
        <time>2021-09-12T07:10:22Z</time>
      </trkpt>
      <trkpt lat="49.10396" lon="1.61917">
        <ele>23</ele>
        <time>2021-09-12T07:10:25Z</time>
      </trkpt>
      <trkpt lat="49.10374" lon="1.6189">
        <ele>23</ele>
        <time>2021-09-12T07:10:32Z</time>
      </trkpt>
      <trkpt lat="49.10354" lon="1.61866">
        <ele>23</ele>
        <time>2021-09-12T07:10:39Z</time>
      </trkpt>
      <trkpt lat="49.10351" lon="1.61862">
        <ele>23</ele>
        <time>2021-09-12T07:10:40Z</time>
      </trkpt>
      <trkpt lat="49.10334" lon="1.61842">
        <ele>23</ele>
        <time>2021-09-12T07:10:45Z</time>
      </trkpt>
      <trkpt lat="49.10331" lon="1.61839">
        <ele>22.8</ele>
        <time>2021-09-12T07:10:46Z</time>
      </trkpt>
      <trkpt lat="49.10323" lon="1.61843">
        <ele>22.6</ele>
        <time>2021-09-12T07:10:48Z</time>
      </trkpt>
      <trkpt lat="49.10318" lon="1.61854">
        <ele>22.6</ele>
        <time>2021-09-12T07:10:50Z</time>
      </trkpt>
      <trkpt lat="49.10312" lon="1.61865">
        <ele>22.4</ele>
        <time>2021-09-12T07:10:52Z</time>
      </trkpt>
      <trkpt lat="49.10306" lon="1.61877">
        <ele>22.4</ele>
        <time>2021-09-12T07:10:54Z</time>
      </trkpt>
      <trkpt lat="49.10303" lon="1.61882">
        <ele>22.4</ele>
        <time>2021-09-12T07:10:55Z</time>
      </trkpt>
      <trkpt lat="49.10295" lon="1.61899">
        <ele>22.4</ele>
        <time>2021-09-12T07:10:58Z</time>
      </trkpt>
      <trkpt lat="49.10269" lon="1.61949">
        <ele>21.8</ele>
        <time>2021-09-12T07:11:07Z</time>
      </trkpt>
      <trkpt lat="49.10239" lon="1.62005">
        <ele>21.4</ele>
        <time>2021-09-12T07:11:17Z</time>
      </trkpt>
      <trkpt lat="49.10218" lon="1.62042">
        <ele>21.4</ele>
        <time>2021-09-12T07:11:24Z</time>
      </trkpt>
      <trkpt lat="49.10193" lon="1.62087">
        <ele>21</ele>
        <time>2021-09-12T07:11:32Z</time>
      </trkpt>
      <trkpt lat="49.10192" lon="1.62105">
        <ele>20.8</ele>
        <time>2021-09-12T07:11:35Z</time>
      </trkpt>
      <trkpt lat="49.10198" lon="1.62117">
        <ele>20.8</ele>
        <time>2021-09-12T07:11:37Z</time>
      </trkpt>
      <trkpt lat="49.10207" lon="1.62134">
        <ele>20.6</ele>
        <time>2021-09-12T07:11:40Z</time>
      </trkpt>
      <trkpt lat="49.10214" lon="1.62146">
        <ele>20.4</ele>
        <time>2021-09-12T07:11:42Z</time>
      </trkpt>
      <trkpt lat="49.1023" lon="1.62171">
        <ele>20.4</ele>
        <time>2021-09-12T07:11:47Z</time>
      </trkpt>
      <trkpt lat="49.10242" lon="1.6217">
        <ele>20.2</ele>
        <time>2021-09-12T07:11:50Z</time>
      </trkpt>
      <trkpt lat="49.10255" lon="1.62151">
        <ele>20.2</ele>
        <time>2021-09-12T07:11:54Z</time>
      </trkpt>
      <trkpt lat="49.10267" lon="1.62153">
        <ele>20.2</ele>
        <time>2021-09-12T07:11:57Z</time>
      </trkpt>
      <trkpt lat="49.10276" lon="1.62174">
        <ele>20.2</ele>
        <time>2021-09-12T07:12:01Z</time>
      </trkpt>
      <trkpt lat="49.10277" lon="1.6218">
        <ele>20.2</ele>
        <time>2021-09-12T07:12:02Z</time>
      </trkpt>
      <trkpt lat="49.10283" lon="1.62196">
        <ele>20.2</ele>
        <time>2021-09-12T07:12:05Z</time>
      </trkpt>
      <trkpt lat="49.10285" lon="1.622">
        <ele>20.2</ele>
        <time>2021-09-12T07:12:06Z</time>
      </trkpt>
      <trkpt lat="49.10288" lon="1.62205">
        <ele>20.2</ele>
        <time>2021-09-12T07:12:07Z</time>
      </trkpt>
      <trkpt lat="49.10292" lon="1.62216">
        <ele>20.2</ele>
        <time>2021-09-12T07:12:09Z</time>
      </trkpt>
      <trkpt lat="49.10297" lon="1.62226">
        <ele>20.2</ele>
        <time>2021-09-12T07:12:11Z</time>
      </trkpt>
      <trkpt lat="49.10299" lon="1.62231">
        <ele>20.2</ele>
        <time>2021-09-12T07:12:12Z</time>
      </trkpt>
      <trkpt lat="49.10307" lon="1.62245">
        <ele>20.4</ele>
        <time>2021-09-12T07:12:15Z</time>
      </trkpt>
      <trkpt lat="49.10311" lon="1.62261">
        <ele>20.4</ele>
        <time>2021-09-12T07:12:18Z</time>
      </trkpt>
      <trkpt lat="49.1031" lon="1.62266">
        <ele>20.4</ele>
        <time>2021-09-12T07:12:19Z</time>
      </trkpt>
      <trkpt lat="49.10299" lon="1.62282">
        <ele>20.4</ele>
        <time>2021-09-12T07:12:23Z</time>
      </trkpt>
      <trkpt lat="49.10296" lon="1.62286">
        <ele>20.4</ele>
        <time>2021-09-12T07:12:24Z</time>
      </trkpt>
      <trkpt lat="49.10293" lon="1.62299">
        <ele>20.4</ele>
        <time>2021-09-12T07:12:27Z</time>
      </trkpt>
      <trkpt lat="49.10294" lon="1.62303">
        <ele>20.4</ele>
        <time>2021-09-12T07:12:28Z</time>
      </trkpt>
      <trkpt lat="49.10305" lon="1.6232">
        <ele>20.4</ele>
        <time>2021-09-12T07:12:32Z</time>
      </trkpt>
      <trkpt lat="49.10326" lon="1.6235">
        <ele>20.2</ele>
        <time>2021-09-12T07:12:38Z</time>
      </trkpt>
      <trkpt lat="49.1034" lon="1.62371">
        <ele>20.2</ele>
        <time>2021-09-12T07:12:42Z</time>
      </trkpt>
      <trkpt lat="49.10344" lon="1.62377">
        <ele>20.2</ele>
        <time>2021-09-12T07:12:43Z</time>
      </trkpt>
      <trkpt lat="49.10361" lon="1.62397">
        <ele>20.2</ele>
        <time>2021-09-12T07:12:48Z</time>
      </trkpt>
      <trkpt lat="49.10378" lon="1.62415">
        <ele>20.4</ele>
        <time>2021-09-12T07:12:53Z</time>
      </trkpt>
      <trkpt lat="49.104" lon="1.62437">
        <ele>20.6</ele>
        <time>2021-09-12T07:12:59Z</time>
      </trkpt>
      <trkpt lat="49.10418" lon="1.62452">
        <ele>20.6</ele>
        <time>2021-09-12T07:13:04Z</time>
      </trkpt>
      <trkpt lat="49.10421" lon="1.62455">
        <ele>20.6</ele>
        <time>2021-09-12T07:13:05Z</time>
      </trkpt>
      <trkpt lat="49.10425" lon="1.62465">
        <ele>20.6</ele>
        <time>2021-09-12T07:13:08Z</time>
      </trkpt>
      <trkpt lat="49.10435" lon="1.62466">
        <ele>20.8</ele>
        <time>2021-09-12T07:13:12Z</time>
      </trkpt>
      <trkpt lat="49.10449" lon="1.62476">
        <ele>20.6</ele>
        <time>2021-09-12T07:13:16Z</time>
      </trkpt>
      <trkpt lat="49.10472" lon="1.62504">
        <ele>21</ele>
        <time>2021-09-12T07:13:23Z</time>
      </trkpt>
      <trkpt lat="49.10487" lon="1.62524">
        <ele>21</ele>
        <time>2021-09-12T07:13:28Z</time>
      </trkpt>
      <trkpt lat="49.10488" lon="1.62529">
        <ele>21</ele>
        <time>2021-09-12T07:13:29Z</time>
      </trkpt>
      <trkpt lat="49.10482" lon="1.62553">
        <ele>21.2</ele>
        <time>2021-09-12T07:13:33Z</time>
      </trkpt>
      <trkpt lat="49.10482" lon="1.62566">
        <ele>21.2</ele>
        <time>2021-09-12T07:13:35Z</time>
      </trkpt>
      <trkpt lat="49.10485" lon="1.62578">
        <ele>21.2</ele>
        <time>2021-09-12T07:13:37Z</time>
      </trkpt>
      <trkpt lat="49.10492" lon="1.62594">
        <ele>21</ele>
        <time>2021-09-12T07:13:40Z</time>
      </trkpt>
      <trkpt lat="49.10497" lon="1.62605">
        <ele>20.8</ele>
        <time>2021-09-12T07:13:42Z</time>
      </trkpt>
      <trkpt lat="49.10508" lon="1.62631">
        <ele>20.4</ele>
        <time>2021-09-12T07:13:47Z</time>
      </trkpt>
      <trkpt lat="49.10518" lon="1.62654">
        <ele>20.4</ele>
        <time>2021-09-12T07:13:52Z</time>
      </trkpt>
      <trkpt lat="49.10533" lon="1.62667">
        <ele>20.4</ele>
        <time>2021-09-12T07:13:58Z</time>
      </trkpt>
      <trkpt lat="49.10549" lon="1.62679">
        <ele>20.6</ele>
        <time>2021-09-12T07:14:03Z</time>
      </trkpt>
      <trkpt lat="49.10573" lon="1.627">
        <ele>20.6</ele>
        <time>2021-09-12T07:14:10Z</time>
      </trkpt>
      <trkpt lat="49.10578" lon="1.62703">
        <ele>20.6</ele>
        <time>2021-09-12T07:14:11Z</time>
      </trkpt>
      <trkpt lat="49.10593" lon="1.62709">
        <ele>20.6</ele>
        <time>2021-09-12T07:14:14Z</time>
      </trkpt>
      <trkpt lat="49.10623" lon="1.62723">
        <ele>20.4</ele>
        <time>2021-09-12T07:14:20Z</time>
      </trkpt>
      <trkpt lat="49.10641" lon="1.62724">
        <ele>20.4</ele>
        <time>2021-09-12T07:14:24Z</time>
      </trkpt>
      <trkpt lat="49.1065" lon="1.62718">
        <ele>20.2</ele>
        <time>2021-09-12T07:14:26Z</time>
      </trkpt>
      <trkpt lat="49.10656" lon="1.62715">
        <ele>20.2</ele>
        <time>2021-09-12T07:14:27Z</time>
      </trkpt>
      <trkpt lat="49.10667" lon="1.62711">
        <ele>20.2</ele>
        <time>2021-09-12T07:14:29Z</time>
      </trkpt>
      <trkpt lat="49.10701" lon="1.62705">
        <ele>20.4</ele>
        <time>2021-09-12T07:14:35Z</time>
      </trkpt>
      <trkpt lat="49.10735" lon="1.62702">
        <ele>20.6</ele>
        <time>2021-09-12T07:14:41Z</time>
      </trkpt>
      <trkpt lat="49.10741" lon="1.62701">
        <ele>20.6</ele>
        <time>2021-09-12T07:14:42Z</time>
      </trkpt>
      <trkpt lat="49.10785" lon="1.62681">
        <ele>20.6</ele>
        <time>2021-09-12T07:14:50Z</time>
      </trkpt>
      <trkpt lat="49.10795" lon="1.62678">
        <ele>20.6</ele>
        <time>2021-09-12T07:14:52Z</time>
      </trkpt>
      <trkpt lat="49.1081" lon="1.62677">
        <ele>20.6</ele>
        <time>2021-09-12T07:14:55Z</time>
      </trkpt>
      <trkpt lat="49.10829" lon="1.62681">
        <ele>20.8</ele>
        <time>2021-09-12T07:14:59Z</time>
      </trkpt>
      <trkpt lat="49.10838" lon="1.62684">
        <ele>21</ele>
        <time>2021-09-12T07:15:01Z</time>
      </trkpt>
      <trkpt lat="49.10881" lon="1.62696">
        <ele>21.2</ele>
        <time>2021-09-12T07:15:10Z</time>
      </trkpt>
      <trkpt lat="49.10918" lon="1.62707">
        <ele>21</ele>
        <time>2021-09-12T07:15:18Z</time>
      </trkpt>
      <trkpt lat="49.10962" lon="1.62719">
        <ele>21</ele>
        <time>2021-09-12T07:15:28Z</time>
      </trkpt>
      <trkpt lat="49.10975" lon="1.62725">
        <ele>21</ele>
        <time>2021-09-12T07:15:31Z</time>
      </trkpt>
      <trkpt lat="49.10984" lon="1.62731">
        <ele>21</ele>
        <time>2021-09-12T07:15:33Z</time>
      </trkpt>
      <trkpt lat="49.10988" lon="1.62735">
        <ele>21.2</ele>
        <time>2021-09-12T07:15:34Z</time>
      </trkpt>
      <trkpt lat="49.11017" lon="1.62758">
        <ele>21.2</ele>
        <time>2021-09-12T07:15:41Z</time>
      </trkpt>
      <trkpt lat="49.11056" lon="1.62786">
        <ele>20.6</ele>
        <time>2021-09-12T07:15:50Z</time>
      </trkpt>
      <trkpt lat="49.1109" lon="1.6281">
        <ele>20.8</ele>
        <time>2021-09-12T07:15:58Z</time>
      </trkpt>
      <trkpt lat="49.11117" lon="1.62833">
        <ele>20.8</ele>
        <time>2021-09-12T07:16:05Z</time>
      </trkpt>
      <trkpt lat="49.11131" lon="1.62837">
        <ele>20.8</ele>
        <time>2021-09-12T07:16:09Z</time>
      </trkpt>
      <trkpt lat="49.11149" lon="1.62839">
        <ele>20.6</ele>
        <time>2021-09-12T07:16:14Z</time>
      </trkpt>
      <trkpt lat="49.11168" lon="1.62838">
        <ele>20.4</ele>
        <time>2021-09-12T07:16:19Z</time>
      </trkpt>
      <trkpt lat="49.11194" lon="1.62844">
        <ele>20.4</ele>
        <time>2021-09-12T07:16:25Z</time>
      </trkpt>
      <trkpt lat="49.11198" lon="1.62847">
        <ele>20.4</ele>
        <time>2021-09-12T07:16:26Z</time>
      </trkpt>
      <trkpt lat="49.11216" lon="1.6286">
        <ele>20.4</ele>
        <time>2021-09-12T07:16:30Z</time>
      </trkpt>
      <trkpt lat="49.11229" lon="1.62873">
        <ele>20.6</ele>
        <time>2021-09-12T07:16:33Z</time>
      </trkpt>
      <trkpt lat="49.1124" lon="1.62888">
        <ele>20.6</ele>
        <time>2021-09-12T07:16:36Z</time>
      </trkpt>
      <trkpt lat="49.11267" lon="1.62933">
        <ele>20.6</ele>
        <time>2021-09-12T07:16:44Z</time>
      </trkpt>
      <trkpt lat="49.1128" lon="1.62958">
        <ele>20.6</ele>
        <time>2021-09-12T07:16:48Z</time>
      </trkpt>
      <trkpt lat="49.11287" lon="1.6297">
        <ele>20.6</ele>
        <time>2021-09-12T07:16:50Z</time>
      </trkpt>
      <trkpt lat="49.11311" lon="1.6302">
        <ele>20.6</ele>
        <time>2021-09-12T07:16:58Z</time>
      </trkpt>
      <trkpt lat="49.11331" lon="1.63062">
        <ele>20.4</ele>
        <time>2021-09-12T07:17:05Z</time>
      </trkpt>
      <trkpt lat="49.11351" lon="1.63102">
        <ele>20.6</ele>
        <time>2021-09-12T07:17:12Z</time>
      </trkpt>
      <trkpt lat="49.11376" lon="1.63157">
        <ele>20.6</ele>
        <time>2021-09-12T07:17:21Z</time>
      </trkpt>
      <trkpt lat="49.11392" lon="1.63193">
        <ele>20.6</ele>
        <time>2021-09-12T07:17:27Z</time>
      </trkpt>
      <trkpt lat="49.11395" lon="1.632">
        <ele>20.6</ele>
        <time>2021-09-12T07:17:28Z</time>
      </trkpt>
      <trkpt lat="49.11414" lon="1.63241">
        <ele>20.6</ele>
        <time>2021-09-12T07:17:35Z</time>
      </trkpt>
      <trkpt lat="49.11435" lon="1.63284">
        <ele>20.8</ele>
        <time>2021-09-12T07:17:42Z</time>
      </trkpt>
      <trkpt lat="49.11458" lon="1.63336">
        <ele>20.8</ele>
        <time>2021-09-12T07:17:50Z</time>
      </trkpt>
      <trkpt lat="49.11461" lon="1.63342">
        <ele>20.8</ele>
        <time>2021-09-12T07:17:51Z</time>
      </trkpt>
      <trkpt lat="49.11478" lon="1.6337">
        <ele>20.8</ele>
        <time>2021-09-12T07:17:56Z</time>
      </trkpt>
      <trkpt lat="49.11498" lon="1.63412">
        <ele>20.8</ele>
        <time>2021-09-12T07:18:03Z</time>
      </trkpt>
      <trkpt lat="49.11524" lon="1.63469">
        <ele>21.4</ele>
        <time>2021-09-12T07:18:12Z</time>
      </trkpt>
      <trkpt lat="49.11527" lon="1.63476">
        <ele>21.4</ele>
        <time>2021-09-12T07:18:13Z</time>
      </trkpt>
      <trkpt lat="49.11532" lon="1.63489">
        <ele>21.4</ele>
        <time>2021-09-12T07:18:15Z</time>
      </trkpt>
      <trkpt lat="49.11537" lon="1.63502">
        <ele>21.4</ele>
        <time>2021-09-12T07:18:17Z</time>
      </trkpt>
      <trkpt lat="49.11556" lon="1.63547">
        <ele>21.2</ele>
        <time>2021-09-12T07:18:24Z</time>
      </trkpt>
      <trkpt lat="49.11565" lon="1.63565">
        <ele>21</ele>
        <time>2021-09-12T07:18:27Z</time>
      </trkpt>
      <trkpt lat="49.11573" lon="1.63576">
        <ele>21</ele>
        <time>2021-09-12T07:18:29Z</time>
      </trkpt>
      <trkpt lat="49.11577" lon="1.63581">
        <ele>21</ele>
        <time>2021-09-12T07:18:30Z</time>
      </trkpt>
      <trkpt lat="49.11611" lon="1.63629">
        <ele>21</ele>
        <time>2021-09-12T07:18:39Z</time>
      </trkpt>
      <trkpt lat="49.11626" lon="1.63661">
        <ele>21</ele>
        <time>2021-09-12T07:18:44Z</time>
      </trkpt>
      <trkpt lat="49.11628" lon="1.63668">
        <ele>21</ele>
        <time>2021-09-12T07:18:45Z</time>
      </trkpt>
      <trkpt lat="49.11639" lon="1.63719">
        <ele>21.2</ele>
        <time>2021-09-12T07:18:52Z</time>
      </trkpt>
      <trkpt lat="49.1164" lon="1.63732">
        <ele>21.2</ele>
        <time>2021-09-12T07:18:54Z</time>
      </trkpt>
      <trkpt lat="49.1164" lon="1.6376">
        <ele>21.4</ele>
        <time>2021-09-12T07:18:58Z</time>
      </trkpt>
      <trkpt lat="49.11644" lon="1.63795">
        <ele>21.6</ele>
        <time>2021-09-12T07:19:04Z</time>
      </trkpt>
      <trkpt lat="49.11646" lon="1.638">
        <ele>21.8</ele>
        <time>2021-09-12T07:19:05Z</time>
      </trkpt>
      <trkpt lat="49.11653" lon="1.63815">
        <ele>22</ele>
        <time>2021-09-12T07:19:08Z</time>
      </trkpt>
      <trkpt lat="49.11658" lon="1.63825">
        <ele>22</ele>
        <time>2021-09-12T07:19:10Z</time>
      </trkpt>
      <trkpt lat="49.1167" lon="1.63842">
        <ele>22.2</ele>
        <time>2021-09-12T07:19:13Z</time>
      </trkpt>
      <trkpt lat="49.11691" lon="1.63875">
        <ele>22.2</ele>
        <time>2021-09-12T07:19:19Z</time>
      </trkpt>
      <trkpt lat="49.11722" lon="1.63917">
        <ele>22.4</ele>
        <time>2021-09-12T07:19:27Z</time>
      </trkpt>
      <trkpt lat="49.11728" lon="1.63927">
        <ele>22.4</ele>
        <time>2021-09-12T07:19:29Z</time>
      </trkpt>
      <trkpt lat="49.1174" lon="1.63947">
        <ele>22.6</ele>
        <time>2021-09-12T07:19:33Z</time>
      </trkpt>
      <trkpt lat="49.11743" lon="1.63952">
        <ele>22.6</ele>
        <time>2021-09-12T07:19:34Z</time>
      </trkpt>
      <trkpt lat="49.11745" lon="1.63958">
        <ele>22.8</ele>
        <time>2021-09-12T07:19:35Z</time>
      </trkpt>
      <trkpt lat="49.11756" lon="1.63982">
        <ele>23.2</ele>
        <time>2021-09-12T07:19:39Z</time>
      </trkpt>
      <trkpt lat="49.11774" lon="1.64019">
        <ele>23.6</ele>
        <time>2021-09-12T07:19:45Z</time>
      </trkpt>
      <trkpt lat="49.11785" lon="1.64043">
        <ele>23.8</ele>
        <time>2021-09-12T07:19:49Z</time>
      </trkpt>
      <trkpt lat="49.11791" lon="1.64054">
        <ele>23.8</ele>
        <time>2021-09-12T07:19:51Z</time>
      </trkpt>
      <trkpt lat="49.11805" lon="1.64074">
        <ele>23.8</ele>
        <time>2021-09-12T07:19:55Z</time>
      </trkpt>
      <trkpt lat="49.11819" lon="1.64095">
        <ele>23.8</ele>
        <time>2021-09-12T07:19:59Z</time>
      </trkpt>
      <trkpt lat="49.11853" lon="1.64141">
        <ele>24</ele>
        <time>2021-09-12T07:20:09Z</time>
      </trkpt>
      <trkpt lat="49.11878" lon="1.64181">
        <ele>24</ele>
        <time>2021-09-12T07:20:17Z</time>
      </trkpt>
      <trkpt lat="49.11886" lon="1.64213">
        <ele>24</ele>
        <time>2021-09-12T07:20:22Z</time>
      </trkpt>
      <trkpt lat="49.11897" lon="1.64255">
        <ele>24</ele>
        <time>2021-09-12T07:20:28Z</time>
      </trkpt>
      <trkpt lat="49.119" lon="1.64261">
        <ele>23.8</ele>
        <time>2021-09-12T07:20:29Z</time>
      </trkpt>
      <trkpt lat="49.11902" lon="1.64267">
        <ele>23.6</ele>
        <time>2021-09-12T07:20:30Z</time>
      </trkpt>
      <trkpt lat="49.11915" lon="1.64286">
        <ele>23.6</ele>
        <time>2021-09-12T07:20:34Z</time>
      </trkpt>
      <trkpt lat="49.1192" lon="1.64295">
        <ele>23.6</ele>
        <time>2021-09-12T07:20:36Z</time>
      </trkpt>
      <trkpt lat="49.11932" lon="1.64306">
        <ele>23.6</ele>
        <time>2021-09-12T07:20:39Z</time>
      </trkpt>
      <trkpt lat="49.11936" lon="1.64308">
        <ele>23.6</ele>
        <time>2021-09-12T07:20:40Z</time>
      </trkpt>
      <trkpt lat="49.1197" lon="1.64325">
        <ele>23.6</ele>
        <time>2021-09-12T07:20:48Z</time>
      </trkpt>
      <trkpt lat="49.11969" lon="1.64337">
        <ele>23.6</ele>
        <time>2021-09-12T07:20:51Z</time>
      </trkpt>
      <trkpt lat="49.11957" lon="1.64358">
        <ele>23.6</ele>
        <time>2021-09-12T07:20:56Z</time>
      </trkpt>
      <trkpt lat="49.11954" lon="1.64372">
        <ele>23.6</ele>
        <time>2021-09-12T07:20:58Z</time>
      </trkpt>
      <trkpt lat="49.11953" lon="1.64379">
        <ele>23.4</ele>
        <time>2021-09-12T07:20:59Z</time>
      </trkpt>
      <trkpt lat="49.11953" lon="1.64387">
        <ele>23.4</ele>
        <time>2021-09-12T07:21:00Z</time>
      </trkpt>
      <trkpt lat="49.1196" lon="1.64414">
        <ele>23.4</ele>
        <time>2021-09-12T07:21:04Z</time>
      </trkpt>
      <trkpt lat="49.11978" lon="1.64436">
        <ele>22.8</ele>
        <time>2021-09-12T07:21:08Z</time>
      </trkpt>
      <trkpt lat="49.11997" lon="1.64454">
        <ele>22.8</ele>
        <time>2021-09-12T07:21:12Z</time>
      </trkpt>
      <trkpt lat="49.12002" lon="1.64458">
        <ele>22.8</ele>
        <time>2021-09-12T07:21:13Z</time>
      </trkpt>
      <trkpt lat="49.12012" lon="1.64465">
        <ele>22.4</ele>
        <time>2021-09-12T07:21:15Z</time>
      </trkpt>
      <trkpt lat="49.12022" lon="1.64474">
        <ele>22.2</ele>
        <time>2021-09-12T07:21:17Z</time>
      </trkpt>
      <trkpt lat="49.12026" lon="1.64478">
        <ele>22.2</ele>
        <time>2021-09-12T07:21:18Z</time>
      </trkpt>
      <trkpt lat="49.12038" lon="1.64501">
        <ele>22.2</ele>
        <time>2021-09-12T07:21:22Z</time>
      </trkpt>
      <trkpt lat="49.12039" lon="1.64508">
        <ele>22.2</ele>
        <time>2021-09-12T07:21:23Z</time>
      </trkpt>
      <trkpt lat="49.12045" lon="1.64538">
        <ele>22.4</ele>
        <time>2021-09-12T07:21:27Z</time>
      </trkpt>
      <trkpt lat="49.12046" lon="1.64546">
        <ele>22.6</ele>
        <time>2021-09-12T07:21:28Z</time>
      </trkpt>
      <trkpt lat="49.12041" lon="1.64587">
        <ele>22.6</ele>
        <time>2021-09-12T07:21:33Z</time>
      </trkpt>
      <trkpt lat="49.12033" lon="1.64611">
        <ele>22.6</ele>
        <time>2021-09-12T07:21:36Z</time>
      </trkpt>
      <trkpt lat="49.12026" lon="1.64626">
        <ele>22.4</ele>
        <time>2021-09-12T07:21:38Z</time>
      </trkpt>
      <trkpt lat="49.11995" lon="1.64702">
        <ele>21.6</ele>
        <time>2021-09-12T07:21:48Z</time>
      </trkpt>
      <trkpt lat="49.11982" lon="1.64732">
        <ele>21.4</ele>
        <time>2021-09-12T07:21:52Z</time>
      </trkpt>
      <trkpt lat="49.11964" lon="1.64767">
        <ele>21.2</ele>
        <time>2021-09-12T07:21:57Z</time>
      </trkpt>
      <trkpt lat="49.11944" lon="1.64786">
        <ele>21.2</ele>
        <time>2021-09-12T07:22:01Z</time>
      </trkpt>
      <trkpt lat="49.11939" lon="1.6479">
        <ele>21.2</ele>
        <time>2021-09-12T07:22:02Z</time>
      </trkpt>
      <trkpt lat="49.11924" lon="1.64816">
        <ele>21.2</ele>
        <time>2021-09-12T07:22:06Z</time>
      </trkpt>
      <trkpt lat="49.11906" lon="1.64856">
        <ele>21.4</ele>
        <time>2021-09-12T07:22:12Z</time>
      </trkpt>
      <trkpt lat="49.11891" lon="1.64891">
        <ele>21.4</ele>
        <time>2021-09-12T07:22:17Z</time>
      </trkpt>
      <trkpt lat="49.1188" lon="1.64919">
        <ele>21.6</ele>
        <time>2021-09-12T07:22:21Z</time>
      </trkpt>
      <trkpt lat="49.11875" lon="1.64932">
        <ele>21.6</ele>
        <time>2021-09-12T07:22:23Z</time>
      </trkpt>
      <trkpt lat="49.11858" lon="1.64974">
        <ele>21.6</ele>
        <time>2021-09-12T07:22:29Z</time>
      </trkpt>
      <trkpt lat="49.11837" lon="1.65025">
        <ele>21.8</ele>
        <time>2021-09-12T07:22:36Z</time>
      </trkpt>
      <trkpt lat="49.11808" lon="1.65092">
        <ele>21.8</ele>
        <time>2021-09-12T07:22:45Z</time>
      </trkpt>
      <trkpt lat="49.11793" lon="1.65127">
        <ele>21.8</ele>
        <time>2021-09-12T07:22:50Z</time>
      </trkpt>
      <trkpt lat="49.11775" lon="1.65169">
        <ele>22</ele>
        <time>2021-09-12T07:22:56Z</time>
      </trkpt>
      <trkpt lat="49.11761" lon="1.65209">
        <ele>22.4</ele>
        <time>2021-09-12T07:23:02Z</time>
      </trkpt>
      <trkpt lat="49.11754" lon="1.65226">
        <ele>22.6</ele>
        <time>2021-09-12T07:23:05Z</time>
      </trkpt>
      <trkpt lat="49.11751" lon="1.65233">
        <ele>22.6</ele>
        <time>2021-09-12T07:23:06Z</time>
      </trkpt>
      <trkpt lat="49.11733" lon="1.65274">
        <ele>23</ele>
        <time>2021-09-12T07:23:13Z</time>
      </trkpt>
      <trkpt lat="49.11718" lon="1.65309">
        <ele>23.4</ele>
        <time>2021-09-12T07:23:20Z</time>
      </trkpt>
      <trkpt lat="49.11716" lon="1.65313">
        <ele>23.6</ele>
        <time>2021-09-12T07:23:21Z</time>
      </trkpt>
      <trkpt lat="49.11706" lon="1.65326">
        <ele>24.4</ele>
        <time>2021-09-12T07:23:26Z</time>
      </trkpt>
      <trkpt lat="49.11704" lon="1.65329">
        <ele>24.6</ele>
        <time>2021-09-12T07:23:27Z</time>
      </trkpt>
      <trkpt lat="49.11702" lon="1.65341">
        <ele>25.4</ele>
        <time>2021-09-12T07:23:30Z</time>
      </trkpt>
      <trkpt lat="49.11703" lon="1.65345">
        <ele>25.6</ele>
        <time>2021-09-12T07:23:31Z</time>
      </trkpt>
      <trkpt lat="49.11708" lon="1.65356">
        <ele>26.6</ele>
        <time>2021-09-12T07:23:34Z</time>
      </trkpt>
      <trkpt lat="49.1171" lon="1.65359">
        <ele>26.8</ele>
        <time>2021-09-12T07:23:35Z</time>
      </trkpt>
      <trkpt lat="49.11719" lon="1.65375">
        <ele>27.8</ele>
        <time>2021-09-12T07:23:40Z</time>
      </trkpt>
      <trkpt lat="49.11721" lon="1.65378">
        <ele>28</ele>
        <time>2021-09-12T07:23:41Z</time>
      </trkpt>
      <trkpt lat="49.11737" lon="1.65404">
        <ele>28.6</ele>
        <time>2021-09-12T07:23:48Z</time>
      </trkpt>
      <trkpt lat="49.11749" lon="1.6542">
        <ele>29</ele>
        <time>2021-09-12T07:23:53Z</time>
      </trkpt>
      <trkpt lat="49.11754" lon="1.65426">
        <ele>29</ele>
        <time>2021-09-12T07:23:55Z</time>
      </trkpt>
      <trkpt lat="49.11759" lon="1.65433">
        <ele>29</ele>
        <time>2021-09-12T07:23:58Z</time>
      </trkpt>
      <trkpt lat="49.11759" lon="1.65436">
        <ele>29.2</ele>
        <time>2021-09-12T07:23:59Z</time>
      </trkpt>
      <trkpt lat="49.1175" lon="1.65443">
        <ele>29.4</ele>
        <time>2021-09-12T07:24:04Z</time>
      </trkpt>
      <trkpt lat="49.1174" lon="1.65445">
        <ele>29.6</ele>
        <time>2021-09-12T07:24:09Z</time>
      </trkpt>
      <trkpt lat="49.11739" lon="1.65445">
        <ele>29.6</ele>
        <time>2021-09-12T07:24:10Z</time>
      </trkpt>
      <trkpt lat="49.11737" lon="1.65445">
        <ele>29.8</ele>
        <time>2021-09-12T07:24:11Z</time>
      </trkpt>
      <trkpt lat="49.11727" lon="1.65446">
        <ele>31</ele>
        <time>2021-09-12T07:24:16Z</time>
      </trkpt>
      <trkpt lat="49.11723" lon="1.65446">
        <ele>31.2</ele>
        <time>2021-09-12T07:24:18Z</time>
      </trkpt>
      <trkpt lat="49.11714" lon="1.65447">
        <ele>32.2</ele>
        <time>2021-09-12T07:24:23Z</time>
      </trkpt>
      <trkpt lat="49.11707" lon="1.6545">
        <ele>32.8</ele>
        <time>2021-09-12T07:24:27Z</time>
      </trkpt>
      <trkpt lat="49.11702" lon="1.65452">
        <ele>33.2</ele>
        <time>2021-09-12T07:24:30Z</time>
      </trkpt>
      <trkpt lat="49.11694" lon="1.65454">
        <ele>34.2</ele>
        <time>2021-09-12T07:24:35Z</time>
      </trkpt>
      <trkpt lat="49.11685" lon="1.65459">
        <ele>35.4</ele>
        <time>2021-09-12T07:24:41Z</time>
      </trkpt>
      <trkpt lat="49.11681" lon="1.6546">
        <ele>35.6</ele>
        <time>2021-09-12T07:24:43Z</time>
      </trkpt>
      <trkpt lat="49.11676" lon="1.65462">
        <ele>36.4</ele>
        <time>2021-09-12T07:24:46Z</time>
      </trkpt>
      <trkpt lat="49.11671" lon="1.65464">
        <ele>37.4</ele>
        <time>2021-09-12T07:24:49Z</time>
      </trkpt>
      <trkpt lat="49.11665" lon="1.65467">
        <ele>38.6</ele>
        <time>2021-09-12T07:24:53Z</time>
      </trkpt>
      <trkpt lat="49.11656" lon="1.65471">
        <ele>39.6</ele>
        <time>2021-09-12T07:24:58Z</time>
      </trkpt>
      <trkpt lat="49.11651" lon="1.65473">
        <ele>40.4</ele>
        <time>2021-09-12T07:25:01Z</time>
      </trkpt>
      <trkpt lat="49.1165" lon="1.65474">
        <ele>40.6</ele>
        <time>2021-09-12T07:25:02Z</time>
      </trkpt>
      <trkpt lat="49.11644" lon="1.65476">
        <ele>41.8</ele>
        <time>2021-09-12T07:25:06Z</time>
      </trkpt>
      <trkpt lat="49.11641" lon="1.65478">
        <ele>42.6</ele>
        <time>2021-09-12T07:25:08Z</time>
      </trkpt>
      <trkpt lat="49.11639" lon="1.65479">
        <ele>43.2</ele>
        <time>2021-09-12T07:25:10Z</time>
      </trkpt>
      <trkpt lat="49.11636" lon="1.6548">
        <ele>44</ele>
        <time>2021-09-12T07:25:13Z</time>
      </trkpt>
      <trkpt lat="49.11635" lon="1.6548">
        <ele>44.2</ele>
        <time>2021-09-12T07:25:14Z</time>
      </trkpt>
      <trkpt lat="49.1163" lon="1.65483">
        <ele>45.4</ele>
        <time>2021-09-12T07:25:18Z</time>
      </trkpt>
      <trkpt lat="49.11626" lon="1.65485">
        <ele>45.8</ele>
        <time>2021-09-12T07:25:20Z</time>
      </trkpt>
      <trkpt lat="49.1162" lon="1.65489">
        <ele>46.4</ele>
        <time>2021-09-12T07:25:23Z</time>
      </trkpt>
      <trkpt lat="49.11614" lon="1.65493">
        <ele>47</ele>
        <time>2021-09-12T07:25:26Z</time>
      </trkpt>
      <trkpt lat="49.11609" lon="1.65496">
        <ele>47.6</ele>
        <time>2021-09-12T07:25:29Z</time>
      </trkpt>
      <trkpt lat="49.11605" lon="1.65498">
        <ele>48.4</ele>
        <time>2021-09-12T07:25:32Z</time>
      </trkpt>
      <trkpt lat="49.11602" lon="1.65499">
        <ele>48.8</ele>
        <time>2021-09-12T07:25:34Z</time>
      </trkpt>
      <trkpt lat="49.11596" lon="1.65501">
        <ele>49.8</ele>
        <time>2021-09-12T07:25:38Z</time>
      </trkpt>
      <trkpt lat="49.11594" lon="1.65501">
        <ele>50</ele>
        <time>2021-09-12T07:25:39Z</time>
      </trkpt>
      <trkpt lat="49.11586" lon="1.65503">
        <ele>51</ele>
        <time>2021-09-12T07:25:43Z</time>
      </trkpt>
      <trkpt lat="49.11584" lon="1.65503">
        <ele>51.6</ele>
        <time>2021-09-12T07:25:45Z</time>
      </trkpt>
      <trkpt lat="49.11583" lon="1.65504">
        <ele>52</ele>
        <time>2021-09-12T07:25:46Z</time>
      </trkpt>
      <trkpt lat="49.11574" lon="1.65509">
        <ele>53.2</ele>
        <time>2021-09-12T07:25:51Z</time>
      </trkpt>
      <trkpt lat="49.11566" lon="1.65513">
        <ele>54.2</ele>
        <time>2021-09-12T07:25:56Z</time>
      </trkpt>
      <trkpt lat="49.11565" lon="1.65514">
        <ele>54.4</ele>
        <time>2021-09-12T07:25:57Z</time>
      </trkpt>
      <trkpt lat="49.11556" lon="1.6552">
        <ele>55.4</ele>
        <time>2021-09-12T07:26:02Z</time>
      </trkpt>
      <trkpt lat="49.11552" lon="1.65522">
        <ele>56</ele>
        <time>2021-09-12T07:26:04Z</time>
      </trkpt>
      <trkpt lat="49.11549" lon="1.65524">
        <ele>56.4</ele>
        <time>2021-09-12T07:26:06Z</time>
      </trkpt>
      <trkpt lat="49.11544" lon="1.65527">
        <ele>57</ele>
        <time>2021-09-12T07:26:09Z</time>
      </trkpt>
      <trkpt lat="49.11539" lon="1.65528">
        <ele>57.6</ele>
        <time>2021-09-12T07:26:12Z</time>
      </trkpt>
      <trkpt lat="49.11535" lon="1.65529">
        <ele>58.4</ele>
        <time>2021-09-12T07:26:14Z</time>
      </trkpt>
      <trkpt lat="49.11531" lon="1.6553">
        <ele>58.8</ele>
        <time>2021-09-12T07:26:16Z</time>
      </trkpt>
      <trkpt lat="49.11525" lon="1.65533">
        <ele>59.4</ele>
        <time>2021-09-12T07:26:20Z</time>
      </trkpt>
      <trkpt lat="49.11522" lon="1.65535">
        <ele>59.8</ele>
        <time>2021-09-12T07:26:22Z</time>
      </trkpt>
      <trkpt lat="49.11519" lon="1.65536">
        <ele>60.4</ele>
        <time>2021-09-12T07:26:24Z</time>
      </trkpt>
      <trkpt lat="49.11517" lon="1.65537">
        <ele>60.8</ele>
        <time>2021-09-12T07:26:26Z</time>
      </trkpt>
      <trkpt lat="49.11512" lon="1.65539">
        <ele>62</ele>
        <time>2021-09-12T07:26:30Z</time>
      </trkpt>
      <trkpt lat="49.11508" lon="1.6554">
        <ele>62.2</ele>
        <time>2021-09-12T07:26:32Z</time>
      </trkpt>
      <trkpt lat="49.115" lon="1.65543">
        <ele>63.2</ele>
        <time>2021-09-12T07:26:36Z</time>
      </trkpt>
      <trkpt lat="49.11496" lon="1.65545">
        <ele>63.6</ele>
        <time>2021-09-12T07:26:38Z</time>
      </trkpt>
      <trkpt lat="49.11491" lon="1.65548">
        <ele>64.8</ele>
        <time>2021-09-12T07:26:41Z</time>
      </trkpt>
      <trkpt lat="49.11487" lon="1.65552">
        <ele>65.4</ele>
        <time>2021-09-12T07:26:44Z</time>
      </trkpt>
      <trkpt lat="49.11483" lon="1.65555">
        <ele>66</ele>
        <time>2021-09-12T07:26:46Z</time>
      </trkpt>
      <trkpt lat="49.11474" lon="1.65562">
        <ele>67</ele>
        <time>2021-09-12T07:26:50Z</time>
      </trkpt>
      <trkpt lat="49.11472" lon="1.65564">
        <ele>67.2</ele>
        <time>2021-09-12T07:26:51Z</time>
      </trkpt>
      <trkpt lat="49.11464" lon="1.65571">
        <ele>67.8</ele>
        <time>2021-09-12T07:26:55Z</time>
      </trkpt>
      <trkpt lat="49.11459" lon="1.65573">
        <ele>68.2</ele>
        <time>2021-09-12T07:26:57Z</time>
      </trkpt>
      <trkpt lat="49.11454" lon="1.65577">
        <ele>68.8</ele>
        <time>2021-09-12T07:27:00Z</time>
      </trkpt>
      <trkpt lat="49.11449" lon="1.65581">
        <ele>69.2</ele>
        <time>2021-09-12T07:27:03Z</time>
      </trkpt>
      <trkpt lat="49.11445" lon="1.65585">
        <ele>69.6</ele>
        <time>2021-09-12T07:27:05Z</time>
      </trkpt>
      <trkpt lat="49.11439" lon="1.6559">
        <ele>70.2</ele>
        <time>2021-09-12T07:27:08Z</time>
      </trkpt>
      <trkpt lat="49.11432" lon="1.656">
        <ele>71.2</ele>
        <time>2021-09-12T07:27:13Z</time>
      </trkpt>
      <trkpt lat="49.11419" lon="1.65607">
        <ele>72.2</ele>
        <time>2021-09-12T07:27:18Z</time>
      </trkpt>
      <trkpt lat="49.11417" lon="1.65608">
        <ele>72.6</ele>
        <time>2021-09-12T07:27:19Z</time>
      </trkpt>
      <trkpt lat="49.11405" lon="1.65611">
        <ele>73.6</ele>
        <time>2021-09-12T07:27:24Z</time>
      </trkpt>
      <trkpt lat="49.11395" lon="1.65609">
        <ele>74.8</ele>
        <time>2021-09-12T07:27:28Z</time>
      </trkpt>
      <trkpt lat="49.1139" lon="1.6561">
        <ele>75.2</ele>
        <time>2021-09-12T07:27:30Z</time>
      </trkpt>
      <trkpt lat="49.11383" lon="1.65612">
        <ele>76</ele>
        <time>2021-09-12T07:27:33Z</time>
      </trkpt>
      <trkpt lat="49.11375" lon="1.65616">
        <ele>76.8</ele>
        <time>2021-09-12T07:27:36Z</time>
      </trkpt>
      <trkpt lat="49.11372" lon="1.65618">
        <ele>77.2</ele>
        <time>2021-09-12T07:27:37Z</time>
      </trkpt>
      <trkpt lat="49.11363" lon="1.65626">
        <ele>78.4</ele>
        <time>2021-09-12T07:27:41Z</time>
      </trkpt>
      <trkpt lat="49.11361" lon="1.65628">
        <ele>78.8</ele>
        <time>2021-09-12T07:27:42Z</time>
      </trkpt>
      <trkpt lat="49.11353" lon="1.65634">
        <ele>79.6</ele>
        <time>2021-09-12T07:27:45Z</time>
      </trkpt>
      <trkpt lat="49.11348" lon="1.65639">
        <ele>80.2</ele>
        <time>2021-09-12T07:27:47Z</time>
      </trkpt>
      <trkpt lat="49.1134" lon="1.65643">
        <ele>80.6</ele>
        <time>2021-09-12T07:27:50Z</time>
      </trkpt>
      <trkpt lat="49.11329" lon="1.65647">
        <ele>81</ele>
        <time>2021-09-12T07:27:54Z</time>
      </trkpt>
      <trkpt lat="49.11317" lon="1.65653">
        <ele>81.8</ele>
        <time>2021-09-12T07:27:59Z</time>
      </trkpt>
      <trkpt lat="49.11314" lon="1.65654">
        <ele>82</ele>
        <time>2021-09-12T07:28:00Z</time>
      </trkpt>
      <trkpt lat="49.11303" lon="1.65657">
        <ele>82.8</ele>
        <time>2021-09-12T07:28:04Z</time>
      </trkpt>
      <trkpt lat="49.113" lon="1.65658">
        <ele>83</ele>
        <time>2021-09-12T07:28:05Z</time>
      </trkpt>
      <trkpt lat="49.11282" lon="1.65663">
        <ele>84</ele>
        <time>2021-09-12T07:28:11Z</time>
      </trkpt>
      <trkpt lat="49.11276" lon="1.65665">
        <ele>84.2</ele>
        <time>2021-09-12T07:28:13Z</time>
      </trkpt>
      <trkpt lat="49.11253" lon="1.6567">
        <ele>84.8</ele>
        <time>2021-09-12T07:28:19Z</time>
      </trkpt>
      <trkpt lat="49.11245" lon="1.65669">
        <ele>85</ele>
        <time>2021-09-12T07:28:21Z</time>
      </trkpt>
      <trkpt lat="49.11236" lon="1.65667">
        <ele>85.2</ele>
        <time>2021-09-12T07:28:24Z</time>
      </trkpt>
      <trkpt lat="49.11211" lon="1.65663">
        <ele>85.8</ele>
        <time>2021-09-12T07:28:32Z</time>
      </trkpt>
      <trkpt lat="49.11207" lon="1.65661">
        <ele>86.2</ele>
        <time>2021-09-12T07:28:34Z</time>
      </trkpt>
      <trkpt lat="49.11197" lon="1.6566">
        <ele>87</ele>
        <time>2021-09-12T07:28:38Z</time>
      </trkpt>
      <trkpt lat="49.11195" lon="1.65659">
        <ele>87.2</ele>
        <time>2021-09-12T07:28:39Z</time>
      </trkpt>
      <trkpt lat="49.11184" lon="1.65657">
        <ele>88.4</ele>
        <time>2021-09-12T07:28:44Z</time>
      </trkpt>
      <trkpt lat="49.11182" lon="1.65656">
        <ele>88.4</ele>
        <time>2021-09-12T07:28:45Z</time>
      </trkpt>
      <trkpt lat="49.11172" lon="1.65653">
        <ele>89.6</ele>
        <time>2021-09-12T07:28:50Z</time>
      </trkpt>
      <trkpt lat="49.11166" lon="1.6565">
        <ele>90.2</ele>
        <time>2021-09-12T07:28:53Z</time>
      </trkpt>
      <trkpt lat="49.11161" lon="1.6565">
        <ele>90.6</ele>
        <time>2021-09-12T07:28:55Z</time>
      </trkpt>
      <trkpt lat="49.11154" lon="1.65654">
        <ele>91.2</ele>
        <time>2021-09-12T07:28:58Z</time>
      </trkpt>
      <trkpt lat="49.11149" lon="1.65659">
        <ele>91.8</ele>
        <time>2021-09-12T07:29:00Z</time>
      </trkpt>
      <trkpt lat="49.1114" lon="1.65672">
        <ele>93</ele>
        <time>2021-09-12T07:29:04Z</time>
      </trkpt>
      <trkpt lat="49.11138" lon="1.65676">
        <ele>93</ele>
        <time>2021-09-12T07:29:05Z</time>
      </trkpt>
      <trkpt lat="49.11123" lon="1.65705">
        <ele>93.2</ele>
        <time>2021-09-12T07:29:11Z</time>
      </trkpt>
      <trkpt lat="49.11105" lon="1.65744">
        <ele>93</ele>
        <time>2021-09-12T07:29:17Z</time>
      </trkpt>
      <trkpt lat="49.11086" lon="1.6578">
        <ele>92</ele>
        <time>2021-09-12T07:29:23Z</time>
      </trkpt>
      <trkpt lat="49.11074" lon="1.65806">
        <ele>91</ele>
        <time>2021-09-12T07:29:27Z</time>
      </trkpt>
      <trkpt lat="49.11061" lon="1.65838">
        <ele>90.4</ele>
        <time>2021-09-12T07:29:32Z</time>
      </trkpt>
      <trkpt lat="49.11042" lon="1.65892">
        <ele>90.4</ele>
        <time>2021-09-12T07:29:41Z</time>
      </trkpt>
      <trkpt lat="49.11029" lon="1.65927">
        <ele>91.2</ele>
        <time>2021-09-12T07:29:48Z</time>
      </trkpt>
      <trkpt lat="49.11014" lon="1.65958">
        <ele>92.2</ele>
        <time>2021-09-12T07:29:55Z</time>
      </trkpt>
      <trkpt lat="49.1101" lon="1.65967">
        <ele>92.6</ele>
        <time>2021-09-12T07:29:57Z</time>
      </trkpt>
      <trkpt lat="49.11005" lon="1.65976">
        <ele>93.2</ele>
        <time>2021-09-12T07:29:59Z</time>
      </trkpt>
      <trkpt lat="49.10999" lon="1.6599">
        <ele>94.2</ele>
        <time>2021-09-12T07:30:02Z</time>
      </trkpt>
      <trkpt lat="49.10992" lon="1.66009">
        <ele>95.2</ele>
        <time>2021-09-12T07:30:06Z</time>
      </trkpt>
      <trkpt lat="49.10985" lon="1.66032">
        <ele>96.4</ele>
        <time>2021-09-12T07:30:11Z</time>
      </trkpt>
      <trkpt lat="49.10982" lon="1.66046">
        <ele>97</ele>
        <time>2021-09-12T07:30:14Z</time>
      </trkpt>
      <trkpt lat="49.10979" lon="1.6606">
        <ele>97.6</ele>
        <time>2021-09-12T07:30:17Z</time>
      </trkpt>
      <trkpt lat="49.10973" lon="1.66076">
        <ele>98.4</ele>
        <time>2021-09-12T07:30:21Z</time>
      </trkpt>
      <trkpt lat="49.10968" lon="1.66079">
        <ele>98.6</ele>
        <time>2021-09-12T07:30:23Z</time>
      </trkpt>
      <trkpt lat="49.10963" lon="1.66079">
        <ele>99.2</ele>
        <time>2021-09-12T07:30:25Z</time>
      </trkpt>
      <trkpt lat="49.10951" lon="1.66071">
        <ele>99.6</ele>
        <time>2021-09-12T07:30:30Z</time>
      </trkpt>
      <trkpt lat="49.10944" lon="1.66064">
        <ele>100.4</ele>
        <time>2021-09-12T07:30:33Z</time>
      </trkpt>
      <trkpt lat="49.10936" lon="1.66057">
        <ele>100.8</ele>
        <time>2021-09-12T07:30:36Z</time>
      </trkpt>
      <trkpt lat="49.10921" lon="1.66043">
        <ele>101.2</ele>
        <time>2021-09-12T07:30:42Z</time>
      </trkpt>
      <trkpt lat="49.10901" lon="1.66025">
        <ele>101.8</ele>
        <time>2021-09-12T07:30:50Z</time>
      </trkpt>
      <trkpt lat="49.10884" lon="1.66012">
        <ele>102.8</ele>
        <time>2021-09-12T07:30:57Z</time>
      </trkpt>
      <trkpt lat="49.10881" lon="1.6601">
        <ele>103</ele>
        <time>2021-09-12T07:30:58Z</time>
      </trkpt>
      <trkpt lat="49.10872" lon="1.66003">
        <ele>104</ele>
        <time>2021-09-12T07:31:02Z</time>
      </trkpt>
      <trkpt lat="49.10865" lon="1.65999">
        <ele>104.6</ele>
        <time>2021-09-12T07:31:05Z</time>
      </trkpt>
      <trkpt lat="49.1086" lon="1.65997">
        <ele>105</ele>
        <time>2021-09-12T07:31:07Z</time>
      </trkpt>
      <trkpt lat="49.10849" lon="1.65991">
        <ele>106</ele>
        <time>2021-09-12T07:31:12Z</time>
      </trkpt>
      <trkpt lat="49.10845" lon="1.65989">
        <ele>106.6</ele>
        <time>2021-09-12T07:31:14Z</time>
      </trkpt>
      <trkpt lat="49.10839" lon="1.65985">
        <ele>107.2</ele>
        <time>2021-09-12T07:31:17Z</time>
      </trkpt>
      <trkpt lat="49.10831" lon="1.65982">
        <ele>108</ele>
        <time>2021-09-12T07:31:21Z</time>
      </trkpt>
      <trkpt lat="49.10829" lon="1.6598">
        <ele>108.2</ele>
        <time>2021-09-12T07:31:22Z</time>
      </trkpt>
      <trkpt lat="49.10827" lon="1.65979">
        <ele>108.4</ele>
        <time>2021-09-12T07:31:23Z</time>
      </trkpt>
      <trkpt lat="49.10819" lon="1.65975">
        <ele>109.6</ele>
        <time>2021-09-12T07:31:27Z</time>
      </trkpt>
      <trkpt lat="49.10815" lon="1.65972">
        <ele>109.8</ele>
        <time>2021-09-12T07:31:29Z</time>
      </trkpt>
      <trkpt lat="49.10807" lon="1.65966">
        <ele>110.6</ele>
        <time>2021-09-12T07:31:33Z</time>
      </trkpt>
      <trkpt lat="49.10799" lon="1.65961">
        <ele>111.2</ele>
        <time>2021-09-12T07:31:37Z</time>
      </trkpt>
      <trkpt lat="49.10793" lon="1.65957">
        <ele>111.6</ele>
        <time>2021-09-12T07:31:40Z</time>
      </trkpt>
      <trkpt lat="49.10785" lon="1.65951">
        <ele>112.4</ele>
        <time>2021-09-12T07:31:44Z</time>
      </trkpt>
      <trkpt lat="49.1078" lon="1.65948">
        <ele>112.8</ele>
        <time>2021-09-12T07:31:46Z</time>
      </trkpt>
      <trkpt lat="49.10772" lon="1.65942">
        <ele>113.8</ele>
        <time>2021-09-12T07:31:50Z</time>
      </trkpt>
      <trkpt lat="49.10765" lon="1.65938">
        <ele>114.6</ele>
        <time>2021-09-12T07:31:53Z</time>
      </trkpt>
      <trkpt lat="49.1076" lon="1.65938">
        <ele>115</ele>
        <time>2021-09-12T07:31:55Z</time>
      </trkpt>
      <trkpt lat="49.10754" lon="1.65942">
        <ele>115.8</ele>
        <time>2021-09-12T07:31:58Z</time>
      </trkpt>
      <trkpt lat="49.10752" lon="1.65945">
        <ele>116</ele>
        <time>2021-09-12T07:31:59Z</time>
      </trkpt>
      <trkpt lat="49.10745" lon="1.65954">
        <ele>117</ele>
        <time>2021-09-12T07:32:03Z</time>
      </trkpt>
      <trkpt lat="49.10742" lon="1.6596">
        <ele>117.6</ele>
        <time>2021-09-12T07:32:05Z</time>
      </trkpt>
      <trkpt lat="49.10738" lon="1.65965">
        <ele>118.2</ele>
        <time>2021-09-12T07:32:07Z</time>
      </trkpt>
      <trkpt lat="49.10731" lon="1.65974">
        <ele>119.4</ele>
        <time>2021-09-12T07:32:11Z</time>
      </trkpt>
      <trkpt lat="49.10728" lon="1.65978">
        <ele>119.8</ele>
        <time>2021-09-12T07:32:13Z</time>
      </trkpt>
      <trkpt lat="49.10724" lon="1.65984">
        <ele>120.6</ele>
        <time>2021-09-12T07:32:16Z</time>
      </trkpt>
      <trkpt lat="49.10718" lon="1.65992">
        <ele>121.8</ele>
        <time>2021-09-12T07:32:20Z</time>
      </trkpt>
      <trkpt lat="49.10711" lon="1.65998">
        <ele>122.8</ele>
        <time>2021-09-12T07:32:24Z</time>
      </trkpt>
      <trkpt lat="49.10704" lon="1.66002">
        <ele>123.8</ele>
        <time>2021-09-12T07:32:28Z</time>
      </trkpt>
      <trkpt lat="49.10702" lon="1.66002">
        <ele>124</ele>
        <time>2021-09-12T07:32:29Z</time>
      </trkpt>
      <trkpt lat="49.10692" lon="1.66">
        <ele>125</ele>
        <time>2021-09-12T07:32:34Z</time>
      </trkpt>
      <trkpt lat="49.1069" lon="1.66">
        <ele>125.2</ele>
        <time>2021-09-12T07:32:35Z</time>
      </trkpt>
      <trkpt lat="49.10684" lon="1.65997">
        <ele>126.2</ele>
        <time>2021-09-12T07:32:39Z</time>
      </trkpt>
      <trkpt lat="49.10679" lon="1.65995">
        <ele>126.8</ele>
        <time>2021-09-12T07:32:42Z</time>
      </trkpt>
      <trkpt lat="49.10673" lon="1.65993">
        <ele>127.4</ele>
        <time>2021-09-12T07:32:45Z</time>
      </trkpt>
      <trkpt lat="49.10663" lon="1.65989">
        <ele>128.6</ele>
        <time>2021-09-12T07:32:50Z</time>
      </trkpt>
      <trkpt lat="49.10661" lon="1.65988">
        <ele>128.8</ele>
        <time>2021-09-12T07:32:51Z</time>
      </trkpt>
      <trkpt lat="49.10654" lon="1.65985">
        <ele>129.6</ele>
        <time>2021-09-12T07:32:55Z</time>
      </trkpt>
      <trkpt lat="49.10644" lon="1.65982">
        <ele>130.8</ele>
        <time>2021-09-12T07:33:00Z</time>
      </trkpt>
      <trkpt lat="49.10634" lon="1.65978">
        <ele>131.8</ele>
        <time>2021-09-12T07:33:05Z</time>
      </trkpt>
      <trkpt lat="49.10624" lon="1.65975">
        <ele>132.4</ele>
        <time>2021-09-12T07:33:10Z</time>
      </trkpt>
      <trkpt lat="49.1062" lon="1.65973">
        <ele>132.8</ele>
        <time>2021-09-12T07:33:12Z</time>
      </trkpt>
      <trkpt lat="49.1061" lon="1.6597">
        <ele>134</ele>
        <time>2021-09-12T07:33:17Z</time>
      </trkpt>
      <trkpt lat="49.10605" lon="1.65968">
        <ele>134.2</ele>
        <time>2021-09-12T07:33:19Z</time>
      </trkpt>
      <trkpt lat="49.10595" lon="1.65964">
        <ele>135</ele>
        <time>2021-09-12T07:33:24Z</time>
      </trkpt>
      <trkpt lat="49.10586" lon="1.65961">
        <ele>135.8</ele>
        <time>2021-09-12T07:33:28Z</time>
      </trkpt>
      <trkpt lat="49.10582" lon="1.65959">
        <ele>136.2</ele>
        <time>2021-09-12T07:33:30Z</time>
      </trkpt>
      <trkpt lat="49.10572" lon="1.65955">
        <ele>136.8</ele>
        <time>2021-09-12T07:33:34Z</time>
      </trkpt>
      <trkpt lat="49.10567" lon="1.65953">
        <ele>137.2</ele>
        <time>2021-09-12T07:33:36Z</time>
      </trkpt>
      <trkpt lat="49.10549" lon="1.65947">
        <ele>138.4</ele>
        <time>2021-09-12T07:33:43Z</time>
      </trkpt>
      <trkpt lat="49.10539" lon="1.65943">
        <ele>139.4</ele>
        <time>2021-09-12T07:33:47Z</time>
      </trkpt>
      <trkpt lat="49.10525" lon="1.65938">
        <ele>140</ele>
        <time>2021-09-12T07:33:52Z</time>
      </trkpt>
      <trkpt lat="49.10516" lon="1.65935">
        <ele>140.4</ele>
        <time>2021-09-12T07:33:55Z</time>
      </trkpt>
      <trkpt lat="49.10499" lon="1.65927">
        <ele>141.4</ele>
        <time>2021-09-12T07:34:01Z</time>
      </trkpt>
      <trkpt lat="49.10496" lon="1.65926">
        <ele>141.6</ele>
        <time>2021-09-12T07:34:02Z</time>
      </trkpt>
      <trkpt lat="49.10478" lon="1.6592">
        <ele>142.8</ele>
        <time>2021-09-12T07:34:08Z</time>
      </trkpt>
      <trkpt lat="49.10475" lon="1.65919">
        <ele>143</ele>
        <time>2021-09-12T07:34:09Z</time>
      </trkpt>
      <trkpt lat="49.10451" lon="1.65911">
        <ele>144</ele>
        <time>2021-09-12T07:34:17Z</time>
      </trkpt>
      <trkpt lat="49.10447" lon="1.6591">
        <ele>144</ele>
        <time>2021-09-12T07:34:18Z</time>
      </trkpt>
      <trkpt lat="49.10426" lon="1.659">
        <ele>144.8</ele>
        <time>2021-09-12T07:34:25Z</time>
      </trkpt>
      <trkpt lat="49.10418" lon="1.65897">
        <ele>145</ele>
        <time>2021-09-12T07:34:27Z</time>
      </trkpt>
      <trkpt lat="49.10406" lon="1.65893">
        <ele>145.2</ele>
        <time>2021-09-12T07:34:30Z</time>
      </trkpt>
      <trkpt lat="49.10383" lon="1.65887">
        <ele>146</ele>
        <time>2021-09-12T07:34:37Z</time>
      </trkpt>
      <trkpt lat="49.10371" lon="1.65883">
        <ele>146.6</ele>
        <time>2021-09-12T07:34:43Z</time>
      </trkpt>
      <trkpt lat="49.10369" lon="1.65882">
        <ele>146.6</ele>
        <time>2021-09-12T07:34:44Z</time>
      </trkpt>
      <trkpt lat="49.10365" lon="1.65886">
        <ele>146.8</ele>
        <time>2021-09-12T07:34:47Z</time>
      </trkpt>
      <trkpt lat="49.10356" lon="1.65903">
        <ele>146.8</ele>
        <time>2021-09-12T07:34:54Z</time>
      </trkpt>
      <trkpt lat="49.10351" lon="1.65912">
        <ele>147</ele>
        <time>2021-09-12T07:34:59Z</time>
      </trkpt>
      <trkpt lat="49.10351" lon="1.65912">
        <ele>147</ele>
        <time>2021-09-12T07:35:00Z</time>
      </trkpt>
      <trkpt lat="49.1035" lon="1.65913">
        <ele>147</ele>
        <time>2021-09-12T07:35:21Z</time>
      </trkpt>
      <trkpt lat="49.10348" lon="1.65916">
        <ele>147</ele>
        <time>2021-09-12T07:35:23Z</time>
      </trkpt>
      <trkpt lat="49.10347" lon="1.65917">
        <ele>147</ele>
        <time>2021-09-12T07:35:24Z</time>
      </trkpt>
      <trkpt lat="49.10346" lon="1.65918">
        <ele>147</ele>
        <time>2021-09-12T07:35:27Z</time>
      </trkpt>
      <trkpt lat="49.10346" lon="1.65923">
        <ele>147</ele>
        <time>2021-09-12T07:38:22Z</time>
      </trkpt>
      <trkpt lat="49.10345" lon="1.65931">
        <ele>147</ele>
        <time>2021-09-12T07:38:26Z</time>
      </trkpt>
      <trkpt lat="49.10344" lon="1.65935">
        <ele>147</ele>
        <time>2021-09-12T07:38:27Z</time>
      </trkpt>
      <trkpt lat="49.10341" lon="1.65942">
        <ele>147</ele>
        <time>2021-09-12T07:38:29Z</time>
      </trkpt>
      <trkpt lat="49.10335" lon="1.6596">
        <ele>146.8</ele>
        <time>2021-09-12T07:38:33Z</time>
      </trkpt>
      <trkpt lat="49.10327" lon="1.65997">
        <ele>146.8</ele>
        <time>2021-09-12T07:38:40Z</time>
      </trkpt>
      <trkpt lat="49.10321" lon="1.66038">
        <ele>146.8</ele>
        <time>2021-09-12T07:38:47Z</time>
      </trkpt>
      <trkpt lat="49.10311" lon="1.66099">
        <ele>146.8</ele>
        <time>2021-09-12T07:38:57Z</time>
      </trkpt>
      <trkpt lat="49.10309" lon="1.66112">
        <ele>146.8</ele>
        <time>2021-09-12T07:38:59Z</time>
      </trkpt>
      <trkpt lat="49.10306" lon="1.66124">
        <ele>146.8</ele>
        <time>2021-09-12T07:39:01Z</time>
      </trkpt>
      <trkpt lat="49.10304" lon="1.6613">
        <ele>146.8</ele>
        <time>2021-09-12T07:39:02Z</time>
      </trkpt>
      <trkpt lat="49.10289" lon="1.66146">
        <ele>146.6</ele>
        <time>2021-09-12T07:39:06Z</time>
      </trkpt>
      <trkpt lat="49.10281" lon="1.66149">
        <ele>146.6</ele>
        <time>2021-09-12T07:39:08Z</time>
      </trkpt>
      <trkpt lat="49.10264" lon="1.66154">
        <ele>146.6</ele>
        <time>2021-09-12T07:39:12Z</time>
      </trkpt>
      <trkpt lat="49.1026" lon="1.66171">
        <ele>146.8</ele>
        <time>2021-09-12T07:39:15Z</time>
      </trkpt>
      <trkpt lat="49.10268" lon="1.66189">
        <ele>146.8</ele>
        <time>2021-09-12T07:39:18Z</time>
      </trkpt>
      <trkpt lat="49.10271" lon="1.66194">
        <ele>146.8</ele>
        <time>2021-09-12T07:39:19Z</time>
      </trkpt>
      <trkpt lat="49.1029" lon="1.66229">
        <ele>147</ele>
        <time>2021-09-12T07:39:25Z</time>
      </trkpt>
      <trkpt lat="49.1032" lon="1.66284">
        <ele>147</ele>
        <time>2021-09-12T07:39:34Z</time>
      </trkpt>
      <trkpt lat="49.10347" lon="1.66332">
        <ele>146.6</ele>
        <time>2021-09-12T07:39:42Z</time>
      </trkpt>
      <trkpt lat="49.10361" lon="1.66371">
        <ele>146.2</ele>
        <time>2021-09-12T07:39:48Z</time>
      </trkpt>
      <trkpt lat="49.10363" lon="1.66377">
        <ele>146.2</ele>
        <time>2021-09-12T07:39:49Z</time>
      </trkpt>
      <trkpt lat="49.10372" lon="1.66432">
        <ele>145.6</ele>
        <time>2021-09-12T07:39:57Z</time>
      </trkpt>
      <trkpt lat="49.10381" lon="1.66485">
        <ele>145.4</ele>
        <time>2021-09-12T07:40:05Z</time>
      </trkpt>
      <trkpt lat="49.10389" lon="1.66538">
        <ele>145.2</ele>
        <time>2021-09-12T07:40:13Z</time>
      </trkpt>
      <trkpt lat="49.10396" lon="1.66577">
        <ele>145.2</ele>
        <time>2021-09-12T07:40:19Z</time>
      </trkpt>
      <trkpt lat="49.10403" lon="1.66623">
        <ele>145.4</ele>
        <time>2021-09-12T07:40:26Z</time>
      </trkpt>
      <trkpt lat="49.10411" lon="1.66676">
        <ele>145.6</ele>
        <time>2021-09-12T07:40:34Z</time>
      </trkpt>
      <trkpt lat="49.1042" lon="1.66731">
        <ele>145.6</ele>
        <time>2021-09-12T07:40:42Z</time>
      </trkpt>
      <trkpt lat="49.10429" lon="1.66788">
        <ele>145.8</ele>
        <time>2021-09-12T07:40:50Z</time>
      </trkpt>
      <trkpt lat="49.10437" lon="1.66837">
        <ele>145.6</ele>
        <time>2021-09-12T07:40:57Z</time>
      </trkpt>
      <trkpt lat="49.10438" lon="1.66844">
        <ele>145.6</ele>
        <time>2021-09-12T07:40:58Z</time>
      </trkpt>
      <trkpt lat="49.10446" lon="1.66894">
        <ele>145.6</ele>
        <time>2021-09-12T07:41:05Z</time>
      </trkpt>
      <trkpt lat="49.10457" lon="1.66967">
        <ele>145.6</ele>
        <time>2021-09-12T07:41:15Z</time>
      </trkpt>
      <trkpt lat="49.10466" lon="1.67027">
        <ele>145.8</ele>
        <time>2021-09-12T07:41:23Z</time>
      </trkpt>
      <trkpt lat="49.10476" lon="1.67091">
        <ele>145.8</ele>
        <time>2021-09-12T07:41:32Z</time>
      </trkpt>
      <trkpt lat="49.10484" lon="1.67142">
        <ele>146</ele>
        <time>2021-09-12T07:41:39Z</time>
      </trkpt>
      <trkpt lat="49.10494" lon="1.67207">
        <ele>146</ele>
        <time>2021-09-12T07:41:48Z</time>
      </trkpt>
      <trkpt lat="49.10507" lon="1.67287">
        <ele>146</ele>
        <time>2021-09-12T07:41:59Z</time>
      </trkpt>
      <trkpt lat="49.1052" lon="1.67366">
        <ele>146</ele>
        <time>2021-09-12T07:42:10Z</time>
      </trkpt>
      <trkpt lat="49.10532" lon="1.67435">
        <ele>146.4</ele>
        <time>2021-09-12T07:42:20Z</time>
      </trkpt>
      <trkpt lat="49.10539" lon="1.67484">
        <ele>146.6</ele>
        <time>2021-09-12T07:42:27Z</time>
      </trkpt>
      <trkpt lat="49.10548" lon="1.67538">
        <ele>146.8</ele>
        <time>2021-09-12T07:42:35Z</time>
      </trkpt>
      <trkpt lat="49.10557" lon="1.67596">
        <ele>147</ele>
        <time>2021-09-12T07:42:44Z</time>
      </trkpt>
      <trkpt lat="49.10565" lon="1.67644">
        <ele>147</ele>
        <time>2021-09-12T07:42:51Z</time>
      </trkpt>
      <trkpt lat="49.10578" lon="1.6772">
        <ele>147.2</ele>
        <time>2021-09-12T07:43:02Z</time>
      </trkpt>
      <trkpt lat="49.10587" lon="1.67776">
        <ele>147.4</ele>
        <time>2021-09-12T07:43:10Z</time>
      </trkpt>
      <trkpt lat="49.10591" lon="1.67796">
        <ele>147.6</ele>
        <time>2021-09-12T07:43:13Z</time>
      </trkpt>
      <trkpt lat="49.10602" lon="1.67837">
        <ele>147.8</ele>
        <time>2021-09-12T07:43:20Z</time>
      </trkpt>
      <trkpt lat="49.10619" lon="1.6786">
        <ele>147.8</ele>
        <time>2021-09-12T07:43:25Z</time>
      </trkpt>
      <trkpt lat="49.10653" lon="1.67906">
        <ele>147.6</ele>
        <time>2021-09-12T07:43:35Z</time>
      </trkpt>
      <trkpt lat="49.10684" lon="1.67947">
        <ele>147.6</ele>
        <time>2021-09-12T07:43:44Z</time>
      </trkpt>
      <trkpt lat="49.10714" lon="1.6799">
        <ele>147.4</ele>
        <time>2021-09-12T07:43:53Z</time>
      </trkpt>
      <trkpt lat="49.10744" lon="1.68032">
        <ele>147</ele>
        <time>2021-09-12T07:44:02Z</time>
      </trkpt>
      <trkpt lat="49.10773" lon="1.68073">
        <ele>146.6</ele>
        <time>2021-09-12T07:44:10Z</time>
      </trkpt>
      <trkpt lat="49.10777" lon="1.68078">
        <ele>146.4</ele>
        <time>2021-09-12T07:44:11Z</time>
      </trkpt>
      <trkpt lat="49.10806" lon="1.68118">
        <ele>146</ele>
        <time>2021-09-12T07:44:19Z</time>
      </trkpt>
      <trkpt lat="49.10835" lon="1.68151">
        <ele>145.4</ele>
        <time>2021-09-12T07:44:26Z</time>
      </trkpt>
      <trkpt lat="49.10844" lon="1.6816">
        <ele>145.2</ele>
        <time>2021-09-12T07:44:28Z</time>
      </trkpt>
      <trkpt lat="49.10875" lon="1.68199">
        <ele>144.6</ele>
        <time>2021-09-12T07:44:36Z</time>
      </trkpt>
      <trkpt lat="49.10894" lon="1.68228">
        <ele>144.2</ele>
        <time>2021-09-12T07:44:41Z</time>
      </trkpt>
      <trkpt lat="49.10906" lon="1.68246">
        <ele>143.8</ele>
        <time>2021-09-12T07:44:44Z</time>
      </trkpt>
      <trkpt lat="49.10923" lon="1.68273">
        <ele>143</ele>
        <time>2021-09-12T07:44:48Z</time>
      </trkpt>
      <trkpt lat="49.10935" lon="1.68286">
        <ele>142.8</ele>
        <time>2021-09-12T07:44:50Z</time>
      </trkpt>
      <trkpt lat="49.10952" lon="1.68305">
        <ele>142</ele>
        <time>2021-09-12T07:44:53Z</time>
      </trkpt>
      <trkpt lat="49.1096" lon="1.68313">
        <ele>141.6</ele>
        <time>2021-09-12T07:44:55Z</time>
      </trkpt>
      <trkpt lat="49.10967" lon="1.68318">
        <ele>141</ele>
        <time>2021-09-12T07:44:57Z</time>
      </trkpt>
      <trkpt lat="49.10969" lon="1.68316">
        <ele>140.6</ele>
        <time>2021-09-12T07:44:58Z</time>
      </trkpt>
      <trkpt lat="49.10973" lon="1.68308">
        <ele>140</ele>
        <time>2021-09-12T07:45:00Z</time>
      </trkpt>
      <trkpt lat="49.10974" lon="1.68302">
        <ele>139.6</ele>
        <time>2021-09-12T07:45:01Z</time>
      </trkpt>
      <trkpt lat="49.10977" lon="1.68285">
        <ele>139.4</ele>
        <time>2021-09-12T07:45:04Z</time>
      </trkpt>
      <trkpt lat="49.1098" lon="1.6827">
        <ele>139.4</ele>
        <time>2021-09-12T07:45:06Z</time>
      </trkpt>
      <trkpt lat="49.10982" lon="1.68262">
        <ele>139.4</ele>
        <time>2021-09-12T07:45:07Z</time>
      </trkpt>
      <trkpt lat="49.10989" lon="1.68235">
        <ele>139.4</ele>
        <time>2021-09-12T07:45:11Z</time>
      </trkpt>
      <trkpt lat="49.11002" lon="1.68187">
        <ele>139.8</ele>
        <time>2021-09-12T07:45:18Z</time>
      </trkpt>
      <trkpt lat="49.11013" lon="1.68144">
        <ele>140.2</ele>
        <time>2021-09-12T07:45:25Z</time>
      </trkpt>
      <trkpt lat="49.11028" lon="1.68091">
        <ele>141</ele>
        <time>2021-09-12T07:45:33Z</time>
      </trkpt>
      <trkpt lat="49.11039" lon="1.68053">
        <ele>141.4</ele>
        <time>2021-09-12T07:45:38Z</time>
      </trkpt>
      <trkpt lat="49.11053" lon="1.68002">
        <ele>141.4</ele>
        <time>2021-09-12T07:45:44Z</time>
      </trkpt>
      <trkpt lat="49.11061" lon="1.67961">
        <ele>141.4</ele>
        <time>2021-09-12T07:45:49Z</time>
      </trkpt>
      <trkpt lat="49.11063" lon="1.67953">
        <ele>141.4</ele>
        <time>2021-09-12T07:45:50Z</time>
      </trkpt>
      <trkpt lat="49.11071" lon="1.67923">
        <ele>141.4</ele>
        <time>2021-09-12T07:45:54Z</time>
      </trkpt>
      <trkpt lat="49.11075" lon="1.67918">
        <ele>141.4</ele>
        <time>2021-09-12T07:45:55Z</time>
      </trkpt>
      <trkpt lat="49.11086" lon="1.67921">
        <ele>141.4</ele>
        <time>2021-09-12T07:45:58Z</time>
      </trkpt>
      <trkpt lat="49.111" lon="1.67932">
        <ele>141.4</ele>
        <time>2021-09-12T07:46:01Z</time>
      </trkpt>
      <trkpt lat="49.11109" lon="1.6794">
        <ele>141.4</ele>
        <time>2021-09-12T07:46:03Z</time>
      </trkpt>
      <trkpt lat="49.11152" lon="1.67971">
        <ele>141.6</ele>
        <time>2021-09-12T07:46:12Z</time>
      </trkpt>
      <trkpt lat="49.11199" lon="1.68004">
        <ele>141.4</ele>
        <time>2021-09-12T07:46:22Z</time>
      </trkpt>
      <trkpt lat="49.11251" lon="1.68041">
        <ele>141.2</ele>
        <time>2021-09-12T07:46:33Z</time>
      </trkpt>
      <trkpt lat="49.11295" lon="1.68073">
        <ele>140.8</ele>
        <time>2021-09-12T07:46:41Z</time>
      </trkpt>
      <trkpt lat="49.11339" lon="1.68103">
        <ele>139.8</ele>
        <time>2021-09-12T07:46:48Z</time>
      </trkpt>
      <trkpt lat="49.11357" lon="1.68116">
        <ele>139.4</ele>
        <time>2021-09-12T07:46:51Z</time>
      </trkpt>
      <trkpt lat="49.11392" lon="1.6814">
        <ele>138.6</ele>
        <time>2021-09-12T07:46:57Z</time>
      </trkpt>
      <trkpt lat="49.11403" lon="1.68145">
        <ele>138.4</ele>
        <time>2021-09-12T07:46:59Z</time>
      </trkpt>
      <trkpt lat="49.11415" lon="1.68136">
        <ele>138.2</ele>
        <time>2021-09-12T07:47:02Z</time>
      </trkpt>
      <trkpt lat="49.11415" lon="1.68125">
        <ele>138.2</ele>
        <time>2021-09-12T07:47:04Z</time>
      </trkpt>
      <trkpt lat="49.11415" lon="1.68115">
        <ele>138.2</ele>
        <time>2021-09-12T07:47:06Z</time>
      </trkpt>
      <trkpt lat="49.11418" lon="1.68078">
        <ele>138.8</ele>
        <time>2021-09-12T07:47:13Z</time>
      </trkpt>
      <trkpt lat="49.1142" lon="1.68052">
        <ele>139.8</ele>
        <time>2021-09-12T07:47:18Z</time>
      </trkpt>
      <trkpt lat="49.11421" lon="1.68043">
        <ele>139.8</ele>
        <time>2021-09-12T07:47:20Z</time>
      </trkpt>
      <trkpt lat="49.11426" lon="1.68002">
        <ele>141</ele>
        <time>2021-09-12T07:47:28Z</time>
      </trkpt>
      <trkpt lat="49.11427" lon="1.67991">
        <ele>141.2</ele>
        <time>2021-09-12T07:47:30Z</time>
      </trkpt>
      <trkpt lat="49.11431" lon="1.67959">
        <ele>142</ele>
        <time>2021-09-12T07:47:36Z</time>
      </trkpt>
      <trkpt lat="49.11434" lon="1.67931">
        <ele>142.4</ele>
        <time>2021-09-12T07:47:41Z</time>
      </trkpt>
      <trkpt lat="49.1144" lon="1.67881">
        <ele>143</ele>
        <time>2021-09-12T07:47:50Z</time>
      </trkpt>
      <trkpt lat="49.11441" lon="1.67874">
        <ele>143.2</ele>
        <time>2021-09-12T07:47:51Z</time>
      </trkpt>
      <trkpt lat="49.11448" lon="1.67822">
        <ele>143.6</ele>
        <time>2021-09-12T07:48:00Z</time>
      </trkpt>
      <trkpt lat="49.11451" lon="1.67797">
        <ele>144.2</ele>
        <time>2021-09-12T07:48:04Z</time>
      </trkpt>
      <trkpt lat="49.11458" lon="1.67762">
        <ele>144.6</ele>
        <time>2021-09-12T07:48:10Z</time>
      </trkpt>
      <trkpt lat="49.11466" lon="1.67728">
        <ele>145</ele>
        <time>2021-09-12T07:48:16Z</time>
      </trkpt>
      <trkpt lat="49.11476" lon="1.67723">
        <ele>145</ele>
        <time>2021-09-12T07:48:19Z</time>
      </trkpt>
      <trkpt lat="49.11491" lon="1.67735">
        <ele>145</ele>
        <time>2021-09-12T07:48:23Z</time>
      </trkpt>
      <trkpt lat="49.11525" lon="1.67767">
        <ele>145</ele>
        <time>2021-09-12T07:48:32Z</time>
      </trkpt>
      <trkpt lat="49.11541" lon="1.67783">
        <ele>145</ele>
        <time>2021-09-12T07:48:36Z</time>
      </trkpt>
      <trkpt lat="49.11557" lon="1.67802">
        <ele>144.8</ele>
        <time>2021-09-12T07:48:40Z</time>
      </trkpt>
      <trkpt lat="49.11588" lon="1.67839">
        <ele>143.8</ele>
        <time>2021-09-12T07:48:48Z</time>
      </trkpt>
      <trkpt lat="49.11617" lon="1.67867">
        <ele>143.2</ele>
        <time>2021-09-12T07:48:54Z</time>
      </trkpt>
      <trkpt lat="49.11622" lon="1.67872">
        <ele>143</ele>
        <time>2021-09-12T07:48:55Z</time>
      </trkpt>
      <trkpt lat="49.11649" lon="1.67892">
        <ele>142</ele>
        <time>2021-09-12T07:48:59Z</time>
      </trkpt>
      <trkpt lat="49.11673" lon="1.67911">
        <ele>140.8</ele>
        <time>2021-09-12T07:49:02Z</time>
      </trkpt>
      <trkpt lat="49.11699" lon="1.67931">
        <ele>139.6</ele>
        <time>2021-09-12T07:49:05Z</time>
      </trkpt>
      <trkpt lat="49.11725" lon="1.67952">
        <ele>138.2</ele>
        <time>2021-09-12T07:49:08Z</time>
      </trkpt>
      <trkpt lat="49.11743" lon="1.67965">
        <ele>136.8</ele>
        <time>2021-09-12T07:49:10Z</time>
      </trkpt>
      <trkpt lat="49.1176" lon="1.67978">
        <ele>135.2</ele>
        <time>2021-09-12T07:49:12Z</time>
      </trkpt>
      <trkpt lat="49.11776" lon="1.6799">
        <ele>133.6</ele>
        <time>2021-09-12T07:49:14Z</time>
      </trkpt>
      <trkpt lat="49.11791" lon="1.68002">
        <ele>132.4</ele>
        <time>2021-09-12T07:49:16Z</time>
      </trkpt>
      <trkpt lat="49.11806" lon="1.68014">
        <ele>131.2</ele>
        <time>2021-09-12T07:49:18Z</time>
      </trkpt>
      <trkpt lat="49.11813" lon="1.68019">
        <ele>130.6</ele>
        <time>2021-09-12T07:49:19Z</time>
      </trkpt>
      <trkpt lat="49.11825" lon="1.68027">
        <ele>129</ele>
        <time>2021-09-12T07:49:21Z</time>
      </trkpt>
      <trkpt lat="49.11829" lon="1.68027">
        <ele>128.8</ele>
        <time>2021-09-12T07:49:22Z</time>
      </trkpt>
      <trkpt lat="49.11837" lon="1.68011">
        <ele>128.2</ele>
        <time>2021-09-12T07:49:25Z</time>
      </trkpt>
      <trkpt lat="49.1184" lon="1.67997">
        <ele>128</ele>
        <time>2021-09-12T07:49:27Z</time>
      </trkpt>
      <trkpt lat="49.11851" lon="1.67952">
        <ele>127.8</ele>
        <time>2021-09-12T07:49:33Z</time>
      </trkpt>
      <trkpt lat="49.11867" lon="1.67888">
        <ele>127.4</ele>
        <time>2021-09-12T07:49:42Z</time>
      </trkpt>
      <trkpt lat="49.11871" lon="1.67865">
        <ele>127.4</ele>
        <time>2021-09-12T07:49:46Z</time>
      </trkpt>
      <trkpt lat="49.11869" lon="1.6786">
        <ele>127.4</ele>
        <time>2021-09-12T07:49:47Z</time>
      </trkpt>
      <trkpt lat="49.11849" lon="1.67834">
        <ele>127.4</ele>
        <time>2021-09-12T07:49:54Z</time>
      </trkpt>
      <trkpt lat="49.11828" lon="1.67807">
        <ele>127.8</ele>
        <time>2021-09-12T07:50:01Z</time>
      </trkpt>
      <trkpt lat="49.11811" lon="1.67786">
        <ele>128.4</ele>
        <time>2021-09-12T07:50:07Z</time>
      </trkpt>
      <trkpt lat="49.11794" lon="1.67764">
        <ele>129.2</ele>
        <time>2021-09-12T07:50:13Z</time>
      </trkpt>
      <trkpt lat="49.11786" lon="1.67754">
        <ele>129.6</ele>
        <time>2021-09-12T07:50:16Z</time>
      </trkpt>
      <trkpt lat="49.11775" lon="1.6774">
        <ele>130.2</ele>
        <time>2021-09-12T07:50:20Z</time>
      </trkpt>
      <trkpt lat="49.11758" lon="1.67719">
        <ele>131.2</ele>
        <time>2021-09-12T07:50:26Z</time>
      </trkpt>
      <trkpt lat="49.11753" lon="1.67713">
        <ele>131.6</ele>
        <time>2021-09-12T07:50:28Z</time>
      </trkpt>
      <trkpt lat="49.11741" lon="1.67701">
        <ele>132.2</ele>
        <time>2021-09-12T07:50:32Z</time>
      </trkpt>
      <trkpt lat="49.11729" lon="1.67688">
        <ele>132.8</ele>
        <time>2021-09-12T07:50:36Z</time>
      </trkpt>
      <trkpt lat="49.1172" lon="1.67679">
        <ele>133.2</ele>
        <time>2021-09-12T07:50:39Z</time>
      </trkpt>
      <trkpt lat="49.11702" lon="1.67662">
        <ele>134.4</ele>
        <time>2021-09-12T07:50:45Z</time>
      </trkpt>
      <trkpt lat="49.11699" lon="1.67659">
        <ele>134.4</ele>
        <time>2021-09-12T07:50:46Z</time>
      </trkpt>
      <trkpt lat="49.11688" lon="1.67647">
        <ele>135.6</ele>
        <time>2021-09-12T07:50:50Z</time>
      </trkpt>
      <trkpt lat="49.11671" lon="1.67628">
        <ele>136.8</ele>
        <time>2021-09-12T07:50:56Z</time>
      </trkpt>
      <trkpt lat="49.11653" lon="1.67611">
        <ele>138</ele>
        <time>2021-09-12T07:51:02Z</time>
      </trkpt>
      <trkpt lat="49.11644" lon="1.67603">
        <ele>138.4</ele>
        <time>2021-09-12T07:51:05Z</time>
      </trkpt>
      <trkpt lat="49.11635" lon="1.67595">
        <ele>139.2</ele>
        <time>2021-09-12T07:51:08Z</time>
      </trkpt>
      <trkpt lat="49.11622" lon="1.67586">
        <ele>140.2</ele>
        <time>2021-09-12T07:51:12Z</time>
      </trkpt>
      <trkpt lat="49.11616" lon="1.67582">
        <ele>140.6</ele>
        <time>2021-09-12T07:51:14Z</time>
      </trkpt>
      <trkpt lat="49.11595" lon="1.67576">
        <ele>141.4</ele>
        <time>2021-09-12T07:51:20Z</time>
      </trkpt>
      <trkpt lat="49.11592" lon="1.67575">
        <ele>141.6</ele>
        <time>2021-09-12T07:51:21Z</time>
      </trkpt>
      <trkpt lat="49.11571" lon="1.67565">
        <ele>142.6</ele>
        <time>2021-09-12T07:51:28Z</time>
      </trkpt>
      <trkpt lat="49.11565" lon="1.67561">
        <ele>142.6</ele>
        <time>2021-09-12T07:51:30Z</time>
      </trkpt>
      <trkpt lat="49.1154" lon="1.67544">
        <ele>143.4</ele>
        <time>2021-09-12T07:51:38Z</time>
      </trkpt>
      <trkpt lat="49.11534" lon="1.67539">
        <ele>143.6</ele>
        <time>2021-09-12T07:51:40Z</time>
      </trkpt>
      <trkpt lat="49.1151" lon="1.67517">
        <ele>144.2</ele>
        <time>2021-09-12T07:51:48Z</time>
      </trkpt>
      <trkpt lat="49.11501" lon="1.67501">
        <ele>144.6</ele>
        <time>2021-09-12T07:51:52Z</time>
      </trkpt>
      <trkpt lat="49.11497" lon="1.67492">
        <ele>144.6</ele>
        <time>2021-09-12T07:51:54Z</time>
      </trkpt>
      <trkpt lat="49.11493" lon="1.67468">
        <ele>144.8</ele>
        <time>2021-09-12T07:51:59Z</time>
      </trkpt>
      <trkpt lat="49.11492" lon="1.67442">
        <ele>144.8</ele>
        <time>2021-09-12T07:52:04Z</time>
      </trkpt>
      <trkpt lat="49.1149" lon="1.67404">
        <ele>144.6</ele>
        <time>2021-09-12T07:52:10Z</time>
      </trkpt>
      <trkpt lat="49.1149" lon="1.67378">
        <ele>143.8</ele>
        <time>2021-09-12T07:52:14Z</time>
      </trkpt>
      <trkpt lat="49.1149" lon="1.67367">
        <ele>143.6</ele>
        <time>2021-09-12T07:52:16Z</time>
      </trkpt>
      <trkpt lat="49.11486" lon="1.67355">
        <ele>143.2</ele>
        <time>2021-09-12T07:52:18Z</time>
      </trkpt>
      <trkpt lat="49.11482" lon="1.67343">
        <ele>142.8</ele>
        <time>2021-09-12T07:52:20Z</time>
      </trkpt>
      <trkpt lat="49.11479" lon="1.67336">
        <ele>142.6</ele>
        <time>2021-09-12T07:52:21Z</time>
      </trkpt>
      <trkpt lat="49.11477" lon="1.67327">
        <ele>142.6</ele>
        <time>2021-09-12T07:52:22Z</time>
      </trkpt>
      <trkpt lat="49.11471" lon="1.67299">
        <ele>142.2</ele>
        <time>2021-09-12T07:52:25Z</time>
      </trkpt>
      <trkpt lat="49.1147" lon="1.67289">
        <ele>142.2</ele>
        <time>2021-09-12T07:52:26Z</time>
      </trkpt>
      <trkpt lat="49.11465" lon="1.67259">
        <ele>141.6</ele>
        <time>2021-09-12T07:52:29Z</time>
      </trkpt>
      <trkpt lat="49.11461" lon="1.67239">
        <ele>141</ele>
        <time>2021-09-12T07:52:31Z</time>
      </trkpt>
      <trkpt lat="49.11457" lon="1.67217">
        <ele>140.4</ele>
        <time>2021-09-12T07:52:33Z</time>
      </trkpt>
      <trkpt lat="49.11453" lon="1.67181">
        <ele>139.6</ele>
        <time>2021-09-12T07:52:36Z</time>
      </trkpt>
      <trkpt lat="49.11452" lon="1.67157">
        <ele>139.2</ele>
        <time>2021-09-12T07:52:38Z</time>
      </trkpt>
      <trkpt lat="49.11451" lon="1.6712">
        <ele>138</ele>
        <time>2021-09-12T07:52:41Z</time>
      </trkpt>
      <trkpt lat="49.11449" lon="1.67108">
        <ele>137.6</ele>
        <time>2021-09-12T07:52:42Z</time>
      </trkpt>
      <trkpt lat="49.11444" lon="1.67071">
        <ele>136.6</ele>
        <time>2021-09-12T07:52:45Z</time>
      </trkpt>
      <trkpt lat="49.11445" lon="1.67059">
        <ele>136.4</ele>
        <time>2021-09-12T07:52:46Z</time>
      </trkpt>
      <trkpt lat="49.11446" lon="1.67047">
        <ele>136</ele>
        <time>2021-09-12T07:52:47Z</time>
      </trkpt>
      <trkpt lat="49.11453" lon="1.67029">
        <ele>135.6</ele>
        <time>2021-09-12T07:52:49Z</time>
      </trkpt>
      <trkpt lat="49.11459" lon="1.67022">
        <ele>135.2</ele>
        <time>2021-09-12T07:52:50Z</time>
      </trkpt>
      <trkpt lat="49.11472" lon="1.67011">
        <ele>134.6</ele>
        <time>2021-09-12T07:52:52Z</time>
      </trkpt>
      <trkpt lat="49.11479" lon="1.67005">
        <ele>134.2</ele>
        <time>2021-09-12T07:52:53Z</time>
      </trkpt>
      <trkpt lat="49.11492" lon="1.66991">
        <ele>133.4</ele>
        <time>2021-09-12T07:52:55Z</time>
      </trkpt>
      <trkpt lat="49.11498" lon="1.66985">
        <ele>133.2</ele>
        <time>2021-09-12T07:52:56Z</time>
      </trkpt>
      <trkpt lat="49.11521" lon="1.66965">
        <ele>132</ele>
        <time>2021-09-12T07:53:00Z</time>
      </trkpt>
      <trkpt lat="49.11526" lon="1.66961">
        <ele>131.8</ele>
        <time>2021-09-12T07:53:01Z</time>
      </trkpt>
      <trkpt lat="49.11535" lon="1.66954">
        <ele>131</ele>
        <time>2021-09-12T07:53:03Z</time>
      </trkpt>
      <trkpt lat="49.11545" lon="1.66948">
        <ele>131</ele>
        <time>2021-09-12T07:53:05Z</time>
      </trkpt>
      <trkpt lat="49.11566" lon="1.66947">
        <ele>131</ele>
        <time>2021-09-12T07:53:09Z</time>
      </trkpt>
      <trkpt lat="49.11607" lon="1.66948">
        <ele>131</ele>
        <time>2021-09-12T07:53:16Z</time>
      </trkpt>
      <trkpt lat="49.11639" lon="1.66952">
        <ele>131</ele>
        <time>2021-09-12T07:53:21Z</time>
      </trkpt>
      <trkpt lat="49.11669" lon="1.66952">
        <ele>131</ele>
        <time>2021-09-12T07:53:26Z</time>
      </trkpt>
      <trkpt lat="49.11697" lon="1.66954">
        <ele>130.2</ele>
        <time>2021-09-12T07:53:30Z</time>
      </trkpt>
      <trkpt lat="49.11732" lon="1.66963">
        <ele>130</ele>
        <time>2021-09-12T07:53:35Z</time>
      </trkpt>
      <trkpt lat="49.1174" lon="1.66964">
        <ele>129.8</ele>
        <time>2021-09-12T07:53:36Z</time>
      </trkpt>
      <trkpt lat="49.11763" lon="1.66968">
        <ele>129.6</ele>
        <time>2021-09-12T07:53:39Z</time>
      </trkpt>
      <trkpt lat="49.11778" lon="1.66968">
        <ele>129.4</ele>
        <time>2021-09-12T07:53:41Z</time>
      </trkpt>
      <trkpt lat="49.11826" lon="1.66973">
        <ele>129</ele>
        <time>2021-09-12T07:53:47Z</time>
      </trkpt>
      <trkpt lat="49.11833" lon="1.66975">
        <ele>128.8</ele>
        <time>2021-09-12T07:53:48Z</time>
      </trkpt>
      <trkpt lat="49.11857" lon="1.66982">
        <ele>127.4</ele>
        <time>2021-09-12T07:53:51Z</time>
      </trkpt>
      <trkpt lat="49.11881" lon="1.6699">
        <ele>127</ele>
        <time>2021-09-12T07:53:54Z</time>
      </trkpt>
      <trkpt lat="49.11897" lon="1.66995">
        <ele>126.2</ele>
        <time>2021-09-12T07:53:56Z</time>
      </trkpt>
      <trkpt lat="49.11937" lon="1.6701">
        <ele>125</ele>
        <time>2021-09-12T07:54:01Z</time>
      </trkpt>
      <trkpt lat="49.11953" lon="1.67017">
        <ele>124.6</ele>
        <time>2021-09-12T07:54:03Z</time>
      </trkpt>
      <trkpt lat="49.11968" lon="1.67024">
        <ele>124</ele>
        <time>2021-09-12T07:54:05Z</time>
      </trkpt>
      <trkpt lat="49.12" lon="1.67037">
        <ele>122.8</ele>
        <time>2021-09-12T07:54:09Z</time>
      </trkpt>
      <trkpt lat="49.12022" lon="1.67046">
        <ele>122.2</ele>
        <time>2021-09-12T07:54:12Z</time>
      </trkpt>
      <trkpt lat="49.12059" lon="1.67058">
        <ele>121.4</ele>
        <time>2021-09-12T07:54:17Z</time>
      </trkpt>
      <trkpt lat="49.12081" lon="1.67064">
        <ele>120.8</ele>
        <time>2021-09-12T07:54:20Z</time>
      </trkpt>
      <trkpt lat="49.12116" lon="1.67071">
        <ele>120.4</ele>
        <time>2021-09-12T07:54:25Z</time>
      </trkpt>
      <trkpt lat="49.12131" lon="1.67074">
        <ele>120.2</ele>
        <time>2021-09-12T07:54:27Z</time>
      </trkpt>
      <trkpt lat="49.1217" lon="1.67079">
        <ele>119.8</ele>
        <time>2021-09-12T07:54:33Z</time>
      </trkpt>
      <trkpt lat="49.12177" lon="1.67076">
        <ele>119.8</ele>
        <time>2021-09-12T07:54:36Z</time>
      </trkpt>
      <trkpt lat="49.12177" lon="1.67076">
        <ele>119.8</ele>
        <time>2021-09-12T07:54:37Z</time>
      </trkpt>
      <trkpt lat="49.12178" lon="1.67076">
        <ele>121.4</ele>
        <time>2021-09-12T07:55:24Z</time>
      </trkpt>
      <trkpt lat="49.12181" lon="1.67078">
        <ele>121.4</ele>
        <time>2021-09-12T07:55:26Z</time>
      </trkpt>
      <trkpt lat="49.12193" lon="1.67082">
        <ele>121.4</ele>
        <time>2021-09-12T07:55:30Z</time>
      </trkpt>
      <trkpt lat="49.12221" lon="1.67086">
        <ele>120.8</ele>
        <time>2021-09-12T07:55:38Z</time>
      </trkpt>
      <trkpt lat="49.12246" lon="1.67092">
        <ele>120.6</ele>
        <time>2021-09-12T07:55:44Z</time>
      </trkpt>
      <trkpt lat="49.12285" lon="1.671">
        <ele>120.6</ele>
        <time>2021-09-12T07:55:52Z</time>
      </trkpt>
      <trkpt lat="49.12324" lon="1.67108">
        <ele>121</ele>
        <time>2021-09-12T07:56:00Z</time>
      </trkpt>
      <trkpt lat="49.12368" lon="1.67115">
        <ele>121.4</ele>
        <time>2021-09-12T07:56:09Z</time>
      </trkpt>
      <trkpt lat="49.12378" lon="1.67117">
        <ele>121.4</ele>
        <time>2021-09-12T07:56:11Z</time>
      </trkpt>
      <trkpt lat="49.12398" lon="1.67122">
        <ele>121.4</ele>
        <time>2021-09-12T07:56:15Z</time>
      </trkpt>
      <trkpt lat="49.1244" lon="1.67128">
        <ele>121.6</ele>
        <time>2021-09-12T07:56:23Z</time>
      </trkpt>
      <trkpt lat="49.12462" lon="1.6713">
        <ele>121.8</ele>
        <time>2021-09-12T07:56:27Z</time>
      </trkpt>
      <trkpt lat="49.12479" lon="1.67131">
        <ele>121.8</ele>
        <time>2021-09-12T07:56:30Z</time>
      </trkpt>
      <trkpt lat="49.12526" lon="1.67135">
        <ele>121.6</ele>
        <time>2021-09-12T07:56:38Z</time>
      </trkpt>
      <trkpt lat="49.1257" lon="1.67137">
        <ele>121.8</ele>
        <time>2021-09-12T07:56:46Z</time>
      </trkpt>
      <trkpt lat="49.12615" lon="1.67139">
        <ele>121.8</ele>
        <time>2021-09-12T07:56:54Z</time>
      </trkpt>
      <trkpt lat="49.12662" lon="1.67138">
        <ele>122.2</ele>
        <time>2021-09-12T07:57:03Z</time>
      </trkpt>
      <trkpt lat="49.12704" lon="1.6713">
        <ele>122.2</ele>
        <time>2021-09-12T07:57:11Z</time>
      </trkpt>
      <trkpt lat="49.12745" lon="1.67119">
        <ele>122.2</ele>
        <time>2021-09-12T07:57:19Z</time>
      </trkpt>
      <trkpt lat="49.12778" lon="1.67125">
        <ele>122</ele>
        <time>2021-09-12T07:57:25Z</time>
      </trkpt>
      <trkpt lat="49.12829" lon="1.67138">
        <ele>121.6</ele>
        <time>2021-09-12T07:57:34Z</time>
      </trkpt>
      <trkpt lat="49.12885" lon="1.67151">
        <ele>120.4</ele>
        <time>2021-09-12T07:57:44Z</time>
      </trkpt>
      <trkpt lat="49.12891" lon="1.67152">
        <ele>120.2</ele>
        <time>2021-09-12T07:57:45Z</time>
      </trkpt>
      <trkpt lat="49.12938" lon="1.67165">
        <ele>119.6</ele>
        <time>2021-09-12T07:57:53Z</time>
      </trkpt>
      <trkpt lat="49.12943" lon="1.67167">
        <ele>119.2</ele>
        <time>2021-09-12T07:57:54Z</time>
      </trkpt>
      <trkpt lat="49.12967" lon="1.67176">
        <ele>118.2</ele>
        <time>2021-09-12T07:57:58Z</time>
      </trkpt>
      <trkpt lat="49.12981" lon="1.67181">
        <ele>117.8</ele>
        <time>2021-09-12T07:58:00Z</time>
      </trkpt>
      <trkpt lat="49.13012" lon="1.67193">
        <ele>117.2</ele>
        <time>2021-09-12T07:58:04Z</time>
      </trkpt>
      <trkpt lat="49.13018" lon="1.67198">
        <ele>117</ele>
        <time>2021-09-12T07:58:05Z</time>
      </trkpt>
      <trkpt lat="49.13023" lon="1.67205">
        <ele>116.8</ele>
        <time>2021-09-12T07:58:06Z</time>
      </trkpt>
      <trkpt lat="49.13031" lon="1.67222">
        <ele>116</ele>
        <time>2021-09-12T07:58:08Z</time>
      </trkpt>
      <trkpt lat="49.13037" lon="1.67229">
        <ele>115.4</ele>
        <time>2021-09-12T07:58:09Z</time>
      </trkpt>
      <trkpt lat="49.13042" lon="1.67235">
        <ele>114.8</ele>
        <time>2021-09-12T07:58:10Z</time>
      </trkpt>
      <trkpt lat="49.13053" lon="1.67245">
        <ele>114</ele>
        <time>2021-09-12T07:58:12Z</time>
      </trkpt>
      <trkpt lat="49.13059" lon="1.67248">
        <ele>113.6</ele>
        <time>2021-09-12T07:58:13Z</time>
      </trkpt>
      <trkpt lat="49.13077" lon="1.67239">
        <ele>112.8</ele>
        <time>2021-09-12T07:58:16Z</time>
      </trkpt>
      <trkpt lat="49.13084" lon="1.67233">
        <ele>112.4</ele>
        <time>2021-09-12T07:58:17Z</time>
      </trkpt>
      <trkpt lat="49.13097" lon="1.67223">
        <ele>110.8</ele>
        <time>2021-09-12T07:58:19Z</time>
      </trkpt>
      <trkpt lat="49.1311" lon="1.67215">
        <ele>109.2</ele>
        <time>2021-09-12T07:58:21Z</time>
      </trkpt>
      <trkpt lat="49.13121" lon="1.67207">
        <ele>107.2</ele>
        <time>2021-09-12T07:58:23Z</time>
      </trkpt>
      <trkpt lat="49.13131" lon="1.67199">
        <ele>105.6</ele>
        <time>2021-09-12T07:58:25Z</time>
      </trkpt>
      <trkpt lat="49.13142" lon="1.67191">
        <ele>104.4</ele>
        <time>2021-09-12T07:58:27Z</time>
      </trkpt>
      <trkpt lat="49.13154" lon="1.67181">
        <ele>103.8</ele>
        <time>2021-09-12T07:58:29Z</time>
      </trkpt>
      <trkpt lat="49.13161" lon="1.67179">
        <ele>103.4</ele>
        <time>2021-09-12T07:58:30Z</time>
      </trkpt>
      <trkpt lat="49.13169" lon="1.6718">
        <ele>103</ele>
        <time>2021-09-12T07:58:31Z</time>
      </trkpt>
      <trkpt lat="49.13186" lon="1.67184">
        <ele>101.8</ele>
        <time>2021-09-12T07:58:33Z</time>
      </trkpt>
      <trkpt lat="49.13203" lon="1.67188">
        <ele>100.6</ele>
        <time>2021-09-12T07:58:35Z</time>
      </trkpt>
      <trkpt lat="49.13211" lon="1.67189">
        <ele>100</ele>
        <time>2021-09-12T07:58:36Z</time>
      </trkpt>
      <trkpt lat="49.1322" lon="1.67189">
        <ele>99.2</ele>
        <time>2021-09-12T07:58:37Z</time>
      </trkpt>
      <trkpt lat="49.13228" lon="1.67189">
        <ele>98.2</ele>
        <time>2021-09-12T07:58:38Z</time>
      </trkpt>
      <trkpt lat="49.13237" lon="1.67189">
        <ele>97</ele>
        <time>2021-09-12T07:58:39Z</time>
      </trkpt>
      <trkpt lat="49.13244" lon="1.67189">
        <ele>95.8</ele>
        <time>2021-09-12T07:58:40Z</time>
      </trkpt>
      <trkpt lat="49.13252" lon="1.67191">
        <ele>94.6</ele>
        <time>2021-09-12T07:58:41Z</time>
      </trkpt>
      <trkpt lat="49.13265" lon="1.67197">
        <ele>93.2</ele>
        <time>2021-09-12T07:58:43Z</time>
      </trkpt>
      <trkpt lat="49.13279" lon="1.67195">
        <ele>91.6</ele>
        <time>2021-09-12T07:58:45Z</time>
      </trkpt>
      <trkpt lat="49.13285" lon="1.67188">
        <ele>90.6</ele>
        <time>2021-09-12T07:58:46Z</time>
      </trkpt>
      <trkpt lat="49.13291" lon="1.67179">
        <ele>89.6</ele>
        <time>2021-09-12T07:58:47Z</time>
      </trkpt>
      <trkpt lat="49.13303" lon="1.67161">
        <ele>87.8</ele>
        <time>2021-09-12T07:58:49Z</time>
      </trkpt>
      <trkpt lat="49.13317" lon="1.6714">
        <ele>84.6</ele>
        <time>2021-09-12T07:58:51Z</time>
      </trkpt>
      <trkpt lat="49.13331" lon="1.67119">
        <ele>83</ele>
        <time>2021-09-12T07:58:53Z</time>
      </trkpt>
      <trkpt lat="49.13339" lon="1.67108">
        <ele>81.8</ele>
        <time>2021-09-12T07:58:54Z</time>
      </trkpt>
      <trkpt lat="49.13355" lon="1.67091">
        <ele>80</ele>
        <time>2021-09-12T07:58:56Z</time>
      </trkpt>
      <trkpt lat="49.1337" lon="1.67075">
        <ele>78.4</ele>
        <time>2021-09-12T07:58:58Z</time>
      </trkpt>
      <trkpt lat="49.13387" lon="1.67059">
        <ele>76.6</ele>
        <time>2021-09-12T07:59:00Z</time>
      </trkpt>
      <trkpt lat="49.13396" lon="1.6705">
        <ele>75.4</ele>
        <time>2021-09-12T07:59:01Z</time>
      </trkpt>
      <trkpt lat="49.13404" lon="1.67042">
        <ele>74.2</ele>
        <time>2021-09-12T07:59:02Z</time>
      </trkpt>
      <trkpt lat="49.13421" lon="1.67026">
        <ele>73</ele>
        <time>2021-09-12T07:59:04Z</time>
      </trkpt>
      <trkpt lat="49.13444" lon="1.67004">
        <ele>71.2</ele>
        <time>2021-09-12T07:59:07Z</time>
      </trkpt>
      <trkpt lat="49.13452" lon="1.66997">
        <ele>70.2</ele>
        <time>2021-09-12T07:59:08Z</time>
      </trkpt>
      <trkpt lat="49.13468" lon="1.66984">
        <ele>69.2</ele>
        <time>2021-09-12T07:59:10Z</time>
      </trkpt>
      <trkpt lat="49.13483" lon="1.6697">
        <ele>68</ele>
        <time>2021-09-12T07:59:12Z</time>
      </trkpt>
      <trkpt lat="49.13498" lon="1.66958">
        <ele>67.6</ele>
        <time>2021-09-12T07:59:14Z</time>
      </trkpt>
      <trkpt lat="49.13512" lon="1.66945">
        <ele>67</ele>
        <time>2021-09-12T07:59:16Z</time>
      </trkpt>
      <trkpt lat="49.13535" lon="1.66925">
        <ele>65.8</ele>
        <time>2021-09-12T07:59:19Z</time>
      </trkpt>
      <trkpt lat="49.13551" lon="1.66912">
        <ele>64.8</ele>
        <time>2021-09-12T07:59:21Z</time>
      </trkpt>
      <trkpt lat="49.13573" lon="1.66891">
        <ele>63.6</ele>
        <time>2021-09-12T07:59:24Z</time>
      </trkpt>
      <trkpt lat="49.13596" lon="1.66871">
        <ele>62.2</ele>
        <time>2021-09-12T07:59:27Z</time>
      </trkpt>
      <trkpt lat="49.13604" lon="1.66864">
        <ele>61.6</ele>
        <time>2021-09-12T07:59:28Z</time>
      </trkpt>
      <trkpt lat="49.13623" lon="1.66851">
        <ele>60.8</ele>
        <time>2021-09-12T07:59:30Z</time>
      </trkpt>
      <trkpt lat="49.13661" lon="1.66822">
        <ele>59.8</ele>
        <time>2021-09-12T07:59:34Z</time>
      </trkpt>
      <trkpt lat="49.13691" lon="1.66804">
        <ele>58.6</ele>
        <time>2021-09-12T07:59:37Z</time>
      </trkpt>
      <trkpt lat="49.1371" lon="1.66794">
        <ele>56.4</ele>
        <time>2021-09-12T07:59:39Z</time>
      </trkpt>
      <trkpt lat="49.1372" lon="1.6679">
        <ele>55.2</ele>
        <time>2021-09-12T07:59:40Z</time>
      </trkpt>
      <trkpt lat="49.13729" lon="1.66785">
        <ele>54.2</ele>
        <time>2021-09-12T07:59:41Z</time>
      </trkpt>
      <trkpt lat="49.13747" lon="1.66775">
        <ele>52.6</ele>
        <time>2021-09-12T07:59:43Z</time>
      </trkpt>
      <trkpt lat="49.13765" lon="1.66766">
        <ele>51.6</ele>
        <time>2021-09-12T07:59:45Z</time>
      </trkpt>
      <trkpt lat="49.13783" lon="1.66758">
        <ele>50.4</ele>
        <time>2021-09-12T07:59:47Z</time>
      </trkpt>
      <trkpt lat="49.13825" lon="1.66738">
        <ele>49</ele>
        <time>2021-09-12T07:59:52Z</time>
      </trkpt>
      <trkpt lat="49.1384" lon="1.66731">
        <ele>48.2</ele>
        <time>2021-09-12T07:59:54Z</time>
      </trkpt>
      <trkpt lat="49.13848" lon="1.66727">
        <ele>47.8</ele>
        <time>2021-09-12T07:59:55Z</time>
      </trkpt>
      <trkpt lat="49.13862" lon="1.66719">
        <ele>46.6</ele>
        <time>2021-09-12T07:59:57Z</time>
      </trkpt>
      <trkpt lat="49.13881" lon="1.66709">
        <ele>46</ele>
        <time>2021-09-12T08:00:00Z</time>
      </trkpt>
      <trkpt lat="49.13886" lon="1.66706">
        <ele>46</ele>
        <time>2021-09-12T08:00:01Z</time>
      </trkpt>
      <trkpt lat="49.13889" lon="1.667">
        <ele>45.8</ele>
        <time>2021-09-12T08:00:03Z</time>
      </trkpt>
      <trkpt lat="49.1389" lon="1.66696">
        <ele>45.6</ele>
        <time>2021-09-12T08:00:05Z</time>
      </trkpt>
      <trkpt lat="49.13889" lon="1.66696">
        <ele>45.4</ele>
        <time>2021-09-12T08:00:07Z</time>
      </trkpt>
      <trkpt lat="49.13887" lon="1.66691">
        <ele>44.2</ele>
        <time>2021-09-12T08:24:00Z</time>
      </trkpt>
      <trkpt lat="49.13885" lon="1.66684">
        <ele>44.4</ele>
        <time>2021-09-12T08:24:03Z</time>
      </trkpt>
      <trkpt lat="49.13886" lon="1.66681">
        <ele>44.4</ele>
        <time>2021-09-12T08:24:04Z</time>
      </trkpt>
      <trkpt lat="49.1389" lon="1.66671">
        <ele>44.6</ele>
        <time>2021-09-12T08:24:07Z</time>
      </trkpt>
      <trkpt lat="49.13899" lon="1.66648">
        <ele>44.4</ele>
        <time>2021-09-12T08:24:12Z</time>
      </trkpt>
      <trkpt lat="49.139" lon="1.66639">
        <ele>44.4</ele>
        <time>2021-09-12T08:24:14Z</time>
      </trkpt>
      <trkpt lat="49.13899" lon="1.66634">
        <ele>44.2</ele>
        <time>2021-09-12T08:24:15Z</time>
      </trkpt>
      <trkpt lat="49.13897" lon="1.66601">
        <ele>43.4</ele>
        <time>2021-09-12T08:24:21Z</time>
      </trkpt>
      <trkpt lat="49.13897" lon="1.66583">
        <ele>43.2</ele>
        <time>2021-09-12T08:24:24Z</time>
      </trkpt>
      <trkpt lat="49.13897" lon="1.66554">
        <ele>43</ele>
        <time>2021-09-12T08:24:28Z</time>
      </trkpt>
      <trkpt lat="49.13896" lon="1.6651">
        <ele>42.2</ele>
        <time>2021-09-12T08:24:33Z</time>
      </trkpt>
      <trkpt lat="49.13896" lon="1.6649">
        <ele>41.6</ele>
        <time>2021-09-12T08:24:35Z</time>
      </trkpt>
      <trkpt lat="49.13898" lon="1.66459">
        <ele>41.2</ele>
        <time>2021-09-12T08:24:38Z</time>
      </trkpt>
      <trkpt lat="49.13901" lon="1.66414">
        <ele>39.8</ele>
        <time>2021-09-12T08:24:42Z</time>
      </trkpt>
      <trkpt lat="49.13904" lon="1.66379">
        <ele>38.6</ele>
        <time>2021-09-12T08:24:45Z</time>
      </trkpt>
      <trkpt lat="49.13907" lon="1.66343">
        <ele>37.4</ele>
        <time>2021-09-12T08:24:48Z</time>
      </trkpt>
      <trkpt lat="49.13911" lon="1.66311">
        <ele>36.4</ele>
        <time>2021-09-12T08:24:51Z</time>
      </trkpt>
      <trkpt lat="49.13914" lon="1.6628">
        <ele>35.4</ele>
        <time>2021-09-12T08:24:54Z</time>
      </trkpt>
      <trkpt lat="49.13918" lon="1.66259">
        <ele>34</ele>
        <time>2021-09-12T08:24:56Z</time>
      </trkpt>
      <trkpt lat="49.13919" lon="1.66249">
        <ele>33.6</ele>
        <time>2021-09-12T08:24:57Z</time>
      </trkpt>
      <trkpt lat="49.13926" lon="1.66207">
        <ele>33</ele>
        <time>2021-09-12T08:25:01Z</time>
      </trkpt>
      <trkpt lat="49.13933" lon="1.66165">
        <ele>32</ele>
        <time>2021-09-12T08:25:05Z</time>
      </trkpt>
      <trkpt lat="49.13935" lon="1.66155">
        <ele>31.8</ele>
        <time>2021-09-12T08:25:06Z</time>
      </trkpt>
      <trkpt lat="49.13943" lon="1.6612">
        <ele>31</ele>
        <time>2021-09-12T08:25:10Z</time>
      </trkpt>
      <trkpt lat="49.13948" lon="1.66116">
        <ele>30.8</ele>
        <time>2021-09-12T08:25:11Z</time>
      </trkpt>
      <trkpt lat="49.13962" lon="1.66123">
        <ele>30.2</ele>
        <time>2021-09-12T08:25:14Z</time>
      </trkpt>
      <trkpt lat="49.13971" lon="1.66142">
        <ele>29.8</ele>
        <time>2021-09-12T08:25:17Z</time>
      </trkpt>
      <trkpt lat="49.13977" lon="1.66153">
        <ele>29.8</ele>
        <time>2021-09-12T08:25:19Z</time>
      </trkpt>
      <trkpt lat="49.13998" lon="1.66195">
        <ele>29.8</ele>
        <time>2021-09-12T08:25:27Z</time>
      </trkpt>
      <trkpt lat="49.14013" lon="1.66224">
        <ele>30</ele>
        <time>2021-09-12T08:25:33Z</time>
      </trkpt>
      <trkpt lat="49.14015" lon="1.6623">
        <ele>30.2</ele>
        <time>2021-09-12T08:25:34Z</time>
      </trkpt>
      <trkpt lat="49.14021" lon="1.66247">
        <ele>30.4</ele>
        <time>2021-09-12T08:25:37Z</time>
      </trkpt>
      <trkpt lat="49.14028" lon="1.66262">
        <ele>30.8</ele>
        <time>2021-09-12T08:25:40Z</time>
      </trkpt>
      <trkpt lat="49.14047" lon="1.66301">
        <ele>31.4</ele>
        <time>2021-09-12T08:25:48Z</time>
      </trkpt>
      <trkpt lat="49.14062" lon="1.66332">
        <ele>31.8</ele>
        <time>2021-09-12T08:25:55Z</time>
      </trkpt>
      <trkpt lat="49.14064" lon="1.66337">
        <ele>31.8</ele>
        <time>2021-09-12T08:25:56Z</time>
      </trkpt>
      <trkpt lat="49.14082" lon="1.66372">
        <ele>32</ele>
        <time>2021-09-12T08:26:03Z</time>
      </trkpt>
      <trkpt lat="49.14088" lon="1.66389">
        <ele>32.2</ele>
        <time>2021-09-12T08:26:07Z</time>
      </trkpt>
      <trkpt lat="49.14088" lon="1.66394">
        <ele>32.2</ele>
        <time>2021-09-12T08:26:08Z</time>
      </trkpt>
      <trkpt lat="49.14089" lon="1.66398">
        <ele>32.2</ele>
        <time>2021-09-12T08:26:09Z</time>
      </trkpt>
      <trkpt lat="49.14091" lon="1.66403">
        <ele>32.2</ele>
        <time>2021-09-12T08:26:10Z</time>
      </trkpt>
      <trkpt lat="49.14099" lon="1.66419">
        <ele>32.2</ele>
        <time>2021-09-12T08:26:13Z</time>
      </trkpt>
      <trkpt lat="49.14108" lon="1.66437">
        <ele>32.2</ele>
        <time>2021-09-12T08:26:16Z</time>
      </trkpt>
      <trkpt lat="49.14134" lon="1.66491">
        <ele>32.4</ele>
        <time>2021-09-12T08:26:26Z</time>
      </trkpt>
      <trkpt lat="49.14151" lon="1.66528">
        <ele>32.6</ele>
        <time>2021-09-12T08:26:33Z</time>
      </trkpt>
      <trkpt lat="49.14153" lon="1.66534">
        <ele>32.6</ele>
        <time>2021-09-12T08:26:34Z</time>
      </trkpt>
      <trkpt lat="49.14162" lon="1.66548">
        <ele>32.6</ele>
        <time>2021-09-12T08:26:37Z</time>
      </trkpt>
      <trkpt lat="49.14166" lon="1.66553">
        <ele>32.6</ele>
        <time>2021-09-12T08:26:38Z</time>
      </trkpt>
      <trkpt lat="49.14183" lon="1.66591">
        <ele>32.4</ele>
        <time>2021-09-12T08:26:44Z</time>
      </trkpt>
      <trkpt lat="49.14203" lon="1.66633">
        <ele>32.2</ele>
        <time>2021-09-12T08:26:52Z</time>
      </trkpt>
      <trkpt lat="49.14218" lon="1.66663">
        <ele>33</ele>
        <time>2021-09-12T08:26:58Z</time>
      </trkpt>
      <trkpt lat="49.14228" lon="1.66683">
        <ele>33.8</ele>
        <time>2021-09-12T08:27:02Z</time>
      </trkpt>
      <trkpt lat="49.14232" lon="1.66693">
        <ele>34.2</ele>
        <time>2021-09-12T08:27:04Z</time>
      </trkpt>
      <trkpt lat="49.14249" lon="1.66729">
        <ele>35.2</ele>
        <time>2021-09-12T08:27:11Z</time>
      </trkpt>
      <trkpt lat="49.14254" lon="1.66739">
        <ele>35.4</ele>
        <time>2021-09-12T08:27:13Z</time>
      </trkpt>
      <trkpt lat="49.14263" lon="1.66768">
        <ele>36.4</ele>
        <time>2021-09-12T08:27:18Z</time>
      </trkpt>
      <trkpt lat="49.14266" lon="1.66785">
        <ele>36.8</ele>
        <time>2021-09-12T08:27:21Z</time>
      </trkpt>
      <trkpt lat="49.14269" lon="1.66803">
        <ele>37.4</ele>
        <time>2021-09-12T08:27:24Z</time>
      </trkpt>
      <trkpt lat="49.14276" lon="1.66839">
        <ele>38.6</ele>
        <time>2021-09-12T08:27:30Z</time>
      </trkpt>
      <trkpt lat="49.14282" lon="1.66873">
        <ele>39.6</ele>
        <time>2021-09-12T08:27:35Z</time>
      </trkpt>
      <trkpt lat="49.14287" lon="1.669">
        <ele>40</ele>
        <time>2021-09-12T08:27:39Z</time>
      </trkpt>
      <trkpt lat="49.14296" lon="1.66961">
        <ele>40</ele>
        <time>2021-09-12T08:27:48Z</time>
      </trkpt>
      <trkpt lat="49.14297" lon="1.6699">
        <ele>40</ele>
        <time>2021-09-12T08:27:52Z</time>
      </trkpt>
      <trkpt lat="49.14295" lon="1.67002">
        <ele>39.8</ele>
        <time>2021-09-12T08:27:54Z</time>
      </trkpt>
      <trkpt lat="49.1429" lon="1.67017">
        <ele>39.6</ele>
        <time>2021-09-12T08:27:58Z</time>
      </trkpt>
      <trkpt lat="49.14296" lon="1.67027">
        <ele>39.6</ele>
        <time>2021-09-12T08:28:01Z</time>
      </trkpt>
      <trkpt lat="49.14299" lon="1.6703">
        <ele>39.4</ele>
        <time>2021-09-12T08:28:02Z</time>
      </trkpt>
      <trkpt lat="49.14313" lon="1.6704">
        <ele>39.2</ele>
        <time>2021-09-12T08:28:05Z</time>
      </trkpt>
      <trkpt lat="49.14326" lon="1.67046">
        <ele>39.2</ele>
        <time>2021-09-12T08:28:07Z</time>
      </trkpt>
      <trkpt lat="49.14341" lon="1.67051">
        <ele>39</ele>
        <time>2021-09-12T08:28:09Z</time>
      </trkpt>
      <trkpt lat="49.14385" lon="1.67076">
        <ele>38.6</ele>
        <time>2021-09-12T08:28:14Z</time>
      </trkpt>
      <trkpt lat="49.14404" lon="1.67087">
        <ele>37</ele>
        <time>2021-09-12T08:28:16Z</time>
      </trkpt>
      <trkpt lat="49.14422" lon="1.67097">
        <ele>35</ele>
        <time>2021-09-12T08:28:18Z</time>
      </trkpt>
      <trkpt lat="49.14431" lon="1.67102">
        <ele>33.8</ele>
        <time>2021-09-12T08:28:19Z</time>
      </trkpt>
      <trkpt lat="49.1444" lon="1.67105">
        <ele>32.6</ele>
        <time>2021-09-12T08:28:20Z</time>
      </trkpt>
      <trkpt lat="49.14448" lon="1.6711">
        <ele>31.6</ele>
        <time>2021-09-12T08:28:21Z</time>
      </trkpt>
      <trkpt lat="49.14456" lon="1.67115">
        <ele>30.6</ele>
        <time>2021-09-12T08:28:22Z</time>
      </trkpt>
      <trkpt lat="49.1447" lon="1.67122">
        <ele>29.4</ele>
        <time>2021-09-12T08:28:24Z</time>
      </trkpt>
      <trkpt lat="49.14477" lon="1.67123">
        <ele>29.2</ele>
        <time>2021-09-12T08:28:25Z</time>
      </trkpt>
      <trkpt lat="49.14499" lon="1.67122">
        <ele>29</ele>
        <time>2021-09-12T08:28:28Z</time>
      </trkpt>
      <trkpt lat="49.14505" lon="1.67123">
        <ele>28.8</ele>
        <time>2021-09-12T08:28:29Z</time>
      </trkpt>
      <trkpt lat="49.14524" lon="1.67123">
        <ele>28.8</ele>
        <time>2021-09-12T08:28:33Z</time>
      </trkpt>
      <trkpt lat="49.14542" lon="1.67124">
        <ele>29.4</ele>
        <time>2021-09-12T08:28:39Z</time>
      </trkpt>
      <trkpt lat="49.14553" lon="1.67124">
        <ele>30.6</ele>
        <time>2021-09-12T08:28:43Z</time>
      </trkpt>
      <trkpt lat="49.14556" lon="1.67124">
        <ele>31.6</ele>
        <time>2021-09-12T08:28:44Z</time>
      </trkpt>
      <trkpt lat="49.1456" lon="1.67125">
        <ele>32.6</ele>
        <time>2021-09-12T08:28:46Z</time>
      </trkpt>
      <trkpt lat="49.14563" lon="1.67125">
        <ele>33</ele>
        <time>2021-09-12T08:28:47Z</time>
      </trkpt>
      <trkpt lat="49.14568" lon="1.67126">
        <ele>34</ele>
        <time>2021-09-12T08:28:50Z</time>
      </trkpt>
      <trkpt lat="49.14573" lon="1.67128">
        <ele>34.6</ele>
        <time>2021-09-12T08:28:52Z</time>
      </trkpt>
      <trkpt lat="49.14575" lon="1.67129">
        <ele>35</ele>
        <time>2021-09-12T08:28:53Z</time>
      </trkpt>
      <trkpt lat="49.14584" lon="1.6713">
        <ele>36</ele>
        <time>2021-09-12T08:28:57Z</time>
      </trkpt>
      <trkpt lat="49.14585" lon="1.6713">
        <ele>36.2</ele>
        <time>2021-09-12T08:28:58Z</time>
      </trkpt>
      <trkpt lat="49.14592" lon="1.67131">
        <ele>37.4</ele>
        <time>2021-09-12T08:29:02Z</time>
      </trkpt>
      <trkpt lat="49.14597" lon="1.67131">
        <ele>38</ele>
        <time>2021-09-12T08:29:04Z</time>
      </trkpt>
      <trkpt lat="49.14601" lon="1.67131">
        <ele>38.4</ele>
        <time>2021-09-12T08:29:06Z</time>
      </trkpt>
      <trkpt lat="49.14608" lon="1.67133">
        <ele>39.6</ele>
        <time>2021-09-12T08:29:10Z</time>
      </trkpt>
      <trkpt lat="49.1461" lon="1.67133">
        <ele>39.8</ele>
        <time>2021-09-12T08:29:11Z</time>
      </trkpt>
      <trkpt lat="49.14615" lon="1.67133">
        <ele>40.6</ele>
        <time>2021-09-12T08:29:13Z</time>
      </trkpt>
      <trkpt lat="49.14624" lon="1.67136">
        <ele>41.8</ele>
        <time>2021-09-12T08:29:18Z</time>
      </trkpt>
      <trkpt lat="49.14629" lon="1.67137">
        <ele>42.2</ele>
        <time>2021-09-12T08:29:20Z</time>
      </trkpt>
      <trkpt lat="49.14634" lon="1.67138">
        <ele>42.8</ele>
        <time>2021-09-12T08:29:23Z</time>
      </trkpt>
      <trkpt lat="49.14642" lon="1.6714">
        <ele>44</ele>
        <time>2021-09-12T08:29:27Z</time>
      </trkpt>
      <trkpt lat="49.14643" lon="1.6714">
        <ele>44.2</ele>
        <time>2021-09-12T08:29:28Z</time>
      </trkpt>
      <trkpt lat="49.1465" lon="1.67142">
        <ele>45</ele>
        <time>2021-09-12T08:29:32Z</time>
      </trkpt>
      <trkpt lat="49.14657" lon="1.67143">
        <ele>46</ele>
        <time>2021-09-12T08:29:36Z</time>
      </trkpt>
      <trkpt lat="49.14659" lon="1.67144">
        <ele>46.2</ele>
        <time>2021-09-12T08:29:37Z</time>
      </trkpt>
      <trkpt lat="49.14666" lon="1.67145">
        <ele>47.4</ele>
        <time>2021-09-12T08:29:41Z</time>
      </trkpt>
      <trkpt lat="49.14672" lon="1.67147">
        <ele>48.2</ele>
        <time>2021-09-12T08:29:45Z</time>
      </trkpt>
      <trkpt lat="49.14674" lon="1.67147">
        <ele>48.4</ele>
        <time>2021-09-12T08:29:46Z</time>
      </trkpt>
      <trkpt lat="49.14682" lon="1.67148">
        <ele>49.6</ele>
        <time>2021-09-12T08:29:51Z</time>
      </trkpt>
      <trkpt lat="49.14684" lon="1.67149">
        <ele>49.8</ele>
        <time>2021-09-12T08:29:52Z</time>
      </trkpt>
      <trkpt lat="49.14692" lon="1.67151">
        <ele>50.8</ele>
        <time>2021-09-12T08:29:57Z</time>
      </trkpt>
      <trkpt lat="49.14699" lon="1.67153">
        <ele>52</ele>
        <time>2021-09-12T08:30:01Z</time>
      </trkpt>
      <trkpt lat="49.14707" lon="1.67155">
        <ele>53.2</ele>
        <time>2021-09-12T08:30:06Z</time>
      </trkpt>
      <trkpt lat="49.14714" lon="1.67156">
        <ele>54.6</ele>
        <time>2021-09-12T08:30:10Z</time>
      </trkpt>
      <trkpt lat="49.14722" lon="1.67157">
        <ele>55.8</ele>
        <time>2021-09-12T08:30:15Z</time>
      </trkpt>
      <trkpt lat="49.14729" lon="1.67158">
        <ele>56.4</ele>
        <time>2021-09-12T08:30:19Z</time>
      </trkpt>
      <trkpt lat="49.14732" lon="1.67159">
        <ele>56.8</ele>
        <time>2021-09-12T08:30:21Z</time>
      </trkpt>
      <trkpt lat="49.14743" lon="1.6716">
        <ele>57.8</ele>
        <time>2021-09-12T08:30:27Z</time>
      </trkpt>
      <trkpt lat="49.14751" lon="1.6716">
        <ele>59</ele>
        <time>2021-09-12T08:30:32Z</time>
      </trkpt>
      <trkpt lat="49.1476" lon="1.67162">
        <ele>60.2</ele>
        <time>2021-09-12T08:30:37Z</time>
      </trkpt>
      <trkpt lat="49.14768" lon="1.67163">
        <ele>61.2</ele>
        <time>2021-09-12T08:30:42Z</time>
      </trkpt>
      <trkpt lat="49.14777" lon="1.67164">
        <ele>62.2</ele>
        <time>2021-09-12T08:30:47Z</time>
      </trkpt>
      <trkpt lat="49.14779" lon="1.67165">
        <ele>62.4</ele>
        <time>2021-09-12T08:30:48Z</time>
      </trkpt>
      <trkpt lat="49.14787" lon="1.67166">
        <ele>63.2</ele>
        <time>2021-09-12T08:30:53Z</time>
      </trkpt>
      <trkpt lat="49.14794" lon="1.67168">
        <ele>64</ele>
        <time>2021-09-12T08:30:57Z</time>
      </trkpt>
      <trkpt lat="49.14796" lon="1.67168">
        <ele>64.4</ele>
        <time>2021-09-12T08:30:58Z</time>
      </trkpt>
      <trkpt lat="49.14804" lon="1.6717">
        <ele>65.4</ele>
        <time>2021-09-12T08:31:02Z</time>
      </trkpt>
      <trkpt lat="49.14815" lon="1.67173">
        <ele>66.4</ele>
        <time>2021-09-12T08:31:07Z</time>
      </trkpt>
      <trkpt lat="49.14817" lon="1.67174">
        <ele>66.6</ele>
        <time>2021-09-12T08:31:08Z</time>
      </trkpt>
      <trkpt lat="49.1483" lon="1.67179">
        <ele>67.4</ele>
        <time>2021-09-12T08:31:14Z</time>
      </trkpt>
      <trkpt lat="49.1484" lon="1.67184">
        <ele>68.2</ele>
        <time>2021-09-12T08:31:18Z</time>
      </trkpt>
      <trkpt lat="49.14845" lon="1.67187">
        <ele>68.6</ele>
        <time>2021-09-12T08:31:20Z</time>
      </trkpt>
      <trkpt lat="49.14857" lon="1.67195">
        <ele>69.8</ele>
        <time>2021-09-12T08:31:25Z</time>
      </trkpt>
      <trkpt lat="49.1486" lon="1.67197">
        <ele>69.8</ele>
        <time>2021-09-12T08:31:26Z</time>
      </trkpt>
      <trkpt lat="49.14863" lon="1.67199">
        <ele>70</ele>
        <time>2021-09-12T08:31:27Z</time>
      </trkpt>
      <trkpt lat="49.14878" lon="1.67209">
        <ele>70.8</ele>
        <time>2021-09-12T08:31:32Z</time>
      </trkpt>
      <trkpt lat="49.14884" lon="1.67213">
        <ele>71</ele>
        <time>2021-09-12T08:31:34Z</time>
      </trkpt>
      <trkpt lat="49.14901" lon="1.67225">
        <ele>71.8</ele>
        <time>2021-09-12T08:31:40Z</time>
      </trkpt>
      <trkpt lat="49.14903" lon="1.67227">
        <ele>72</ele>
        <time>2021-09-12T08:31:41Z</time>
      </trkpt>
      <trkpt lat="49.14921" lon="1.67241">
        <ele>73</ele>
        <time>2021-09-12T08:31:47Z</time>
      </trkpt>
      <trkpt lat="49.1494" lon="1.67253">
        <ele>74</ele>
        <time>2021-09-12T08:31:53Z</time>
      </trkpt>
      <trkpt lat="49.14943" lon="1.67255">
        <ele>74</ele>
        <time>2021-09-12T08:31:54Z</time>
      </trkpt>
      <trkpt lat="49.14959" lon="1.67267">
        <ele>75.2</ele>
        <time>2021-09-12T08:32:00Z</time>
      </trkpt>
      <trkpt lat="49.14962" lon="1.67269">
        <ele>75.2</ele>
        <time>2021-09-12T08:32:01Z</time>
      </trkpt>
      <trkpt lat="49.14977" lon="1.67278">
        <ele>76.4</ele>
        <time>2021-09-12T08:32:07Z</time>
      </trkpt>
      <trkpt lat="49.14979" lon="1.67279">
        <ele>76.6</ele>
        <time>2021-09-12T08:32:08Z</time>
      </trkpt>
      <trkpt lat="49.14989" lon="1.67285">
        <ele>77.4</ele>
        <time>2021-09-12T08:32:12Z</time>
      </trkpt>
      <trkpt lat="49.14999" lon="1.67294">
        <ele>78.2</ele>
        <time>2021-09-12T08:32:17Z</time>
      </trkpt>
      <trkpt lat="49.15003" lon="1.67297">
        <ele>78.4</ele>
        <time>2021-09-12T08:32:19Z</time>
      </trkpt>
      <trkpt lat="49.15009" lon="1.67302">
        <ele>79</ele>
        <time>2021-09-12T08:32:23Z</time>
      </trkpt>
      <trkpt lat="49.15013" lon="1.67304">
        <ele>79.6</ele>
        <time>2021-09-12T08:32:25Z</time>
      </trkpt>
      <trkpt lat="49.15021" lon="1.6731">
        <ele>80.6</ele>
        <time>2021-09-12T08:32:30Z</time>
      </trkpt>
      <trkpt lat="49.15027" lon="1.67315">
        <ele>81.6</ele>
        <time>2021-09-12T08:32:34Z</time>
      </trkpt>
      <trkpt lat="49.1503" lon="1.67318">
        <ele>82</ele>
        <time>2021-09-12T08:32:36Z</time>
      </trkpt>
      <trkpt lat="49.15034" lon="1.67322">
        <ele>82.8</ele>
        <time>2021-09-12T08:32:39Z</time>
      </trkpt>
      <trkpt lat="49.15039" lon="1.67326">
        <ele>83.4</ele>
        <time>2021-09-12T08:32:42Z</time>
      </trkpt>
      <trkpt lat="49.15042" lon="1.6733">
        <ele>84</ele>
        <time>2021-09-12T08:32:44Z</time>
      </trkpt>
      <trkpt lat="49.15049" lon="1.67334">
        <ele>85.2</ele>
        <time>2021-09-12T08:32:48Z</time>
      </trkpt>
      <trkpt lat="49.15055" lon="1.67338">
        <ele>86.2</ele>
        <time>2021-09-12T08:32:52Z</time>
      </trkpt>
      <trkpt lat="49.15059" lon="1.67341">
        <ele>87</ele>
        <time>2021-09-12T08:32:55Z</time>
      </trkpt>
      <trkpt lat="49.15062" lon="1.67343">
        <ele>87.4</ele>
        <time>2021-09-12T08:32:57Z</time>
      </trkpt>
      <trkpt lat="49.15068" lon="1.67346">
        <ele>88.6</ele>
        <time>2021-09-12T08:33:01Z</time>
      </trkpt>
      <trkpt lat="49.15072" lon="1.67349">
        <ele>89.6</ele>
        <time>2021-09-12T08:33:03Z</time>
      </trkpt>
      <trkpt lat="49.15074" lon="1.6735">
        <ele>89.8</ele>
        <time>2021-09-12T08:33:04Z</time>
      </trkpt>
      <trkpt lat="49.15082" lon="1.67357">
        <ele>90.8</ele>
        <time>2021-09-12T08:33:09Z</time>
      </trkpt>
      <trkpt lat="49.15084" lon="1.67358">
        <ele>90.8</ele>
        <time>2021-09-12T08:33:10Z</time>
      </trkpt>
      <trkpt lat="49.1509" lon="1.67364">
        <ele>91.6</ele>
        <time>2021-09-12T08:33:14Z</time>
      </trkpt>
      <trkpt lat="49.15094" lon="1.67368">
        <ele>92</ele>
        <time>2021-09-12T08:33:16Z</time>
      </trkpt>
      <trkpt lat="49.15102" lon="1.67376">
        <ele>93</ele>
        <time>2021-09-12T08:33:21Z</time>
      </trkpt>
      <trkpt lat="49.15113" lon="1.67384">
        <ele>94</ele>
        <time>2021-09-12T08:33:26Z</time>
      </trkpt>
      <trkpt lat="49.15115" lon="1.67386">
        <ele>94.2</ele>
        <time>2021-09-12T08:33:27Z</time>
      </trkpt>
      <trkpt lat="49.15122" lon="1.67391">
        <ele>95.4</ele>
        <time>2021-09-12T08:33:30Z</time>
      </trkpt>
      <trkpt lat="49.15126" lon="1.67394">
        <ele>95.8</ele>
        <time>2021-09-12T08:33:32Z</time>
      </trkpt>
      <trkpt lat="49.15132" lon="1.67397">
        <ele>96.4</ele>
        <time>2021-09-12T08:33:35Z</time>
      </trkpt>
      <trkpt lat="49.15141" lon="1.67403">
        <ele>97.6</ele>
        <time>2021-09-12T08:33:40Z</time>
      </trkpt>
      <trkpt lat="49.15148" lon="1.67408">
        <ele>98.6</ele>
        <time>2021-09-12T08:33:44Z</time>
      </trkpt>
      <trkpt lat="49.15151" lon="1.67411">
        <ele>99.2</ele>
        <time>2021-09-12T08:33:46Z</time>
      </trkpt>
      <trkpt lat="49.15155" lon="1.67414">
        <ele>99.8</ele>
        <time>2021-09-12T08:33:48Z</time>
      </trkpt>
      <trkpt lat="49.15163" lon="1.67418">
        <ele>100.6</ele>
        <time>2021-09-12T08:33:52Z</time>
      </trkpt>
      <trkpt lat="49.15167" lon="1.67421">
        <ele>101</ele>
        <time>2021-09-12T08:33:54Z</time>
      </trkpt>
      <trkpt lat="49.15177" lon="1.67428">
        <ele>102.2</ele>
        <time>2021-09-12T08:33:59Z</time>
      </trkpt>
      <trkpt lat="49.15182" lon="1.67431">
        <ele>102.6</ele>
        <time>2021-09-12T08:34:01Z</time>
      </trkpt>
      <trkpt lat="49.1519" lon="1.67436">
        <ele>103.2</ele>
        <time>2021-09-12T08:34:05Z</time>
      </trkpt>
      <trkpt lat="49.15195" lon="1.67438">
        <ele>103.6</ele>
        <time>2021-09-12T08:34:07Z</time>
      </trkpt>
      <trkpt lat="49.15204" lon="1.67443">
        <ele>104.2</ele>
        <time>2021-09-12T08:34:11Z</time>
      </trkpt>
      <trkpt lat="49.15209" lon="1.67446">
        <ele>104.4</ele>
        <time>2021-09-12T08:34:13Z</time>
      </trkpt>
      <trkpt lat="49.15221" lon="1.67452">
        <ele>105.2</ele>
        <time>2021-09-12T08:34:18Z</time>
      </trkpt>
      <trkpt lat="49.15229" lon="1.67459">
        <ele>105.6</ele>
        <time>2021-09-12T08:34:21Z</time>
      </trkpt>
      <trkpt lat="49.15239" lon="1.67468">
        <ele>106.2</ele>
        <time>2021-09-12T08:34:25Z</time>
      </trkpt>
      <trkpt lat="49.1525" lon="1.67479">
        <ele>106.4</ele>
        <time>2021-09-12T08:34:29Z</time>
      </trkpt>
      <trkpt lat="49.15274" lon="1.67505">
        <ele>107</ele>
        <time>2021-09-12T08:34:39Z</time>
      </trkpt>
      <trkpt lat="49.15278" lon="1.67509">
        <ele>107.4</ele>
        <time>2021-09-12T08:34:41Z</time>
      </trkpt>
      <trkpt lat="49.1529" lon="1.67521">
        <ele>108.2</ele>
        <time>2021-09-12T08:34:46Z</time>
      </trkpt>
      <trkpt lat="49.15294" lon="1.67526">
        <ele>108.4</ele>
        <time>2021-09-12T08:34:48Z</time>
      </trkpt>
      <trkpt lat="49.15311" lon="1.67542">
        <ele>109.8</ele>
        <time>2021-09-12T08:34:55Z</time>
      </trkpt>
      <trkpt lat="49.15318" lon="1.67549">
        <ele>110.2</ele>
        <time>2021-09-12T08:34:58Z</time>
      </trkpt>
      <trkpt lat="49.15327" lon="1.67557">
        <ele>110.8</ele>
        <time>2021-09-12T08:35:02Z</time>
      </trkpt>
      <trkpt lat="49.15329" lon="1.67559">
        <ele>111</ele>
        <time>2021-09-12T08:35:03Z</time>
      </trkpt>
      <trkpt lat="49.15341" lon="1.67572">
        <ele>111.8</ele>
        <time>2021-09-12T08:35:08Z</time>
      </trkpt>
      <trkpt lat="49.15348" lon="1.6758">
        <ele>112.2</ele>
        <time>2021-09-12T08:35:11Z</time>
      </trkpt>
      <trkpt lat="49.15361" lon="1.67592">
        <ele>113</ele>
        <time>2021-09-12T08:35:16Z</time>
      </trkpt>
      <trkpt lat="49.15366" lon="1.67598">
        <ele>113.2</ele>
        <time>2021-09-12T08:35:18Z</time>
      </trkpt>
      <trkpt lat="49.15383" lon="1.67616">
        <ele>114</ele>
        <time>2021-09-12T08:35:24Z</time>
      </trkpt>
      <trkpt lat="49.15389" lon="1.67622">
        <ele>114.2</ele>
        <time>2021-09-12T08:35:26Z</time>
      </trkpt>
      <trkpt lat="49.15402" lon="1.67637">
        <ele>115</ele>
        <time>2021-09-12T08:35:31Z</time>
      </trkpt>
      <trkpt lat="49.1541" lon="1.67646">
        <ele>115.4</ele>
        <time>2021-09-12T08:35:34Z</time>
      </trkpt>
      <trkpt lat="49.15423" lon="1.67659">
        <ele>116.2</ele>
        <time>2021-09-12T08:35:38Z</time>
      </trkpt>
      <trkpt lat="49.15433" lon="1.6767">
        <ele>116.6</ele>
        <time>2021-09-12T08:35:41Z</time>
      </trkpt>
      <trkpt lat="49.15449" lon="1.67687">
        <ele>117.2</ele>
        <time>2021-09-12T08:35:46Z</time>
      </trkpt>
      <trkpt lat="49.15465" lon="1.67704">
        <ele>117.8</ele>
        <time>2021-09-12T08:35:51Z</time>
      </trkpt>
      <trkpt lat="49.15472" lon="1.67711">
        <ele>118.2</ele>
        <time>2021-09-12T08:35:53Z</time>
      </trkpt>
      <trkpt lat="49.15501" lon="1.67741">
        <ele>119.2</ele>
        <time>2021-09-12T08:36:01Z</time>
      </trkpt>
      <trkpt lat="49.15504" lon="1.67745">
        <ele>119.4</ele>
        <time>2021-09-12T08:36:02Z</time>
      </trkpt>
      <trkpt lat="49.15537" lon="1.67779">
        <ele>120.6</ele>
        <time>2021-09-12T08:36:11Z</time>
      </trkpt>
      <trkpt lat="49.1554" lon="1.67783">
        <ele>120.6</ele>
        <time>2021-09-12T08:36:12Z</time>
      </trkpt>
      <trkpt lat="49.15548" lon="1.67789">
        <ele>121</ele>
        <time>2021-09-12T08:36:14Z</time>
      </trkpt>
      <trkpt lat="49.15559" lon="1.67799">
        <ele>121.2</ele>
        <time>2021-09-12T08:36:17Z</time>
      </trkpt>
      <trkpt lat="49.1557" lon="1.67811">
        <ele>121.6</ele>
        <time>2021-09-12T08:36:20Z</time>
      </trkpt>
      <trkpt lat="49.15593" lon="1.67836">
        <ele>122.4</ele>
        <time>2021-09-12T08:36:26Z</time>
      </trkpt>
      <trkpt lat="49.15611" lon="1.67856">
        <ele>122.6</ele>
        <time>2021-09-12T08:36:31Z</time>
      </trkpt>
      <trkpt lat="49.15626" lon="1.67867">
        <ele>122.8</ele>
        <time>2021-09-12T08:36:35Z</time>
      </trkpt>
      <trkpt lat="49.15633" lon="1.6787">
        <ele>123.2</ele>
        <time>2021-09-12T08:36:39Z</time>
      </trkpt>
      <trkpt lat="49.15633" lon="1.6787">
        <ele>123.4</ele>
        <time>2021-09-12T08:36:40Z</time>
      </trkpt>
      <trkpt lat="49.15636" lon="1.67872">
        <ele>123.4</ele>
        <time>2021-09-12T08:37:24Z</time>
      </trkpt>
      <trkpt lat="49.15638" lon="1.67874">
        <ele>123.4</ele>
        <time>2021-09-12T08:37:25Z</time>
      </trkpt>
      <trkpt lat="49.15654" lon="1.67892">
        <ele>123.4</ele>
        <time>2021-09-12T08:37:29Z</time>
      </trkpt>
      <trkpt lat="49.15659" lon="1.67897">
        <ele>123.4</ele>
        <time>2021-09-12T08:37:30Z</time>
      </trkpt>
      <trkpt lat="49.1568" lon="1.67916">
        <ele>123.2</ele>
        <time>2021-09-12T08:37:34Z</time>
      </trkpt>
      <trkpt lat="49.15709" lon="1.67944">
        <ele>122.2</ele>
        <time>2021-09-12T08:37:40Z</time>
      </trkpt>
      <trkpt lat="49.15736" lon="1.6796">
        <ele>122.2</ele>
        <time>2021-09-12T08:37:45Z</time>
      </trkpt>
      <trkpt lat="49.15742" lon="1.67963">
        <ele>122.2</ele>
        <time>2021-09-12T08:37:46Z</time>
      </trkpt>
      <trkpt lat="49.15751" lon="1.67971">
        <ele>122.2</ele>
        <time>2021-09-12T08:37:48Z</time>
      </trkpt>
      <trkpt lat="49.15765" lon="1.67986">
        <ele>122.2</ele>
        <time>2021-09-12T08:37:51Z</time>
      </trkpt>
      <trkpt lat="49.15796" lon="1.6802">
        <ele>121.8</ele>
        <time>2021-09-12T08:37:58Z</time>
      </trkpt>
      <trkpt lat="49.158" lon="1.68025">
        <ele>121.6</ele>
        <time>2021-09-12T08:37:59Z</time>
      </trkpt>
      <trkpt lat="49.15813" lon="1.6804">
        <ele>121.6</ele>
        <time>2021-09-12T08:38:02Z</time>
      </trkpt>
      <trkpt lat="49.15818" lon="1.68045">
        <ele>121.4</ele>
        <time>2021-09-12T08:38:03Z</time>
      </trkpt>
      <trkpt lat="49.15835" lon="1.68062">
        <ele>121.4</ele>
        <time>2021-09-12T08:38:07Z</time>
      </trkpt>
      <trkpt lat="49.15856" lon="1.68082">
        <ele>121.4</ele>
        <time>2021-09-12T08:38:12Z</time>
      </trkpt>
      <trkpt lat="49.1586" lon="1.68086">
        <ele>121.4</ele>
        <time>2021-09-12T08:38:13Z</time>
      </trkpt>
      <trkpt lat="49.15875" lon="1.68108">
        <ele>122.4</ele>
        <time>2021-09-12T08:38:17Z</time>
      </trkpt>
      <trkpt lat="49.1588" lon="1.68119">
        <ele>123</ele>
        <time>2021-09-12T08:38:19Z</time>
      </trkpt>
      <trkpt lat="49.15887" lon="1.68126">
        <ele>123</ele>
        <time>2021-09-12T08:38:21Z</time>
      </trkpt>
      <trkpt lat="49.1589" lon="1.68129">
        <ele>123.2</ele>
        <time>2021-09-12T08:38:22Z</time>
      </trkpt>
      <trkpt lat="49.15908" lon="1.68142">
        <ele>123.4</ele>
        <time>2021-09-12T08:38:26Z</time>
      </trkpt>
      <trkpt lat="49.15924" lon="1.68149">
        <ele>123.4</ele>
        <time>2021-09-12T08:38:29Z</time>
      </trkpt>
      <trkpt lat="49.15929" lon="1.68153">
        <ele>123.4</ele>
        <time>2021-09-12T08:38:30Z</time>
      </trkpt>
      <trkpt lat="49.15943" lon="1.68174">
        <ele>123.6</ele>
        <time>2021-09-12T08:38:34Z</time>
      </trkpt>
      <trkpt lat="49.15945" lon="1.68181">
        <ele>123.6</ele>
        <time>2021-09-12T08:38:35Z</time>
      </trkpt>
      <trkpt lat="49.15954" lon="1.68203">
        <ele>123.6</ele>
        <time>2021-09-12T08:38:39Z</time>
      </trkpt>
      <trkpt lat="49.1596" lon="1.68213">
        <ele>123.6</ele>
        <time>2021-09-12T08:38:41Z</time>
      </trkpt>
      <trkpt lat="49.15966" lon="1.68223">
        <ele>123.6</ele>
        <time>2021-09-12T08:38:43Z</time>
      </trkpt>
      <trkpt lat="49.15982" lon="1.68244">
        <ele>123.8</ele>
        <time>2021-09-12T08:38:47Z</time>
      </trkpt>
      <trkpt lat="49.15986" lon="1.68249">
        <ele>124</ele>
        <time>2021-09-12T08:38:48Z</time>
      </trkpt>
      <trkpt lat="49.1599" lon="1.68253">
        <ele>124</ele>
        <time>2021-09-12T08:38:49Z</time>
      </trkpt>
      <trkpt lat="49.16005" lon="1.68266">
        <ele>124</ele>
        <time>2021-09-12T08:38:52Z</time>
      </trkpt>
      <trkpt lat="49.1602" lon="1.68282">
        <ele>124</ele>
        <time>2021-09-12T08:38:56Z</time>
      </trkpt>
      <trkpt lat="49.16029" lon="1.68291">
        <ele>124</ele>
        <time>2021-09-12T08:38:58Z</time>
      </trkpt>
      <trkpt lat="49.1604" lon="1.68302">
        <ele>124</ele>
        <time>2021-09-12T08:39:01Z</time>
      </trkpt>
      <trkpt lat="49.16049" lon="1.68309">
        <ele>124</ele>
        <time>2021-09-12T08:39:03Z</time>
      </trkpt>
      <trkpt lat="49.16074" lon="1.6833">
        <ele>123.8</ele>
        <time>2021-09-12T08:39:08Z</time>
      </trkpt>
      <trkpt lat="49.16093" lon="1.68349">
        <ele>123.4</ele>
        <time>2021-09-12T08:39:12Z</time>
      </trkpt>
      <trkpt lat="49.16099" lon="1.68352">
        <ele>123.4</ele>
        <time>2021-09-12T08:39:13Z</time>
      </trkpt>
      <trkpt lat="49.16123" lon="1.68362">
        <ele>123.2</ele>
        <time>2021-09-12T08:39:17Z</time>
      </trkpt>
      <trkpt lat="49.16145" lon="1.68363">
        <ele>123</ele>
        <time>2021-09-12T08:39:20Z</time>
      </trkpt>
      <trkpt lat="49.16152" lon="1.68362">
        <ele>123</ele>
        <time>2021-09-12T08:39:21Z</time>
      </trkpt>
      <trkpt lat="49.16167" lon="1.68354">
        <ele>122.6</ele>
        <time>2021-09-12T08:39:23Z</time>
      </trkpt>
      <trkpt lat="49.16176" lon="1.68348">
        <ele>122.4</ele>
        <time>2021-09-12T08:39:24Z</time>
      </trkpt>
      <trkpt lat="49.16202" lon="1.68328">
        <ele>121.4</ele>
        <time>2021-09-12T08:39:27Z</time>
      </trkpt>
      <trkpt lat="49.16211" lon="1.68324">
        <ele>121.4</ele>
        <time>2021-09-12T08:39:28Z</time>
      </trkpt>
      <trkpt lat="49.16237" lon="1.68307">
        <ele>120.2</ele>
        <time>2021-09-12T08:39:31Z</time>
      </trkpt>
      <trkpt lat="49.16246" lon="1.68301">
        <ele>119.2</ele>
        <time>2021-09-12T08:39:32Z</time>
      </trkpt>
      <trkpt lat="49.16255" lon="1.68295">
        <ele>118</ele>
        <time>2021-09-12T08:39:33Z</time>
      </trkpt>
      <trkpt lat="49.16265" lon="1.68289">
        <ele>116.2</ele>
        <time>2021-09-12T08:39:34Z</time>
      </trkpt>
      <trkpt lat="49.16275" lon="1.68284">
        <ele>114.6</ele>
        <time>2021-09-12T08:39:35Z</time>
      </trkpt>
      <trkpt lat="49.16285" lon="1.6828">
        <ele>113.2</ele>
        <time>2021-09-12T08:39:36Z</time>
      </trkpt>
      <trkpt lat="49.16295" lon="1.68277">
        <ele>112</ele>
        <time>2021-09-12T08:39:37Z</time>
      </trkpt>
      <trkpt lat="49.16306" lon="1.68273">
        <ele>110.8</ele>
        <time>2021-09-12T08:39:38Z</time>
      </trkpt>
      <trkpt lat="49.16315" lon="1.68268">
        <ele>108.2</ele>
        <time>2021-09-12T08:39:39Z</time>
      </trkpt>
      <trkpt lat="49.16325" lon="1.68262">
        <ele>106.6</ele>
        <time>2021-09-12T08:39:40Z</time>
      </trkpt>
      <trkpt lat="49.16334" lon="1.68254">
        <ele>105</ele>
        <time>2021-09-12T08:39:41Z</time>
      </trkpt>
      <trkpt lat="49.16344" lon="1.68246">
        <ele>103.6</ele>
        <time>2021-09-12T08:39:42Z</time>
      </trkpt>
      <trkpt lat="49.16353" lon="1.68238">
        <ele>102</ele>
        <time>2021-09-12T08:39:43Z</time>
      </trkpt>
      <trkpt lat="49.16362" lon="1.6823">
        <ele>100.2</ele>
        <time>2021-09-12T08:39:44Z</time>
      </trkpt>
      <trkpt lat="49.16372" lon="1.68222">
        <ele>98.8</ele>
        <time>2021-09-12T08:39:45Z</time>
      </trkpt>
      <trkpt lat="49.16381" lon="1.68215">
        <ele>97.4</ele>
        <time>2021-09-12T08:39:46Z</time>
      </trkpt>
      <trkpt lat="49.1639" lon="1.68207">
        <ele>96.2</ele>
        <time>2021-09-12T08:39:47Z</time>
      </trkpt>
      <trkpt lat="49.16399" lon="1.682">
        <ele>95</ele>
        <time>2021-09-12T08:39:48Z</time>
      </trkpt>
      <trkpt lat="49.16415" lon="1.68186">
        <ele>93</ele>
        <time>2021-09-12T08:39:50Z</time>
      </trkpt>
      <trkpt lat="49.16423" lon="1.6818">
        <ele>91.8</ele>
        <time>2021-09-12T08:39:51Z</time>
      </trkpt>
      <trkpt lat="49.16431" lon="1.68173">
        <ele>90.6</ele>
        <time>2021-09-12T08:39:52Z</time>
      </trkpt>
      <trkpt lat="49.16439" lon="1.68167">
        <ele>89.8</ele>
        <time>2021-09-12T08:39:53Z</time>
      </trkpt>
      <trkpt lat="49.16447" lon="1.6816">
        <ele>88.8</ele>
        <time>2021-09-12T08:39:54Z</time>
      </trkpt>
      <trkpt lat="49.16462" lon="1.68145">
        <ele>87</ele>
        <time>2021-09-12T08:39:56Z</time>
      </trkpt>
      <trkpt lat="49.16475" lon="1.6813">
        <ele>85.8</ele>
        <time>2021-09-12T08:39:58Z</time>
      </trkpt>
      <trkpt lat="49.16481" lon="1.68122">
        <ele>85.4</ele>
        <time>2021-09-12T08:39:59Z</time>
      </trkpt>
      <trkpt lat="49.16491" lon="1.68102">
        <ele>84.8</ele>
        <time>2021-09-12T08:40:01Z</time>
      </trkpt>
      <trkpt lat="49.16494" lon="1.68092">
        <ele>84.4</ele>
        <time>2021-09-12T08:40:02Z</time>
      </trkpt>
      <trkpt lat="49.16499" lon="1.68074">
        <ele>84.2</ele>
        <time>2021-09-12T08:40:04Z</time>
      </trkpt>
      <trkpt lat="49.16503" lon="1.68053">
        <ele>83.4</ele>
        <time>2021-09-12T08:40:07Z</time>
      </trkpt>
      <trkpt lat="49.16504" lon="1.68049">
        <ele>82.6</ele>
        <time>2021-09-12T08:40:08Z</time>
      </trkpt>
      <trkpt lat="49.16504" lon="1.68047">
        <ele>82</ele>
        <time>2021-09-12T08:40:09Z</time>
      </trkpt>
      <trkpt lat="49.16504" lon="1.68047">
        <ele>80.2</ele>
        <time>2021-09-12T08:40:11Z</time>
      </trkpt>
      <trkpt lat="49.16505" lon="1.68047">
        <ele>74</ele>
        <time>2021-09-12T08:40:25Z</time>
      </trkpt>
      <trkpt lat="49.16507" lon="1.68044">
        <ele>74</ele>
        <time>2021-09-12T08:40:28Z</time>
      </trkpt>
      <trkpt lat="49.16507" lon="1.68043">
        <ele>74</ele>
        <time>2021-09-12T08:40:30Z</time>
      </trkpt>
      <trkpt lat="49.16511" lon="1.68037">
        <ele>71.6</ele>
        <time>2021-09-12T08:42:49Z</time>
      </trkpt>
      <trkpt lat="49.16514" lon="1.68032">
        <ele>71.6</ele>
        <time>2021-09-12T08:42:51Z</time>
      </trkpt>
      <trkpt lat="49.16526" lon="1.68015">
        <ele>71.6</ele>
        <time>2021-09-12T08:42:57Z</time>
      </trkpt>
      <trkpt lat="49.16536" lon="1.68003">
        <ele>70.4</ele>
        <time>2021-09-12T08:43:00Z</time>
      </trkpt>
      <trkpt lat="49.16539" lon="1.67998">
        <ele>69.8</ele>
        <time>2021-09-12T08:43:01Z</time>
      </trkpt>
      <trkpt lat="49.16542" lon="1.67993">
        <ele>69.4</ele>
        <time>2021-09-12T08:43:02Z</time>
      </trkpt>
      <trkpt lat="49.16549" lon="1.67979">
        <ele>68.4</ele>
        <time>2021-09-12T08:43:04Z</time>
      </trkpt>
      <trkpt lat="49.16551" lon="1.67972">
        <ele>67.6</ele>
        <time>2021-09-12T08:43:05Z</time>
      </trkpt>
      <trkpt lat="49.16553" lon="1.67964">
        <ele>67</ele>
        <time>2021-09-12T08:43:06Z</time>
      </trkpt>
      <trkpt lat="49.16558" lon="1.67941">
        <ele>65.4</ele>
        <time>2021-09-12T08:43:08Z</time>
      </trkpt>
      <trkpt lat="49.16565" lon="1.67916">
        <ele>63.6</ele>
        <time>2021-09-12T08:43:10Z</time>
      </trkpt>
      <trkpt lat="49.16568" lon="1.67906">
        <ele>62.6</ele>
        <time>2021-09-12T08:43:11Z</time>
      </trkpt>
      <trkpt lat="49.16572" lon="1.67896">
        <ele>61.6</ele>
        <time>2021-09-12T08:43:12Z</time>
      </trkpt>
      <trkpt lat="49.16575" lon="1.67889">
        <ele>60.6</ele>
        <time>2021-09-12T08:43:13Z</time>
      </trkpt>
      <trkpt lat="49.16583" lon="1.6788">
        <ele>58.8</ele>
        <time>2021-09-12T08:43:15Z</time>
      </trkpt>
      <trkpt lat="49.16588" lon="1.67866">
        <ele>56.6</ele>
        <time>2021-09-12T08:43:17Z</time>
      </trkpt>
      <trkpt lat="49.16588" lon="1.67858">
        <ele>55.2</ele>
        <time>2021-09-12T08:43:18Z</time>
      </trkpt>
      <trkpt lat="49.16588" lon="1.67848">
        <ele>53.8</ele>
        <time>2021-09-12T08:43:19Z</time>
      </trkpt>
      <trkpt lat="49.16589" lon="1.67839">
        <ele>52.8</ele>
        <time>2021-09-12T08:43:20Z</time>
      </trkpt>
      <trkpt lat="49.16589" lon="1.67829">
        <ele>51.8</ele>
        <time>2021-09-12T08:43:21Z</time>
      </trkpt>
      <trkpt lat="49.16591" lon="1.67807">
        <ele>50.4</ele>
        <time>2021-09-12T08:43:23Z</time>
      </trkpt>
      <trkpt lat="49.16594" lon="1.67772">
        <ele>49</ele>
        <time>2021-09-12T08:43:26Z</time>
      </trkpt>
      <trkpt lat="49.16595" lon="1.67759">
        <ele>47.8</ele>
        <time>2021-09-12T08:43:27Z</time>
      </trkpt>
      <trkpt lat="49.16598" lon="1.67733">
        <ele>47</ele>
        <time>2021-09-12T08:43:29Z</time>
      </trkpt>
      <trkpt lat="49.166" lon="1.6772">
        <ele>46.6</ele>
        <time>2021-09-12T08:43:30Z</time>
      </trkpt>
      <trkpt lat="49.16604" lon="1.67682">
        <ele>45</ele>
        <time>2021-09-12T08:43:33Z</time>
      </trkpt>
      <trkpt lat="49.16606" lon="1.6767">
        <ele>44.2</ele>
        <time>2021-09-12T08:43:34Z</time>
      </trkpt>
      <trkpt lat="49.16607" lon="1.67658">
        <ele>43.4</ele>
        <time>2021-09-12T08:43:35Z</time>
      </trkpt>
      <trkpt lat="49.16609" lon="1.67649">
        <ele>42.6</ele>
        <time>2021-09-12T08:43:36Z</time>
      </trkpt>
      <trkpt lat="49.16612" lon="1.67642">
        <ele>42</ele>
        <time>2021-09-12T08:43:37Z</time>
      </trkpt>
      <trkpt lat="49.16626" lon="1.67635">
        <ele>41</ele>
        <time>2021-09-12T08:43:40Z</time>
      </trkpt>
      <trkpt lat="49.16637" lon="1.67633">
        <ele>40.2</ele>
        <time>2021-09-12T08:43:42Z</time>
      </trkpt>
      <trkpt lat="49.16643" lon="1.67632">
        <ele>39.8</ele>
        <time>2021-09-12T08:43:43Z</time>
      </trkpt>
      <trkpt lat="49.1666" lon="1.67627">
        <ele>38.6</ele>
        <time>2021-09-12T08:43:46Z</time>
      </trkpt>
      <trkpt lat="49.16671" lon="1.67626">
        <ele>38</ele>
        <time>2021-09-12T08:43:48Z</time>
      </trkpt>
      <trkpt lat="49.16676" lon="1.67626">
        <ele>37.6</ele>
        <time>2021-09-12T08:43:49Z</time>
      </trkpt>
      <trkpt lat="49.16678" lon="1.67623">
        <ele>37.2</ele>
        <time>2021-09-12T08:43:50Z</time>
      </trkpt>
      <trkpt lat="49.16677" lon="1.67614">
        <ele>36.8</ele>
        <time>2021-09-12T08:43:52Z</time>
      </trkpt>
      <trkpt lat="49.16675" lon="1.6761">
        <ele>36.8</ele>
        <time>2021-09-12T08:43:53Z</time>
      </trkpt>
      <trkpt lat="49.1667" lon="1.67599">
        <ele>36.6</ele>
        <time>2021-09-12T08:43:55Z</time>
      </trkpt>
      <trkpt lat="49.16667" lon="1.67594">
        <ele>36.2</ele>
        <time>2021-09-12T08:43:56Z</time>
      </trkpt>
      <trkpt lat="49.16666" lon="1.67587">
        <ele>36.2</ele>
        <time>2021-09-12T08:43:57Z</time>
      </trkpt>
      <trkpt lat="49.16663" lon="1.67535">
        <ele>35.2</ele>
        <time>2021-09-12T08:44:03Z</time>
      </trkpt>
      <trkpt lat="49.16664" lon="1.67495">
        <ele>34.2</ele>
        <time>2021-09-12T08:44:07Z</time>
      </trkpt>
      <trkpt lat="49.16664" lon="1.67465">
        <ele>33.2</ele>
        <time>2021-09-12T08:44:10Z</time>
      </trkpt>
      <trkpt lat="49.16665" lon="1.67456">
        <ele>33</ele>
        <time>2021-09-12T08:44:11Z</time>
      </trkpt>
      <trkpt lat="49.16665" lon="1.67422">
        <ele>31.8</ele>
        <time>2021-09-12T08:44:15Z</time>
      </trkpt>
      <trkpt lat="49.16664" lon="1.67415">
        <ele>31.2</ele>
        <time>2021-09-12T08:44:16Z</time>
      </trkpt>
      <trkpt lat="49.16664" lon="1.67393">
        <ele>30.6</ele>
        <time>2021-09-12T08:44:19Z</time>
      </trkpt>
      <trkpt lat="49.16663" lon="1.67381">
        <ele>30.6</ele>
        <time>2021-09-12T08:44:21Z</time>
      </trkpt>
      <trkpt lat="49.16655" lon="1.67379">
        <ele>30.4</ele>
        <time>2021-09-12T08:44:24Z</time>
      </trkpt>
      <trkpt lat="49.16635" lon="1.67382">
        <ele>30</ele>
        <time>2021-09-12T08:44:29Z</time>
      </trkpt>
      <trkpt lat="49.16622" lon="1.67384">
        <ele>30</ele>
        <time>2021-09-12T08:44:32Z</time>
      </trkpt>
      <trkpt lat="49.16609" lon="1.67385">
        <ele>29.8</ele>
        <time>2021-09-12T08:44:35Z</time>
      </trkpt>
      <trkpt lat="49.16601" lon="1.67387">
        <ele>29.6</ele>
        <time>2021-09-12T08:44:37Z</time>
      </trkpt>
      <trkpt lat="49.16596" lon="1.67387">
        <ele>29.2</ele>
        <time>2021-09-12T08:44:38Z</time>
      </trkpt>
      <trkpt lat="49.16581" lon="1.67388">
        <ele>28.8</ele>
        <time>2021-09-12T08:44:41Z</time>
      </trkpt>
      <trkpt lat="49.16542" lon="1.6738">
        <ele>28.2</ele>
        <time>2021-09-12T08:44:49Z</time>
      </trkpt>
      <trkpt lat="49.16504" lon="1.67362">
        <ele>27.8</ele>
        <time>2021-09-12T08:44:57Z</time>
      </trkpt>
      <trkpt lat="49.16463" lon="1.67343">
        <ele>28</ele>
        <time>2021-09-12T08:45:06Z</time>
      </trkpt>
      <trkpt lat="49.16431" lon="1.67332">
        <ele>28</ele>
        <time>2021-09-12T08:45:13Z</time>
      </trkpt>
      <trkpt lat="49.16398" lon="1.67321">
        <ele>27.8</ele>
        <time>2021-09-12T08:45:21Z</time>
      </trkpt>
      <trkpt lat="49.16395" lon="1.67317">
        <ele>27.8</ele>
        <time>2021-09-12T08:45:22Z</time>
      </trkpt>
      <trkpt lat="49.16393" lon="1.67307">
        <ele>27.8</ele>
        <time>2021-09-12T08:45:24Z</time>
      </trkpt>
      <trkpt lat="49.16392" lon="1.67267">
        <ele>27.4</ele>
        <time>2021-09-12T08:45:31Z</time>
      </trkpt>
      <trkpt lat="49.16392" lon="1.67255">
        <ele>27.2</ele>
        <time>2021-09-12T08:45:33Z</time>
      </trkpt>
      <trkpt lat="49.16395" lon="1.67215">
        <ele>27</ele>
        <time>2021-09-12T08:45:40Z</time>
      </trkpt>
      <trkpt lat="49.16396" lon="1.67209">
        <ele>27</ele>
        <time>2021-09-12T08:45:41Z</time>
      </trkpt>
      <trkpt lat="49.16402" lon="1.67181">
        <ele>26.8</ele>
        <time>2021-09-12T08:45:45Z</time>
      </trkpt>
      <trkpt lat="49.16413" lon="1.67121">
        <ele>27</ele>
        <time>2021-09-12T08:45:53Z</time>
      </trkpt>
      <trkpt lat="49.16417" lon="1.67057">
        <ele>27</ele>
        <time>2021-09-12T08:46:01Z</time>
      </trkpt>
      <trkpt lat="49.16419" lon="1.6697">
        <ele>26.6</ele>
        <time>2021-09-12T08:46:12Z</time>
      </trkpt>
      <trkpt lat="49.16421" lon="1.66891">
        <ele>26.8</ele>
        <time>2021-09-12T08:46:22Z</time>
      </trkpt>
      <trkpt lat="49.16423" lon="1.66815">
        <ele>26.8</ele>
        <time>2021-09-12T08:46:32Z</time>
      </trkpt>
      <trkpt lat="49.16424" lon="1.6674">
        <ele>26.8</ele>
        <time>2021-09-12T08:46:41Z</time>
      </trkpt>
      <trkpt lat="49.16425" lon="1.66657">
        <ele>26.6</ele>
        <time>2021-09-12T08:46:50Z</time>
      </trkpt>
      <trkpt lat="49.16424" lon="1.66601">
        <ele>26.4</ele>
        <time>2021-09-12T08:46:57Z</time>
      </trkpt>
      <trkpt lat="49.16422" lon="1.66532">
        <ele>26.6</ele>
        <time>2021-09-12T08:47:06Z</time>
      </trkpt>
      <trkpt lat="49.16419" lon="1.66491">
        <ele>27</ele>
        <time>2021-09-12T08:47:13Z</time>
      </trkpt>
      <trkpt lat="49.16416" lon="1.66452">
        <ele>28</ele>
        <time>2021-09-12T08:47:20Z</time>
      </trkpt>
      <trkpt lat="49.16416" lon="1.66437">
        <ele>28.2</ele>
        <time>2021-09-12T08:47:23Z</time>
      </trkpt>
      <trkpt lat="49.16415" lon="1.6643">
        <ele>28.2</ele>
        <time>2021-09-12T08:47:25Z</time>
      </trkpt>
      <trkpt lat="49.16415" lon="1.66412">
        <ele>28.4</ele>
        <time>2021-09-12T08:47:30Z</time>
      </trkpt>
      <trkpt lat="49.16417" lon="1.66388">
        <ele>28.8</ele>
        <time>2021-09-12T08:47:34Z</time>
      </trkpt>
      <trkpt lat="49.16418" lon="1.6638">
        <ele>28.8</ele>
        <time>2021-09-12T08:47:35Z</time>
      </trkpt>
      <trkpt lat="49.16425" lon="1.66342">
        <ele>28.8</ele>
        <time>2021-09-12T08:47:41Z</time>
      </trkpt>
      <trkpt lat="49.16437" lon="1.66292">
        <ele>28.8</ele>
        <time>2021-09-12T08:47:49Z</time>
      </trkpt>
      <trkpt lat="49.1644" lon="1.66276">
        <ele>29.2</ele>
        <time>2021-09-12T08:47:52Z</time>
      </trkpt>
      <trkpt lat="49.16442" lon="1.66272">
        <ele>29.4</ele>
        <time>2021-09-12T08:47:53Z</time>
      </trkpt>
      <trkpt lat="49.1645" lon="1.66266">
        <ele>29.8</ele>
        <time>2021-09-12T08:47:58Z</time>
      </trkpt>
      <trkpt lat="49.16457" lon="1.66266">
        <ele>30.2</ele>
        <time>2021-09-12T08:48:01Z</time>
      </trkpt>
      <trkpt lat="49.16462" lon="1.66265">
        <ele>30.6</ele>
        <time>2021-09-12T08:48:03Z</time>
      </trkpt>
      <trkpt lat="49.16477" lon="1.66269">
        <ele>31.4</ele>
        <time>2021-09-12T08:48:08Z</time>
      </trkpt>
      <trkpt lat="49.16483" lon="1.66273">
        <ele>31.6</ele>
        <time>2021-09-12T08:48:10Z</time>
      </trkpt>
      <trkpt lat="49.16494" lon="1.66282">
        <ele>32.2</ele>
        <time>2021-09-12T08:48:14Z</time>
      </trkpt>
      <trkpt lat="49.16501" lon="1.66289">
        <ele>32.4</ele>
        <time>2021-09-12T08:48:17Z</time>
      </trkpt>
      <trkpt lat="49.16514" lon="1.66293">
        <ele>33.2</ele>
        <time>2021-09-12T08:48:22Z</time>
      </trkpt>
      <trkpt lat="49.16516" lon="1.66292">
        <ele>33.4</ele>
        <time>2021-09-12T08:48:23Z</time>
      </trkpt>
      <trkpt lat="49.16523" lon="1.66291">
        <ele>34.2</ele>
        <time>2021-09-12T08:48:27Z</time>
      </trkpt>
      <trkpt lat="49.16525" lon="1.6629">
        <ele>34.4</ele>
        <time>2021-09-12T08:48:28Z</time>
      </trkpt>
      <trkpt lat="49.1653" lon="1.6629">
        <ele>35</ele>
        <time>2021-09-12T08:48:34Z</time>
      </trkpt>
      <trkpt lat="49.16531" lon="1.6629">
        <ele>35.4</ele>
        <time>2021-09-12T08:48:35Z</time>
      </trkpt>
      <trkpt lat="49.16537" lon="1.66292">
        <ele>36.4</ele>
        <time>2021-09-12T08:48:39Z</time>
      </trkpt>
      <trkpt lat="49.16542" lon="1.66294">
        <ele>37.4</ele>
        <time>2021-09-12T08:48:42Z</time>
      </trkpt>
      <trkpt lat="49.16544" lon="1.66294">
        <ele>37.8</ele>
        <time>2021-09-12T08:48:43Z</time>
      </trkpt>
      <trkpt lat="49.16552" lon="1.66296">
        <ele>39</ele>
        <time>2021-09-12T08:48:48Z</time>
      </trkpt>
      <trkpt lat="49.16553" lon="1.66297">
        <ele>39.4</ele>
        <time>2021-09-12T08:48:49Z</time>
      </trkpt>
      <trkpt lat="49.16555" lon="1.66298">
        <ele>39.8</ele>
        <time>2021-09-12T08:48:51Z</time>
      </trkpt>
      <trkpt lat="49.16557" lon="1.66299">
        <ele>40</ele>
        <time>2021-09-12T08:48:52Z</time>
      </trkpt>
      <trkpt lat="49.1656" lon="1.66301">
        <ele>40.6</ele>
        <time>2021-09-12T08:48:54Z</time>
      </trkpt>
      <trkpt lat="49.16565" lon="1.66302">
        <ele>41.2</ele>
        <time>2021-09-12T08:48:57Z</time>
      </trkpt>
      <trkpt lat="49.16567" lon="1.66303">
        <ele>41.6</ele>
        <time>2021-09-12T08:48:58Z</time>
      </trkpt>
      <trkpt lat="49.16574" lon="1.66305">
        <ele>42.6</ele>
        <time>2021-09-12T08:49:02Z</time>
      </trkpt>
      <trkpt lat="49.16578" lon="1.66305">
        <ele>43</ele>
        <time>2021-09-12T08:49:04Z</time>
      </trkpt>
      <trkpt lat="49.16582" lon="1.66307">
        <ele>43.6</ele>
        <time>2021-09-12T08:49:07Z</time>
      </trkpt>
      <trkpt lat="49.16589" lon="1.66309">
        <ele>44.6</ele>
        <time>2021-09-12T08:49:11Z</time>
      </trkpt>
      <trkpt lat="49.1659" lon="1.6631">
        <ele>45</ele>
        <time>2021-09-12T08:49:12Z</time>
      </trkpt>
      <trkpt lat="49.16596" lon="1.66312">
        <ele>46.2</ele>
        <time>2021-09-12T08:49:17Z</time>
      </trkpt>
      <trkpt lat="49.16597" lon="1.66312">
        <ele>46.4</ele>
        <time>2021-09-12T08:49:18Z</time>
      </trkpt>
      <trkpt lat="49.16602" lon="1.6631">
        <ele>47.2</ele>
        <time>2021-09-12T08:49:22Z</time>
      </trkpt>
      <trkpt lat="49.16604" lon="1.66307">
        <ele>47.8</ele>
        <time>2021-09-12T08:49:24Z</time>
      </trkpt>
      <trkpt lat="49.16605" lon="1.66305">
        <ele>48.2</ele>
        <time>2021-09-12T08:49:26Z</time>
      </trkpt>
      <trkpt lat="49.16604" lon="1.66303">
        <ele>48.4</ele>
        <time>2021-09-12T08:49:27Z</time>
      </trkpt>
      <trkpt lat="49.16603" lon="1.66296">
        <ele>49.4</ele>
        <time>2021-09-12T08:49:31Z</time>
      </trkpt>
      <trkpt lat="49.16597" lon="1.66281">
        <ele>50.2</ele>
        <time>2021-09-12T08:49:37Z</time>
      </trkpt>
      <trkpt lat="49.16596" lon="1.66276">
        <ele>50.4</ele>
        <time>2021-09-12T08:49:39Z</time>
      </trkpt>
      <trkpt lat="49.16593" lon="1.66266">
        <ele>51.4</ele>
        <time>2021-09-12T08:49:43Z</time>
      </trkpt>
      <trkpt lat="49.16588" lon="1.66253">
        <ele>52.6</ele>
        <time>2021-09-12T08:49:48Z</time>
      </trkpt>
      <trkpt lat="49.16587" lon="1.66249">
        <ele>52.8</ele>
        <time>2021-09-12T08:49:49Z</time>
      </trkpt>
      <trkpt lat="49.16586" lon="1.66239">
        <ele>53.8</ele>
        <time>2021-09-12T08:49:52Z</time>
      </trkpt>
      <trkpt lat="49.16587" lon="1.66228">
        <ele>54.4</ele>
        <time>2021-09-12T08:49:56Z</time>
      </trkpt>
      <trkpt lat="49.16587" lon="1.66222">
        <ele>54.8</ele>
        <time>2021-09-12T08:49:58Z</time>
      </trkpt>
      <trkpt lat="49.1659" lon="1.66212">
        <ele>56</ele>
        <time>2021-09-12T08:50:02Z</time>
      </trkpt>
      <trkpt lat="49.16593" lon="1.66203">
        <ele>57</ele>
        <time>2021-09-12T08:50:06Z</time>
      </trkpt>
      <trkpt lat="49.16594" lon="1.66201">
        <ele>57.4</ele>
        <time>2021-09-12T08:50:07Z</time>
      </trkpt>
      <trkpt lat="49.16595" lon="1.66196">
        <ele>58</ele>
        <time>2021-09-12T08:50:09Z</time>
      </trkpt>
      <trkpt lat="49.16598" lon="1.66188">
        <ele>59.2</ele>
        <time>2021-09-12T08:50:13Z</time>
      </trkpt>
      <trkpt lat="49.16601" lon="1.66181">
        <ele>60.4</ele>
        <time>2021-09-12T08:50:17Z</time>
      </trkpt>
      <trkpt lat="49.16604" lon="1.66175">
        <ele>60.8</ele>
        <time>2021-09-12T08:50:20Z</time>
      </trkpt>
      <trkpt lat="49.16605" lon="1.66172">
        <ele>61.4</ele>
        <time>2021-09-12T08:50:22Z</time>
      </trkpt>
      <trkpt lat="49.16609" lon="1.66163">
        <ele>62.4</ele>
        <time>2021-09-12T08:50:26Z</time>
      </trkpt>
      <trkpt lat="49.1661" lon="1.66161">
        <ele>62.6</ele>
        <time>2021-09-12T08:50:27Z</time>
      </trkpt>
      <trkpt lat="49.16619" lon="1.66152">
        <ele>63.6</ele>
        <time>2021-09-12T08:50:33Z</time>
      </trkpt>
      <trkpt lat="49.16621" lon="1.6615">
        <ele>63.8</ele>
        <time>2021-09-12T08:50:34Z</time>
      </trkpt>
      <trkpt lat="49.16627" lon="1.66146">
        <ele>64.8</ele>
        <time>2021-09-12T08:50:37Z</time>
      </trkpt>
      <trkpt lat="49.16629" lon="1.66144">
        <ele>64.8</ele>
        <time>2021-09-12T08:50:38Z</time>
      </trkpt>
      <trkpt lat="49.16636" lon="1.66139">
        <ele>65.8</ele>
        <time>2021-09-12T08:50:42Z</time>
      </trkpt>
      <trkpt lat="49.16645" lon="1.66133">
        <ele>66.8</ele>
        <time>2021-09-12T08:50:47Z</time>
      </trkpt>
      <trkpt lat="49.16647" lon="1.66132">
        <ele>67</ele>
        <time>2021-09-12T08:50:48Z</time>
      </trkpt>
      <trkpt lat="49.16655" lon="1.66128">
        <ele>68</ele>
        <time>2021-09-12T08:50:53Z</time>
      </trkpt>
      <trkpt lat="49.16666" lon="1.66125">
        <ele>69.2</ele>
        <time>2021-09-12T08:50:59Z</time>
      </trkpt>
      <trkpt lat="49.1668" lon="1.66121">
        <ele>70.2</ele>
        <time>2021-09-12T08:51:06Z</time>
      </trkpt>
      <trkpt lat="49.16684" lon="1.6612">
        <ele>70.6</ele>
        <time>2021-09-12T08:51:08Z</time>
      </trkpt>
      <trkpt lat="49.16698" lon="1.66119">
        <ele>71.4</ele>
        <time>2021-09-12T08:51:14Z</time>
      </trkpt>
      <trkpt lat="49.16702" lon="1.66118">
        <ele>71.4</ele>
        <time>2021-09-12T08:51:16Z</time>
      </trkpt>
      <trkpt lat="49.1672" lon="1.66117">
        <ele>72.4</ele>
        <time>2021-09-12T08:51:24Z</time>
      </trkpt>
      <trkpt lat="49.16726" lon="1.66117">
        <ele>72.8</ele>
        <time>2021-09-12T08:51:26Z</time>
      </trkpt>
      <trkpt lat="49.16743" lon="1.66116">
        <ele>73.6</ele>
        <time>2021-09-12T08:51:32Z</time>
      </trkpt>
      <trkpt lat="49.16755" lon="1.66116">
        <ele>73.8</ele>
        <time>2021-09-12T08:51:36Z</time>
      </trkpt>
      <trkpt lat="49.16778" lon="1.66116">
        <ele>74.6</ele>
        <time>2021-09-12T08:51:44Z</time>
      </trkpt>
      <trkpt lat="49.16786" lon="1.66117">
        <ele>75.2</ele>
        <time>2021-09-12T08:51:47Z</time>
      </trkpt>
      <trkpt lat="49.168" lon="1.66116">
        <ele>76</ele>
        <time>2021-09-12T08:51:52Z</time>
      </trkpt>
      <trkpt lat="49.16806" lon="1.66116">
        <ele>76.4</ele>
        <time>2021-09-12T08:51:54Z</time>
      </trkpt>
      <trkpt lat="49.16817" lon="1.66115">
        <ele>77.2</ele>
        <time>2021-09-12T08:51:58Z</time>
      </trkpt>
      <trkpt lat="49.16822" lon="1.66114">
        <ele>77.8</ele>
        <time>2021-09-12T08:52:00Z</time>
      </trkpt>
      <trkpt lat="49.16828" lon="1.66115">
        <ele>78.4</ele>
        <time>2021-09-12T08:52:02Z</time>
      </trkpt>
      <trkpt lat="49.16833" lon="1.66115">
        <ele>79.6</ele>
        <time>2021-09-12T08:52:04Z</time>
      </trkpt>
      <trkpt lat="49.16838" lon="1.66114">
        <ele>80.4</ele>
        <time>2021-09-12T08:52:06Z</time>
      </trkpt>
      <trkpt lat="49.1684" lon="1.66114">
        <ele>80.8</ele>
        <time>2021-09-12T08:52:07Z</time>
      </trkpt>
      <trkpt lat="49.16847" lon="1.66115">
        <ele>81.8</ele>
        <time>2021-09-12T08:52:10Z</time>
      </trkpt>
      <trkpt lat="49.16854" lon="1.66116">
        <ele>83</ele>
        <time>2021-09-12T08:52:13Z</time>
      </trkpt>
      <trkpt lat="49.1686" lon="1.66117">
        <ele>84</ele>
        <time>2021-09-12T08:52:16Z</time>
      </trkpt>
      <trkpt lat="49.16868" lon="1.66118">
        <ele>85</ele>
        <time>2021-09-12T08:52:20Z</time>
      </trkpt>
      <trkpt lat="49.16871" lon="1.66118">
        <ele>85</ele>
        <time>2021-09-12T08:52:21Z</time>
      </trkpt>
      <trkpt lat="49.1688" lon="1.66116">
        <ele>86.2</ele>
        <time>2021-09-12T08:52:26Z</time>
      </trkpt>
      <trkpt lat="49.16882" lon="1.66116">
        <ele>86.4</ele>
        <time>2021-09-12T08:52:27Z</time>
      </trkpt>
      <trkpt lat="49.16888" lon="1.66112">
        <ele>87.2</ele>
        <time>2021-09-12T08:52:31Z</time>
      </trkpt>
      <trkpt lat="49.16889" lon="1.66111">
        <ele>87.6</ele>
        <time>2021-09-12T08:52:32Z</time>
      </trkpt>
      <trkpt lat="49.16893" lon="1.6611">
        <ele>88.4</ele>
        <time>2021-09-12T08:52:35Z</time>
      </trkpt>
      <trkpt lat="49.16894" lon="1.6611">
        <ele>88.6</ele>
        <time>2021-09-12T08:52:36Z</time>
      </trkpt>
      <trkpt lat="49.16896" lon="1.66108">
        <ele>89.4</ele>
        <time>2021-09-12T08:52:38Z</time>
      </trkpt>
      <trkpt lat="49.16897" lon="1.66107">
        <ele>89.8</ele>
        <time>2021-09-12T08:52:39Z</time>
      </trkpt>
      <trkpt lat="49.16901" lon="1.66104">
        <ele>91</ele>
        <time>2021-09-12T08:52:42Z</time>
      </trkpt>
      <trkpt lat="49.16902" lon="1.66102">
        <ele>91.2</ele>
        <time>2021-09-12T08:52:43Z</time>
      </trkpt>
      <trkpt lat="49.16904" lon="1.66101">
        <ele>91.4</ele>
        <time>2021-09-12T08:52:44Z</time>
      </trkpt>
      <trkpt lat="49.16907" lon="1.66098">
        <ele>92</ele>
        <time>2021-09-12T08:52:46Z</time>
      </trkpt>
      <trkpt lat="49.1691" lon="1.66096">
        <ele>93</ele>
        <time>2021-09-12T08:52:48Z</time>
      </trkpt>
      <trkpt lat="49.16912" lon="1.66095">
        <ele>93.2</ele>
        <time>2021-09-12T08:52:49Z</time>
      </trkpt>
      <trkpt lat="49.16913" lon="1.66094">
        <ele>93.6</ele>
        <time>2021-09-12T08:52:50Z</time>
      </trkpt>
      <trkpt lat="49.16914" lon="1.66092">
        <ele>94</ele>
        <time>2021-09-12T08:52:51Z</time>
      </trkpt>
      <trkpt lat="49.16915" lon="1.66091">
        <ele>94.4</ele>
        <time>2021-09-12T08:52:52Z</time>
      </trkpt>
      <trkpt lat="49.16921" lon="1.66085">
        <ele>95.6</ele>
        <time>2021-09-12T08:52:56Z</time>
      </trkpt>
      <trkpt lat="49.16926" lon="1.66077">
        <ele>96.4</ele>
        <time>2021-09-12T08:53:00Z</time>
      </trkpt>
      <trkpt lat="49.16928" lon="1.66076">
        <ele>96.8</ele>
        <time>2021-09-12T08:53:01Z</time>
      </trkpt>
      <trkpt lat="49.16934" lon="1.66066">
        <ele>98</ele>
        <time>2021-09-12T08:53:06Z</time>
      </trkpt>
      <trkpt lat="49.16935" lon="1.66061">
        <ele>98.4</ele>
        <time>2021-09-12T08:53:08Z</time>
      </trkpt>
      <trkpt lat="49.1694" lon="1.66052">
        <ele>99</ele>
        <time>2021-09-12T08:53:13Z</time>
      </trkpt>
      <trkpt lat="49.16941" lon="1.66049">
        <ele>99.4</ele>
        <time>2021-09-12T08:53:15Z</time>
      </trkpt>
      <trkpt lat="49.16943" lon="1.66045">
        <ele>100.2</ele>
        <time>2021-09-12T08:53:18Z</time>
      </trkpt>
      <trkpt lat="49.16944" lon="1.66043">
        <ele>100.4</ele>
        <time>2021-09-12T08:53:19Z</time>
      </trkpt>
      <trkpt lat="49.16948" lon="1.66035">
        <ele>101.2</ele>
        <time>2021-09-12T08:53:23Z</time>
      </trkpt>
      <trkpt lat="49.16952" lon="1.66028">
        <ele>102.2</ele>
        <time>2021-09-12T08:53:27Z</time>
      </trkpt>
      <trkpt lat="49.16953" lon="1.66027">
        <ele>102.4</ele>
        <time>2021-09-12T08:53:28Z</time>
      </trkpt>
      <trkpt lat="49.16959" lon="1.66022">
        <ele>103.6</ele>
        <time>2021-09-12T08:53:32Z</time>
      </trkpt>
      <trkpt lat="49.16962" lon="1.66018">
        <ele>104</ele>
        <time>2021-09-12T08:53:34Z</time>
      </trkpt>
      <trkpt lat="49.16964" lon="1.66015">
        <ele>104.6</ele>
        <time>2021-09-12T08:53:36Z</time>
      </trkpt>
      <trkpt lat="49.16969" lon="1.6601">
        <ele>105.6</ele>
        <time>2021-09-12T08:53:39Z</time>
      </trkpt>
      <trkpt lat="49.16974" lon="1.66003">
        <ele>106.8</ele>
        <time>2021-09-12T08:53:43Z</time>
      </trkpt>
      <trkpt lat="49.16982" lon="1.65993">
        <ele>108</ele>
        <time>2021-09-12T08:53:49Z</time>
      </trkpt>
      <trkpt lat="49.16985" lon="1.65988">
        <ele>108.4</ele>
        <time>2021-09-12T08:53:52Z</time>
      </trkpt>
      <trkpt lat="49.16989" lon="1.65983">
        <ele>109</ele>
        <time>2021-09-12T08:53:55Z</time>
      </trkpt>
      <trkpt lat="49.16996" lon="1.65975">
        <ele>110</ele>
        <time>2021-09-12T08:54:00Z</time>
      </trkpt>
      <trkpt lat="49.17006" lon="1.65967">
        <ele>111.2</ele>
        <time>2021-09-12T08:54:06Z</time>
      </trkpt>
      <trkpt lat="49.17012" lon="1.65962">
        <ele>111.8</ele>
        <time>2021-09-12T08:54:09Z</time>
      </trkpt>
      <trkpt lat="49.17022" lon="1.65953">
        <ele>112.4</ele>
        <time>2021-09-12T08:54:13Z</time>
      </trkpt>
      <trkpt lat="49.17025" lon="1.6595">
        <ele>112.4</ele>
        <time>2021-09-12T08:54:14Z</time>
      </trkpt>
      <trkpt lat="49.17042" lon="1.65937">
        <ele>113.4</ele>
        <time>2021-09-12T08:54:20Z</time>
      </trkpt>
      <trkpt lat="49.17069" lon="1.65918">
        <ele>114.4</ele>
        <time>2021-09-12T08:54:28Z</time>
      </trkpt>
      <trkpt lat="49.17093" lon="1.65901">
        <ele>114.8</ele>
        <time>2021-09-12T08:54:35Z</time>
      </trkpt>
      <trkpt lat="49.17107" lon="1.65891">
        <ele>115.4</ele>
        <time>2021-09-12T08:54:39Z</time>
      </trkpt>
      <trkpt lat="49.17128" lon="1.65877">
        <ele>116</ele>
        <time>2021-09-12T08:54:45Z</time>
      </trkpt>
      <trkpt lat="49.17148" lon="1.65865">
        <ele>116.4</ele>
        <time>2021-09-12T08:54:51Z</time>
      </trkpt>
      <trkpt lat="49.17151" lon="1.65864">
        <ele>116.6</ele>
        <time>2021-09-12T08:54:52Z</time>
      </trkpt>
      <trkpt lat="49.17173" lon="1.65849">
        <ele>117.6</ele>
        <time>2021-09-12T08:54:59Z</time>
      </trkpt>
      <trkpt lat="49.17176" lon="1.65846">
        <ele>117.8</ele>
        <time>2021-09-12T08:55:00Z</time>
      </trkpt>
      <trkpt lat="49.17198" lon="1.65823">
        <ele>118.6</ele>
        <time>2021-09-12T08:55:06Z</time>
      </trkpt>
      <trkpt lat="49.17206" lon="1.65814">
        <ele>119</ele>
        <time>2021-09-12T08:55:08Z</time>
      </trkpt>
      <trkpt lat="49.17213" lon="1.65804">
        <ele>119.2</ele>
        <time>2021-09-12T08:55:10Z</time>
      </trkpt>
      <trkpt lat="49.17221" lon="1.65795">
        <ele>119.4</ele>
        <time>2021-09-12T08:55:12Z</time>
      </trkpt>
      <trkpt lat="49.17246" lon="1.65764">
        <ele>119.6</ele>
        <time>2021-09-12T08:55:18Z</time>
      </trkpt>
      <trkpt lat="49.1725" lon="1.6576">
        <ele>119.6</ele>
        <time>2021-09-12T08:55:19Z</time>
      </trkpt>
      <trkpt lat="49.17258" lon="1.6575">
        <ele>119.6</ele>
        <time>2021-09-12T08:55:21Z</time>
      </trkpt>
      <trkpt lat="49.17265" lon="1.6574">
        <ele>119.8</ele>
        <time>2021-09-12T08:55:23Z</time>
      </trkpt>
      <trkpt lat="49.17276" lon="1.65725">
        <ele>119.8</ele>
        <time>2021-09-12T08:55:26Z</time>
      </trkpt>
      <trkpt lat="49.17286" lon="1.65711">
        <ele>119.8</ele>
        <time>2021-09-12T08:55:29Z</time>
      </trkpt>
      <trkpt lat="49.17294" lon="1.65704">
        <ele>120.2</ele>
        <time>2021-09-12T08:55:31Z</time>
      </trkpt>
      <trkpt lat="49.17304" lon="1.65693">
        <ele>120.2</ele>
        <time>2021-09-12T08:55:34Z</time>
      </trkpt>
      <trkpt lat="49.17323" lon="1.65665">
        <ele>120.8</ele>
        <time>2021-09-12T08:55:40Z</time>
      </trkpt>
      <trkpt lat="49.1733" lon="1.65657">
        <ele>121.2</ele>
        <time>2021-09-12T08:55:42Z</time>
      </trkpt>
      <trkpt lat="49.17355" lon="1.65623">
        <ele>121.6</ele>
        <time>2021-09-12T08:55:49Z</time>
      </trkpt>
      <trkpt lat="49.17387" lon="1.65577">
        <ele>121.6</ele>
        <time>2021-09-12T08:55:57Z</time>
      </trkpt>
      <trkpt lat="49.17416" lon="1.65528">
        <ele>121.2</ele>
        <time>2021-09-12T08:56:05Z</time>
      </trkpt>
      <trkpt lat="49.17443" lon="1.65477">
        <ele>121</ele>
        <time>2021-09-12T08:56:13Z</time>
      </trkpt>
      <trkpt lat="49.17462" lon="1.65438">
        <ele>120.8</ele>
        <time>2021-09-12T08:56:19Z</time>
      </trkpt>
      <trkpt lat="49.17465" lon="1.65432">
        <ele>120.8</ele>
        <time>2021-09-12T08:56:20Z</time>
      </trkpt>
      <trkpt lat="49.17481" lon="1.65405">
        <ele>121</ele>
        <time>2021-09-12T08:56:26Z</time>
      </trkpt>
      <trkpt lat="49.17492" lon="1.65388">
        <ele>121</ele>
        <time>2021-09-12T08:56:31Z</time>
      </trkpt>
      <trkpt lat="49.17495" lon="1.65383">
        <ele>121.2</ele>
        <time>2021-09-12T08:56:32Z</time>
      </trkpt>
      <trkpt lat="49.17504" lon="1.65365">
        <ele>121.8</ele>
        <time>2021-09-12T08:56:36Z</time>
      </trkpt>
      <trkpt lat="49.17507" lon="1.65359">
        <ele>121.8</ele>
        <time>2021-09-12T08:56:37Z</time>
      </trkpt>
      <trkpt lat="49.1751" lon="1.65354">
        <ele>121.8</ele>
        <time>2021-09-12T08:56:38Z</time>
      </trkpt>
      <trkpt lat="49.17521" lon="1.65331">
        <ele>121.8</ele>
        <time>2021-09-12T08:56:42Z</time>
      </trkpt>
      <trkpt lat="49.17526" lon="1.6532">
        <ele>121.8</ele>
        <time>2021-09-12T08:56:44Z</time>
      </trkpt>
      <trkpt lat="49.17529" lon="1.65303">
        <ele>122</ele>
        <time>2021-09-12T08:56:47Z</time>
      </trkpt>
      <trkpt lat="49.17529" lon="1.65299">
        <ele>122</ele>
        <time>2021-09-12T08:56:48Z</time>
      </trkpt>
      <trkpt lat="49.17529" lon="1.65281">
        <ele>122.2</ele>
        <time>2021-09-12T08:56:51Z</time>
      </trkpt>
      <trkpt lat="49.17529" lon="1.65274">
        <ele>122.2</ele>
        <time>2021-09-12T08:56:52Z</time>
      </trkpt>
      <trkpt lat="49.17535" lon="1.65257">
        <ele>122.2</ele>
        <time>2021-09-12T08:56:55Z</time>
      </trkpt>
      <trkpt lat="49.17543" lon="1.65236">
        <ele>122</ele>
        <time>2021-09-12T08:56:59Z</time>
      </trkpt>
      <trkpt lat="49.17556" lon="1.65203">
        <ele>121.8</ele>
        <time>2021-09-12T08:57:05Z</time>
      </trkpt>
      <trkpt lat="49.17567" lon="1.65173">
        <ele>121.8</ele>
        <time>2021-09-12T08:57:10Z</time>
      </trkpt>
      <trkpt lat="49.17579" lon="1.65145">
        <ele>121.8</ele>
        <time>2021-09-12T08:57:15Z</time>
      </trkpt>
      <trkpt lat="49.17593" lon="1.65101">
        <ele>122</ele>
        <time>2021-09-12T08:57:21Z</time>
      </trkpt>
      <trkpt lat="49.17602" lon="1.6507">
        <ele>122.2</ele>
        <time>2021-09-12T08:57:25Z</time>
      </trkpt>
      <trkpt lat="49.17605" lon="1.65062">
        <ele>122.2</ele>
        <time>2021-09-12T08:57:26Z</time>
      </trkpt>
      <trkpt lat="49.17615" lon="1.65031">
        <ele>122.6</ele>
        <time>2021-09-12T08:57:30Z</time>
      </trkpt>
      <trkpt lat="49.1762" lon="1.65016">
        <ele>122.6</ele>
        <time>2021-09-12T08:57:32Z</time>
      </trkpt>
      <trkpt lat="49.17638" lon="1.64969">
        <ele>123</ele>
        <time>2021-09-12T08:57:38Z</time>
      </trkpt>
      <trkpt lat="49.17656" lon="1.64918">
        <ele>123.2</ele>
        <time>2021-09-12T08:57:45Z</time>
      </trkpt>
      <trkpt lat="49.17675" lon="1.6487">
        <ele>123.2</ele>
        <time>2021-09-12T08:57:51Z</time>
      </trkpt>
      <trkpt lat="49.17696" lon="1.64824">
        <ele>123.2</ele>
        <time>2021-09-12T08:57:57Z</time>
      </trkpt>
      <trkpt lat="49.17703" lon="1.64811">
        <ele>123.2</ele>
        <time>2021-09-12T08:57:59Z</time>
      </trkpt>
      <trkpt lat="49.1771" lon="1.64797">
        <ele>123.2</ele>
        <time>2021-09-12T08:58:01Z</time>
      </trkpt>
      <trkpt lat="49.17714" lon="1.64789">
        <ele>123.2</ele>
        <time>2021-09-12T08:58:02Z</time>
      </trkpt>
      <trkpt lat="49.17723" lon="1.6477">
        <ele>123.2</ele>
        <time>2021-09-12T08:58:05Z</time>
      </trkpt>
      <trkpt lat="49.17727" lon="1.64763">
        <ele>123.2</ele>
        <time>2021-09-12T08:58:06Z</time>
      </trkpt>
      <trkpt lat="49.17731" lon="1.64756">
        <ele>123.2</ele>
        <time>2021-09-12T08:58:07Z</time>
      </trkpt>
      <trkpt lat="49.17741" lon="1.64732">
        <ele>123.2</ele>
        <time>2021-09-12T08:58:10Z</time>
      </trkpt>
      <trkpt lat="49.17744" lon="1.64723">
        <ele>123.2</ele>
        <time>2021-09-12T08:58:11Z</time>
      </trkpt>
      <trkpt lat="49.17756" lon="1.64698">
        <ele>123.2</ele>
        <time>2021-09-12T08:58:14Z</time>
      </trkpt>
      <trkpt lat="49.17759" lon="1.6469">
        <ele>123</ele>
        <time>2021-09-12T08:58:15Z</time>
      </trkpt>
      <trkpt lat="49.17766" lon="1.64673">
        <ele>123</ele>
        <time>2021-09-12T08:58:17Z</time>
      </trkpt>
      <trkpt lat="49.17777" lon="1.64638">
        <ele>123.2</ele>
        <time>2021-09-12T08:58:21Z</time>
      </trkpt>
      <trkpt lat="49.17795" lon="1.64593">
        <ele>123.2</ele>
        <time>2021-09-12T08:58:26Z</time>
      </trkpt>
      <trkpt lat="49.17808" lon="1.64563">
        <ele>123.2</ele>
        <time>2021-09-12T08:58:30Z</time>
      </trkpt>
      <trkpt lat="49.17814" lon="1.64536">
        <ele>123.2</ele>
        <time>2021-09-12T08:58:33Z</time>
      </trkpt>
      <trkpt lat="49.17816" lon="1.64527">
        <ele>123.2</ele>
        <time>2021-09-12T08:58:34Z</time>
      </trkpt>
      <trkpt lat="49.17817" lon="1.64518">
        <ele>123</ele>
        <time>2021-09-12T08:58:35Z</time>
      </trkpt>
      <trkpt lat="49.17822" lon="1.64503">
        <ele>123</ele>
        <time>2021-09-12T08:58:37Z</time>
      </trkpt>
      <trkpt lat="49.17826" lon="1.64494">
        <ele>123</ele>
        <time>2021-09-12T08:58:38Z</time>
      </trkpt>
      <trkpt lat="49.17844" lon="1.64453">
        <ele>122.6</ele>
        <time>2021-09-12T08:58:43Z</time>
      </trkpt>
      <trkpt lat="49.17852" lon="1.64431">
        <ele>122.4</ele>
        <time>2021-09-12T08:58:46Z</time>
      </trkpt>
      <trkpt lat="49.17858" lon="1.64416">
        <ele>122.2</ele>
        <time>2021-09-12T08:58:48Z</time>
      </trkpt>
      <trkpt lat="49.17872" lon="1.64398">
        <ele>122.2</ele>
        <time>2021-09-12T08:58:51Z</time>
      </trkpt>
      <trkpt lat="49.17896" lon="1.64378">
        <ele>122</ele>
        <time>2021-09-12T08:58:56Z</time>
      </trkpt>
      <trkpt lat="49.17923" lon="1.6436">
        <ele>121.8</ele>
        <time>2021-09-12T08:59:01Z</time>
      </trkpt>
      <trkpt lat="49.17947" lon="1.64338">
        <ele>121.8</ele>
        <time>2021-09-12T08:59:06Z</time>
      </trkpt>
      <trkpt lat="49.17965" lon="1.64323">
        <ele>121.8</ele>
        <time>2021-09-12T08:59:09Z</time>
      </trkpt>
      <trkpt lat="49.1797" lon="1.64317">
        <ele>121.8</ele>
        <time>2021-09-12T08:59:10Z</time>
      </trkpt>
      <trkpt lat="49.1799" lon="1.64286">
        <ele>121.6</ele>
        <time>2021-09-12T08:59:14Z</time>
      </trkpt>
      <trkpt lat="49.17994" lon="1.64277">
        <ele>121.4</ele>
        <time>2021-09-12T08:59:15Z</time>
      </trkpt>
      <trkpt lat="49.17998" lon="1.64267">
        <ele>121.2</ele>
        <time>2021-09-12T08:59:16Z</time>
      </trkpt>
      <trkpt lat="49.18003" lon="1.64257">
        <ele>121</ele>
        <time>2021-09-12T08:59:17Z</time>
      </trkpt>
      <trkpt lat="49.18011" lon="1.64237">
        <ele>120.8</ele>
        <time>2021-09-12T08:59:19Z</time>
      </trkpt>
      <trkpt lat="49.18036" lon="1.64178">
        <ele>120.2</ele>
        <time>2021-09-12T08:59:25Z</time>
      </trkpt>
      <trkpt lat="49.1804" lon="1.64169">
        <ele>120</ele>
        <time>2021-09-12T08:59:26Z</time>
      </trkpt>
      <trkpt lat="49.18057" lon="1.64132">
        <ele>119</ele>
        <time>2021-09-12T08:59:30Z</time>
      </trkpt>
      <trkpt lat="49.18066" lon="1.64113">
        <ele>118</ele>
        <time>2021-09-12T08:59:32Z</time>
      </trkpt>
      <trkpt lat="49.18071" lon="1.64104">
        <ele>117.8</ele>
        <time>2021-09-12T08:59:33Z</time>
      </trkpt>
      <trkpt lat="49.18083" lon="1.64079">
        <ele>116.8</ele>
        <time>2021-09-12T08:59:36Z</time>
      </trkpt>
      <trkpt lat="49.18094" lon="1.64054">
        <ele>116</ele>
        <time>2021-09-12T08:59:39Z</time>
      </trkpt>
      <trkpt lat="49.18098" lon="1.64045">
        <ele>115.8</ele>
        <time>2021-09-12T08:59:40Z</time>
      </trkpt>
      <trkpt lat="49.18109" lon="1.64019">
        <ele>115.4</ele>
        <time>2021-09-12T08:59:43Z</time>
      </trkpt>
      <trkpt lat="49.18115" lon="1.64002">
        <ele>115.2</ele>
        <time>2021-09-12T08:59:45Z</time>
      </trkpt>
      <trkpt lat="49.18129" lon="1.63979">
        <ele>115.2</ele>
        <time>2021-09-12T08:59:48Z</time>
      </trkpt>
      <trkpt lat="49.1814" lon="1.63968">
        <ele>115</ele>
        <time>2021-09-12T08:59:50Z</time>
      </trkpt>
      <trkpt lat="49.18178" lon="1.63937">
        <ele>115</ele>
        <time>2021-09-12T08:59:56Z</time>
      </trkpt>
      <trkpt lat="49.18192" lon="1.63938">
        <ele>114.6</ele>
        <time>2021-09-12T08:59:58Z</time>
      </trkpt>
      <trkpt lat="49.18204" lon="1.63948">
        <ele>114</ele>
        <time>2021-09-12T09:00:00Z</time>
      </trkpt>
      <trkpt lat="49.18209" lon="1.63952">
        <ele>113.4</ele>
        <time>2021-09-12T09:00:01Z</time>
      </trkpt>
      <trkpt lat="49.18234" lon="1.63959">
        <ele>112.4</ele>
        <time>2021-09-12T09:00:06Z</time>
      </trkpt>
      <trkpt lat="49.18268" lon="1.63962">
        <ele>112.6</ele>
        <time>2021-09-12T09:00:14Z</time>
      </trkpt>
      <trkpt lat="49.18274" lon="1.63958">
        <ele>113.4</ele>
        <time>2021-09-12T09:00:17Z</time>
      </trkpt>
      <trkpt lat="49.18274" lon="1.63956">
        <ele>113.4</ele>
        <time>2021-09-12T09:00:18Z</time>
      </trkpt>
      <trkpt lat="49.18274" lon="1.63951">
        <ele>113.6</ele>
        <time>2021-09-12T09:00:22Z</time>
      </trkpt>
      <trkpt lat="49.18276" lon="1.63949">
        <ele>113.8</ele>
        <time>2021-09-12T09:07:13Z</time>
      </trkpt>
      <trkpt lat="49.18277" lon="1.6395">
        <ele>113.8</ele>
        <time>2021-09-12T09:07:15Z</time>
      </trkpt>
      <trkpt lat="49.18281" lon="1.63955">
        <ele>114.4</ele>
        <time>2021-09-12T09:07:21Z</time>
      </trkpt>
      <trkpt lat="49.18285" lon="1.63951">
        <ele>114.4</ele>
        <time>2021-09-12T09:07:28Z</time>
      </trkpt>
      <trkpt lat="49.18288" lon="1.63948">
        <ele>114.2</ele>
        <time>2021-09-12T09:07:35Z</time>
      </trkpt>
      <trkpt lat="49.18288" lon="1.63948">
        <ele>114.2</ele>
        <time>2021-09-12T09:07:36Z</time>
      </trkpt>
      <trkpt lat="49.18291" lon="1.63946">
        <ele>113.8</ele>
        <time>2021-09-12T09:13:25Z</time>
      </trkpt>
      <trkpt lat="49.18296" lon="1.63943">
        <ele>113.8</ele>
        <time>2021-09-12T09:13:28Z</time>
      </trkpt>
      <trkpt lat="49.18305" lon="1.63929">
        <ele>114.2</ele>
        <time>2021-09-12T09:13:32Z</time>
      </trkpt>
      <trkpt lat="49.18309" lon="1.63919">
        <ele>114.2</ele>
        <time>2021-09-12T09:13:34Z</time>
      </trkpt>
      <trkpt lat="49.18316" lon="1.63914">
        <ele>114.4</ele>
        <time>2021-09-12T09:13:36Z</time>
      </trkpt>
      <trkpt lat="49.18325" lon="1.63926">
        <ele>114.4</ele>
        <time>2021-09-12T09:13:39Z</time>
      </trkpt>
      <trkpt lat="49.18345" lon="1.63953">
        <ele>114.4</ele>
        <time>2021-09-12T09:13:44Z</time>
      </trkpt>
      <trkpt lat="49.18385" lon="1.64003">
        <ele>114.8</ele>
        <time>2021-09-12T09:13:53Z</time>
      </trkpt>
      <trkpt lat="49.18421" lon="1.64038">
        <ele>114.6</ele>
        <time>2021-09-12T09:14:00Z</time>
      </trkpt>
      <trkpt lat="49.18437" lon="1.64053">
        <ele>114.6</ele>
        <time>2021-09-12T09:14:03Z</time>
      </trkpt>
      <trkpt lat="49.18451" lon="1.64067">
        <ele>114.2</ele>
        <time>2021-09-12T09:14:06Z</time>
      </trkpt>
      <trkpt lat="49.18466" lon="1.6408">
        <ele>114</ele>
        <time>2021-09-12T09:14:09Z</time>
      </trkpt>
      <trkpt lat="49.18479" lon="1.64094">
        <ele>113.8</ele>
        <time>2021-09-12T09:14:12Z</time>
      </trkpt>
      <trkpt lat="49.1851" lon="1.64129">
        <ele>114</ele>
        <time>2021-09-12T09:14:20Z</time>
      </trkpt>
      <trkpt lat="49.18528" lon="1.64154">
        <ele>115.2</ele>
        <time>2021-09-12T09:14:26Z</time>
      </trkpt>
      <trkpt lat="49.1853" lon="1.64159">
        <ele>116</ele>
        <time>2021-09-12T09:14:27Z</time>
      </trkpt>
      <trkpt lat="49.18533" lon="1.64181">
        <ele>117</ele>
        <time>2021-09-12T09:14:30Z</time>
      </trkpt>
      <trkpt lat="49.18534" lon="1.64188">
        <ele>117.2</ele>
        <time>2021-09-12T09:14:31Z</time>
      </trkpt>
      <trkpt lat="49.18537" lon="1.64211">
        <ele>117.8</ele>
        <time>2021-09-12T09:14:34Z</time>
      </trkpt>
      <trkpt lat="49.18537" lon="1.64218">
        <ele>117.8</ele>
        <time>2021-09-12T09:14:35Z</time>
      </trkpt>
      <trkpt lat="49.18537" lon="1.64226">
        <ele>118</ele>
        <time>2021-09-12T09:14:36Z</time>
      </trkpt>
      <trkpt lat="49.18539" lon="1.64254">
        <ele>118</ele>
        <time>2021-09-12T09:14:39Z</time>
      </trkpt>
      <trkpt lat="49.18539" lon="1.64297">
        <ele>118</ele>
        <time>2021-09-12T09:14:44Z</time>
      </trkpt>
      <trkpt lat="49.18538" lon="1.64305">
        <ele>118</ele>
        <time>2021-09-12T09:14:45Z</time>
      </trkpt>
      <trkpt lat="49.18538" lon="1.64314">
        <ele>117.8</ele>
        <time>2021-09-12T09:14:46Z</time>
      </trkpt>
      <trkpt lat="49.18538" lon="1.64338">
        <ele>117.8</ele>
        <time>2021-09-12T09:14:49Z</time>
      </trkpt>
      <trkpt lat="49.18539" lon="1.64369">
        <ele>117.6</ele>
        <time>2021-09-12T09:14:53Z</time>
      </trkpt>
      <trkpt lat="49.18538" lon="1.64377">
        <ele>117.6</ele>
        <time>2021-09-12T09:14:54Z</time>
      </trkpt>
      <trkpt lat="49.18532" lon="1.64414">
        <ele>117.6</ele>
        <time>2021-09-12T09:14:59Z</time>
      </trkpt>
      <trkpt lat="49.18527" lon="1.64447">
        <ele>117.4</ele>
        <time>2021-09-12T09:15:03Z</time>
      </trkpt>
      <trkpt lat="49.18527" lon="1.64457">
        <ele>117.4</ele>
        <time>2021-09-12T09:15:04Z</time>
      </trkpt>
      <trkpt lat="49.18526" lon="1.64467">
        <ele>117.2</ele>
        <time>2021-09-12T09:15:05Z</time>
      </trkpt>
      <trkpt lat="49.18522" lon="1.64513">
        <ele>116.8</ele>
        <time>2021-09-12T09:15:10Z</time>
      </trkpt>
      <trkpt lat="49.18525" lon="1.64569">
        <ele>116.2</ele>
        <time>2021-09-12T09:15:15Z</time>
      </trkpt>
      <trkpt lat="49.18525" lon="1.64591">
        <ele>116.2</ele>
        <time>2021-09-12T09:15:17Z</time>
      </trkpt>
      <trkpt lat="49.18526" lon="1.64614">
        <ele>116</ele>
        <time>2021-09-12T09:15:19Z</time>
      </trkpt>
      <trkpt lat="49.18527" lon="1.64635">
        <ele>115.8</ele>
        <time>2021-09-12T09:15:21Z</time>
      </trkpt>
      <trkpt lat="49.18527" lon="1.64666">
        <ele>115</ele>
        <time>2021-09-12T09:15:24Z</time>
      </trkpt>
      <trkpt lat="49.18527" lon="1.64684">
        <ele>113.8</ele>
        <time>2021-09-12T09:15:26Z</time>
      </trkpt>
      <trkpt lat="49.18526" lon="1.6471">
        <ele>113.4</ele>
        <time>2021-09-12T09:15:29Z</time>
      </trkpt>
      <trkpt lat="49.18523" lon="1.64727">
        <ele>113</ele>
        <time>2021-09-12T09:15:31Z</time>
      </trkpt>
      <trkpt lat="49.18516" lon="1.64765">
        <ele>113</ele>
        <time>2021-09-12T09:15:35Z</time>
      </trkpt>
      <trkpt lat="49.18514" lon="1.64774">
        <ele>112.8</ele>
        <time>2021-09-12T09:15:36Z</time>
      </trkpt>
      <trkpt lat="49.18511" lon="1.64795">
        <ele>112.8</ele>
        <time>2021-09-12T09:15:38Z</time>
      </trkpt>
      <trkpt lat="49.1851" lon="1.64805">
        <ele>112.8</ele>
        <time>2021-09-12T09:15:39Z</time>
      </trkpt>
      <trkpt lat="49.1851" lon="1.64815">
        <ele>112.6</ele>
        <time>2021-09-12T09:15:40Z</time>
      </trkpt>
      <trkpt lat="49.18509" lon="1.64856">
        <ele>112</ele>
        <time>2021-09-12T09:15:44Z</time>
      </trkpt>
      <trkpt lat="49.18507" lon="1.64875">
        <ele>111.4</ele>
        <time>2021-09-12T09:15:46Z</time>
      </trkpt>
      <trkpt lat="49.18506" lon="1.64922">
        <ele>110.8</ele>
        <time>2021-09-12T09:15:50Z</time>
      </trkpt>
      <trkpt lat="49.18506" lon="1.64962">
        <ele>110.2</ele>
        <time>2021-09-12T09:15:53Z</time>
      </trkpt>
      <trkpt lat="49.18506" lon="1.6499">
        <ele>110</ele>
        <time>2021-09-12T09:15:55Z</time>
      </trkpt>
      <trkpt lat="49.18505" lon="1.6503">
        <ele>109.2</ele>
        <time>2021-09-12T09:15:58Z</time>
      </trkpt>
      <trkpt lat="49.18506" lon="1.6507">
        <ele>108</ele>
        <time>2021-09-12T09:16:01Z</time>
      </trkpt>
      <trkpt lat="49.18507" lon="1.65122">
        <ele>107</ele>
        <time>2021-09-12T09:16:05Z</time>
      </trkpt>
      <trkpt lat="49.18506" lon="1.65147">
        <ele>106.6</ele>
        <time>2021-09-12T09:16:07Z</time>
      </trkpt>
      <trkpt lat="49.18506" lon="1.65171">
        <ele>106.4</ele>
        <time>2021-09-12T09:16:09Z</time>
      </trkpt>
      <trkpt lat="49.18508" lon="1.65225">
        <ele>105.8</ele>
        <time>2021-09-12T09:16:13Z</time>
      </trkpt>
      <trkpt lat="49.1851" lon="1.65253">
        <ele>105</ele>
        <time>2021-09-12T09:16:15Z</time>
      </trkpt>
      <trkpt lat="49.18512" lon="1.65281">
        <ele>104.6</ele>
        <time>2021-09-12T09:16:17Z</time>
      </trkpt>
      <trkpt lat="49.18513" lon="1.65322">
        <ele>103.6</ele>
        <time>2021-09-12T09:16:20Z</time>
      </trkpt>
      <trkpt lat="49.18513" lon="1.65337">
        <ele>103.2</ele>
        <time>2021-09-12T09:16:21Z</time>
      </trkpt>
      <trkpt lat="49.18522" lon="1.65379">
        <ele>102.4</ele>
        <time>2021-09-12T09:16:24Z</time>
      </trkpt>
      <trkpt lat="49.18525" lon="1.65392">
        <ele>102.2</ele>
        <time>2021-09-12T09:16:25Z</time>
      </trkpt>
      <trkpt lat="49.1853" lon="1.65405">
        <ele>101.8</ele>
        <time>2021-09-12T09:16:26Z</time>
      </trkpt>
      <trkpt lat="49.18547" lon="1.65439">
        <ele>100.8</ele>
        <time>2021-09-12T09:16:29Z</time>
      </trkpt>
      <trkpt lat="49.18553" lon="1.65449">
        <ele>99.8</ele>
        <time>2021-09-12T09:16:30Z</time>
      </trkpt>
      <trkpt lat="49.1856" lon="1.65459">
        <ele>98.8</ele>
        <time>2021-09-12T09:16:31Z</time>
      </trkpt>
      <trkpt lat="49.18574" lon="1.65478">
        <ele>97.4</ele>
        <time>2021-09-12T09:16:33Z</time>
      </trkpt>
      <trkpt lat="49.18582" lon="1.65486">
        <ele>97.2</ele>
        <time>2021-09-12T09:16:34Z</time>
      </trkpt>
      <trkpt lat="49.18599" lon="1.65502">
        <ele>96.2</ele>
        <time>2021-09-12T09:16:36Z</time>
      </trkpt>
      <trkpt lat="49.18607" lon="1.65511">
        <ele>95.8</ele>
        <time>2021-09-12T09:16:37Z</time>
      </trkpt>
      <trkpt lat="49.1862" lon="1.65533">
        <ele>95</ele>
        <time>2021-09-12T09:16:39Z</time>
      </trkpt>
      <trkpt lat="49.18635" lon="1.65576">
        <ele>94.4</ele>
        <time>2021-09-12T09:16:42Z</time>
      </trkpt>
      <trkpt lat="49.1864" lon="1.65592">
        <ele>93.6</ele>
        <time>2021-09-12T09:16:43Z</time>
      </trkpt>
      <trkpt lat="49.18649" lon="1.65626">
        <ele>91.8</ele>
        <time>2021-09-12T09:16:45Z</time>
      </trkpt>
      <trkpt lat="49.18651" lon="1.65644">
        <ele>90.8</ele>
        <time>2021-09-12T09:16:46Z</time>
      </trkpt>
      <trkpt lat="49.18652" lon="1.65674">
        <ele>88.8</ele>
        <time>2021-09-12T09:16:48Z</time>
      </trkpt>
      <trkpt lat="49.18652" lon="1.65686">
        <ele>87.8</ele>
        <time>2021-09-12T09:16:49Z</time>
      </trkpt>
      <trkpt lat="49.18651" lon="1.65696">
        <ele>84.8</ele>
        <time>2021-09-12T09:16:50Z</time>
      </trkpt>
      <trkpt lat="49.18651" lon="1.65704">
        <ele>83</ele>
        <time>2021-09-12T09:16:51Z</time>
      </trkpt>
      <trkpt lat="49.18651" lon="1.65709">
        <ele>81</ele>
        <time>2021-09-12T09:16:52Z</time>
      </trkpt>
      <trkpt lat="49.18652" lon="1.65712">
        <ele>78.8</ele>
        <time>2021-09-12T09:16:53Z</time>
      </trkpt>
      <trkpt lat="49.18654" lon="1.65712">
        <ele>77.4</ele>
        <time>2021-09-12T09:16:54Z</time>
      </trkpt>
      <trkpt lat="49.18655" lon="1.65711">
        <ele>76.4</ele>
        <time>2021-09-12T09:16:55Z</time>
      </trkpt>
      <trkpt lat="49.18658" lon="1.65705">
        <ele>75.2</ele>
        <time>2021-09-12T09:16:58Z</time>
      </trkpt>
      <trkpt lat="49.18661" lon="1.65699">
        <ele>75</ele>
        <time>2021-09-12T09:17:00Z</time>
      </trkpt>
      <trkpt lat="49.18673" lon="1.65676">
        <ele>75</ele>
        <time>2021-09-12T09:17:06Z</time>
      </trkpt>
      <trkpt lat="49.18689" lon="1.65642">
        <ele>75.8</ele>
        <time>2021-09-12T09:17:14Z</time>
      </trkpt>
      <trkpt lat="49.18696" lon="1.65629">
        <ele>76.2</ele>
        <time>2021-09-12T09:17:17Z</time>
      </trkpt>
      <trkpt lat="49.18708" lon="1.6561">
        <ele>76.6</ele>
        <time>2021-09-12T09:17:22Z</time>
      </trkpt>
      <trkpt lat="49.18733" lon="1.65582">
        <ele>77.4</ele>
        <time>2021-09-12T09:17:30Z</time>
      </trkpt>
      <trkpt lat="49.18739" lon="1.65575">
        <ele>77.6</ele>
        <time>2021-09-12T09:17:32Z</time>
      </trkpt>
      <trkpt lat="49.18761" lon="1.65549">
        <ele>78.4</ele>
        <time>2021-09-12T09:17:39Z</time>
      </trkpt>
      <trkpt lat="49.18766" lon="1.65542">
        <ele>78.8</ele>
        <time>2021-09-12T09:17:41Z</time>
      </trkpt>
      <trkpt lat="49.18781" lon="1.6552">
        <ele>79.6</ele>
        <time>2021-09-12T09:17:47Z</time>
      </trkpt>
      <trkpt lat="49.18785" lon="1.65512">
        <ele>80.2</ele>
        <time>2021-09-12T09:17:49Z</time>
      </trkpt>
      <trkpt lat="49.18787" lon="1.65509">
        <ele>80.6</ele>
        <time>2021-09-12T09:17:50Z</time>
      </trkpt>
      <trkpt lat="49.18796" lon="1.65493">
        <ele>81.6</ele>
        <time>2021-09-12T09:17:54Z</time>
      </trkpt>
      <trkpt lat="49.18803" lon="1.65478">
        <ele>82.4</ele>
        <time>2021-09-12T09:17:58Z</time>
      </trkpt>
      <trkpt lat="49.18807" lon="1.6547">
        <ele>82.6</ele>
        <time>2021-09-12T09:18:00Z</time>
      </trkpt>
      <trkpt lat="49.18815" lon="1.65454">
        <ele>83.8</ele>
        <time>2021-09-12T09:18:04Z</time>
      </trkpt>
      <trkpt lat="49.18821" lon="1.65442">
        <ele>84.4</ele>
        <time>2021-09-12T09:18:07Z</time>
      </trkpt>
      <trkpt lat="49.18825" lon="1.65434">
        <ele>84.8</ele>
        <time>2021-09-12T09:18:09Z</time>
      </trkpt>
      <trkpt lat="49.18836" lon="1.65413">
        <ele>86</ele>
        <time>2021-09-12T09:18:14Z</time>
      </trkpt>
      <trkpt lat="49.1884" lon="1.65404">
        <ele>86.6</ele>
        <time>2021-09-12T09:18:16Z</time>
      </trkpt>
      <trkpt lat="49.1885" lon="1.65385">
        <ele>87.2</ele>
        <time>2021-09-12T09:18:20Z</time>
      </trkpt>
      <trkpt lat="49.18855" lon="1.65376">
        <ele>87.2</ele>
        <time>2021-09-12T09:18:22Z</time>
      </trkpt>
      <trkpt lat="49.18875" lon="1.6533">
        <ele>87.6</ele>
        <time>2021-09-12T09:18:31Z</time>
      </trkpt>
      <trkpt lat="49.1889" lon="1.65285">
        <ele>88.2</ele>
        <time>2021-09-12T09:18:39Z</time>
      </trkpt>
      <trkpt lat="49.18892" lon="1.65279">
        <ele>88.2</ele>
        <time>2021-09-12T09:18:40Z</time>
      </trkpt>
      <trkpt lat="49.18905" lon="1.65221">
        <ele>89</ele>
        <time>2021-09-12T09:18:50Z</time>
      </trkpt>
      <trkpt lat="49.18908" lon="1.65203">
        <ele>89.2</ele>
        <time>2021-09-12T09:18:53Z</time>
      </trkpt>
      <trkpt lat="49.18913" lon="1.6516">
        <ele>89.8</ele>
        <time>2021-09-12T09:19:00Z</time>
      </trkpt>
      <trkpt lat="49.18915" lon="1.65141">
        <ele>90.4</ele>
        <time>2021-09-12T09:19:03Z</time>
      </trkpt>
      <trkpt lat="49.18918" lon="1.65087">
        <ele>91.4</ele>
        <time>2021-09-12T09:19:12Z</time>
      </trkpt>
      <trkpt lat="49.18919" lon="1.65081">
        <ele>91.6</ele>
        <time>2021-09-12T09:19:13Z</time>
      </trkpt>
      <trkpt lat="49.1892" lon="1.65051">
        <ele>92.6</ele>
        <time>2021-09-12T09:19:18Z</time>
      </trkpt>
      <trkpt lat="49.18922" lon="1.65014">
        <ele>93.8</ele>
        <time>2021-09-12T09:19:24Z</time>
      </trkpt>
      <trkpt lat="49.18923" lon="1.64945">
        <ele>94.8</ele>
        <time>2021-09-12T09:19:35Z</time>
      </trkpt>
      <trkpt lat="49.18923" lon="1.64939">
        <ele>94.8</ele>
        <time>2021-09-12T09:19:36Z</time>
      </trkpt>
      <trkpt lat="49.18922" lon="1.64881">
        <ele>95.2</ele>
        <time>2021-09-12T09:19:46Z</time>
      </trkpt>
      <trkpt lat="49.18921" lon="1.64859">
        <ele>96</ele>
        <time>2021-09-12T09:19:50Z</time>
      </trkpt>
      <trkpt lat="49.1892" lon="1.64842">
        <ele>96.4</ele>
        <time>2021-09-12T09:19:53Z</time>
      </trkpt>
      <trkpt lat="49.1892" lon="1.64825">
        <ele>97</ele>
        <time>2021-09-12T09:19:56Z</time>
      </trkpt>
      <trkpt lat="49.1892" lon="1.64795">
        <ele>97.6</ele>
        <time>2021-09-12T09:20:01Z</time>
      </trkpt>
      <trkpt lat="49.1892" lon="1.64784">
        <ele>98</ele>
        <time>2021-09-12T09:20:03Z</time>
      </trkpt>
      <trkpt lat="49.18919" lon="1.64756">
        <ele>98.6</ele>
        <time>2021-09-12T09:20:08Z</time>
      </trkpt>
      <trkpt lat="49.18919" lon="1.64745">
        <ele>99</ele>
        <time>2021-09-12T09:20:10Z</time>
      </trkpt>
      <trkpt lat="49.18918" lon="1.64708">
        <ele>100.2</ele>
        <time>2021-09-12T09:20:17Z</time>
      </trkpt>
      <trkpt lat="49.18918" lon="1.64698">
        <ele>100.6</ele>
        <time>2021-09-12T09:20:19Z</time>
      </trkpt>
      <trkpt lat="49.18918" lon="1.64679">
        <ele>101.2</ele>
        <time>2021-09-12T09:20:23Z</time>
      </trkpt>
      <trkpt lat="49.18919" lon="1.64665">
        <ele>101.6</ele>
        <time>2021-09-12T09:20:26Z</time>
      </trkpt>
      <trkpt lat="49.18921" lon="1.64651">
        <ele>102.4</ele>
        <time>2021-09-12T09:20:29Z</time>
      </trkpt>
      <trkpt lat="49.18925" lon="1.64632">
        <ele>103.4</ele>
        <time>2021-09-12T09:20:33Z</time>
      </trkpt>
      <trkpt lat="49.18926" lon="1.64628">
        <ele>103.6</ele>
        <time>2021-09-12T09:20:34Z</time>
      </trkpt>
      <trkpt lat="49.1893" lon="1.6461">
        <ele>104.6</ele>
        <time>2021-09-12T09:20:38Z</time>
      </trkpt>
      <trkpt lat="49.18935" lon="1.64592">
        <ele>105.6</ele>
        <time>2021-09-12T09:20:42Z</time>
      </trkpt>
      <trkpt lat="49.18936" lon="1.64587">
        <ele>105.8</ele>
        <time>2021-09-12T09:20:43Z</time>
      </trkpt>
      <trkpt lat="49.18941" lon="1.64564">
        <ele>106.8</ele>
        <time>2021-09-12T09:20:48Z</time>
      </trkpt>
      <trkpt lat="49.18945" lon="1.64546">
        <ele>107.4</ele>
        <time>2021-09-12T09:20:52Z</time>
      </trkpt>
      <trkpt lat="49.18948" lon="1.64537">
        <ele>107.8</ele>
        <time>2021-09-12T09:20:54Z</time>
      </trkpt>
      <trkpt lat="49.18953" lon="1.64513">
        <ele>108.8</ele>
        <time>2021-09-12T09:20:59Z</time>
      </trkpt>
      <trkpt lat="49.18959" lon="1.64477">
        <ele>110</ele>
        <time>2021-09-12T09:21:06Z</time>
      </trkpt>
      <trkpt lat="49.18961" lon="1.64467">
        <ele>110.2</ele>
        <time>2021-09-12T09:21:08Z</time>
      </trkpt>
      <trkpt lat="49.18966" lon="1.64433">
        <ele>111</ele>
        <time>2021-09-12T09:21:14Z</time>
      </trkpt>
      <trkpt lat="49.18967" lon="1.6442">
        <ele>111.4</ele>
        <time>2021-09-12T09:21:16Z</time>
      </trkpt>
      <trkpt lat="49.18975" lon="1.64361">
        <ele>112.2</ele>
        <time>2021-09-12T09:21:25Z</time>
      </trkpt>
      <trkpt lat="49.18976" lon="1.64354">
        <ele>112.2</ele>
        <time>2021-09-12T09:21:26Z</time>
      </trkpt>
      <trkpt lat="49.18979" lon="1.64332">
        <ele>112.8</ele>
        <time>2021-09-12T09:21:29Z</time>
      </trkpt>
      <trkpt lat="49.18982" lon="1.64318">
        <ele>113.2</ele>
        <time>2021-09-12T09:21:31Z</time>
      </trkpt>
      <trkpt lat="49.18983" lon="1.64312">
        <ele>113.4</ele>
        <time>2021-09-12T09:21:32Z</time>
      </trkpt>
      <trkpt lat="49.18993" lon="1.64259">
        <ele>113.6</ele>
        <time>2021-09-12T09:21:39Z</time>
      </trkpt>
      <trkpt lat="49.19009" lon="1.64199">
        <ele>113.4</ele>
        <time>2021-09-12T09:21:46Z</time>
      </trkpt>
      <trkpt lat="49.19032" lon="1.64137">
        <ele>112.2</ele>
        <time>2021-09-12T09:21:53Z</time>
      </trkpt>
      <trkpt lat="49.19038" lon="1.64119">
        <ele>111.6</ele>
        <time>2021-09-12T09:21:55Z</time>
      </trkpt>
      <trkpt lat="49.19049" lon="1.6409">
        <ele>111</ele>
        <time>2021-09-12T09:21:58Z</time>
      </trkpt>
      <trkpt lat="49.19064" lon="1.6405">
        <ele>110</ele>
        <time>2021-09-12T09:22:02Z</time>
      </trkpt>
      <trkpt lat="49.19068" lon="1.64039">
        <ele>109.8</ele>
        <time>2021-09-12T09:22:03Z</time>
      </trkpt>
      <trkpt lat="49.1908" lon="1.64003">
        <ele>108.6</ele>
        <time>2021-09-12T09:22:06Z</time>
      </trkpt>
      <trkpt lat="49.19098" lon="1.63954">
        <ele>107</ele>
        <time>2021-09-12T09:22:10Z</time>
      </trkpt>
      <trkpt lat="49.19106" lon="1.6393">
        <ele>106</ele>
        <time>2021-09-12T09:22:12Z</time>
      </trkpt>
      <trkpt lat="49.19116" lon="1.63907">
        <ele>104.8</ele>
        <time>2021-09-12T09:22:14Z</time>
      </trkpt>
      <trkpt lat="49.19124" lon="1.63885">
        <ele>103.8</ele>
        <time>2021-09-12T09:22:16Z</time>
      </trkpt>
      <trkpt lat="49.19132" lon="1.63864">
        <ele>102.6</ele>
        <time>2021-09-12T09:22:18Z</time>
      </trkpt>
      <trkpt lat="49.1915" lon="1.63817">
        <ele>101.6</ele>
        <time>2021-09-12T09:22:23Z</time>
      </trkpt>
      <trkpt lat="49.19166" lon="1.63772">
        <ele>101.8</ele>
        <time>2021-09-12T09:22:29Z</time>
      </trkpt>
      <trkpt lat="49.19174" lon="1.63749">
        <ele>103.4</ele>
        <time>2021-09-12T09:22:34Z</time>
      </trkpt>
      <trkpt lat="49.19176" lon="1.63747">
        <ele>104</ele>
        <time>2021-09-12T09:22:35Z</time>
      </trkpt>
      <trkpt lat="49.19178" lon="1.63747">
        <ele>104.6</ele>
        <time>2021-09-12T09:22:37Z</time>
      </trkpt>
      <trkpt lat="49.19178" lon="1.63747">
        <ele>104.8</ele>
        <time>2021-09-12T09:22:38Z</time>
      </trkpt>
      <trkpt lat="49.1918" lon="1.63751">
        <ele>108.2</ele>
        <time>2021-09-12T09:22:58Z</time>
      </trkpt>
      <trkpt lat="49.19183" lon="1.63756">
        <ele>108.2</ele>
        <time>2021-09-12T09:23:00Z</time>
      </trkpt>
      <trkpt lat="49.19192" lon="1.63783">
        <ele>108.2</ele>
        <time>2021-09-12T09:23:05Z</time>
      </trkpt>
      <trkpt lat="49.19214" lon="1.63845">
        <ele>107.4</ele>
        <time>2021-09-12T09:23:14Z</time>
      </trkpt>
      <trkpt lat="49.19217" lon="1.63853">
        <ele>107.2</ele>
        <time>2021-09-12T09:23:15Z</time>
      </trkpt>
      <trkpt lat="49.19238" lon="1.63911">
        <ele>105.8</ele>
        <time>2021-09-12T09:23:22Z</time>
      </trkpt>
      <trkpt lat="49.19241" lon="1.63919">
        <ele>105.6</ele>
        <time>2021-09-12T09:23:23Z</time>
      </trkpt>
      <trkpt lat="49.19257" lon="1.63962">
        <ele>104.8</ele>
        <time>2021-09-12T09:23:28Z</time>
      </trkpt>
      <trkpt lat="49.19268" lon="1.63993">
        <ele>103.8</ele>
        <time>2021-09-12T09:23:32Z</time>
      </trkpt>
      <trkpt lat="49.19284" lon="1.64037">
        <ele>102.6</ele>
        <time>2021-09-12T09:23:38Z</time>
      </trkpt>
      <trkpt lat="49.19292" lon="1.64059">
        <ele>102.6</ele>
        <time>2021-09-12T09:23:41Z</time>
      </trkpt>
      <trkpt lat="49.19311" lon="1.64114">
        <ele>103</ele>
        <time>2021-09-12T09:23:49Z</time>
      </trkpt>
      <trkpt lat="49.19325" lon="1.64151">
        <ele>103.8</ele>
        <time>2021-09-12T09:23:55Z</time>
      </trkpt>
      <trkpt lat="49.19332" lon="1.64171">
        <ele>104.2</ele>
        <time>2021-09-12T09:23:58Z</time>
      </trkpt>
      <trkpt lat="49.19337" lon="1.64185">
        <ele>104.8</ele>
        <time>2021-09-12T09:24:00Z</time>
      </trkpt>
      <trkpt lat="49.19354" lon="1.64229">
        <ele>105.2</ele>
        <time>2021-09-12T09:24:07Z</time>
      </trkpt>
      <trkpt lat="49.19371" lon="1.64279">
        <ele>105.6</ele>
        <time>2021-09-12T09:24:15Z</time>
      </trkpt>
      <trkpt lat="49.19375" lon="1.64291">
        <ele>105.6</ele>
        <time>2021-09-12T09:24:17Z</time>
      </trkpt>
      <trkpt lat="49.1939" lon="1.64327">
        <ele>105.8</ele>
        <time>2021-09-12T09:24:23Z</time>
      </trkpt>
      <trkpt lat="49.19393" lon="1.64333">
        <ele>106</ele>
        <time>2021-09-12T09:24:24Z</time>
      </trkpt>
      <trkpt lat="49.19408" lon="1.64368">
        <ele>106.4</ele>
        <time>2021-09-12T09:24:30Z</time>
      </trkpt>
      <trkpt lat="49.19424" lon="1.64414">
        <ele>106.4</ele>
        <time>2021-09-12T09:24:37Z</time>
      </trkpt>
      <trkpt lat="49.19428" lon="1.64426">
        <ele>106.6</ele>
        <time>2021-09-12T09:24:39Z</time>
      </trkpt>
      <trkpt lat="49.19437" lon="1.64453">
        <ele>106.8</ele>
        <time>2021-09-12T09:24:43Z</time>
      </trkpt>
      <trkpt lat="49.19454" lon="1.64508">
        <ele>107.4</ele>
        <time>2021-09-12T09:24:51Z</time>
      </trkpt>
      <trkpt lat="49.19456" lon="1.64515">
        <ele>107.4</ele>
        <time>2021-09-12T09:24:52Z</time>
      </trkpt>
      <trkpt lat="49.19465" lon="1.64569">
        <ele>107.8</ele>
        <time>2021-09-12T09:24:59Z</time>
      </trkpt>
      <trkpt lat="49.19465" lon="1.64577">
        <ele>108</ele>
        <time>2021-09-12T09:25:00Z</time>
      </trkpt>
      <trkpt lat="49.19468" lon="1.64641">
        <ele>108.4</ele>
        <time>2021-09-12T09:25:08Z</time>
      </trkpt>
      <trkpt lat="49.19472" lon="1.64711">
        <ele>108.4</ele>
        <time>2021-09-12T09:25:17Z</time>
      </trkpt>
      <trkpt lat="49.19474" lon="1.64775">
        <ele>108.2</ele>
        <time>2021-09-12T09:25:25Z</time>
      </trkpt>
      <trkpt lat="49.19475" lon="1.64783">
        <ele>108.2</ele>
        <time>2021-09-12T09:25:26Z</time>
      </trkpt>
      <trkpt lat="49.19479" lon="1.64861">
        <ele>108.2</ele>
        <time>2021-09-12T09:25:35Z</time>
      </trkpt>
      <trkpt lat="49.19483" lon="1.64933">
        <ele>107.2</ele>
        <time>2021-09-12T09:25:43Z</time>
      </trkpt>
      <trkpt lat="49.19485" lon="1.6497">
        <ele>107.2</ele>
        <time>2021-09-12T09:25:47Z</time>
      </trkpt>
      <trkpt lat="49.19488" lon="1.65024">
        <ele>106.8</ele>
        <time>2021-09-12T09:25:53Z</time>
      </trkpt>
      <trkpt lat="49.1949" lon="1.65058">
        <ele>106</ele>
        <time>2021-09-12T09:25:57Z</time>
      </trkpt>
      <trkpt lat="49.19492" lon="1.65084">
        <ele>105.8</ele>
        <time>2021-09-12T09:26:00Z</time>
      </trkpt>
      <trkpt lat="49.19497" lon="1.65145">
        <ele>105.8</ele>
        <time>2021-09-12T09:26:07Z</time>
      </trkpt>
      <trkpt lat="49.19503" lon="1.65225">
        <ele>106.2</ele>
        <time>2021-09-12T09:26:16Z</time>
      </trkpt>
      <trkpt lat="49.19512" lon="1.65284">
        <ele>106.2</ele>
        <time>2021-09-12T09:26:23Z</time>
      </trkpt>
      <trkpt lat="49.19528" lon="1.65356">
        <ele>106.8</ele>
        <time>2021-09-12T09:26:32Z</time>
      </trkpt>
      <trkpt lat="49.19545" lon="1.65419">
        <ele>107</ele>
        <time>2021-09-12T09:26:40Z</time>
      </trkpt>
      <trkpt lat="49.19564" lon="1.65489">
        <ele>106.2</ele>
        <time>2021-09-12T09:26:49Z</time>
      </trkpt>
      <trkpt lat="49.19578" lon="1.65543">
        <ele>105.8</ele>
        <time>2021-09-12T09:26:55Z</time>
      </trkpt>
      <trkpt lat="49.19594" lon="1.656">
        <ele>105.2</ele>
        <time>2021-09-12T09:27:00Z</time>
      </trkpt>
      <trkpt lat="49.19597" lon="1.65612">
        <ele>104.8</ele>
        <time>2021-09-12T09:27:01Z</time>
      </trkpt>
      <trkpt lat="49.1961" lon="1.65654">
        <ele>103.8</ele>
        <time>2021-09-12T09:27:04Z</time>
      </trkpt>
      <trkpt lat="49.19614" lon="1.65669">
        <ele>103.6</ele>
        <time>2021-09-12T09:27:05Z</time>
      </trkpt>
      <trkpt lat="49.19627" lon="1.65714">
        <ele>102.6</ele>
        <time>2021-09-12T09:27:08Z</time>
      </trkpt>
      <trkpt lat="49.19637" lon="1.65743">
        <ele>100.8</ele>
        <time>2021-09-12T09:27:10Z</time>
      </trkpt>
      <trkpt lat="49.19643" lon="1.65758">
        <ele>99.8</ele>
        <time>2021-09-12T09:27:11Z</time>
      </trkpt>
      <trkpt lat="49.1965" lon="1.65772">
        <ele>98.8</ele>
        <time>2021-09-12T09:27:12Z</time>
      </trkpt>
      <trkpt lat="49.19657" lon="1.65786">
        <ele>97.6</ele>
        <time>2021-09-12T09:27:13Z</time>
      </trkpt>
      <trkpt lat="49.19665" lon="1.658">
        <ele>96.4</ele>
        <time>2021-09-12T09:27:14Z</time>
      </trkpt>
      <trkpt lat="49.1968" lon="1.65828">
        <ele>94.8</ele>
        <time>2021-09-12T09:27:16Z</time>
      </trkpt>
      <trkpt lat="49.19692" lon="1.65858">
        <ele>93.8</ele>
        <time>2021-09-12T09:27:18Z</time>
      </trkpt>
      <trkpt lat="49.19696" lon="1.65873">
        <ele>92.6</ele>
        <time>2021-09-12T09:27:19Z</time>
      </trkpt>
      <trkpt lat="49.197" lon="1.65889">
        <ele>91.6</ele>
        <time>2021-09-12T09:27:20Z</time>
      </trkpt>
      <trkpt lat="49.19703" lon="1.65904">
        <ele>90.8</ele>
        <time>2021-09-12T09:27:21Z</time>
      </trkpt>
      <trkpt lat="49.19708" lon="1.65933">
        <ele>89.6</ele>
        <time>2021-09-12T09:27:23Z</time>
      </trkpt>
      <trkpt lat="49.19712" lon="1.65961">
        <ele>88.4</ele>
        <time>2021-09-12T09:27:25Z</time>
      </trkpt>
      <trkpt lat="49.1972" lon="1.66014">
        <ele>87</ele>
        <time>2021-09-12T09:27:29Z</time>
      </trkpt>
      <trkpt lat="49.19724" lon="1.66027">
        <ele>86.8</ele>
        <time>2021-09-12T09:27:30Z</time>
      </trkpt>
      <trkpt lat="49.19728" lon="1.66039">
        <ele>86.6</ele>
        <time>2021-09-12T09:27:31Z</time>
      </trkpt>
      <trkpt lat="49.1974" lon="1.66069">
        <ele>86.2</ele>
        <time>2021-09-12T09:27:34Z</time>
      </trkpt>
      <trkpt lat="49.19744" lon="1.66078">
        <ele>86</ele>
        <time>2021-09-12T09:27:35Z</time>
      </trkpt>
      <trkpt lat="49.19754" lon="1.66091">
        <ele>85.8</ele>
        <time>2021-09-12T09:27:37Z</time>
      </trkpt>
      <trkpt lat="49.19771" lon="1.66089">
        <ele>86</ele>
        <time>2021-09-12T09:27:40Z</time>
      </trkpt>
      <trkpt lat="49.19792" lon="1.66085">
        <ele>86</ele>
        <time>2021-09-12T09:27:43Z</time>
      </trkpt>
      <trkpt lat="49.19808" lon="1.66089">
        <ele>85.8</ele>
        <time>2021-09-12T09:27:45Z</time>
      </trkpt>
      <trkpt lat="49.19835" lon="1.66098">
        <ele>85.8</ele>
        <time>2021-09-12T09:27:48Z</time>
      </trkpt>
      <trkpt lat="49.19855" lon="1.66119">
        <ele>85.2</ele>
        <time>2021-09-12T09:27:51Z</time>
      </trkpt>
      <trkpt lat="49.1986" lon="1.66127">
        <ele>84.6</ele>
        <time>2021-09-12T09:27:52Z</time>
      </trkpt>
      <trkpt lat="49.19865" lon="1.66136">
        <ele>84</ele>
        <time>2021-09-12T09:27:53Z</time>
      </trkpt>
      <trkpt lat="49.19869" lon="1.66143">
        <ele>83.2</ele>
        <time>2021-09-12T09:27:54Z</time>
      </trkpt>
      <trkpt lat="49.19873" lon="1.66147">
        <ele>82.8</ele>
        <time>2021-09-12T09:27:55Z</time>
      </trkpt>
      <trkpt lat="49.19878" lon="1.66147">
        <ele>82.2</ele>
        <time>2021-09-12T09:27:56Z</time>
      </trkpt>
      <trkpt lat="49.19881" lon="1.66142">
        <ele>81.8</ele>
        <time>2021-09-12T09:27:57Z</time>
      </trkpt>
      <trkpt lat="49.19883" lon="1.66124">
        <ele>81.2</ele>
        <time>2021-09-12T09:27:59Z</time>
      </trkpt>
      <trkpt lat="49.19883" lon="1.66113">
        <ele>80.8</ele>
        <time>2021-09-12T09:28:00Z</time>
      </trkpt>
      <trkpt lat="49.19884" lon="1.66091">
        <ele>80.2</ele>
        <time>2021-09-12T09:28:02Z</time>
      </trkpt>
      <trkpt lat="49.19884" lon="1.66066">
        <ele>79</ele>
        <time>2021-09-12T09:28:04Z</time>
      </trkpt>
      <trkpt lat="49.19885" lon="1.66052">
        <ele>78.8</ele>
        <time>2021-09-12T09:28:05Z</time>
      </trkpt>
      <trkpt lat="49.19887" lon="1.66021">
        <ele>78</ele>
        <time>2021-09-12T09:28:07Z</time>
      </trkpt>
      <trkpt lat="49.1989" lon="1.65988">
        <ele>77</ele>
        <time>2021-09-12T09:28:09Z</time>
      </trkpt>
      <trkpt lat="49.19891" lon="1.65971">
        <ele>76.4</ele>
        <time>2021-09-12T09:28:10Z</time>
      </trkpt>
      <trkpt lat="49.19892" lon="1.65955">
        <ele>75.8</ele>
        <time>2021-09-12T09:28:11Z</time>
      </trkpt>
      <trkpt lat="49.19895" lon="1.65921">
        <ele>74</ele>
        <time>2021-09-12T09:28:13Z</time>
      </trkpt>
      <trkpt lat="49.19899" lon="1.65887">
        <ele>71.4</ele>
        <time>2021-09-12T09:28:15Z</time>
      </trkpt>
      <trkpt lat="49.19904" lon="1.65854">
        <ele>69.6</ele>
        <time>2021-09-12T09:28:17Z</time>
      </trkpt>
      <trkpt lat="49.1991" lon="1.65821">
        <ele>68.2</ele>
        <time>2021-09-12T09:28:19Z</time>
      </trkpt>
      <trkpt lat="49.19923" lon="1.65754">
        <ele>67</ele>
        <time>2021-09-12T09:28:23Z</time>
      </trkpt>
      <trkpt lat="49.1993" lon="1.65722">
        <ele>66.8</ele>
        <time>2021-09-12T09:28:25Z</time>
      </trkpt>
      <trkpt lat="49.19938" lon="1.65693">
        <ele>66.4</ele>
        <time>2021-09-12T09:28:27Z</time>
      </trkpt>
      <trkpt lat="49.19949" lon="1.65669">
        <ele>66</ele>
        <time>2021-09-12T09:28:29Z</time>
      </trkpt>
      <trkpt lat="49.19962" lon="1.6565">
        <ele>65.2</ele>
        <time>2021-09-12T09:28:31Z</time>
      </trkpt>
      <trkpt lat="49.19968" lon="1.65641">
        <ele>64.8</ele>
        <time>2021-09-12T09:28:32Z</time>
      </trkpt>
      <trkpt lat="49.19981" lon="1.65626">
        <ele>62.6</ele>
        <time>2021-09-12T09:28:34Z</time>
      </trkpt>
      <trkpt lat="49.19987" lon="1.65618">
        <ele>60.8</ele>
        <time>2021-09-12T09:28:35Z</time>
      </trkpt>
      <trkpt lat="49.19993" lon="1.65611">
        <ele>59.4</ele>
        <time>2021-09-12T09:28:36Z</time>
      </trkpt>
      <trkpt lat="49.20005" lon="1.65597">
        <ele>58.2</ele>
        <time>2021-09-12T09:28:38Z</time>
      </trkpt>
      <trkpt lat="49.2001" lon="1.65591">
        <ele>58</ele>
        <time>2021-09-12T09:28:39Z</time>
      </trkpt>
      <trkpt lat="49.20035" lon="1.65561">
        <ele>57.8</ele>
        <time>2021-09-12T09:28:44Z</time>
      </trkpt>
      <trkpt lat="49.2004" lon="1.65557">
        <ele>58</ele>
        <time>2021-09-12T09:28:45Z</time>
      </trkpt>
      <trkpt lat="49.20051" lon="1.6556">
        <ele>59</ele>
        <time>2021-09-12T09:28:48Z</time>
      </trkpt>
      <trkpt lat="49.20052" lon="1.65573">
        <ele>59.2</ele>
        <time>2021-09-12T09:28:50Z</time>
      </trkpt>
      <trkpt lat="49.20052" lon="1.65579">
        <ele>59.2</ele>
        <time>2021-09-12T09:28:51Z</time>
      </trkpt>
      <trkpt lat="49.20051" lon="1.65617">
        <ele>60.6</ele>
        <time>2021-09-12T09:28:57Z</time>
      </trkpt>
      <trkpt lat="49.2005" lon="1.6563">
        <ele>61.6</ele>
        <time>2021-09-12T09:28:59Z</time>
      </trkpt>
      <trkpt lat="49.2005" lon="1.65643">
        <ele>62.4</ele>
        <time>2021-09-12T09:29:01Z</time>
      </trkpt>
      <trkpt lat="49.2005" lon="1.65656">
        <ele>62.8</ele>
        <time>2021-09-12T09:29:03Z</time>
      </trkpt>
      <trkpt lat="49.20048" lon="1.6569">
        <ele>64</ele>
        <time>2021-09-12T09:29:09Z</time>
      </trkpt>
      <trkpt lat="49.20048" lon="1.65695">
        <ele>64</ele>
        <time>2021-09-12T09:29:10Z</time>
      </trkpt>
      <trkpt lat="49.20047" lon="1.65711">
        <ele>65</ele>
        <time>2021-09-12T09:29:13Z</time>
      </trkpt>
      <trkpt lat="49.20045" lon="1.65741">
        <ele>65.8</ele>
        <time>2021-09-12T09:29:19Z</time>
      </trkpt>
      <trkpt lat="49.20045" lon="1.65746">
        <ele>66</ele>
        <time>2021-09-12T09:29:20Z</time>
      </trkpt>
      <trkpt lat="49.20045" lon="1.65765">
        <ele>67</ele>
        <time>2021-09-12T09:29:24Z</time>
      </trkpt>
      <trkpt lat="49.20047" lon="1.65778">
        <ele>67.6</ele>
        <time>2021-09-12T09:29:27Z</time>
      </trkpt>
      <trkpt lat="49.2005" lon="1.65786">
        <ele>68.2</ele>
        <time>2021-09-12T09:29:29Z</time>
      </trkpt>
      <trkpt lat="49.20059" lon="1.65804">
        <ele>69</ele>
        <time>2021-09-12T09:29:34Z</time>
      </trkpt>
      <trkpt lat="49.20064" lon="1.65809">
        <ele>69.2</ele>
        <time>2021-09-12T09:29:36Z</time>
      </trkpt>
      <trkpt lat="49.20077" lon="1.65824">
        <ele>70.2</ele>
        <time>2021-09-12T09:29:42Z</time>
      </trkpt>
      <trkpt lat="49.20094" lon="1.6584">
        <ele>71.4</ele>
        <time>2021-09-12T09:29:49Z</time>
      </trkpt>
      <trkpt lat="49.20099" lon="1.65843">
        <ele>71.8</ele>
        <time>2021-09-12T09:29:51Z</time>
      </trkpt>
      <trkpt lat="49.20102" lon="1.65843">
        <ele>72</ele>
        <time>2021-09-12T09:29:52Z</time>
      </trkpt>
      <trkpt lat="49.20107" lon="1.65839">
        <ele>72.4</ele>
        <time>2021-09-12T09:29:54Z</time>
      </trkpt>
      <trkpt lat="49.2011" lon="1.65831">
        <ele>72.6</ele>
        <time>2021-09-12T09:29:56Z</time>
      </trkpt>
      <trkpt lat="49.2011" lon="1.65822">
        <ele>72.8</ele>
        <time>2021-09-12T09:29:58Z</time>
      </trkpt>
      <trkpt lat="49.20109" lon="1.65817">
        <ele>72.8</ele>
        <time>2021-09-12T09:29:59Z</time>
      </trkpt>
      <trkpt lat="49.20107" lon="1.6579">
        <ele>73.4</ele>
        <time>2021-09-12T09:30:05Z</time>
      </trkpt>
      <trkpt lat="49.2011" lon="1.65772">
        <ele>73.6</ele>
        <time>2021-09-12T09:30:09Z</time>
      </trkpt>
      <trkpt lat="49.20112" lon="1.65764">
        <ele>73.8</ele>
        <time>2021-09-12T09:30:11Z</time>
      </trkpt>
      <trkpt lat="49.20118" lon="1.65745">
        <ele>74.6</ele>
        <time>2021-09-12T09:30:16Z</time>
      </trkpt>
      <trkpt lat="49.20121" lon="1.65738">
        <ele>75</ele>
        <time>2021-09-12T09:30:18Z</time>
      </trkpt>
      <trkpt lat="49.20125" lon="1.65727">
        <ele>75.8</ele>
        <time>2021-09-12T09:30:21Z</time>
      </trkpt>
      <trkpt lat="49.20134" lon="1.65705">
        <ele>77</ele>
        <time>2021-09-12T09:30:27Z</time>
      </trkpt>
      <trkpt lat="49.20143" lon="1.65684">
        <ele>78.2</ele>
        <time>2021-09-12T09:30:33Z</time>
      </trkpt>
      <trkpt lat="49.20151" lon="1.65666">
        <ele>79</ele>
        <time>2021-09-12T09:30:38Z</time>
      </trkpt>
      <trkpt lat="49.20156" lon="1.65656">
        <ele>79.4</ele>
        <time>2021-09-12T09:30:41Z</time>
      </trkpt>
      <trkpt lat="49.20169" lon="1.65632">
        <ele>80.4</ele>
        <time>2021-09-12T09:30:48Z</time>
      </trkpt>
      <trkpt lat="49.20172" lon="1.65626">
        <ele>80.6</ele>
        <time>2021-09-12T09:30:50Z</time>
      </trkpt>
      <trkpt lat="49.20181" lon="1.65609">
        <ele>81.6</ele>
        <time>2021-09-12T09:30:55Z</time>
      </trkpt>
      <trkpt lat="49.20188" lon="1.65596">
        <ele>82.2</ele>
        <time>2021-09-12T09:30:59Z</time>
      </trkpt>
      <trkpt lat="49.20194" lon="1.65586">
        <ele>82.6</ele>
        <time>2021-09-12T09:31:02Z</time>
      </trkpt>
      <trkpt lat="49.20203" lon="1.65569">
        <ele>83.8</ele>
        <time>2021-09-12T09:31:07Z</time>
      </trkpt>
      <trkpt lat="49.20207" lon="1.65563">
        <ele>84.2</ele>
        <time>2021-09-12T09:31:09Z</time>
      </trkpt>
      <trkpt lat="49.20219" lon="1.65543">
        <ele>85</ele>
        <time>2021-09-12T09:31:15Z</time>
      </trkpt>
      <trkpt lat="49.20227" lon="1.6553">
        <ele>85.4</ele>
        <time>2021-09-12T09:31:19Z</time>
      </trkpt>
      <trkpt lat="49.20234" lon="1.65517">
        <ele>86</ele>
        <time>2021-09-12T09:31:23Z</time>
      </trkpt>
      <trkpt lat="49.20244" lon="1.65502">
        <ele>86.2</ele>
        <time>2021-09-12T09:31:27Z</time>
      </trkpt>
      <trkpt lat="49.20255" lon="1.65484">
        <ele>87.2</ele>
        <time>2021-09-12T09:31:32Z</time>
      </trkpt>
      <trkpt lat="49.20269" lon="1.65464">
        <ele>88.2</ele>
        <time>2021-09-12T09:31:38Z</time>
      </trkpt>
      <trkpt lat="49.20287" lon="1.65439">
        <ele>89.2</ele>
        <time>2021-09-12T09:31:46Z</time>
      </trkpt>
      <trkpt lat="49.20291" lon="1.65433">
        <ele>89.6</ele>
        <time>2021-09-12T09:31:48Z</time>
      </trkpt>
      <trkpt lat="49.203" lon="1.6542">
        <ele>90.4</ele>
        <time>2021-09-12T09:31:52Z</time>
      </trkpt>
      <trkpt lat="49.2031" lon="1.65407">
        <ele>91</ele>
        <time>2021-09-12T09:31:56Z</time>
      </trkpt>
      <trkpt lat="49.20316" lon="1.65398">
        <ele>91.4</ele>
        <time>2021-09-12T09:31:59Z</time>
      </trkpt>
      <trkpt lat="49.20326" lon="1.65386">
        <ele>92.2</ele>
        <time>2021-09-12T09:32:03Z</time>
      </trkpt>
      <trkpt lat="49.20328" lon="1.65383">
        <ele>92.6</ele>
        <time>2021-09-12T09:32:04Z</time>
      </trkpt>
      <trkpt lat="49.20345" lon="1.65359">
        <ele>93.8</ele>
        <time>2021-09-12T09:32:11Z</time>
      </trkpt>
      <trkpt lat="49.20352" lon="1.65349">
        <ele>94</ele>
        <time>2021-09-12T09:32:14Z</time>
      </trkpt>
      <trkpt lat="49.20371" lon="1.65322">
        <ele>94.8</ele>
        <time>2021-09-12T09:32:22Z</time>
      </trkpt>
      <trkpt lat="49.20376" lon="1.65315">
        <ele>95</ele>
        <time>2021-09-12T09:32:24Z</time>
      </trkpt>
      <trkpt lat="49.20388" lon="1.65298">
        <ele>96</ele>
        <time>2021-09-12T09:32:29Z</time>
      </trkpt>
      <trkpt lat="49.204" lon="1.6528">
        <ele>97</ele>
        <time>2021-09-12T09:32:34Z</time>
      </trkpt>
      <trkpt lat="49.20403" lon="1.65277">
        <ele>97</ele>
        <time>2021-09-12T09:32:35Z</time>
      </trkpt>
      <trkpt lat="49.20425" lon="1.65245">
        <ele>98</ele>
        <time>2021-09-12T09:32:43Z</time>
      </trkpt>
      <trkpt lat="49.20428" lon="1.65241">
        <ele>98</ele>
        <time>2021-09-12T09:32:44Z</time>
      </trkpt>
      <trkpt lat="49.20454" lon="1.65203">
        <ele>98.8</ele>
        <time>2021-09-12T09:32:53Z</time>
      </trkpt>
      <trkpt lat="49.20466" lon="1.65179">
        <ele>99.2</ele>
        <time>2021-09-12T09:32:58Z</time>
      </trkpt>
      <trkpt lat="49.20469" lon="1.65168">
        <ele>99.2</ele>
        <time>2021-09-12T09:33:00Z</time>
      </trkpt>
      <trkpt lat="49.20482" lon="1.6513">
        <ele>99.8</ele>
        <time>2021-09-12T09:33:07Z</time>
      </trkpt>
      <trkpt lat="49.20484" lon="1.65124">
        <ele>100</ele>
        <time>2021-09-12T09:33:08Z</time>
      </trkpt>
      <trkpt lat="49.20499" lon="1.65083">
        <ele>100.8</ele>
        <time>2021-09-12T09:33:16Z</time>
      </trkpt>
      <trkpt lat="49.20505" lon="1.65067">
        <ele>101.2</ele>
        <time>2021-09-12T09:33:19Z</time>
      </trkpt>
      <trkpt lat="49.20518" lon="1.65033">
        <ele>102.2</ele>
        <time>2021-09-12T09:33:26Z</time>
      </trkpt>
      <trkpt lat="49.20519" lon="1.65029">
        <ele>102.4</ele>
        <time>2021-09-12T09:33:27Z</time>
      </trkpt>
      <trkpt lat="49.20526" lon="1.65007">
        <ele>103.4</ele>
        <time>2021-09-12T09:33:32Z</time>
      </trkpt>
      <trkpt lat="49.20532" lon="1.6499">
        <ele>104.6</ele>
        <time>2021-09-12T09:33:36Z</time>
      </trkpt>
      <trkpt lat="49.20534" lon="1.64986">
        <ele>104.8</ele>
        <time>2021-09-12T09:33:37Z</time>
      </trkpt>
      <trkpt lat="49.20543" lon="1.64961">
        <ele>105.6</ele>
        <time>2021-09-12T09:33:43Z</time>
      </trkpt>
      <trkpt lat="49.20551" lon="1.64938">
        <ele>106.6</ele>
        <time>2021-09-12T09:33:48Z</time>
      </trkpt>
      <trkpt lat="49.20553" lon="1.64933">
        <ele>106.8</ele>
        <time>2021-09-12T09:33:49Z</time>
      </trkpt>
      <trkpt lat="49.20564" lon="1.64901">
        <ele>107.4</ele>
        <time>2021-09-12T09:33:56Z</time>
      </trkpt>
      <trkpt lat="49.20567" lon="1.64892">
        <ele>107.8</ele>
        <time>2021-09-12T09:33:58Z</time>
      </trkpt>
      <trkpt lat="49.20573" lon="1.64874">
        <ele>108</ele>
        <time>2021-09-12T09:34:01Z</time>
      </trkpt>
      <trkpt lat="49.2059" lon="1.64829">
        <ele>108</ele>
        <time>2021-09-12T09:34:07Z</time>
      </trkpt>
      <trkpt lat="49.20613" lon="1.64789">
        <ele>107.8</ele>
        <time>2021-09-12T09:34:13Z</time>
      </trkpt>
      <trkpt lat="49.20647" lon="1.64745">
        <ele>107.2</ele>
        <time>2021-09-12T09:34:21Z</time>
      </trkpt>
      <trkpt lat="49.20677" lon="1.64712">
        <ele>107.4</ele>
        <time>2021-09-12T09:34:28Z</time>
      </trkpt>
      <trkpt lat="49.20681" lon="1.64707">
        <ele>107.6</ele>
        <time>2021-09-12T09:34:29Z</time>
      </trkpt>
      <trkpt lat="49.20711" lon="1.64671">
        <ele>108</ele>
        <time>2021-09-12T09:34:36Z</time>
      </trkpt>
      <trkpt lat="49.20756" lon="1.64617">
        <ele>107.6</ele>
        <time>2021-09-12T09:34:46Z</time>
      </trkpt>
      <trkpt lat="49.20794" lon="1.64577">
        <ele>107.4</ele>
        <time>2021-09-12T09:34:55Z</time>
      </trkpt>
      <trkpt lat="49.20839" lon="1.64544">
        <ele>107.6</ele>
        <time>2021-09-12T09:35:05Z</time>
      </trkpt>
      <trkpt lat="49.20878" lon="1.64517">
        <ele>108.6</ele>
        <time>2021-09-12T09:35:15Z</time>
      </trkpt>
      <trkpt lat="49.20882" lon="1.64514">
        <ele>108.8</ele>
        <time>2021-09-12T09:35:16Z</time>
      </trkpt>
      <trkpt lat="49.20898" lon="1.64502">
        <ele>110</ele>
        <time>2021-09-12T09:35:21Z</time>
      </trkpt>
      <trkpt lat="49.20901" lon="1.645">
        <ele>110.2</ele>
        <time>2021-09-12T09:35:22Z</time>
      </trkpt>
      <trkpt lat="49.20909" lon="1.64493">
        <ele>111.2</ele>
        <time>2021-09-12T09:35:25Z</time>
      </trkpt>
      <trkpt lat="49.2092" lon="1.64481">
        <ele>112.4</ele>
        <time>2021-09-12T09:35:29Z</time>
      </trkpt>
      <trkpt lat="49.20926" lon="1.64476">
        <ele>113.2</ele>
        <time>2021-09-12T09:35:31Z</time>
      </trkpt>
      <trkpt lat="49.20928" lon="1.64473">
        <ele>113.6</ele>
        <time>2021-09-12T09:35:32Z</time>
      </trkpt>
      <trkpt lat="49.20936" lon="1.64466">
        <ele>114.6</ele>
        <time>2021-09-12T09:35:35Z</time>
      </trkpt>
      <trkpt lat="49.20946" lon="1.64456">
        <ele>115.8</ele>
        <time>2021-09-12T09:35:39Z</time>
      </trkpt>
      <trkpt lat="49.20953" lon="1.64449">
        <ele>116.8</ele>
        <time>2021-09-12T09:35:42Z</time>
      </trkpt>
      <trkpt lat="49.20963" lon="1.6444">
        <ele>118</ele>
        <time>2021-09-12T09:35:46Z</time>
      </trkpt>
      <trkpt lat="49.20971" lon="1.64431">
        <ele>119</ele>
        <time>2021-09-12T09:35:50Z</time>
      </trkpt>
      <trkpt lat="49.20972" lon="1.64428">
        <ele>119.4</ele>
        <time>2021-09-12T09:35:51Z</time>
      </trkpt>
      <trkpt lat="49.20976" lon="1.64423">
        <ele>120.4</ele>
        <time>2021-09-12T09:35:53Z</time>
      </trkpt>
      <trkpt lat="49.20985" lon="1.64412">
        <ele>121.2</ele>
        <time>2021-09-12T09:35:58Z</time>
      </trkpt>
      <trkpt lat="49.20986" lon="1.6441">
        <ele>121.4</ele>
        <time>2021-09-12T09:35:59Z</time>
      </trkpt>
      <trkpt lat="49.20994" lon="1.64402">
        <ele>122.4</ele>
        <time>2021-09-12T09:36:03Z</time>
      </trkpt>
      <trkpt lat="49.20995" lon="1.644">
        <ele>122.8</ele>
        <time>2021-09-12T09:36:04Z</time>
      </trkpt>
      <trkpt lat="49.21001" lon="1.64395">
        <ele>123.6</ele>
        <time>2021-09-12T09:36:07Z</time>
      </trkpt>
      <trkpt lat="49.21007" lon="1.64391">
        <ele>124.4</ele>
        <time>2021-09-12T09:36:10Z</time>
      </trkpt>
      <trkpt lat="49.2101" lon="1.64389">
        <ele>124.8</ele>
        <time>2021-09-12T09:36:11Z</time>
      </trkpt>
      <trkpt lat="49.2102" lon="1.64385">
        <ele>125.8</ele>
        <time>2021-09-12T09:36:15Z</time>
      </trkpt>
      <trkpt lat="49.21029" lon="1.64381">
        <ele>126.6</ele>
        <time>2021-09-12T09:36:19Z</time>
      </trkpt>
      <trkpt lat="49.21031" lon="1.6438">
        <ele>126.8</ele>
        <time>2021-09-12T09:36:20Z</time>
      </trkpt>
      <trkpt lat="49.2104" lon="1.64377">
        <ele>128</ele>
        <time>2021-09-12T09:36:24Z</time>
      </trkpt>
      <trkpt lat="49.21048" lon="1.64373">
        <ele>129</ele>
        <time>2021-09-12T09:36:28Z</time>
      </trkpt>
      <trkpt lat="49.2105" lon="1.64372">
        <ele>129.2</ele>
        <time>2021-09-12T09:36:29Z</time>
      </trkpt>
      <trkpt lat="49.2106" lon="1.64369">
        <ele>130.2</ele>
        <time>2021-09-12T09:36:34Z</time>
      </trkpt>
      <trkpt lat="49.21066" lon="1.64365">
        <ele>130.8</ele>
        <time>2021-09-12T09:36:37Z</time>
      </trkpt>
      <trkpt lat="49.21072" lon="1.64361">
        <ele>131.4</ele>
        <time>2021-09-12T09:36:40Z</time>
      </trkpt>
      <trkpt lat="49.21083" lon="1.64353">
        <ele>132.4</ele>
        <time>2021-09-12T09:36:46Z</time>
      </trkpt>
      <trkpt lat="49.2109" lon="1.64348">
        <ele>133.6</ele>
        <time>2021-09-12T09:36:50Z</time>
      </trkpt>
      <trkpt lat="49.21099" lon="1.6434">
        <ele>134.6</ele>
        <time>2021-09-12T09:36:55Z</time>
      </trkpt>
      <trkpt lat="49.21101" lon="1.6434">
        <ele>134.8</ele>
        <time>2021-09-12T09:36:56Z</time>
      </trkpt>
      <trkpt lat="49.21105" lon="1.64345">
        <ele>135.2</ele>
        <time>2021-09-12T09:36:59Z</time>
      </trkpt>
      <trkpt lat="49.2111" lon="1.64348">
        <ele>135.8</ele>
        <time>2021-09-12T09:37:03Z</time>
      </trkpt>
      <trkpt lat="49.21111" lon="1.64347">
        <ele>135.8</ele>
        <time>2021-09-12T09:37:04Z</time>
      </trkpt>
      <trkpt lat="49.21117" lon="1.64339">
        <ele>136.4</ele>
        <time>2021-09-12T09:37:09Z</time>
      </trkpt>
      <trkpt lat="49.21118" lon="1.64336">
        <ele>136.4</ele>
        <time>2021-09-12T09:37:10Z</time>
      </trkpt>
      <trkpt lat="49.21121" lon="1.64327">
        <ele>136.6</ele>
        <time>2021-09-12T09:37:14Z</time>
      </trkpt>
      <trkpt lat="49.21124" lon="1.64322">
        <ele>136.6</ele>
        <time>2021-09-12T09:37:16Z</time>
      </trkpt>
      <trkpt lat="49.21128" lon="1.64314">
        <ele>136.8</ele>
        <time>2021-09-12T09:37:19Z</time>
      </trkpt>
      <trkpt lat="49.21136" lon="1.64305">
        <ele>137.2</ele>
        <time>2021-09-12T09:37:24Z</time>
      </trkpt>
      <trkpt lat="49.21145" lon="1.64294">
        <ele>137.4</ele>
        <time>2021-09-12T09:37:30Z</time>
      </trkpt>
      <trkpt lat="49.21146" lon="1.64292">
        <ele>137.6</ele>
        <time>2021-09-12T09:37:31Z</time>
      </trkpt>
      <trkpt lat="49.2115" lon="1.64287">
        <ele>138</ele>
        <time>2021-09-12T09:37:34Z</time>
      </trkpt>
      <trkpt lat="49.21157" lon="1.64277">
        <ele>138.4</ele>
        <time>2021-09-12T09:37:38Z</time>
      </trkpt>
      <trkpt lat="49.21162" lon="1.64268">
        <ele>139</ele>
        <time>2021-09-12T09:37:41Z</time>
      </trkpt>
      <trkpt lat="49.21169" lon="1.64254">
        <ele>139.4</ele>
        <time>2021-09-12T09:37:45Z</time>
      </trkpt>
      <trkpt lat="49.21176" lon="1.64241">
        <ele>140</ele>
        <time>2021-09-12T09:37:48Z</time>
      </trkpt>
      <trkpt lat="49.21178" lon="1.64236">
        <ele>140.2</ele>
        <time>2021-09-12T09:37:49Z</time>
      </trkpt>
      <trkpt lat="49.21189" lon="1.64208">
        <ele>141.2</ele>
        <time>2021-09-12T09:37:55Z</time>
      </trkpt>
      <trkpt lat="49.21194" lon="1.64199">
        <ele>141.4</ele>
        <time>2021-09-12T09:37:58Z</time>
      </trkpt>
      <trkpt lat="49.21194" lon="1.64197">
        <ele>141.4</ele>
        <time>2021-09-12T09:37:59Z</time>
      </trkpt>
      <trkpt lat="49.21191" lon="1.642">
        <ele>141.6</ele>
        <time>2021-09-12T09:38:02Z</time>
      </trkpt>
      <trkpt lat="49.21187" lon="1.64212">
        <ele>141.6</ele>
        <time>2021-09-12T09:38:05Z</time>
      </trkpt>
      <trkpt lat="49.21182" lon="1.64221">
        <ele>141.8</ele>
        <time>2021-09-12T09:38:07Z</time>
      </trkpt>
      <trkpt lat="49.21168" lon="1.6425">
        <ele>142</ele>
        <time>2021-09-12T09:38:13Z</time>
      </trkpt>
      <trkpt lat="49.21154" lon="1.64276">
        <ele>141.4</ele>
        <time>2021-09-12T09:38:18Z</time>
      </trkpt>
      <trkpt lat="49.21136" lon="1.643">
        <ele>140.8</ele>
        <time>2021-09-12T09:38:22Z</time>
      </trkpt>
      <trkpt lat="49.21125" lon="1.64313">
        <ele>140.4</ele>
        <time>2021-09-12T09:38:24Z</time>
      </trkpt>
      <trkpt lat="49.21113" lon="1.64322">
        <ele>139.8</ele>
        <time>2021-09-12T09:38:26Z</time>
      </trkpt>
      <trkpt lat="49.21099" lon="1.64334">
        <ele>138.2</ele>
        <time>2021-09-12T09:38:29Z</time>
      </trkpt>
      <trkpt lat="49.21094" lon="1.64336">
        <ele>137.6</ele>
        <time>2021-09-12T09:38:30Z</time>
      </trkpt>
      <trkpt lat="49.2109" lon="1.64338">
        <ele>137.2</ele>
        <time>2021-09-12T09:38:31Z</time>
      </trkpt>
      <trkpt lat="49.21085" lon="1.64341">
        <ele>136.2</ele>
        <time>2021-09-12T09:38:33Z</time>
      </trkpt>
      <trkpt lat="49.21087" lon="1.64345">
        <ele>135.4</ele>
        <time>2021-09-12T09:38:36Z</time>
      </trkpt>
      <trkpt lat="49.21096" lon="1.64339">
        <ele>135.2</ele>
        <time>2021-09-12T09:38:40Z</time>
      </trkpt>
      <trkpt lat="49.21098" lon="1.64337">
        <ele>135.2</ele>
        <time>2021-09-12T09:38:41Z</time>
      </trkpt>
      <trkpt lat="49.21106" lon="1.64339">
        <ele>135.2</ele>
        <time>2021-09-12T09:38:45Z</time>
      </trkpt>
      <trkpt lat="49.21108" lon="1.64341">
        <ele>135.6</ele>
        <time>2021-09-12T09:38:48Z</time>
      </trkpt>
      <trkpt lat="49.21109" lon="1.64344">
        <ele>136.6</ele>
        <time>2021-09-12T09:39:33Z</time>
      </trkpt>
      <trkpt lat="49.2111" lon="1.64349">
        <ele>136.6</ele>
        <time>2021-09-12T09:39:35Z</time>
      </trkpt>
      <trkpt lat="49.2111" lon="1.64356">
        <ele>136.6</ele>
        <time>2021-09-12T09:39:37Z</time>
      </trkpt>
      <trkpt lat="49.21117" lon="1.64381">
        <ele>136.6</ele>
        <time>2021-09-12T09:39:42Z</time>
      </trkpt>
      <trkpt lat="49.2112" lon="1.64386">
        <ele>136.6</ele>
        <time>2021-09-12T09:39:43Z</time>
      </trkpt>
      <trkpt lat="49.21123" lon="1.6439">
        <ele>136.4</ele>
        <time>2021-09-12T09:39:44Z</time>
      </trkpt>
      <trkpt lat="49.21135" lon="1.64402">
        <ele>136</ele>
        <time>2021-09-12T09:39:47Z</time>
      </trkpt>
      <trkpt lat="49.21153" lon="1.64417">
        <ele>135.2</ele>
        <time>2021-09-12T09:39:51Z</time>
      </trkpt>
      <trkpt lat="49.21173" lon="1.64431">
        <ele>134.2</ele>
        <time>2021-09-12T09:39:55Z</time>
      </trkpt>
      <trkpt lat="49.21178" lon="1.64434">
        <ele>134</ele>
        <time>2021-09-12T09:39:56Z</time>
      </trkpt>
      <trkpt lat="49.212" lon="1.64448">
        <ele>133</ele>
        <time>2021-09-12T09:40:00Z</time>
      </trkpt>
      <trkpt lat="49.21211" lon="1.64455">
        <ele>132.4</ele>
        <time>2021-09-12T09:40:02Z</time>
      </trkpt>
      <trkpt lat="49.21241" lon="1.64483">
        <ele>132</ele>
        <time>2021-09-12T09:40:08Z</time>
      </trkpt>
      <trkpt lat="49.21256" lon="1.64498">
        <ele>130.8</ele>
        <time>2021-09-12T09:40:11Z</time>
      </trkpt>
      <trkpt lat="49.21273" lon="1.64512">
        <ele>129.6</ele>
        <time>2021-09-12T09:40:14Z</time>
      </trkpt>
      <trkpt lat="49.21279" lon="1.64517">
        <ele>129.4</ele>
        <time>2021-09-12T09:40:15Z</time>
      </trkpt>
      <trkpt lat="49.21304" lon="1.64533">
        <ele>128.6</ele>
        <time>2021-09-12T09:40:19Z</time>
      </trkpt>
      <trkpt lat="49.2133" lon="1.64548">
        <ele>127.6</ele>
        <time>2021-09-12T09:40:23Z</time>
      </trkpt>
      <trkpt lat="49.21344" lon="1.64554">
        <ele>127.6</ele>
        <time>2021-09-12T09:40:25Z</time>
      </trkpt>
      <trkpt lat="49.21374" lon="1.64563">
        <ele>126.8</ele>
        <time>2021-09-12T09:40:29Z</time>
      </trkpt>
      <trkpt lat="49.21382" lon="1.64566">
        <ele>126.2</ele>
        <time>2021-09-12T09:40:30Z</time>
      </trkpt>
      <trkpt lat="49.21405" lon="1.64576">
        <ele>125</ele>
        <time>2021-09-12T09:40:33Z</time>
      </trkpt>
      <trkpt lat="49.21413" lon="1.64578">
        <ele>124.4</ele>
        <time>2021-09-12T09:40:34Z</time>
      </trkpt>
      <trkpt lat="49.21422" lon="1.64578">
        <ele>124</ele>
        <time>2021-09-12T09:40:35Z</time>
      </trkpt>
      <trkpt lat="49.2143" lon="1.64577">
        <ele>123.6</ele>
        <time>2021-09-12T09:40:36Z</time>
      </trkpt>
      <trkpt lat="49.21447" lon="1.64574">
        <ele>122.2</ele>
        <time>2021-09-12T09:40:38Z</time>
      </trkpt>
      <trkpt lat="49.21461" lon="1.64571">
        <ele>121.2</ele>
        <time>2021-09-12T09:40:40Z</time>
      </trkpt>
      <trkpt lat="49.21467" lon="1.6457">
        <ele>120.6</ele>
        <time>2021-09-12T09:40:41Z</time>
      </trkpt>
      <trkpt lat="49.21479" lon="1.64567">
        <ele>119</ele>
        <time>2021-09-12T09:40:43Z</time>
      </trkpt>
      <trkpt lat="49.21492" lon="1.64564">
        <ele>117.2</ele>
        <time>2021-09-12T09:40:45Z</time>
      </trkpt>
      <trkpt lat="49.21505" lon="1.64562">
        <ele>115.8</ele>
        <time>2021-09-12T09:40:47Z</time>
      </trkpt>
      <trkpt lat="49.21532" lon="1.6456">
        <ele>114.4</ele>
        <time>2021-09-12T09:40:51Z</time>
      </trkpt>
      <trkpt lat="49.21548" lon="1.64558">
        <ele>113.2</ele>
        <time>2021-09-12T09:40:53Z</time>
      </trkpt>
      <trkpt lat="49.21565" lon="1.64555">
        <ele>112</ele>
        <time>2021-09-12T09:40:55Z</time>
      </trkpt>
      <trkpt lat="49.21583" lon="1.64551">
        <ele>110.4</ele>
        <time>2021-09-12T09:40:57Z</time>
      </trkpt>
      <trkpt lat="49.21593" lon="1.64548">
        <ele>109.4</ele>
        <time>2021-09-12T09:40:58Z</time>
      </trkpt>
      <trkpt lat="49.21602" lon="1.64546">
        <ele>108.4</ele>
        <time>2021-09-12T09:40:59Z</time>
      </trkpt>
      <trkpt lat="49.21621" lon="1.64542">
        <ele>106.4</ele>
        <time>2021-09-12T09:41:01Z</time>
      </trkpt>
      <trkpt lat="49.2163" lon="1.64539">
        <ele>105.4</ele>
        <time>2021-09-12T09:41:02Z</time>
      </trkpt>
      <trkpt lat="49.21639" lon="1.64536">
        <ele>104.4</ele>
        <time>2021-09-12T09:41:03Z</time>
      </trkpt>
      <trkpt lat="49.21647" lon="1.64533">
        <ele>103.2</ele>
        <time>2021-09-12T09:41:04Z</time>
      </trkpt>
      <trkpt lat="49.21655" lon="1.64531">
        <ele>102.2</ele>
        <time>2021-09-12T09:41:05Z</time>
      </trkpt>
      <trkpt lat="49.21663" lon="1.64527">
        <ele>101.2</ele>
        <time>2021-09-12T09:41:06Z</time>
      </trkpt>
      <trkpt lat="49.2167" lon="1.64521">
        <ele>99.8</ele>
        <time>2021-09-12T09:41:07Z</time>
      </trkpt>
      <trkpt lat="49.21675" lon="1.64514">
        <ele>99</ele>
        <time>2021-09-12T09:41:08Z</time>
      </trkpt>
      <trkpt lat="49.21681" lon="1.64506">
        <ele>98.6</ele>
        <time>2021-09-12T09:41:09Z</time>
      </trkpt>
      <trkpt lat="49.21701" lon="1.64476">
        <ele>97.4</ele>
        <time>2021-09-12T09:41:13Z</time>
      </trkpt>
      <trkpt lat="49.21711" lon="1.64462">
        <ele>96.8</ele>
        <time>2021-09-12T09:41:15Z</time>
      </trkpt>
      <trkpt lat="49.21737" lon="1.64424">
        <ele>96.6</ele>
        <time>2021-09-12T09:41:21Z</time>
      </trkpt>
      <trkpt lat="49.2174" lon="1.64416">
        <ele>96.6</ele>
        <time>2021-09-12T09:41:22Z</time>
      </trkpt>
      <trkpt lat="49.21738" lon="1.64391">
        <ele>96.6</ele>
        <time>2021-09-12T09:41:25Z</time>
      </trkpt>
      <trkpt lat="49.21736" lon="1.64384">
        <ele>96.8</ele>
        <time>2021-09-12T09:41:26Z</time>
      </trkpt>
      <trkpt lat="49.21722" lon="1.64334">
        <ele>97.2</ele>
        <time>2021-09-12T09:41:33Z</time>
      </trkpt>
      <trkpt lat="49.21714" lon="1.64303">
        <ele>98</ele>
        <time>2021-09-12T09:41:38Z</time>
      </trkpt>
      <trkpt lat="49.21712" lon="1.64299">
        <ele>98.2</ele>
        <time>2021-09-12T09:41:39Z</time>
      </trkpt>
      <trkpt lat="49.21709" lon="1.643">
        <ele>98.4</ele>
        <time>2021-09-12T09:41:40Z</time>
      </trkpt>
      <trkpt lat="49.21706" lon="1.64303">
        <ele>98.6</ele>
        <time>2021-09-12T09:41:41Z</time>
      </trkpt>
      <trkpt lat="49.21696" lon="1.64301">
        <ele>99</ele>
        <time>2021-09-12T09:41:44Z</time>
      </trkpt>
      <trkpt lat="49.21688" lon="1.64294">
        <ele>99.4</ele>
        <time>2021-09-12T09:41:46Z</time>
      </trkpt>
      <trkpt lat="49.21684" lon="1.64291">
        <ele>99.6</ele>
        <time>2021-09-12T09:41:47Z</time>
      </trkpt>
      <trkpt lat="49.21665" lon="1.64275">
        <ele>100</ele>
        <time>2021-09-12T09:41:52Z</time>
      </trkpt>
      <trkpt lat="49.21642" lon="1.64253">
        <ele>100.6</ele>
        <time>2021-09-12T09:41:58Z</time>
      </trkpt>
      <trkpt lat="49.21639" lon="1.64248">
        <ele>100.8</ele>
        <time>2021-09-12T09:41:59Z</time>
      </trkpt>
      <trkpt lat="49.21629" lon="1.64226">
        <ele>102</ele>
        <time>2021-09-12T09:42:03Z</time>
      </trkpt>
      <trkpt lat="49.21619" lon="1.64202">
        <ele>102.6</ele>
        <time>2021-09-12T09:42:07Z</time>
      </trkpt>
      <trkpt lat="49.21608" lon="1.64158">
        <ele>103</ele>
        <time>2021-09-12T09:42:14Z</time>
      </trkpt>
      <trkpt lat="49.21606" lon="1.64151">
        <ele>103.2</ele>
        <time>2021-09-12T09:42:15Z</time>
      </trkpt>
      <trkpt lat="49.21597" lon="1.64099">
        <ele>104.2</ele>
        <time>2021-09-12T09:42:23Z</time>
      </trkpt>
      <trkpt lat="49.2159" lon="1.6406">
        <ele>105.2</ele>
        <time>2021-09-12T09:42:29Z</time>
      </trkpt>
      <trkpt lat="49.21586" lon="1.64041">
        <ele>106</ele>
        <time>2021-09-12T09:42:32Z</time>
      </trkpt>
      <trkpt lat="49.21584" lon="1.64035">
        <ele>106.2</ele>
        <time>2021-09-12T09:42:33Z</time>
      </trkpt>
      <trkpt lat="49.21574" lon="1.63996">
        <ele>107.2</ele>
        <time>2021-09-12T09:42:39Z</time>
      </trkpt>
      <trkpt lat="49.21571" lon="1.63984">
        <ele>107.8</ele>
        <time>2021-09-12T09:42:41Z</time>
      </trkpt>
      <trkpt lat="49.21568" lon="1.63971">
        <ele>108</ele>
        <time>2021-09-12T09:42:43Z</time>
      </trkpt>
      <trkpt lat="49.21563" lon="1.63952">
        <ele>108.4</ele>
        <time>2021-09-12T09:42:46Z</time>
      </trkpt>
      <trkpt lat="49.21554" lon="1.6391">
        <ele>109.2</ele>
        <time>2021-09-12T09:42:53Z</time>
      </trkpt>
      <trkpt lat="49.21552" lon="1.63899">
        <ele>109.4</ele>
        <time>2021-09-12T09:42:55Z</time>
      </trkpt>
      <trkpt lat="49.21545" lon="1.63862">
        <ele>110.4</ele>
        <time>2021-09-12T09:43:02Z</time>
      </trkpt>
      <trkpt lat="49.21544" lon="1.63857">
        <ele>110.6</ele>
        <time>2021-09-12T09:43:03Z</time>
      </trkpt>
      <trkpt lat="49.21541" lon="1.63842">
        <ele>111.4</ele>
        <time>2021-09-12T09:43:06Z</time>
      </trkpt>
      <trkpt lat="49.21542" lon="1.63838">
        <ele>111.8</ele>
        <time>2021-09-12T09:43:07Z</time>
      </trkpt>
      <trkpt lat="49.21544" lon="1.63835">
        <ele>112.2</ele>
        <time>2021-09-12T09:43:08Z</time>
      </trkpt>
      <trkpt lat="49.21547" lon="1.63834">
        <ele>112.4</ele>
        <time>2021-09-12T09:43:09Z</time>
      </trkpt>
      <trkpt lat="49.21561" lon="1.63834">
        <ele>113.4</ele>
        <time>2021-09-12T09:43:12Z</time>
      </trkpt>
      <trkpt lat="49.21566" lon="1.63833">
        <ele>113.6</ele>
        <time>2021-09-12T09:43:13Z</time>
      </trkpt>
      <trkpt lat="49.21595" lon="1.63825">
        <ele>113.6</ele>
        <time>2021-09-12T09:43:18Z</time>
      </trkpt>
      <trkpt lat="49.21619" lon="1.63821">
        <ele>113.4</ele>
        <time>2021-09-12T09:43:23Z</time>
      </trkpt>
      <trkpt lat="49.21623" lon="1.63822">
        <ele>113.2</ele>
        <time>2021-09-12T09:43:24Z</time>
      </trkpt>
      <trkpt lat="49.21637" lon="1.63833">
        <ele>113.2</ele>
        <time>2021-09-12T09:43:28Z</time>
      </trkpt>
      <trkpt lat="49.2164" lon="1.63836">
        <ele>113.2</ele>
        <time>2021-09-12T09:43:29Z</time>
      </trkpt>
      <trkpt lat="49.2166" lon="1.63861">
        <ele>114</ele>
        <time>2021-09-12T09:43:36Z</time>
      </trkpt>
      <trkpt lat="49.21666" lon="1.63866">
        <ele>114.6</ele>
        <time>2021-09-12T09:43:38Z</time>
      </trkpt>
      <trkpt lat="49.21681" lon="1.63881">
        <ele>115.6</ele>
        <time>2021-09-12T09:43:43Z</time>
      </trkpt>
      <trkpt lat="49.21697" lon="1.63896">
        <ele>116.8</ele>
        <time>2021-09-12T09:43:48Z</time>
      </trkpt>
      <trkpt lat="49.217" lon="1.63898">
        <ele>117</ele>
        <time>2021-09-12T09:43:49Z</time>
      </trkpt>
      <trkpt lat="49.21715" lon="1.63908">
        <ele>118</ele>
        <time>2021-09-12T09:43:53Z</time>
      </trkpt>
      <trkpt lat="49.21726" lon="1.63914">
        <ele>118.6</ele>
        <time>2021-09-12T09:43:56Z</time>
      </trkpt>
      <trkpt lat="49.21733" lon="1.63918">
        <ele>119.4</ele>
        <time>2021-09-12T09:43:58Z</time>
      </trkpt>
      <trkpt lat="49.21743" lon="1.63921">
        <ele>120.4</ele>
        <time>2021-09-12T09:44:01Z</time>
      </trkpt>
      <trkpt lat="49.2175" lon="1.63921">
        <ele>121</ele>
        <time>2021-09-12T09:44:03Z</time>
      </trkpt>
      <trkpt lat="49.21756" lon="1.6392">
        <ele>121.6</ele>
        <time>2021-09-12T09:44:05Z</time>
      </trkpt>
      <trkpt lat="49.21764" lon="1.63915">
        <ele>122.4</ele>
        <time>2021-09-12T09:44:08Z</time>
      </trkpt>
      <trkpt lat="49.21765" lon="1.63912">
        <ele>122.6</ele>
        <time>2021-09-12T09:44:09Z</time>
      </trkpt>
      <trkpt lat="49.21769" lon="1.639">
        <ele>123.6</ele>
        <time>2021-09-12T09:44:12Z</time>
      </trkpt>
      <trkpt lat="49.2177" lon="1.63896">
        <ele>124</ele>
        <time>2021-09-12T09:44:13Z</time>
      </trkpt>
      <trkpt lat="49.21772" lon="1.63893">
        <ele>124.2</ele>
        <time>2021-09-12T09:44:14Z</time>
      </trkpt>
      <trkpt lat="49.21778" lon="1.63882">
        <ele>125</ele>
        <time>2021-09-12T09:44:18Z</time>
      </trkpt>
      <trkpt lat="49.2178" lon="1.63879">
        <ele>125.2</ele>
        <time>2021-09-12T09:44:19Z</time>
      </trkpt>
      <trkpt lat="49.21788" lon="1.63868">
        <ele>126.2</ele>
        <time>2021-09-12T09:44:23Z</time>
      </trkpt>
      <trkpt lat="49.21795" lon="1.63857">
        <ele>127.6</ele>
        <time>2021-09-12T09:44:27Z</time>
      </trkpt>
      <trkpt lat="49.21797" lon="1.63854">
        <ele>127.8</ele>
        <time>2021-09-12T09:44:28Z</time>
      </trkpt>
      <trkpt lat="49.21805" lon="1.63843">
        <ele>128.6</ele>
        <time>2021-09-12T09:44:32Z</time>
      </trkpt>
      <trkpt lat="49.21815" lon="1.63828">
        <ele>129.8</ele>
        <time>2021-09-12T09:44:37Z</time>
      </trkpt>
      <trkpt lat="49.21825" lon="1.6381">
        <ele>131</ele>
        <time>2021-09-12T09:44:43Z</time>
      </trkpt>
      <trkpt lat="49.21826" lon="1.63806">
        <ele>131.4</ele>
        <time>2021-09-12T09:44:44Z</time>
      </trkpt>
      <trkpt lat="49.21823" lon="1.63797">
        <ele>131.8</ele>
        <time>2021-09-12T09:44:46Z</time>
      </trkpt>
      <trkpt lat="49.21821" lon="1.63794">
        <ele>132.2</ele>
        <time>2021-09-12T09:44:47Z</time>
      </trkpt>
      <trkpt lat="49.21809" lon="1.63782">
        <ele>133</ele>
        <time>2021-09-12T09:44:52Z</time>
      </trkpt>
      <trkpt lat="49.21794" lon="1.63764">
        <ele>133</ele>
        <time>2021-09-12T09:44:58Z</time>
      </trkpt>
      <trkpt lat="49.21775" lon="1.63736">
        <ele>132.6</ele>
        <time>2021-09-12T09:45:06Z</time>
      </trkpt>
      <trkpt lat="49.21772" lon="1.63732">
        <ele>132.6</ele>
        <time>2021-09-12T09:45:09Z</time>
      </trkpt>
      <trkpt lat="49.21772" lon="1.63732">
        <ele>132.4</ele>
        <time>2021-09-12T09:45:10Z</time>
      </trkpt>
      <trkpt lat="49.21772" lon="1.63732">
        <ele>132.4</ele>
        <time>2021-09-12T09:45:18Z</time>
      </trkpt>
      <trkpt lat="49.21769" lon="1.63726">
        <ele>132.4</ele>
        <time>2021-09-12T09:45:21Z</time>
      </trkpt>
      <trkpt lat="49.21763" lon="1.63704">
        <ele>132.2</ele>
        <time>2021-09-12T09:45:27Z</time>
      </trkpt>
      <trkpt lat="49.21756" lon="1.63667">
        <ele>132</ele>
        <time>2021-09-12T09:45:34Z</time>
      </trkpt>
      <trkpt lat="49.21757" lon="1.63636">
        <ele>131</ele>
        <time>2021-09-12T09:45:41Z</time>
      </trkpt>
      <trkpt lat="49.21759" lon="1.63608">
        <ele>130.8</ele>
        <time>2021-09-12T09:45:46Z</time>
      </trkpt>
      <trkpt lat="49.21762" lon="1.63567">
        <ele>130.4</ele>
        <time>2021-09-12T09:45:51Z</time>
      </trkpt>
      <trkpt lat="49.21763" lon="1.63549">
        <ele>130</ele>
        <time>2021-09-12T09:45:53Z</time>
      </trkpt>
      <trkpt lat="49.21768" lon="1.63507">
        <ele>129.2</ele>
        <time>2021-09-12T09:45:57Z</time>
      </trkpt>
      <trkpt lat="49.21769" lon="1.63496">
        <ele>128.8</ele>
        <time>2021-09-12T09:45:58Z</time>
      </trkpt>
      <trkpt lat="49.21778" lon="1.6345">
        <ele>127.8</ele>
        <time>2021-09-12T09:46:02Z</time>
      </trkpt>
      <trkpt lat="49.21781" lon="1.63439">
        <ele>127.6</ele>
        <time>2021-09-12T09:46:03Z</time>
      </trkpt>
      <trkpt lat="49.21787" lon="1.63418">
        <ele>126.6</ele>
        <time>2021-09-12T09:46:05Z</time>
      </trkpt>
      <trkpt lat="49.21797" lon="1.63389">
        <ele>125.6</ele>
        <time>2021-09-12T09:46:08Z</time>
      </trkpt>
      <trkpt lat="49.218" lon="1.6338">
        <ele>125.2</ele>
        <time>2021-09-12T09:46:09Z</time>
      </trkpt>
      <trkpt lat="49.21805" lon="1.63364">
        <ele>124.2</ele>
        <time>2021-09-12T09:46:11Z</time>
      </trkpt>
      <trkpt lat="49.21808" lon="1.63345">
        <ele>123.2</ele>
        <time>2021-09-12T09:46:14Z</time>
      </trkpt>
      <trkpt lat="49.21806" lon="1.63339">
        <ele>123.2</ele>
        <time>2021-09-12T09:46:15Z</time>
      </trkpt>
      <trkpt lat="49.21798" lon="1.6333">
        <ele>123</ele>
        <time>2021-09-12T09:46:17Z</time>
      </trkpt>
      <trkpt lat="49.21793" lon="1.63326">
        <ele>122.8</ele>
        <time>2021-09-12T09:46:18Z</time>
      </trkpt>
      <trkpt lat="49.21767" lon="1.633">
        <ele>122</ele>
        <time>2021-09-12T09:46:23Z</time>
      </trkpt>
      <trkpt lat="49.21757" lon="1.63288">
        <ele>121.2</ele>
        <time>2021-09-12T09:46:25Z</time>
      </trkpt>
      <trkpt lat="49.21752" lon="1.63281">
        <ele>120.8</ele>
        <time>2021-09-12T09:46:26Z</time>
      </trkpt>
      <trkpt lat="49.21725" lon="1.63246">
        <ele>119.6</ele>
        <time>2021-09-12T09:46:31Z</time>
      </trkpt>
      <trkpt lat="49.21715" lon="1.63231">
        <ele>119</ele>
        <time>2021-09-12T09:46:33Z</time>
      </trkpt>
      <trkpt lat="49.21705" lon="1.63217">
        <ele>118.4</ele>
        <time>2021-09-12T09:46:35Z</time>
      </trkpt>
      <trkpt lat="49.21683" lon="1.63187">
        <ele>117.2</ele>
        <time>2021-09-12T09:46:39Z</time>
      </trkpt>
      <trkpt lat="49.21678" lon="1.6318">
        <ele>116.8</ele>
        <time>2021-09-12T09:46:40Z</time>
      </trkpt>
      <trkpt lat="49.21642" lon="1.63131">
        <ele>116</ele>
        <time>2021-09-12T09:46:47Z</time>
      </trkpt>
      <trkpt lat="49.21637" lon="1.63125">
        <ele>116</ele>
        <time>2021-09-12T09:46:48Z</time>
      </trkpt>
      <trkpt lat="49.21606" lon="1.63082">
        <ele>115.6</ele>
        <time>2021-09-12T09:46:55Z</time>
      </trkpt>
      <trkpt lat="49.21571" lon="1.63036">
        <ele>115.6</ele>
        <time>2021-09-12T09:47:04Z</time>
      </trkpt>
      <trkpt lat="49.21557" lon="1.63014">
        <ele>115.6</ele>
        <time>2021-09-12T09:47:08Z</time>
      </trkpt>
      <trkpt lat="49.21554" lon="1.63001">
        <ele>115.6</ele>
        <time>2021-09-12T09:47:10Z</time>
      </trkpt>
      <trkpt lat="49.2156" lon="1.6298">
        <ele>115.4</ele>
        <time>2021-09-12T09:47:13Z</time>
      </trkpt>
      <trkpt lat="49.21567" lon="1.62966">
        <ele>115.4</ele>
        <time>2021-09-12T09:47:15Z</time>
      </trkpt>
      <trkpt lat="49.21587" lon="1.62931">
        <ele>115.2</ele>
        <time>2021-09-12T09:47:20Z</time>
      </trkpt>
      <trkpt lat="49.21591" lon="1.62924">
        <ele>115</ele>
        <time>2021-09-12T09:47:21Z</time>
      </trkpt>
      <trkpt lat="49.2162" lon="1.62869">
        <ele>115</ele>
        <time>2021-09-12T09:47:29Z</time>
      </trkpt>
      <trkpt lat="49.21648" lon="1.62816">
        <ele>115</ele>
        <time>2021-09-12T09:47:37Z</time>
      </trkpt>
      <trkpt lat="49.21668" lon="1.62767">
        <ele>115</ele>
        <time>2021-09-12T09:47:45Z</time>
      </trkpt>
      <trkpt lat="49.21681" lon="1.62734">
        <ele>115</ele>
        <time>2021-09-12T09:47:50Z</time>
      </trkpt>
      <trkpt lat="49.21684" lon="1.62727">
        <ele>115</ele>
        <time>2021-09-12T09:47:51Z</time>
      </trkpt>
      <trkpt lat="49.21708" lon="1.62664">
        <ele>115</ele>
        <time>2021-09-12T09:47:59Z</time>
      </trkpt>
      <trkpt lat="49.21727" lon="1.62605">
        <ele>115.2</ele>
        <time>2021-09-12T09:48:07Z</time>
      </trkpt>
      <trkpt lat="49.21738" lon="1.62548">
        <ele>115.4</ele>
        <time>2021-09-12T09:48:14Z</time>
      </trkpt>
      <trkpt lat="49.21748" lon="1.62476">
        <ele>115.6</ele>
        <time>2021-09-12T09:48:23Z</time>
      </trkpt>
      <trkpt lat="49.21758" lon="1.62401">
        <ele>115.6</ele>
        <time>2021-09-12T09:48:32Z</time>
      </trkpt>
      <trkpt lat="49.21771" lon="1.62311">
        <ele>115.8</ele>
        <time>2021-09-12T09:48:42Z</time>
      </trkpt>
      <trkpt lat="49.21783" lon="1.62228">
        <ele>116</ele>
        <time>2021-09-12T09:48:51Z</time>
      </trkpt>
      <trkpt lat="49.21785" lon="1.62219">
        <ele>116</ele>
        <time>2021-09-12T09:48:52Z</time>
      </trkpt>
      <trkpt lat="49.2179" lon="1.62151">
        <ele>115.8</ele>
        <time>2021-09-12T09:48:59Z</time>
      </trkpt>
      <trkpt lat="49.21787" lon="1.62072">
        <ele>115.4</ele>
        <time>2021-09-12T09:49:07Z</time>
      </trkpt>
      <trkpt lat="49.21783" lon="1.62006">
        <ele>114.6</ele>
        <time>2021-09-12T09:49:13Z</time>
      </trkpt>
      <trkpt lat="49.21781" lon="1.61955">
        <ele>114.2</ele>
        <time>2021-09-12T09:49:17Z</time>
      </trkpt>
      <trkpt lat="49.2178" lon="1.61942">
        <ele>114.2</ele>
        <time>2021-09-12T09:49:18Z</time>
      </trkpt>
      <trkpt lat="49.21777" lon="1.61864">
        <ele>112.6</ele>
        <time>2021-09-12T09:49:24Z</time>
      </trkpt>
      <trkpt lat="49.21776" lon="1.61838">
        <ele>111.4</ele>
        <time>2021-09-12T09:49:26Z</time>
      </trkpt>
      <trkpt lat="49.21774" lon="1.61812">
        <ele>110.2</ele>
        <time>2021-09-12T09:49:28Z</time>
      </trkpt>
      <trkpt lat="49.21771" lon="1.61739">
        <ele>109.2</ele>
        <time>2021-09-12T09:49:34Z</time>
      </trkpt>
      <trkpt lat="49.2177" lon="1.61728">
        <ele>109</ele>
        <time>2021-09-12T09:49:35Z</time>
      </trkpt>
      <trkpt lat="49.21767" lon="1.61645">
        <ele>108.2</ele>
        <time>2021-09-12T09:49:42Z</time>
      </trkpt>
      <trkpt lat="49.21766" lon="1.61633">
        <ele>108.2</ele>
        <time>2021-09-12T09:49:43Z</time>
      </trkpt>
      <trkpt lat="49.21762" lon="1.61545">
        <ele>108.6</ele>
        <time>2021-09-12T09:49:50Z</time>
      </trkpt>
      <trkpt lat="49.21761" lon="1.61533">
        <ele>108.6</ele>
        <time>2021-09-12T09:49:51Z</time>
      </trkpt>
      <trkpt lat="49.21757" lon="1.61446">
        <ele>109</ele>
        <time>2021-09-12T09:49:58Z</time>
      </trkpt>
      <trkpt lat="49.21755" lon="1.6141">
        <ele>109</ele>
        <time>2021-09-12T09:50:01Z</time>
      </trkpt>
      <trkpt lat="49.21751" lon="1.61322">
        <ele>109.4</ele>
        <time>2021-09-12T09:50:08Z</time>
      </trkpt>
      <trkpt lat="49.2175" lon="1.61285">
        <ele>110.2</ele>
        <time>2021-09-12T09:50:11Z</time>
      </trkpt>
      <trkpt lat="49.21746" lon="1.61224">
        <ele>110.4</ele>
        <time>2021-09-12T09:50:16Z</time>
      </trkpt>
      <trkpt lat="49.21739" lon="1.61136">
        <ele>110.4</ele>
        <time>2021-09-12T09:50:23Z</time>
      </trkpt>
      <trkpt lat="49.21737" lon="1.61123">
        <ele>110.4</ele>
        <time>2021-09-12T09:50:24Z</time>
      </trkpt>
      <trkpt lat="49.21726" lon="1.61042">
        <ele>109.8</ele>
        <time>2021-09-12T09:50:30Z</time>
      </trkpt>
      <trkpt lat="49.21722" lon="1.61015">
        <ele>109.6</ele>
        <time>2021-09-12T09:50:32Z</time>
      </trkpt>
      <trkpt lat="49.21717" lon="1.60974">
        <ele>109.2</ele>
        <time>2021-09-12T09:50:35Z</time>
      </trkpt>
      <trkpt lat="49.2171" lon="1.60922">
        <ele>108.6</ele>
        <time>2021-09-12T09:50:39Z</time>
      </trkpt>
      <trkpt lat="49.21701" lon="1.60856">
        <ele>108</ele>
        <time>2021-09-12T09:50:44Z</time>
      </trkpt>
      <trkpt lat="49.21691" lon="1.60787">
        <ele>107.2</ele>
        <time>2021-09-12T09:50:49Z</time>
      </trkpt>
      <trkpt lat="49.2169" lon="1.60773">
        <ele>107</ele>
        <time>2021-09-12T09:50:50Z</time>
      </trkpt>
      <trkpt lat="49.21686" lon="1.60745">
        <ele>105.8</ele>
        <time>2021-09-12T09:50:52Z</time>
      </trkpt>
      <trkpt lat="49.21681" lon="1.60717">
        <ele>104.6</ele>
        <time>2021-09-12T09:50:54Z</time>
      </trkpt>
      <trkpt lat="49.21674" lon="1.60677">
        <ele>103.4</ele>
        <time>2021-09-12T09:50:57Z</time>
      </trkpt>
      <trkpt lat="49.2167" lon="1.60664">
        <ele>103</ele>
        <time>2021-09-12T09:50:58Z</time>
      </trkpt>
      <trkpt lat="49.2166" lon="1.60641">
        <ele>102.2</ele>
        <time>2021-09-12T09:51:00Z</time>
      </trkpt>
      <trkpt lat="49.21655" lon="1.6063">
        <ele>102</ele>
        <time>2021-09-12T09:51:01Z</time>
      </trkpt>
      <trkpt lat="49.21649" lon="1.60619">
        <ele>102</ele>
        <time>2021-09-12T09:51:02Z</time>
      </trkpt>
      <trkpt lat="49.21611" lon="1.6056">
        <ele>101.2</ele>
        <time>2021-09-12T09:51:08Z</time>
      </trkpt>
      <trkpt lat="49.21604" lon="1.60551">
        <ele>101.2</ele>
        <time>2021-09-12T09:51:09Z</time>
      </trkpt>
      <trkpt lat="49.2156" lon="1.60486">
        <ele>100.6</ele>
        <time>2021-09-12T09:51:16Z</time>
      </trkpt>
      <trkpt lat="49.21548" lon="1.6047">
        <ele>100.6</ele>
        <time>2021-09-12T09:51:18Z</time>
      </trkpt>
      <trkpt lat="49.21538" lon="1.60458">
        <ele>100.6</ele>
        <time>2021-09-12T09:51:20Z</time>
      </trkpt>
      <trkpt lat="49.21532" lon="1.60455">
        <ele>100.6</ele>
        <time>2021-09-12T09:51:21Z</time>
      </trkpt>
      <trkpt lat="49.21523" lon="1.60463">
        <ele>100.8</ele>
        <time>2021-09-12T09:51:23Z</time>
      </trkpt>
      <trkpt lat="49.21509" lon="1.6049">
        <ele>101.2</ele>
        <time>2021-09-12T09:51:27Z</time>
      </trkpt>
      <trkpt lat="49.21505" lon="1.60496">
        <ele>101.2</ele>
        <time>2021-09-12T09:51:28Z</time>
      </trkpt>
      <trkpt lat="49.21492" lon="1.60515">
        <ele>101.2</ele>
        <time>2021-09-12T09:51:31Z</time>
      </trkpt>
      <trkpt lat="49.2148" lon="1.60535">
        <ele>101.2</ele>
        <time>2021-09-12T09:51:34Z</time>
      </trkpt>
      <trkpt lat="49.21457" lon="1.60581">
        <ele>101.2</ele>
        <time>2021-09-12T09:51:41Z</time>
      </trkpt>
      <trkpt lat="49.21446" lon="1.60609">
        <ele>101.4</ele>
        <time>2021-09-12T09:51:45Z</time>
      </trkpt>
      <trkpt lat="49.21439" lon="1.60627">
        <ele>101.4</ele>
        <time>2021-09-12T09:51:48Z</time>
      </trkpt>
      <trkpt lat="49.21419" lon="1.60679">
        <ele>101.6</ele>
        <time>2021-09-12T09:51:56Z</time>
      </trkpt>
      <trkpt lat="49.21409" lon="1.60719">
        <ele>101.6</ele>
        <time>2021-09-12T09:52:02Z</time>
      </trkpt>
      <trkpt lat="49.21407" lon="1.60733">
        <ele>101.6</ele>
        <time>2021-09-12T09:52:04Z</time>
      </trkpt>
      <trkpt lat="49.21402" lon="1.60754">
        <ele>101.8</ele>
        <time>2021-09-12T09:52:07Z</time>
      </trkpt>
      <trkpt lat="49.21396" lon="1.60781">
        <ele>102.2</ele>
        <time>2021-09-12T09:52:11Z</time>
      </trkpt>
      <trkpt lat="49.21391" lon="1.60807">
        <ele>102.2</ele>
        <time>2021-09-12T09:52:15Z</time>
      </trkpt>
      <trkpt lat="49.21385" lon="1.60826">
        <ele>102.2</ele>
        <time>2021-09-12T09:52:18Z</time>
      </trkpt>
      <trkpt lat="49.2138" lon="1.60844">
        <ele>102</ele>
        <time>2021-09-12T09:52:21Z</time>
      </trkpt>
      <trkpt lat="49.21378" lon="1.60864">
        <ele>102</ele>
        <time>2021-09-12T09:52:24Z</time>
      </trkpt>
      <trkpt lat="49.21377" lon="1.60885">
        <ele>102</ele>
        <time>2021-09-12T09:52:27Z</time>
      </trkpt>
      <trkpt lat="49.21382" lon="1.60935">
        <ele>102</ele>
        <time>2021-09-12T09:52:34Z</time>
      </trkpt>
      <trkpt lat="49.21389" lon="1.60985">
        <ele>102.2</ele>
        <time>2021-09-12T09:52:42Z</time>
      </trkpt>
      <trkpt lat="49.21395" lon="1.6103">
        <ele>102.6</ele>
        <time>2021-09-12T09:52:49Z</time>
      </trkpt>
      <trkpt lat="49.214" lon="1.61089">
        <ele>103</ele>
        <time>2021-09-12T09:52:58Z</time>
      </trkpt>
      <trkpt lat="49.21406" lon="1.61159">
        <ele>102.8</ele>
        <time>2021-09-12T09:53:08Z</time>
      </trkpt>
      <trkpt lat="49.21406" lon="1.61217">
        <ele>102.6</ele>
        <time>2021-09-12T09:53:16Z</time>
      </trkpt>
      <trkpt lat="49.214" lon="1.61269">
        <ele>102.6</ele>
        <time>2021-09-12T09:53:23Z</time>
      </trkpt>
      <trkpt lat="49.2139" lon="1.61326">
        <ele>102.8</ele>
        <time>2021-09-12T09:53:31Z</time>
      </trkpt>
      <trkpt lat="49.21377" lon="1.61386">
        <ele>103</ele>
        <time>2021-09-12T09:53:40Z</time>
      </trkpt>
      <trkpt lat="49.21366" lon="1.61426">
        <ele>103.4</ele>
        <time>2021-09-12T09:53:46Z</time>
      </trkpt>
      <trkpt lat="49.21362" lon="1.61439">
        <ele>103.6</ele>
        <time>2021-09-12T09:53:48Z</time>
      </trkpt>
      <trkpt lat="49.21335" lon="1.61501">
        <ele>103.6</ele>
        <time>2021-09-12T09:53:58Z</time>
      </trkpt>
      <trkpt lat="49.21324" lon="1.61526">
        <ele>103.6</ele>
        <time>2021-09-12T09:54:02Z</time>
      </trkpt>
      <trkpt lat="49.21305" lon="1.61574">
        <ele>104</ele>
        <time>2021-09-12T09:54:09Z</time>
      </trkpt>
      <trkpt lat="49.21285" lon="1.61631">
        <ele>104</ele>
        <time>2021-09-12T09:54:17Z</time>
      </trkpt>
      <trkpt lat="49.21268" lon="1.6169">
        <ele>104.4</ele>
        <time>2021-09-12T09:54:25Z</time>
      </trkpt>
      <trkpt lat="49.21266" lon="1.61698">
        <ele>104.4</ele>
        <time>2021-09-12T09:54:26Z</time>
      </trkpt>
      <trkpt lat="49.21249" lon="1.61757">
        <ele>104.6</ele>
        <time>2021-09-12T09:54:34Z</time>
      </trkpt>
      <trkpt lat="49.21234" lon="1.61805">
        <ele>104.6</ele>
        <time>2021-09-12T09:54:41Z</time>
      </trkpt>
      <trkpt lat="49.2121" lon="1.61864">
        <ele>104.8</ele>
        <time>2021-09-12T09:54:50Z</time>
      </trkpt>
      <trkpt lat="49.21187" lon="1.6192">
        <ele>104.8</ele>
        <time>2021-09-12T09:54:59Z</time>
      </trkpt>
      <trkpt lat="49.21176" lon="1.61945">
        <ele>104.8</ele>
        <time>2021-09-12T09:55:03Z</time>
      </trkpt>
      <trkpt lat="49.21169" lon="1.61963">
        <ele>104.8</ele>
        <time>2021-09-12T09:55:06Z</time>
      </trkpt>
      <trkpt lat="49.2115" lon="1.62011">
        <ele>105.2</ele>
        <time>2021-09-12T09:55:14Z</time>
      </trkpt>
      <trkpt lat="49.21139" lon="1.6204">
        <ele>105.6</ele>
        <time>2021-09-12T09:55:19Z</time>
      </trkpt>
      <trkpt lat="49.21131" lon="1.62058">
        <ele>105.6</ele>
        <time>2021-09-12T09:55:22Z</time>
      </trkpt>
      <trkpt lat="49.21108" lon="1.62111">
        <ele>106</ele>
        <time>2021-09-12T09:55:31Z</time>
      </trkpt>
      <trkpt lat="49.21104" lon="1.62124">
        <ele>106</ele>
        <time>2021-09-12T09:55:33Z</time>
      </trkpt>
      <trkpt lat="49.21095" lon="1.62145">
        <ele>106</ele>
        <time>2021-09-12T09:55:36Z</time>
      </trkpt>
      <trkpt lat="49.21078" lon="1.62185">
        <ele>106</ele>
        <time>2021-09-12T09:55:42Z</time>
      </trkpt>
      <trkpt lat="49.21054" lon="1.62233">
        <ele>105.8</ele>
        <time>2021-09-12T09:55:50Z</time>
      </trkpt>
      <trkpt lat="49.21036" lon="1.62267">
        <ele>105.6</ele>
        <time>2021-09-12T09:55:56Z</time>
      </trkpt>
      <trkpt lat="49.21026" lon="1.62291">
        <ele>106.2</ele>
        <time>2021-09-12T09:56:01Z</time>
      </trkpt>
      <trkpt lat="49.21021" lon="1.62301">
        <ele>106.6</ele>
        <time>2021-09-12T09:56:04Z</time>
      </trkpt>
      <trkpt lat="49.2102" lon="1.62303">
        <ele>106.8</ele>
        <time>2021-09-12T09:56:06Z</time>
      </trkpt>
      <trkpt lat="49.2102" lon="1.62303">
        <ele>106.8</ele>
        <time>2021-09-12T09:56:07Z</time>
      </trkpt>
      <trkpt lat="49.2102" lon="1.62302">
        <ele>107</ele>
        <time>2021-09-12T09:58:40Z</time>
      </trkpt>
      <trkpt lat="49.21019" lon="1.62302">
        <ele>107</ele>
        <time>2021-09-12T09:58:43Z</time>
      </trkpt>
      <trkpt lat="49.21016" lon="1.62302">
        <ele>107.8</ele>
        <time>2021-09-12T09:59:34Z</time>
      </trkpt>
      <trkpt lat="49.21013" lon="1.62304">
        <ele>107.8</ele>
        <time>2021-09-12T09:59:36Z</time>
      </trkpt>
      <trkpt lat="49.20997" lon="1.62318">
        <ele>107.8</ele>
        <time>2021-09-12T09:59:42Z</time>
      </trkpt>
      <trkpt lat="49.20971" lon="1.62337">
        <ele>108</ele>
        <time>2021-09-12T09:59:50Z</time>
      </trkpt>
      <trkpt lat="49.20947" lon="1.62356">
        <ele>108.8</ele>
        <time>2021-09-12T09:59:58Z</time>
      </trkpt>
      <trkpt lat="49.20935" lon="1.62365">
        <ele>109.2</ele>
        <time>2021-09-12T10:00:02Z</time>
      </trkpt>
      <trkpt lat="49.20912" lon="1.62381">
        <ele>110</ele>
        <time>2021-09-12T10:00:09Z</time>
      </trkpt>
      <trkpt lat="49.20903" lon="1.62388">
        <ele>110.2</ele>
        <time>2021-09-12T10:00:12Z</time>
      </trkpt>
      <trkpt lat="49.2088" lon="1.62402">
        <ele>110.8</ele>
        <time>2021-09-12T10:00:19Z</time>
      </trkpt>
      <trkpt lat="49.20871" lon="1.62407">
        <ele>111.2</ele>
        <time>2021-09-12T10:00:22Z</time>
      </trkpt>
      <trkpt lat="49.20845" lon="1.6242">
        <ele>112.4</ele>
        <time>2021-09-12T10:00:30Z</time>
      </trkpt>
      <trkpt lat="49.20819" lon="1.62429">
        <ele>114</ele>
        <time>2021-09-12T10:00:38Z</time>
      </trkpt>
      <trkpt lat="49.20816" lon="1.6243">
        <ele>114.2</ele>
        <time>2021-09-12T10:00:39Z</time>
      </trkpt>
      <trkpt lat="49.20795" lon="1.62433">
        <ele>115.2</ele>
        <time>2021-09-12T10:00:46Z</time>
      </trkpt>
      <trkpt lat="49.20793" lon="1.62433">
        <ele>115.4</ele>
        <time>2021-09-12T10:00:47Z</time>
      </trkpt>
      <trkpt lat="49.20781" lon="1.62431">
        <ele>116.2</ele>
        <time>2021-09-12T10:00:51Z</time>
      </trkpt>
      <trkpt lat="49.2077" lon="1.62429">
        <ele>117.2</ele>
        <time>2021-09-12T10:00:55Z</time>
      </trkpt>
      <trkpt lat="49.20767" lon="1.62429">
        <ele>117.4</ele>
        <time>2021-09-12T10:00:56Z</time>
      </trkpt>
      <trkpt lat="49.20748" lon="1.62429">
        <ele>118.2</ele>
        <time>2021-09-12T10:01:03Z</time>
      </trkpt>
      <trkpt lat="49.20742" lon="1.6243">
        <ele>118.4</ele>
        <time>2021-09-12T10:01:05Z</time>
      </trkpt>
      <trkpt lat="49.20729" lon="1.62431">
        <ele>119.6</ele>
        <time>2021-09-12T10:01:10Z</time>
      </trkpt>
      <trkpt lat="49.20721" lon="1.62433">
        <ele>120.4</ele>
        <time>2021-09-12T10:01:13Z</time>
      </trkpt>
      <trkpt lat="49.20719" lon="1.62433">
        <ele>120.6</ele>
        <time>2021-09-12T10:01:14Z</time>
      </trkpt>
      <trkpt lat="49.20701" lon="1.62436">
        <ele>122</ele>
        <time>2021-09-12T10:01:21Z</time>
      </trkpt>
      <trkpt lat="49.20693" lon="1.62437">
        <ele>123</ele>
        <time>2021-09-12T10:01:24Z</time>
      </trkpt>
      <trkpt lat="49.2068" lon="1.6244">
        <ele>124.2</ele>
        <time>2021-09-12T10:01:29Z</time>
      </trkpt>
      <trkpt lat="49.20675" lon="1.62441">
        <ele>124.6</ele>
        <time>2021-09-12T10:01:31Z</time>
      </trkpt>
      <trkpt lat="49.20662" lon="1.62443">
        <ele>125.6</ele>
        <time>2021-09-12T10:01:36Z</time>
      </trkpt>
      <trkpt lat="49.20652" lon="1.62445">
        <ele>126.2</ele>
        <time>2021-09-12T10:01:40Z</time>
      </trkpt>
      <trkpt lat="49.20647" lon="1.62447">
        <ele>126.8</ele>
        <time>2021-09-12T10:01:42Z</time>
      </trkpt>
      <trkpt lat="49.20631" lon="1.62449">
        <ele>128</ele>
        <time>2021-09-12T10:01:48Z</time>
      </trkpt>
      <trkpt lat="49.20628" lon="1.62449">
        <ele>128.2</ele>
        <time>2021-09-12T10:01:49Z</time>
      </trkpt>
      <trkpt lat="49.20609" lon="1.62451">
        <ele>129.2</ele>
        <time>2021-09-12T10:01:56Z</time>
      </trkpt>
      <trkpt lat="49.20604" lon="1.62451">
        <ele>129.6</ele>
        <time>2021-09-12T10:01:58Z</time>
      </trkpt>
      <trkpt lat="49.20595" lon="1.62451">
        <ele>130.2</ele>
        <time>2021-09-12T10:02:01Z</time>
      </trkpt>
      <trkpt lat="49.20588" lon="1.62448">
        <ele>130.6</ele>
        <time>2021-09-12T10:02:03Z</time>
      </trkpt>
      <trkpt lat="49.20557" lon="1.62441">
        <ele>131.2</ele>
        <time>2021-09-12T10:02:10Z</time>
      </trkpt>
      <trkpt lat="49.20548" lon="1.62439">
        <ele>131.2</ele>
        <time>2021-09-12T10:02:12Z</time>
      </trkpt>
      <trkpt lat="49.20505" lon="1.62433">
        <ele>132</ele>
        <time>2021-09-12T10:02:21Z</time>
      </trkpt>
      <trkpt lat="49.2049" lon="1.62432">
        <ele>132.2</ele>
        <time>2021-09-12T10:02:24Z</time>
      </trkpt>
      <trkpt lat="49.20464" lon="1.62432">
        <ele>132.4</ele>
        <time>2021-09-12T10:02:29Z</time>
      </trkpt>
      <trkpt lat="49.20453" lon="1.62419">
        <ele>132.4</ele>
        <time>2021-09-12T10:02:32Z</time>
      </trkpt>
      <trkpt lat="49.2045" lon="1.62412">
        <ele>132.4</ele>
        <time>2021-09-12T10:02:33Z</time>
      </trkpt>
      <trkpt lat="49.20448" lon="1.62405">
        <ele>132.4</ele>
        <time>2021-09-12T10:02:34Z</time>
      </trkpt>
      <trkpt lat="49.20445" lon="1.62398">
        <ele>132.6</ele>
        <time>2021-09-12T10:02:35Z</time>
      </trkpt>
      <trkpt lat="49.20438" lon="1.62376">
        <ele>132.6</ele>
        <time>2021-09-12T10:02:38Z</time>
      </trkpt>
      <trkpt lat="49.20418" lon="1.62314">
        <ele>132.2</ele>
        <time>2021-09-12T10:02:46Z</time>
      </trkpt>
      <trkpt lat="49.20392" lon="1.62238">
        <ele>132</ele>
        <time>2021-09-12T10:02:56Z</time>
      </trkpt>
      <trkpt lat="49.20389" lon="1.62231">
        <ele>132</ele>
        <time>2021-09-12T10:02:57Z</time>
      </trkpt>
      <trkpt lat="49.20372" lon="1.62178">
        <ele>131.8</ele>
        <time>2021-09-12T10:03:04Z</time>
      </trkpt>
      <trkpt lat="49.20356" lon="1.62133">
        <ele>132.2</ele>
        <time>2021-09-12T10:03:10Z</time>
      </trkpt>
      <trkpt lat="49.20348" lon="1.6211">
        <ele>132.6</ele>
        <time>2021-09-12T10:03:13Z</time>
      </trkpt>
      <trkpt lat="49.20326" lon="1.62052">
        <ele>133.2</ele>
        <time>2021-09-12T10:03:21Z</time>
      </trkpt>
      <trkpt lat="49.20321" lon="1.62038">
        <ele>133.4</ele>
        <time>2021-09-12T10:03:23Z</time>
      </trkpt>
      <trkpt lat="49.20317" lon="1.62032">
        <ele>133.6</ele>
        <time>2021-09-12T10:03:24Z</time>
      </trkpt>
      <trkpt lat="49.2031" lon="1.62019">
        <ele>133.8</ele>
        <time>2021-09-12T10:03:26Z</time>
      </trkpt>
      <trkpt lat="49.20306" lon="1.62013">
        <ele>133.8</ele>
        <time>2021-09-12T10:03:27Z</time>
      </trkpt>
      <trkpt lat="49.2029" lon="1.61978">
        <ele>134</ele>
        <time>2021-09-12T10:03:32Z</time>
      </trkpt>
      <trkpt lat="49.20265" lon="1.61924">
        <ele>134</ele>
        <time>2021-09-12T10:03:40Z</time>
      </trkpt>
      <trkpt lat="49.20231" lon="1.61851">
        <ele>134</ele>
        <time>2021-09-12T10:03:51Z</time>
      </trkpt>
      <trkpt lat="49.20204" lon="1.61793">
        <ele>134.2</ele>
        <time>2021-09-12T10:04:00Z</time>
      </trkpt>
      <trkpt lat="49.20178" lon="1.61741">
        <ele>134.4</ele>
        <time>2021-09-12T10:04:09Z</time>
      </trkpt>
      <trkpt lat="49.20176" lon="1.61735">
        <ele>134.6</ele>
        <time>2021-09-12T10:04:10Z</time>
      </trkpt>
      <trkpt lat="49.2016" lon="1.61701">
        <ele>135.6</ele>
        <time>2021-09-12T10:04:17Z</time>
      </trkpt>
      <trkpt lat="49.20138" lon="1.61656">
        <ele>136.2</ele>
        <time>2021-09-12T10:04:26Z</time>
      </trkpt>
      <trkpt lat="49.20121" lon="1.61624">
        <ele>136.6</ele>
        <time>2021-09-12T10:04:33Z</time>
      </trkpt>
      <trkpt lat="49.20118" lon="1.6162">
        <ele>136.6</ele>
        <time>2021-09-12T10:04:34Z</time>
      </trkpt>
      <trkpt lat="49.20097" lon="1.61591">
        <ele>136.8</ele>
        <time>2021-09-12T10:04:41Z</time>
      </trkpt>
      <trkpt lat="49.2009" lon="1.61584">
        <ele>136.8</ele>
        <time>2021-09-12T10:04:43Z</time>
      </trkpt>
      <trkpt lat="49.20073" lon="1.61564">
        <ele>137</ele>
        <time>2021-09-12T10:04:48Z</time>
      </trkpt>
      <trkpt lat="49.20029" lon="1.61517">
        <ele>137.4</ele>
        <time>2021-09-12T10:05:00Z</time>
      </trkpt>
      <trkpt lat="49.20003" lon="1.61489">
        <ele>137.6</ele>
        <time>2021-09-12T10:05:07Z</time>
      </trkpt>
      <trkpt lat="49.19996" lon="1.61481">
        <ele>137.6</ele>
        <time>2021-09-12T10:05:09Z</time>
      </trkpt>
      <trkpt lat="49.19965" lon="1.61438">
        <ele>137.6</ele>
        <time>2021-09-12T10:05:18Z</time>
      </trkpt>
      <trkpt lat="49.19937" lon="1.61399">
        <ele>137.6</ele>
        <time>2021-09-12T10:05:26Z</time>
      </trkpt>
      <trkpt lat="49.19909" lon="1.61359">
        <ele>137.4</ele>
        <time>2021-09-12T10:05:34Z</time>
      </trkpt>
      <trkpt lat="49.19898" lon="1.61342">
        <ele>136.6</ele>
        <time>2021-09-12T10:05:38Z</time>
      </trkpt>
      <trkpt lat="49.1989" lon="1.61329">
        <ele>136.4</ele>
        <time>2021-09-12T10:05:41Z</time>
      </trkpt>
      <trkpt lat="49.19875" lon="1.61306">
        <ele>136.2</ele>
        <time>2021-09-12T10:05:47Z</time>
      </trkpt>
      <trkpt lat="49.19861" lon="1.61284">
        <ele>136.2</ele>
        <time>2021-09-12T10:05:52Z</time>
      </trkpt>
      <trkpt lat="49.19858" lon="1.6128">
        <ele>136.2</ele>
        <time>2021-09-12T10:05:54Z</time>
      </trkpt>
      <trkpt lat="49.19854" lon="1.61277">
        <ele>136.2</ele>
        <time>2021-09-12T10:05:56Z</time>
      </trkpt>
      <trkpt lat="49.19838" lon="1.61272">
        <ele>136.2</ele>
        <time>2021-09-12T10:06:00Z</time>
      </trkpt>
      <trkpt lat="49.19824" lon="1.61269">
        <ele>136</ele>
        <time>2021-09-12T10:06:03Z</time>
      </trkpt>
      <trkpt lat="49.19814" lon="1.61267">
        <ele>136</ele>
        <time>2021-09-12T10:06:05Z</time>
      </trkpt>
      <trkpt lat="49.19808" lon="1.61265">
        <ele>136</ele>
        <time>2021-09-12T10:06:06Z</time>
      </trkpt>
      <trkpt lat="49.19793" lon="1.61263">
        <ele>135.2</ele>
        <time>2021-09-12T10:06:09Z</time>
      </trkpt>
      <trkpt lat="49.19792" lon="1.61262">
        <ele>135</ele>
        <time>2021-09-12T10:06:10Z</time>
      </trkpt>
      <trkpt lat="49.1979" lon="1.61258">
        <ele>134.4</ele>
        <time>2021-09-12T10:06:12Z</time>
      </trkpt>
      <trkpt lat="49.19791" lon="1.61255">
        <ele>134.2</ele>
        <time>2021-09-12T10:06:13Z</time>
      </trkpt>
      <trkpt lat="49.19792" lon="1.61243">
        <ele>133.4</ele>
        <time>2021-09-12T10:06:17Z</time>
      </trkpt>
      <trkpt lat="49.19793" lon="1.61232">
        <ele>133</ele>
        <time>2021-09-12T10:06:20Z</time>
      </trkpt>
      <trkpt lat="49.19794" lon="1.61228">
        <ele>133</ele>
        <time>2021-09-12T10:06:21Z</time>
      </trkpt>
      <trkpt lat="49.19795" lon="1.61224">
        <ele>133</ele>
        <time>2021-09-12T10:06:22Z</time>
      </trkpt>
      <trkpt lat="49.19802" lon="1.61198">
        <ele>133.4</ele>
        <time>2021-09-12T10:06:28Z</time>
      </trkpt>
      <trkpt lat="49.1981" lon="1.6117">
        <ele>134</ele>
        <time>2021-09-12T10:06:34Z</time>
      </trkpt>
      <trkpt lat="49.19811" lon="1.61167">
        <ele>134.2</ele>
        <time>2021-09-12T10:06:35Z</time>
      </trkpt>
      <trkpt lat="49.19816" lon="1.61153">
        <ele>134.6</ele>
        <time>2021-09-12T10:06:38Z</time>
      </trkpt>
      <trkpt lat="49.19821" lon="1.61136">
        <ele>134.6</ele>
        <time>2021-09-12T10:06:41Z</time>
      </trkpt>
      <trkpt lat="49.19827" lon="1.61118">
        <ele>134.8</ele>
        <time>2021-09-12T10:06:44Z</time>
      </trkpt>
      <trkpt lat="49.19838" lon="1.61091">
        <ele>134.8</ele>
        <time>2021-09-12T10:06:48Z</time>
      </trkpt>
      <trkpt lat="49.19845" lon="1.61079">
        <ele>134.8</ele>
        <time>2021-09-12T10:06:50Z</time>
      </trkpt>
      <trkpt lat="49.19855" lon="1.61062">
        <ele>134.8</ele>
        <time>2021-09-12T10:06:53Z</time>
      </trkpt>
      <trkpt lat="49.19864" lon="1.61046">
        <ele>134.6</ele>
        <time>2021-09-12T10:06:56Z</time>
      </trkpt>
      <trkpt lat="49.19883" lon="1.61015">
        <ele>134.4</ele>
        <time>2021-09-12T10:07:01Z</time>
      </trkpt>
      <trkpt lat="49.19886" lon="1.6101">
        <ele>134.4</ele>
        <time>2021-09-12T10:07:02Z</time>
      </trkpt>
      <trkpt lat="49.19899" lon="1.60983">
        <ele>134.2</ele>
        <time>2021-09-12T10:07:06Z</time>
      </trkpt>
      <trkpt lat="49.19923" lon="1.6094">
        <ele>133.6</ele>
        <time>2021-09-12T10:07:13Z</time>
      </trkpt>
      <trkpt lat="49.19928" lon="1.60933">
        <ele>133.6</ele>
        <time>2021-09-12T10:07:14Z</time>
      </trkpt>
      <trkpt lat="49.19948" lon="1.60899">
        <ele>133.4</ele>
        <time>2021-09-12T10:07:19Z</time>
      </trkpt>
      <trkpt lat="49.19959" lon="1.60882">
        <ele>133.4</ele>
        <time>2021-09-12T10:07:22Z</time>
      </trkpt>
      <trkpt lat="49.19969" lon="1.60863">
        <ele>133.4</ele>
        <time>2021-09-12T10:07:25Z</time>
      </trkpt>
      <trkpt lat="49.1999" lon="1.6082">
        <ele>133.8</ele>
        <time>2021-09-12T10:07:31Z</time>
      </trkpt>
      <trkpt lat="49.20002" lon="1.608">
        <ele>134.2</ele>
        <time>2021-09-12T10:07:34Z</time>
      </trkpt>
      <trkpt lat="49.20008" lon="1.60786">
        <ele>134.4</ele>
        <time>2021-09-12T10:07:36Z</time>
      </trkpt>
      <trkpt lat="49.2001" lon="1.60779">
        <ele>134.4</ele>
        <time>2021-09-12T10:07:37Z</time>
      </trkpt>
      <trkpt lat="49.20016" lon="1.60753">
        <ele>134.4</ele>
        <time>2021-09-12T10:07:40Z</time>
      </trkpt>
      <trkpt lat="49.20022" lon="1.60736">
        <ele>134.4</ele>
        <time>2021-09-12T10:07:42Z</time>
      </trkpt>
      <trkpt lat="49.2003" lon="1.6071">
        <ele>134</ele>
        <time>2021-09-12T10:07:45Z</time>
      </trkpt>
      <trkpt lat="49.2004" lon="1.60675">
        <ele>132.8</ele>
        <time>2021-09-12T10:07:49Z</time>
      </trkpt>
      <trkpt lat="49.2005" lon="1.60637">
        <ele>132.2</ele>
        <time>2021-09-12T10:07:53Z</time>
      </trkpt>
      <trkpt lat="49.20053" lon="1.60629">
        <ele>131.8</ele>
        <time>2021-09-12T10:07:54Z</time>
      </trkpt>
      <trkpt lat="49.20069" lon="1.60571">
        <ele>131</ele>
        <time>2021-09-12T10:08:01Z</time>
      </trkpt>
      <trkpt lat="49.2009" lon="1.6051">
        <ele>131</ele>
        <time>2021-09-12T10:08:09Z</time>
      </trkpt>
      <trkpt lat="49.20103" lon="1.60484">
        <ele>131</ele>
        <time>2021-09-12T10:08:13Z</time>
      </trkpt>
      <trkpt lat="49.20109" lon="1.60471">
        <ele>131.2</ele>
        <time>2021-09-12T10:08:15Z</time>
      </trkpt>
      <trkpt lat="49.20131" lon="1.60425">
        <ele>132.2</ele>
        <time>2021-09-12T10:08:22Z</time>
      </trkpt>
      <trkpt lat="49.20151" lon="1.60376">
        <ele>132.4</ele>
        <time>2021-09-12T10:08:29Z</time>
      </trkpt>
      <trkpt lat="49.20154" lon="1.60369">
        <ele>132.4</ele>
        <time>2021-09-12T10:08:30Z</time>
      </trkpt>
      <trkpt lat="49.20176" lon="1.60319">
        <ele>132.6</ele>
        <time>2021-09-12T10:08:37Z</time>
      </trkpt>
      <trkpt lat="49.20186" lon="1.60298">
        <ele>132.6</ele>
        <time>2021-09-12T10:08:40Z</time>
      </trkpt>
      <trkpt lat="49.20199" lon="1.6027">
        <ele>132.8</ele>
        <time>2021-09-12T10:08:44Z</time>
      </trkpt>
      <trkpt lat="49.20222" lon="1.60219">
        <ele>132.6</ele>
        <time>2021-09-12T10:08:51Z</time>
      </trkpt>
      <trkpt lat="49.2024" lon="1.60183">
        <ele>131.6</ele>
        <time>2021-09-12T10:08:56Z</time>
      </trkpt>
      <trkpt lat="49.20249" lon="1.60163">
        <ele>131.4</ele>
        <time>2021-09-12T10:08:59Z</time>
      </trkpt>
      <trkpt lat="49.20259" lon="1.60142">
        <ele>131.2</ele>
        <time>2021-09-12T10:09:02Z</time>
      </trkpt>
      <trkpt lat="49.20272" lon="1.60115">
        <ele>131</ele>
        <time>2021-09-12T10:09:06Z</time>
      </trkpt>
      <trkpt lat="49.20285" lon="1.60087">
        <ele>130.6</ele>
        <time>2021-09-12T10:09:10Z</time>
      </trkpt>
      <trkpt lat="49.20299" lon="1.60059">
        <ele>130.2</ele>
        <time>2021-09-12T10:09:14Z</time>
      </trkpt>
      <trkpt lat="49.20324" lon="1.60011">
        <ele>129.8</ele>
        <time>2021-09-12T10:09:21Z</time>
      </trkpt>
      <trkpt lat="49.20327" lon="1.60007">
        <ele>129.6</ele>
        <time>2021-09-12T10:09:22Z</time>
      </trkpt>
      <trkpt lat="49.20328" lon="1.60006">
        <ele>129.4</ele>
        <time>2021-09-12T10:09:23Z</time>
      </trkpt>
      <trkpt lat="49.2033" lon="1.60007">
        <ele>129.4</ele>
        <time>2021-09-12T10:09:24Z</time>
      </trkpt>
      <trkpt lat="49.20331" lon="1.60011">
        <ele>129.2</ele>
        <time>2021-09-12T10:09:25Z</time>
      </trkpt>
      <trkpt lat="49.20329" lon="1.60019">
        <ele>129.2</ele>
        <time>2021-09-12T10:09:27Z</time>
      </trkpt>
      <trkpt lat="49.20328" lon="1.60022">
        <ele>129.2</ele>
        <time>2021-09-12T10:09:28Z</time>
      </trkpt>
      <trkpt lat="49.20321" lon="1.60052">
        <ele>129</ele>
        <time>2021-09-12T10:09:34Z</time>
      </trkpt>
      <trkpt lat="49.20319" lon="1.60097">
        <ele>128.8</ele>
        <time>2021-09-12T10:09:42Z</time>
      </trkpt>
      <trkpt lat="49.20323" lon="1.60117">
        <ele>128.6</ele>
        <time>2021-09-12T10:09:46Z</time>
      </trkpt>
      <trkpt lat="49.20322" lon="1.60122">
        <ele>128.4</ele>
        <time>2021-09-12T10:09:47Z</time>
      </trkpt>
      <trkpt lat="49.20319" lon="1.6013">
        <ele>128.2</ele>
        <time>2021-09-12T10:09:49Z</time>
      </trkpt>
      <trkpt lat="49.20319" lon="1.60131">
        <ele>128.2</ele>
        <time>2021-09-12T10:09:51Z</time>
      </trkpt>
      <trkpt lat="49.2032" lon="1.60134">
        <ele>128.2</ele>
        <time>2021-09-12T10:11:06Z</time>
      </trkpt>
      <trkpt lat="49.20324" lon="1.60148">
        <ele>128</ele>
        <time>2021-09-12T10:11:09Z</time>
      </trkpt>
      <trkpt lat="49.20329" lon="1.60187">
        <ele>128</ele>
        <time>2021-09-12T10:11:14Z</time>
      </trkpt>
      <trkpt lat="49.20333" lon="1.60215">
        <ele>127.4</ele>
        <time>2021-09-12T10:11:17Z</time>
      </trkpt>
      <trkpt lat="49.20339" lon="1.60256">
        <ele>126.4</ele>
        <time>2021-09-12T10:11:21Z</time>
      </trkpt>
      <trkpt lat="49.2034" lon="1.60266">
        <ele>126.2</ele>
        <time>2021-09-12T10:11:22Z</time>
      </trkpt>
      <trkpt lat="49.20347" lon="1.60305">
        <ele>125.2</ele>
        <time>2021-09-12T10:11:26Z</time>
      </trkpt>
      <trkpt lat="49.20352" lon="1.60338">
        <ele>124.8</ele>
        <time>2021-09-12T10:11:29Z</time>
      </trkpt>
      <trkpt lat="49.20362" lon="1.60409">
        <ele>124.2</ele>
        <time>2021-09-12T10:11:35Z</time>
      </trkpt>
      <trkpt lat="49.20366" lon="1.60433">
        <ele>123.8</ele>
        <time>2021-09-12T10:11:37Z</time>
      </trkpt>
      <trkpt lat="49.20373" lon="1.60479">
        <ele>122.8</ele>
        <time>2021-09-12T10:11:41Z</time>
      </trkpt>
      <trkpt lat="49.20379" lon="1.60524">
        <ele>122.2</ele>
        <time>2021-09-12T10:11:45Z</time>
      </trkpt>
      <trkpt lat="49.20384" lon="1.60557">
        <ele>121.8</ele>
        <time>2021-09-12T10:11:48Z</time>
      </trkpt>
      <trkpt lat="49.20392" lon="1.60612">
        <ele>121.4</ele>
        <time>2021-09-12T10:11:53Z</time>
      </trkpt>
      <trkpt lat="49.20399" lon="1.60666">
        <ele>120.8</ele>
        <time>2021-09-12T10:11:58Z</time>
      </trkpt>
      <trkpt lat="49.20403" lon="1.607">
        <ele>120.2</ele>
        <time>2021-09-12T10:12:01Z</time>
      </trkpt>
      <trkpt lat="49.20408" lon="1.60777">
        <ele>119.6</ele>
        <time>2021-09-12T10:12:08Z</time>
      </trkpt>
      <trkpt lat="49.20407" lon="1.60839">
        <ele>118.6</ele>
        <time>2021-09-12T10:12:14Z</time>
      </trkpt>
      <trkpt lat="49.20407" lon="1.60848">
        <ele>118.4</ele>
        <time>2021-09-12T10:12:15Z</time>
      </trkpt>
      <trkpt lat="49.20404" lon="1.60909">
        <ele>118</ele>
        <time>2021-09-12T10:12:22Z</time>
      </trkpt>
      <trkpt lat="49.20403" lon="1.60924">
        <ele>117.4</ele>
        <time>2021-09-12T10:12:24Z</time>
      </trkpt>
      <trkpt lat="49.20403" lon="1.60948">
        <ele>117.2</ele>
        <time>2021-09-12T10:12:28Z</time>
      </trkpt>
      <trkpt lat="49.20411" lon="1.60951">
        <ele>117.2</ele>
        <time>2021-09-12T10:12:30Z</time>
      </trkpt>
      <trkpt lat="49.20423" lon="1.60948">
        <ele>117</ele>
        <time>2021-09-12T10:12:33Z</time>
      </trkpt>
      <trkpt lat="49.20433" lon="1.60946">
        <ele>117</ele>
        <time>2021-09-12T10:12:35Z</time>
      </trkpt>
      <trkpt lat="49.20454" lon="1.60942">
        <ele>116.6</ele>
        <time>2021-09-12T10:12:39Z</time>
      </trkpt>
      <trkpt lat="49.20459" lon="1.60941">
        <ele>116.2</ele>
        <time>2021-09-12T10:12:40Z</time>
      </trkpt>
      <trkpt lat="49.2048" lon="1.60937">
        <ele>115.2</ele>
        <time>2021-09-12T10:12:44Z</time>
      </trkpt>
      <trkpt lat="49.20497" lon="1.60934">
        <ele>114.6</ele>
        <time>2021-09-12T10:12:47Z</time>
      </trkpt>
      <trkpt lat="49.20503" lon="1.60932">
        <ele>114.4</ele>
        <time>2021-09-12T10:12:48Z</time>
      </trkpt>
      <trkpt lat="49.20509" lon="1.60929">
        <ele>114</ele>
        <time>2021-09-12T10:12:49Z</time>
      </trkpt>
      <trkpt lat="49.20517" lon="1.60918">
        <ele>113.4</ele>
        <time>2021-09-12T10:12:51Z</time>
      </trkpt>
      <trkpt lat="49.20518" lon="1.60911">
        <ele>113.2</ele>
        <time>2021-09-12T10:12:52Z</time>
      </trkpt>
      <trkpt lat="49.20516" lon="1.6089">
        <ele>112.4</ele>
        <time>2021-09-12T10:12:55Z</time>
      </trkpt>
      <trkpt lat="49.20514" lon="1.60882">
        <ele>112.2</ele>
        <time>2021-09-12T10:12:56Z</time>
      </trkpt>
      <trkpt lat="49.20506" lon="1.60844">
        <ele>111.6</ele>
        <time>2021-09-12T10:13:01Z</time>
      </trkpt>
      <trkpt lat="49.20504" lon="1.60813">
        <ele>111.4</ele>
        <time>2021-09-12T10:13:06Z</time>
      </trkpt>
      <trkpt lat="49.20505" lon="1.60794">
        <ele>111.6</ele>
        <time>2021-09-12T10:13:10Z</time>
      </trkpt>
      <trkpt lat="49.20507" lon="1.60791">
        <ele>111.6</ele>
        <time>2021-09-12T10:13:11Z</time>
      </trkpt>
      <trkpt lat="49.20515" lon="1.60778">
        <ele>111.8</ele>
        <time>2021-09-12T10:13:14Z</time>
      </trkpt>
      <trkpt lat="49.20523" lon="1.60771">
        <ele>112</ele>
        <time>2021-09-12T10:13:16Z</time>
      </trkpt>
      <trkpt lat="49.20533" lon="1.60762">
        <ele>112.2</ele>
        <time>2021-09-12T10:13:19Z</time>
      </trkpt>
      <trkpt lat="49.20539" lon="1.60758">
        <ele>112.2</ele>
        <time>2021-09-12T10:13:21Z</time>
      </trkpt>
      <trkpt lat="49.20561" lon="1.60736">
        <ele>112.4</ele>
        <time>2021-09-12T10:13:27Z</time>
      </trkpt>
      <trkpt lat="49.20584" lon="1.60711">
        <ele>113.2</ele>
        <time>2021-09-12T10:13:34Z</time>
      </trkpt>
      <trkpt lat="49.20603" lon="1.60686">
        <ele>114</ele>
        <time>2021-09-12T10:13:40Z</time>
      </trkpt>
      <trkpt lat="49.20606" lon="1.60681">
        <ele>114.2</ele>
        <time>2021-09-12T10:13:41Z</time>
      </trkpt>
      <trkpt lat="49.20616" lon="1.60657">
        <ele>114.8</ele>
        <time>2021-09-12T10:13:46Z</time>
      </trkpt>
      <trkpt lat="49.20619" lon="1.60641">
        <ele>115.2</ele>
        <time>2021-09-12T10:13:49Z</time>
      </trkpt>
      <trkpt lat="49.2062" lon="1.6063">
        <ele>115.6</ele>
        <time>2021-09-12T10:13:51Z</time>
      </trkpt>
      <trkpt lat="49.20621" lon="1.60605">
        <ele>116.4</ele>
        <time>2021-09-12T10:13:56Z</time>
      </trkpt>
      <trkpt lat="49.2062" lon="1.60596">
        <ele>116.6</ele>
        <time>2021-09-12T10:13:58Z</time>
      </trkpt>
      <trkpt lat="49.20619" lon="1.60565">
        <ele>117.6</ele>
        <time>2021-09-12T10:14:05Z</time>
      </trkpt>
      <trkpt lat="49.20617" lon="1.60536">
        <ele>118.6</ele>
        <time>2021-09-12T10:14:12Z</time>
      </trkpt>
      <trkpt lat="49.20617" lon="1.60528">
        <ele>119</ele>
        <time>2021-09-12T10:14:14Z</time>
      </trkpt>
      <trkpt lat="49.20615" lon="1.60507">
        <ele>119.6</ele>
        <time>2021-09-12T10:14:19Z</time>
      </trkpt>
      <trkpt lat="49.20614" lon="1.60498">
        <ele>119.8</ele>
        <time>2021-09-12T10:14:21Z</time>
      </trkpt>
      <trkpt lat="49.20612" lon="1.60473">
        <ele>120.8</ele>
        <time>2021-09-12T10:14:27Z</time>
      </trkpt>
      <trkpt lat="49.20611" lon="1.6046">
        <ele>121.2</ele>
        <time>2021-09-12T10:14:30Z</time>
      </trkpt>
      <trkpt lat="49.20609" lon="1.6044">
        <ele>122</ele>
        <time>2021-09-12T10:14:35Z</time>
      </trkpt>
      <trkpt lat="49.20607" lon="1.6042">
        <ele>122.6</ele>
        <time>2021-09-12T10:14:40Z</time>
      </trkpt>
      <trkpt lat="49.20605" lon="1.60407">
        <ele>123</ele>
        <time>2021-09-12T10:14:43Z</time>
      </trkpt>
      <trkpt lat="49.20602" lon="1.60381">
        <ele>123.8</ele>
        <time>2021-09-12T10:14:49Z</time>
      </trkpt>
      <trkpt lat="49.20601" lon="1.60372">
        <ele>124.2</ele>
        <time>2021-09-12T10:14:51Z</time>
      </trkpt>
      <trkpt lat="49.20598" lon="1.60346">
        <ele>125.2</ele>
        <time>2021-09-12T10:14:57Z</time>
      </trkpt>
      <trkpt lat="49.20597" lon="1.60341">
        <ele>125.4</ele>
        <time>2021-09-12T10:14:58Z</time>
      </trkpt>
      <trkpt lat="49.20593" lon="1.60309">
        <ele>126.2</ele>
        <time>2021-09-12T10:15:05Z</time>
      </trkpt>
      <trkpt lat="49.20592" lon="1.60298">
        <ele>126.6</ele>
        <time>2021-09-12T10:15:07Z</time>
      </trkpt>
      <trkpt lat="49.2059" lon="1.60257">
        <ele>127.2</ele>
        <time>2021-09-12T10:15:15Z</time>
      </trkpt>
      <trkpt lat="49.2059" lon="1.60252">
        <ele>127.4</ele>
        <time>2021-09-12T10:15:16Z</time>
      </trkpt>
      <trkpt lat="49.20592" lon="1.60222">
        <ele>128.4</ele>
        <time>2021-09-12T10:15:22Z</time>
      </trkpt>
      <trkpt lat="49.20593" lon="1.60218">
        <ele>128.4</ele>
        <time>2021-09-12T10:15:23Z</time>
      </trkpt>
      <trkpt lat="49.20603" lon="1.60196">
        <ele>129.4</ele>
        <time>2021-09-12T10:15:29Z</time>
      </trkpt>
      <trkpt lat="49.20615" lon="1.60175">
        <ele>130.6</ele>
        <time>2021-09-12T10:15:35Z</time>
      </trkpt>
      <trkpt lat="49.2062" lon="1.60168">
        <ele>131</ele>
        <time>2021-09-12T10:15:37Z</time>
      </trkpt>
      <trkpt lat="49.20632" lon="1.60148">
        <ele>131.6</ele>
        <time>2021-09-12T10:15:43Z</time>
      </trkpt>
      <trkpt lat="49.20634" lon="1.60144">
        <ele>131.8</ele>
        <time>2021-09-12T10:15:44Z</time>
      </trkpt>
      <trkpt lat="49.20645" lon="1.60127">
        <ele>132.2</ele>
        <time>2021-09-12T10:15:49Z</time>
      </trkpt>
      <trkpt lat="49.20651" lon="1.60115">
        <ele>132.8</ele>
        <time>2021-09-12T10:15:52Z</time>
      </trkpt>
      <trkpt lat="49.20656" lon="1.60106">
        <ele>133</ele>
        <time>2021-09-12T10:15:55Z</time>
      </trkpt>
      <trkpt lat="49.20664" lon="1.6009">
        <ele>133.2</ele>
        <time>2021-09-12T10:15:59Z</time>
      </trkpt>
      <trkpt lat="49.2068" lon="1.60058">
        <ele>133.4</ele>
        <time>2021-09-12T10:16:05Z</time>
      </trkpt>
      <trkpt lat="49.20702" lon="1.60016">
        <ele>133.6</ele>
        <time>2021-09-12T10:16:12Z</time>
      </trkpt>
      <trkpt lat="49.20719" lon="1.59975">
        <ele>133.4</ele>
        <time>2021-09-12T10:16:18Z</time>
      </trkpt>
      <trkpt lat="49.20719" lon="1.59959">
        <ele>133.4</ele>
        <time>2021-09-12T10:16:20Z</time>
      </trkpt>
      <trkpt lat="49.20711" lon="1.59951">
        <ele>133.4</ele>
        <time>2021-09-12T10:16:22Z</time>
      </trkpt>
      <trkpt lat="49.20692" lon="1.59948">
        <ele>133.2</ele>
        <time>2021-09-12T10:16:26Z</time>
      </trkpt>
      <trkpt lat="49.20688" lon="1.59946">
        <ele>133</ele>
        <time>2021-09-12T10:16:27Z</time>
      </trkpt>
      <trkpt lat="49.2066" lon="1.59935">
        <ele>133</ele>
        <time>2021-09-12T10:16:33Z</time>
      </trkpt>
      <trkpt lat="49.20627" lon="1.59916">
        <ele>133.2</ele>
        <time>2021-09-12T10:16:40Z</time>
      </trkpt>
      <trkpt lat="49.20591" lon="1.59892">
        <ele>133.2</ele>
        <time>2021-09-12T10:16:48Z</time>
      </trkpt>
      <trkpt lat="49.20558" lon="1.59867">
        <ele>133</ele>
        <time>2021-09-12T10:16:55Z</time>
      </trkpt>
      <trkpt lat="49.20519" lon="1.59834">
        <ele>133</ele>
        <time>2021-09-12T10:17:04Z</time>
      </trkpt>
      <trkpt lat="49.20484" lon="1.59804">
        <ele>132.8</ele>
        <time>2021-09-12T10:17:12Z</time>
      </trkpt>
      <trkpt lat="49.20456" lon="1.59782">
        <ele>132.8</ele>
        <time>2021-09-12T10:17:19Z</time>
      </trkpt>
      <trkpt lat="49.20432" lon="1.59762">
        <ele>132.6</ele>
        <time>2021-09-12T10:17:25Z</time>
      </trkpt>
      <trkpt lat="49.20382" lon="1.5972">
        <ele>133</ele>
        <time>2021-09-12T10:17:36Z</time>
      </trkpt>
      <trkpt lat="49.20345" lon="1.59689">
        <ele>133.8</ele>
        <time>2021-09-12T10:17:44Z</time>
      </trkpt>
      <trkpt lat="49.20294" lon="1.59647">
        <ele>134.2</ele>
        <time>2021-09-12T10:17:55Z</time>
      </trkpt>
      <trkpt lat="49.20252" lon="1.59612">
        <ele>134.4</ele>
        <time>2021-09-12T10:18:04Z</time>
      </trkpt>
      <trkpt lat="49.20204" lon="1.59573">
        <ele>134.8</ele>
        <time>2021-09-12T10:18:14Z</time>
      </trkpt>
      <trkpt lat="49.20199" lon="1.59569">
        <ele>134.8</ele>
        <time>2021-09-12T10:18:15Z</time>
      </trkpt>
      <trkpt lat="49.2016" lon="1.59545">
        <ele>135.2</ele>
        <time>2021-09-12T10:18:23Z</time>
      </trkpt>
      <trkpt lat="49.20124" lon="1.59529">
        <ele>135.2</ele>
        <time>2021-09-12T10:18:30Z</time>
      </trkpt>
      <trkpt lat="49.20079" lon="1.59511">
        <ele>135.2</ele>
        <time>2021-09-12T10:18:38Z</time>
      </trkpt>
      <trkpt lat="49.20037" lon="1.59493">
        <ele>133.8</ele>
        <time>2021-09-12T10:18:45Z</time>
      </trkpt>
      <trkpt lat="49.20031" lon="1.5949">
        <ele>133.8</ele>
        <time>2021-09-12T10:18:46Z</time>
      </trkpt>
      <trkpt lat="49.20006" lon="1.59474">
        <ele>132.6</ele>
        <time>2021-09-12T10:18:50Z</time>
      </trkpt>
      <trkpt lat="49.19988" lon="1.5946">
        <ele>132</ele>
        <time>2021-09-12T10:18:53Z</time>
      </trkpt>
      <trkpt lat="49.19976" lon="1.59449">
        <ele>131.4</ele>
        <time>2021-09-12T10:18:55Z</time>
      </trkpt>
      <trkpt lat="49.19947" lon="1.59418">
        <ele>130.8</ele>
        <time>2021-09-12T10:19:00Z</time>
      </trkpt>
      <trkpt lat="49.1991" lon="1.59379">
        <ele>130.6</ele>
        <time>2021-09-12T10:19:07Z</time>
      </trkpt>
      <trkpt lat="49.19874" lon="1.59339">
        <ele>131.2</ele>
        <time>2021-09-12T10:19:14Z</time>
      </trkpt>
      <trkpt lat="49.19836" lon="1.59297">
        <ele>131.4</ele>
        <time>2021-09-12T10:19:22Z</time>
      </trkpt>
      <trkpt lat="49.19827" lon="1.59288">
        <ele>131.4</ele>
        <time>2021-09-12T10:19:24Z</time>
      </trkpt>
      <trkpt lat="49.19818" lon="1.59292">
        <ele>131.4</ele>
        <time>2021-09-12T10:19:26Z</time>
      </trkpt>
      <trkpt lat="49.19808" lon="1.59319">
        <ele>131.4</ele>
        <time>2021-09-12T10:19:29Z</time>
      </trkpt>
      <trkpt lat="49.19805" lon="1.59329">
        <ele>131.2</ele>
        <time>2021-09-12T10:19:30Z</time>
      </trkpt>
      <trkpt lat="49.1978" lon="1.59396">
        <ele>131</ele>
        <time>2021-09-12T10:19:36Z</time>
      </trkpt>
      <trkpt lat="49.1976" lon="1.59421">
        <ele>130.4</ele>
        <time>2021-09-12T10:19:39Z</time>
      </trkpt>
      <trkpt lat="49.19754" lon="1.59429">
        <ele>130</ele>
        <time>2021-09-12T10:19:40Z</time>
      </trkpt>
      <trkpt lat="49.19743" lon="1.59452">
        <ele>129</ele>
        <time>2021-09-12T10:19:42Z</time>
      </trkpt>
      <trkpt lat="49.19739" lon="1.59464">
        <ele>127.6</ele>
        <time>2021-09-12T10:19:43Z</time>
      </trkpt>
      <trkpt lat="49.19729" lon="1.59491">
        <ele>125.6</ele>
        <time>2021-09-12T10:19:45Z</time>
      </trkpt>
      <trkpt lat="49.19723" lon="1.59504">
        <ele>124.6</ele>
        <time>2021-09-12T10:19:46Z</time>
      </trkpt>
      <trkpt lat="49.19717" lon="1.59516">
        <ele>123.4</ele>
        <time>2021-09-12T10:19:47Z</time>
      </trkpt>
      <trkpt lat="49.19711" lon="1.59528">
        <ele>122.6</ele>
        <time>2021-09-12T10:19:48Z</time>
      </trkpt>
      <trkpt lat="49.19704" lon="1.59539">
        <ele>122</ele>
        <time>2021-09-12T10:19:49Z</time>
      </trkpt>
      <trkpt lat="49.19687" lon="1.59559">
        <ele>120.6</ele>
        <time>2021-09-12T10:19:51Z</time>
      </trkpt>
      <trkpt lat="49.19678" lon="1.59568">
        <ele>120</ele>
        <time>2021-09-12T10:19:52Z</time>
      </trkpt>
      <trkpt lat="49.19668" lon="1.59576">
        <ele>119</ele>
        <time>2021-09-12T10:19:53Z</time>
      </trkpt>
      <trkpt lat="49.19648" lon="1.59591">
        <ele>117.6</ele>
        <time>2021-09-12T10:19:55Z</time>
      </trkpt>
      <trkpt lat="49.19628" lon="1.59603">
        <ele>116</ele>
        <time>2021-09-12T10:19:57Z</time>
      </trkpt>
      <trkpt lat="49.19619" lon="1.5961">
        <ele>115</ele>
        <time>2021-09-12T10:19:58Z</time>
      </trkpt>
      <trkpt lat="49.1961" lon="1.59616">
        <ele>113.6</ele>
        <time>2021-09-12T10:19:59Z</time>
      </trkpt>
      <trkpt lat="49.19601" lon="1.59622">
        <ele>112.4</ele>
        <time>2021-09-12T10:20:00Z</time>
      </trkpt>
      <trkpt lat="49.19593" lon="1.59629">
        <ele>111.2</ele>
        <time>2021-09-12T10:20:01Z</time>
      </trkpt>
      <trkpt lat="49.19577" lon="1.59642">
        <ele>109.4</ele>
        <time>2021-09-12T10:20:03Z</time>
      </trkpt>
      <trkpt lat="49.19562" lon="1.59655">
        <ele>108</ele>
        <time>2021-09-12T10:20:05Z</time>
      </trkpt>
      <trkpt lat="49.19535" lon="1.5968">
        <ele>107.2</ele>
        <time>2021-09-12T10:20:09Z</time>
      </trkpt>
      <trkpt lat="49.19495" lon="1.59727">
        <ele>107.2</ele>
        <time>2021-09-12T10:20:16Z</time>
      </trkpt>
      <trkpt lat="49.19462" lon="1.59781">
        <ele>107.6</ele>
        <time>2021-09-12T10:20:23Z</time>
      </trkpt>
      <trkpt lat="49.1943" lon="1.59851">
        <ele>107.2</ele>
        <time>2021-09-12T10:20:31Z</time>
      </trkpt>
      <trkpt lat="49.19426" lon="1.59861">
        <ele>107</ele>
        <time>2021-09-12T10:20:32Z</time>
      </trkpt>
      <trkpt lat="49.19422" lon="1.5987">
        <ele>106.8</ele>
        <time>2021-09-12T10:20:33Z</time>
      </trkpt>
      <trkpt lat="49.19395" lon="1.59932">
        <ele>105.6</ele>
        <time>2021-09-12T10:20:40Z</time>
      </trkpt>
      <trkpt lat="49.19388" lon="1.59948">
        <ele>105.4</ele>
        <time>2021-09-12T10:20:42Z</time>
      </trkpt>
      <trkpt lat="49.1937" lon="1.5999">
        <ele>105.2</ele>
        <time>2021-09-12T10:20:48Z</time>
      </trkpt>
      <trkpt lat="49.19348" lon="1.60035">
        <ele>105</ele>
        <time>2021-09-12T10:20:56Z</time>
      </trkpt>
      <trkpt lat="49.1934" lon="1.60051">
        <ele>105</ele>
        <time>2021-09-12T10:20:59Z</time>
      </trkpt>
      <trkpt lat="49.1933" lon="1.60065">
        <ele>105</ele>
        <time>2021-09-12T10:21:02Z</time>
      </trkpt>
      <trkpt lat="49.19308" lon="1.60096">
        <ele>104.6</ele>
        <time>2021-09-12T10:21:09Z</time>
      </trkpt>
      <trkpt lat="49.19304" lon="1.601">
        <ele>104.4</ele>
        <time>2021-09-12T10:21:10Z</time>
      </trkpt>
      <trkpt lat="49.19273" lon="1.60132">
        <ele>104.4</ele>
        <time>2021-09-12T10:21:19Z</time>
      </trkpt>
      <trkpt lat="49.19235" lon="1.60166">
        <ele>104.8</ele>
        <time>2021-09-12T10:21:29Z</time>
      </trkpt>
      <trkpt lat="49.192" lon="1.60196">
        <ele>104.6</ele>
        <time>2021-09-12T10:21:37Z</time>
      </trkpt>
      <trkpt lat="49.19171" lon="1.60217">
        <ele>104.4</ele>
        <time>2021-09-12T10:21:43Z</time>
      </trkpt>
      <trkpt lat="49.19138" lon="1.60238">
        <ele>104</ele>
        <time>2021-09-12T10:21:49Z</time>
      </trkpt>
      <trkpt lat="49.19104" lon="1.60259">
        <ele>103.8</ele>
        <time>2021-09-12T10:21:55Z</time>
      </trkpt>
      <trkpt lat="49.19093" lon="1.60265">
        <ele>103.4</ele>
        <time>2021-09-12T10:21:57Z</time>
      </trkpt>
      <trkpt lat="49.19082" lon="1.60271">
        <ele>103</ele>
        <time>2021-09-12T10:21:59Z</time>
      </trkpt>
      <trkpt lat="49.19073" lon="1.60278">
        <ele>102.8</ele>
        <time>2021-09-12T10:22:01Z</time>
      </trkpt>
      <trkpt lat="49.19067" lon="1.60282">
        <ele>102.6</ele>
        <time>2021-09-12T10:22:02Z</time>
      </trkpt>
      <trkpt lat="49.19063" lon="1.60287">
        <ele>102.4</ele>
        <time>2021-09-12T10:22:03Z</time>
      </trkpt>
      <trkpt lat="49.19044" lon="1.60308">
        <ele>102</ele>
        <time>2021-09-12T10:22:07Z</time>
      </trkpt>
      <trkpt lat="49.1901" lon="1.60345">
        <ele>102</ele>
        <time>2021-09-12T10:22:14Z</time>
      </trkpt>
      <trkpt lat="49.18978" lon="1.60379">
        <ele>102</ele>
        <time>2021-09-12T10:22:21Z</time>
      </trkpt>
      <trkpt lat="49.1895" lon="1.60407">
        <ele>102.2</ele>
        <time>2021-09-12T10:22:27Z</time>
      </trkpt>
      <trkpt lat="49.18915" lon="1.60431">
        <ele>102.2</ele>
        <time>2021-09-12T10:22:34Z</time>
      </trkpt>
      <trkpt lat="49.18887" lon="1.60446">
        <ele>102.4</ele>
        <time>2021-09-12T10:22:40Z</time>
      </trkpt>
      <trkpt lat="49.18879" lon="1.60448">
        <ele>102.4</ele>
        <time>2021-09-12T10:22:42Z</time>
      </trkpt>
      <trkpt lat="49.18864" lon="1.60451">
        <ele>102.6</ele>
        <time>2021-09-12T10:22:46Z</time>
      </trkpt>
      <trkpt lat="49.18858" lon="1.60438">
        <ele>102.6</ele>
        <time>2021-09-12T10:22:49Z</time>
      </trkpt>
      <trkpt lat="49.18845" lon="1.60396">
        <ele>103.4</ele>
        <time>2021-09-12T10:22:57Z</time>
      </trkpt>
      <trkpt lat="49.18835" lon="1.60367">
        <ele>104</ele>
        <time>2021-09-12T10:23:03Z</time>
      </trkpt>
      <trkpt lat="49.18827" lon="1.6035">
        <ele>104.4</ele>
        <time>2021-09-12T10:23:09Z</time>
      </trkpt>
      <trkpt lat="49.18823" lon="1.6035">
        <ele>104.4</ele>
        <time>2021-09-12T10:23:11Z</time>
      </trkpt>
      <trkpt lat="49.18817" lon="1.60353">
        <ele>104.4</ele>
        <time>2021-09-12T10:23:13Z</time>
      </trkpt>
      <trkpt lat="49.18792" lon="1.60374">
        <ele>104.8</ele>
        <time>2021-09-12T10:23:20Z</time>
      </trkpt>
      <trkpt lat="49.18764" lon="1.60391">
        <ele>104.8</ele>
        <time>2021-09-12T10:23:28Z</time>
      </trkpt>
      <trkpt lat="49.18756" lon="1.60389">
        <ele>105</ele>
        <time>2021-09-12T10:23:30Z</time>
      </trkpt>
      <trkpt lat="49.18746" lon="1.60382">
        <ele>105.4</ele>
        <time>2021-09-12T10:23:33Z</time>
      </trkpt>
      <trkpt lat="49.18729" lon="1.6036">
        <ele>105.6</ele>
        <time>2021-09-12T10:23:39Z</time>
      </trkpt>
      <trkpt lat="49.18721" lon="1.60349">
        <ele>106</ele>
        <time>2021-09-12T10:23:42Z</time>
      </trkpt>
      <trkpt lat="49.18708" lon="1.6033">
        <ele>107</ele>
        <time>2021-09-12T10:23:47Z</time>
      </trkpt>
      <trkpt lat="49.18705" lon="1.60326">
        <ele>107.2</ele>
        <time>2021-09-12T10:23:48Z</time>
      </trkpt>
      <trkpt lat="49.18696" lon="1.6031">
        <ele>108.4</ele>
        <time>2021-09-12T10:23:52Z</time>
      </trkpt>
      <trkpt lat="49.18691" lon="1.60302">
        <ele>108.8</ele>
        <time>2021-09-12T10:23:54Z</time>
      </trkpt>
      <trkpt lat="49.18683" lon="1.60292">
        <ele>109.6</ele>
        <time>2021-09-12T10:23:57Z</time>
      </trkpt>
      <trkpt lat="49.18672" lon="1.60274">
        <ele>110.6</ele>
        <time>2021-09-12T10:24:02Z</time>
      </trkpt>
      <trkpt lat="49.1867" lon="1.60271">
        <ele>110.8</ele>
        <time>2021-09-12T10:24:03Z</time>
      </trkpt>
      <trkpt lat="49.18662" lon="1.60258">
        <ele>111.8</ele>
        <time>2021-09-12T10:24:07Z</time>
      </trkpt>
      <trkpt lat="49.18654" lon="1.60243">
        <ele>112.6</ele>
        <time>2021-09-12T10:24:11Z</time>
      </trkpt>
      <trkpt lat="49.1865" lon="1.60235">
        <ele>112.8</ele>
        <time>2021-09-12T10:24:13Z</time>
      </trkpt>
      <trkpt lat="49.18638" lon="1.60212">
        <ele>114</ele>
        <time>2021-09-12T10:24:19Z</time>
      </trkpt>
      <trkpt lat="49.1863" lon="1.60191">
        <ele>115</ele>
        <time>2021-09-12T10:24:24Z</time>
      </trkpt>
      <trkpt lat="49.18626" lon="1.60183">
        <ele>115.2</ele>
        <time>2021-09-12T10:24:26Z</time>
      </trkpt>
      <trkpt lat="49.18618" lon="1.60169">
        <ele>116</ele>
        <time>2021-09-12T10:24:30Z</time>
      </trkpt>
      <trkpt lat="49.18615" lon="1.60161">
        <ele>116.2</ele>
        <time>2021-09-12T10:24:32Z</time>
      </trkpt>
      <trkpt lat="49.18599" lon="1.60139">
        <ele>117.2</ele>
        <time>2021-09-12T10:24:39Z</time>
      </trkpt>
      <trkpt lat="49.18586" lon="1.60125">
        <ele>118.2</ele>
        <time>2021-09-12T10:24:44Z</time>
      </trkpt>
      <trkpt lat="49.18579" lon="1.60117">
        <ele>118.6</ele>
        <time>2021-09-12T10:24:47Z</time>
      </trkpt>
      <trkpt lat="49.18569" lon="1.60107">
        <ele>119.4</ele>
        <time>2021-09-12T10:24:51Z</time>
      </trkpt>
      <trkpt lat="49.18562" lon="1.60099">
        <ele>120</ele>
        <time>2021-09-12T10:24:54Z</time>
      </trkpt>
      <trkpt lat="49.18557" lon="1.60093">
        <ele>120.6</ele>
        <time>2021-09-12T10:24:56Z</time>
      </trkpt>
      <trkpt lat="49.18542" lon="1.60076">
        <ele>121.6</ele>
        <time>2021-09-12T10:25:02Z</time>
      </trkpt>
      <trkpt lat="49.18526" lon="1.60058">
        <ele>122.8</ele>
        <time>2021-09-12T10:25:08Z</time>
      </trkpt>
      <trkpt lat="49.18523" lon="1.60055">
        <ele>122.8</ele>
        <time>2021-09-12T10:25:09Z</time>
      </trkpt>
      <trkpt lat="49.1851" lon="1.60041">
        <ele>123.8</ele>
        <time>2021-09-12T10:25:14Z</time>
      </trkpt>
      <trkpt lat="49.185" lon="1.6003">
        <ele>124.6</ele>
        <time>2021-09-12T10:25:18Z</time>
      </trkpt>
      <trkpt lat="49.18497" lon="1.60027">
        <ele>124.8</ele>
        <time>2021-09-12T10:25:19Z</time>
      </trkpt>
      <trkpt lat="49.18484" lon="1.60012">
        <ele>126</ele>
        <time>2021-09-12T10:25:24Z</time>
      </trkpt>
      <trkpt lat="49.18478" lon="1.60007">
        <ele>126.4</ele>
        <time>2021-09-12T10:25:26Z</time>
      </trkpt>
      <trkpt lat="49.1847" lon="1.59999">
        <ele>127.2</ele>
        <time>2021-09-12T10:25:29Z</time>
      </trkpt>
      <trkpt lat="49.18456" lon="1.59987">
        <ele>128.4</ele>
        <time>2021-09-12T10:25:34Z</time>
      </trkpt>
      <trkpt lat="49.18453" lon="1.59985">
        <ele>128.6</ele>
        <time>2021-09-12T10:25:35Z</time>
      </trkpt>
      <trkpt lat="49.18441" lon="1.59977">
        <ele>129.6</ele>
        <time>2021-09-12T10:25:39Z</time>
      </trkpt>
      <trkpt lat="49.18429" lon="1.59969">
        <ele>130.4</ele>
        <time>2021-09-12T10:25:43Z</time>
      </trkpt>
      <trkpt lat="49.18427" lon="1.59967">
        <ele>130.6</ele>
        <time>2021-09-12T10:25:44Z</time>
      </trkpt>
      <trkpt lat="49.18418" lon="1.59955">
        <ele>131.2</ele>
        <time>2021-09-12T10:25:48Z</time>
      </trkpt>
      <trkpt lat="49.18417" lon="1.59936">
        <ele>131.4</ele>
        <time>2021-09-12T10:25:52Z</time>
      </trkpt>
      <trkpt lat="49.18418" lon="1.59931">
        <ele>131.6</ele>
        <time>2021-09-12T10:25:53Z</time>
      </trkpt>
      <trkpt lat="49.18423" lon="1.59898">
        <ele>132.6</ele>
        <time>2021-09-12T10:25:59Z</time>
      </trkpt>
      <trkpt lat="49.18425" lon="1.59892">
        <ele>132.8</ele>
        <time>2021-09-12T10:26:00Z</time>
      </trkpt>
      <trkpt lat="49.18427" lon="1.59879">
        <ele>133</ele>
        <time>2021-09-12T10:26:02Z</time>
      </trkpt>
      <trkpt lat="49.18434" lon="1.59854">
        <ele>133.2</ele>
        <time>2021-09-12T10:26:06Z</time>
      </trkpt>
      <trkpt lat="49.18439" lon="1.59836">
        <ele>133.2</ele>
        <time>2021-09-12T10:26:09Z</time>
      </trkpt>
      <trkpt lat="49.18446" lon="1.59819">
        <ele>133.4</ele>
        <time>2021-09-12T10:26:12Z</time>
      </trkpt>
      <trkpt lat="49.18464" lon="1.59779">
        <ele>133.2</ele>
        <time>2021-09-12T10:26:19Z</time>
      </trkpt>
      <trkpt lat="49.18479" lon="1.59744">
        <ele>132.4</ele>
        <time>2021-09-12T10:26:25Z</time>
      </trkpt>
      <trkpt lat="49.18479" lon="1.59739">
        <ele>132</ele>
        <time>2021-09-12T10:26:26Z</time>
      </trkpt>
      <trkpt lat="49.18477" lon="1.59736">
        <ele>131.6</ele>
        <time>2021-09-12T10:26:27Z</time>
      </trkpt>
      <trkpt lat="49.1847" lon="1.59732">
        <ele>131.2</ele>
        <time>2021-09-12T10:26:31Z</time>
      </trkpt>
      <trkpt lat="49.1847" lon="1.59732">
        <ele>131</ele>
        <time>2021-09-12T10:26:32Z</time>
      </trkpt>
      <trkpt lat="49.18467" lon="1.59732">
        <ele>130.4</ele>
        <time>2021-09-12T10:27:10Z</time>
      </trkpt>
      <trkpt lat="49.18465" lon="1.5973">
        <ele>130.4</ele>
        <time>2021-09-12T10:27:11Z</time>
      </trkpt>
      <trkpt lat="49.18459" lon="1.5971">
        <ele>130.2</ele>
        <time>2021-09-12T10:27:14Z</time>
      </trkpt>
      <trkpt lat="49.18445" lon="1.59669">
        <ele>130.2</ele>
        <time>2021-09-12T10:27:18Z</time>
      </trkpt>
      <trkpt lat="49.18437" lon="1.59645">
        <ele>129</ele>
        <time>2021-09-12T10:27:20Z</time>
      </trkpt>
      <trkpt lat="49.18428" lon="1.5962">
        <ele>127.6</ele>
        <time>2021-09-12T10:27:22Z</time>
      </trkpt>
      <trkpt lat="49.18419" lon="1.59594">
        <ele>126</ele>
        <time>2021-09-12T10:27:24Z</time>
      </trkpt>
      <trkpt lat="49.18409" lon="1.5957">
        <ele>124.6</ele>
        <time>2021-09-12T10:27:26Z</time>
      </trkpt>
      <trkpt lat="49.18404" lon="1.59558">
        <ele>123.8</ele>
        <time>2021-09-12T10:27:27Z</time>
      </trkpt>
      <trkpt lat="49.18399" lon="1.59547">
        <ele>122.8</ele>
        <time>2021-09-12T10:27:28Z</time>
      </trkpt>
      <trkpt lat="49.18392" lon="1.59537">
        <ele>122</ele>
        <time>2021-09-12T10:27:29Z</time>
      </trkpt>
      <trkpt lat="49.18385" lon="1.59526">
        <ele>121.2</ele>
        <time>2021-09-12T10:27:30Z</time>
      </trkpt>
      <trkpt lat="49.1837" lon="1.59506">
        <ele>119.8</ele>
        <time>2021-09-12T10:27:32Z</time>
      </trkpt>
      <trkpt lat="49.18353" lon="1.59486">
        <ele>118.8</ele>
        <time>2021-09-12T10:27:34Z</time>
      </trkpt>
      <trkpt lat="49.18344" lon="1.59475">
        <ele>118.6</ele>
        <time>2021-09-12T10:27:35Z</time>
      </trkpt>
      <trkpt lat="49.18308" lon="1.59432">
        <ele>117</ele>
        <time>2021-09-12T10:27:39Z</time>
      </trkpt>
      <trkpt lat="49.1829" lon="1.5941">
        <ele>115.6</ele>
        <time>2021-09-12T10:27:41Z</time>
      </trkpt>
      <trkpt lat="49.18272" lon="1.59388">
        <ele>113.8</ele>
        <time>2021-09-12T10:27:43Z</time>
      </trkpt>
      <trkpt lat="49.18254" lon="1.59366">
        <ele>111.8</ele>
        <time>2021-09-12T10:27:45Z</time>
      </trkpt>
      <trkpt lat="49.18237" lon="1.59346">
        <ele>110</ele>
        <time>2021-09-12T10:27:47Z</time>
      </trkpt>
      <trkpt lat="49.18229" lon="1.59336">
        <ele>108.2</ele>
        <time>2021-09-12T10:27:48Z</time>
      </trkpt>
      <trkpt lat="49.18213" lon="1.59316">
        <ele>106.6</ele>
        <time>2021-09-12T10:27:50Z</time>
      </trkpt>
      <trkpt lat="49.1819" lon="1.59288">
        <ele>105.4</ele>
        <time>2021-09-12T10:27:53Z</time>
      </trkpt>
      <trkpt lat="49.18175" lon="1.5927">
        <ele>105.2</ele>
        <time>2021-09-12T10:27:55Z</time>
      </trkpt>
      <trkpt lat="49.18132" lon="1.59218">
        <ele>104.8</ele>
        <time>2021-09-12T10:28:01Z</time>
      </trkpt>
      <trkpt lat="49.18111" lon="1.59194">
        <ele>104.4</ele>
        <time>2021-09-12T10:28:04Z</time>
      </trkpt>
      <trkpt lat="49.18086" lon="1.59162">
        <ele>103.2</ele>
        <time>2021-09-12T10:28:08Z</time>
      </trkpt>
      <trkpt lat="49.18062" lon="1.59129">
        <ele>103.2</ele>
        <time>2021-09-12T10:28:12Z</time>
      </trkpt>
      <trkpt lat="49.18053" lon="1.59096">
        <ele>103.2</ele>
        <time>2021-09-12T10:28:15Z</time>
      </trkpt>
      <trkpt lat="49.1805" lon="1.59072">
        <ele>103</ele>
        <time>2021-09-12T10:28:17Z</time>
      </trkpt>
      <trkpt lat="49.18046" lon="1.59024">
        <ele>103</ele>
        <time>2021-09-12T10:28:21Z</time>
      </trkpt>
      <trkpt lat="49.18042" lon="1.58989">
        <ele>102.6</ele>
        <time>2021-09-12T10:28:24Z</time>
      </trkpt>
      <trkpt lat="49.18036" lon="1.58967">
        <ele>102.2</ele>
        <time>2021-09-12T10:28:26Z</time>
      </trkpt>
      <trkpt lat="49.18017" lon="1.58903">
        <ele>102</ele>
        <time>2021-09-12T10:28:32Z</time>
      </trkpt>
      <trkpt lat="49.17996" lon="1.58826">
        <ele>101.6</ele>
        <time>2021-09-12T10:28:39Z</time>
      </trkpt>
      <trkpt lat="49.17994" lon="1.58814">
        <ele>101.6</ele>
        <time>2021-09-12T10:28:40Z</time>
      </trkpt>
      <trkpt lat="49.17992" lon="1.58803">
        <ele>101.6</ele>
        <time>2021-09-12T10:28:41Z</time>
      </trkpt>
      <trkpt lat="49.17992" lon="1.58779">
        <ele>101.4</ele>
        <time>2021-09-12T10:28:43Z</time>
      </trkpt>
      <trkpt lat="49.17997" lon="1.58757">
        <ele>101.4</ele>
        <time>2021-09-12T10:28:45Z</time>
      </trkpt>
      <trkpt lat="49.17999" lon="1.58746">
        <ele>101.4</ele>
        <time>2021-09-12T10:28:46Z</time>
      </trkpt>
      <trkpt lat="49.18" lon="1.58709">
        <ele>101.2</ele>
        <time>2021-09-12T10:28:49Z</time>
      </trkpt>
      <trkpt lat="49.17997" lon="1.58696">
        <ele>101.2</ele>
        <time>2021-09-12T10:28:50Z</time>
      </trkpt>
      <trkpt lat="49.17989" lon="1.58673">
        <ele>101</ele>
        <time>2021-09-12T10:28:52Z</time>
      </trkpt>
      <trkpt lat="49.17984" lon="1.58662">
        <ele>100.8</ele>
        <time>2021-09-12T10:28:53Z</time>
      </trkpt>
      <trkpt lat="49.17953" lon="1.58602">
        <ele>100.2</ele>
        <time>2021-09-12T10:28:59Z</time>
      </trkpt>
      <trkpt lat="49.17943" lon="1.58584">
        <ele>99</ele>
        <time>2021-09-12T10:29:01Z</time>
      </trkpt>
      <trkpt lat="49.17925" lon="1.58549">
        <ele>98.6</ele>
        <time>2021-09-12T10:29:05Z</time>
      </trkpt>
      <trkpt lat="49.17892" lon="1.58489">
        <ele>98.8</ele>
        <time>2021-09-12T10:29:13Z</time>
      </trkpt>
      <trkpt lat="49.17869" lon="1.58433">
        <ele>99.8</ele>
        <time>2021-09-12T10:29:20Z</time>
      </trkpt>
      <trkpt lat="49.17863" lon="1.58416">
        <ele>100.2</ele>
        <time>2021-09-12T10:29:22Z</time>
      </trkpt>
      <trkpt lat="49.17852" lon="1.58384">
        <ele>101</ele>
        <time>2021-09-12T10:29:26Z</time>
      </trkpt>
      <trkpt lat="49.17844" lon="1.58361">
        <ele>101.2</ele>
        <time>2021-09-12T10:29:29Z</time>
      </trkpt>
      <trkpt lat="49.17834" lon="1.58332">
        <ele>102</ele>
        <time>2021-09-12T10:29:33Z</time>
      </trkpt>
      <trkpt lat="49.17824" lon="1.58304">
        <ele>102.8</ele>
        <time>2021-09-12T10:29:37Z</time>
      </trkpt>
      <trkpt lat="49.17814" lon="1.58275">
        <ele>103</ele>
        <time>2021-09-12T10:29:41Z</time>
      </trkpt>
      <trkpt lat="49.17796" lon="1.58226">
        <ele>104</ele>
        <time>2021-09-12T10:29:48Z</time>
      </trkpt>
      <trkpt lat="49.1779" lon="1.58212">
        <ele>104.2</ele>
        <time>2021-09-12T10:29:50Z</time>
      </trkpt>
      <trkpt lat="49.17775" lon="1.58179">
        <ele>105</ele>
        <time>2021-09-12T10:29:55Z</time>
      </trkpt>
      <trkpt lat="49.17772" lon="1.58173">
        <ele>105.2</ele>
        <time>2021-09-12T10:29:56Z</time>
      </trkpt>
      <trkpt lat="49.17742" lon="1.58114">
        <ele>106</ele>
        <time>2021-09-12T10:30:05Z</time>
      </trkpt>
      <trkpt lat="49.17736" lon="1.58101">
        <ele>106.2</ele>
        <time>2021-09-12T10:30:07Z</time>
      </trkpt>
      <trkpt lat="49.17713" lon="1.58064">
        <ele>107.2</ele>
        <time>2021-09-12T10:30:13Z</time>
      </trkpt>
      <trkpt lat="49.1771" lon="1.58058">
        <ele>107.2</ele>
        <time>2021-09-12T10:30:14Z</time>
      </trkpt>
      <trkpt lat="49.17679" lon="1.5801">
        <ele>107.4</ele>
        <time>2021-09-12T10:30:22Z</time>
      </trkpt>
      <trkpt lat="49.17645" lon="1.57958">
        <ele>107.8</ele>
        <time>2021-09-12T10:30:30Z</time>
      </trkpt>
      <trkpt lat="49.17603" lon="1.57896">
        <ele>108.2</ele>
        <time>2021-09-12T10:30:40Z</time>
      </trkpt>
      <trkpt lat="49.17599" lon="1.5789">
        <ele>108.4</ele>
        <time>2021-09-12T10:30:41Z</time>
      </trkpt>
      <trkpt lat="49.17594" lon="1.57884">
        <ele>108.6</ele>
        <time>2021-09-12T10:30:42Z</time>
      </trkpt>
      <trkpt lat="49.17551" lon="1.57821">
        <ele>109.6</ele>
        <time>2021-09-12T10:30:52Z</time>
      </trkpt>
      <trkpt lat="49.17547" lon="1.57815">
        <ele>109.6</ele>
        <time>2021-09-12T10:30:53Z</time>
      </trkpt>
      <trkpt lat="49.17511" lon="1.57772">
        <ele>110.2</ele>
        <time>2021-09-12T10:31:01Z</time>
      </trkpt>
      <trkpt lat="49.17498" lon="1.5776">
        <ele>110</ele>
        <time>2021-09-12T10:31:04Z</time>
      </trkpt>
      <trkpt lat="49.17491" lon="1.57752">
        <ele>110</ele>
        <time>2021-09-12T10:31:06Z</time>
      </trkpt>
      <trkpt lat="49.17463" lon="1.57734">
        <ele>110.4</ele>
        <time>2021-09-12T10:31:12Z</time>
      </trkpt>
      <trkpt lat="49.17453" lon="1.57727">
        <ele>110.6</ele>
        <time>2021-09-12T10:31:14Z</time>
      </trkpt>
      <trkpt lat="49.17421" lon="1.57705">
        <ele>110.6</ele>
        <time>2021-09-12T10:31:21Z</time>
      </trkpt>
      <trkpt lat="49.17387" lon="1.57682">
        <ele>110.6</ele>
        <time>2021-09-12T10:31:29Z</time>
      </trkpt>
      <trkpt lat="49.17362" lon="1.57666">
        <ele>110.8</ele>
        <time>2021-09-12T10:31:35Z</time>
      </trkpt>
      <trkpt lat="49.17357" lon="1.57663">
        <ele>110.8</ele>
        <time>2021-09-12T10:31:36Z</time>
      </trkpt>
      <trkpt lat="49.17318" lon="1.57638">
        <ele>111.2</ele>
        <time>2021-09-12T10:31:45Z</time>
      </trkpt>
      <trkpt lat="49.17272" lon="1.5761">
        <ele>111.4</ele>
        <time>2021-09-12T10:31:55Z</time>
      </trkpt>
      <trkpt lat="49.1725" lon="1.57596">
        <ele>111.6</ele>
        <time>2021-09-12T10:32:00Z</time>
      </trkpt>
      <trkpt lat="49.17228" lon="1.57582">
        <ele>112</ele>
        <time>2021-09-12T10:32:05Z</time>
      </trkpt>
      <trkpt lat="49.17187" lon="1.57556">
        <ele>112.6</ele>
        <time>2021-09-12T10:32:14Z</time>
      </trkpt>
      <trkpt lat="49.17183" lon="1.57552">
        <ele>112.6</ele>
        <time>2021-09-12T10:32:15Z</time>
      </trkpt>
      <trkpt lat="49.17156" lon="1.5752">
        <ele>113</ele>
        <time>2021-09-12T10:32:22Z</time>
      </trkpt>
      <trkpt lat="49.17128" lon="1.57473">
        <ele>113.8</ele>
        <time>2021-09-12T10:32:31Z</time>
      </trkpt>
      <trkpt lat="49.17122" lon="1.57463">
        <ele>113.8</ele>
        <time>2021-09-12T10:32:33Z</time>
      </trkpt>
      <trkpt lat="49.17096" lon="1.57418">
        <ele>114.8</ele>
        <time>2021-09-12T10:32:42Z</time>
      </trkpt>
      <trkpt lat="49.17093" lon="1.57413">
        <ele>114.8</ele>
        <time>2021-09-12T10:32:43Z</time>
      </trkpt>
      <trkpt lat="49.17073" lon="1.57379">
        <ele>115.8</ele>
        <time>2021-09-12T10:32:50Z</time>
      </trkpt>
      <trkpt lat="49.17068" lon="1.57369">
        <ele>116</ele>
        <time>2021-09-12T10:32:52Z</time>
      </trkpt>
      <trkpt lat="49.17045" lon="1.57329">
        <ele>117</ele>
        <time>2021-09-12T10:33:00Z</time>
      </trkpt>
      <trkpt lat="49.17037" lon="1.57314">
        <ele>117.6</ele>
        <time>2021-09-12T10:33:03Z</time>
      </trkpt>
      <trkpt lat="49.17025" lon="1.57295">
        <ele>118</ele>
        <time>2021-09-12T10:33:07Z</time>
      </trkpt>
      <trkpt lat="49.17005" lon="1.5726">
        <ele>118.4</ele>
        <time>2021-09-12T10:33:14Z</time>
      </trkpt>
      <trkpt lat="49.1699" lon="1.57235">
        <ele>119.2</ele>
        <time>2021-09-12T10:33:19Z</time>
      </trkpt>
      <trkpt lat="49.16985" lon="1.57226">
        <ele>119.4</ele>
        <time>2021-09-12T10:33:21Z</time>
      </trkpt>
      <trkpt lat="49.16976" lon="1.57211">
        <ele>119.8</ele>
        <time>2021-09-12T10:33:24Z</time>
      </trkpt>
      <trkpt lat="49.16959" lon="1.57184">
        <ele>120.4</ele>
        <time>2021-09-12T10:33:30Z</time>
      </trkpt>
      <trkpt lat="49.16949" lon="1.57168">
        <ele>121</ele>
        <time>2021-09-12T10:33:34Z</time>
      </trkpt>
      <trkpt lat="49.16944" lon="1.57162">
        <ele>121</ele>
        <time>2021-09-12T10:33:36Z</time>
      </trkpt>
      <trkpt lat="49.16941" lon="1.57163">
        <ele>121</ele>
        <time>2021-09-12T10:33:37Z</time>
      </trkpt>
      <trkpt lat="49.16937" lon="1.57172">
        <ele>121.2</ele>
        <time>2021-09-12T10:33:39Z</time>
      </trkpt>
      <trkpt lat="49.16932" lon="1.57182">
        <ele>121.6</ele>
        <time>2021-09-12T10:33:41Z</time>
      </trkpt>
      <trkpt lat="49.16925" lon="1.57198">
        <ele>122.2</ele>
        <time>2021-09-12T10:33:44Z</time>
      </trkpt>
      <trkpt lat="49.16909" lon="1.57233">
        <ele>122.6</ele>
        <time>2021-09-12T10:33:50Z</time>
      </trkpt>
      <trkpt lat="49.16891" lon="1.57271">
        <ele>122.6</ele>
        <time>2021-09-12T10:33:57Z</time>
      </trkpt>
      <trkpt lat="49.1686" lon="1.57333">
        <ele>122</ele>
        <time>2021-09-12T10:34:08Z</time>
      </trkpt>
      <trkpt lat="49.16831" lon="1.5739">
        <ele>122</ele>
        <time>2021-09-12T10:34:18Z</time>
      </trkpt>
      <trkpt lat="49.16809" lon="1.57435">
        <ele>122.2</ele>
        <time>2021-09-12T10:34:26Z</time>
      </trkpt>
      <trkpt lat="49.16784" lon="1.57487">
        <ele>122.2</ele>
        <time>2021-09-12T10:34:35Z</time>
      </trkpt>
      <trkpt lat="49.16755" lon="1.57542">
        <ele>122.2</ele>
        <time>2021-09-12T10:34:44Z</time>
      </trkpt>
      <trkpt lat="49.16733" lon="1.57584">
        <ele>121.4</ele>
        <time>2021-09-12T10:34:51Z</time>
      </trkpt>
      <trkpt lat="49.16707" lon="1.57638">
        <ele>120.6</ele>
        <time>2021-09-12T10:34:59Z</time>
      </trkpt>
      <trkpt lat="49.16704" lon="1.57645">
        <ele>120.6</ele>
        <time>2021-09-12T10:35:00Z</time>
      </trkpt>
      <trkpt lat="49.16695" lon="1.57666">
        <ele>120.4</ele>
        <time>2021-09-12T10:35:03Z</time>
      </trkpt>
      <trkpt lat="49.16689" lon="1.5768">
        <ele>120.2</ele>
        <time>2021-09-12T10:35:05Z</time>
      </trkpt>
      <trkpt lat="49.16677" lon="1.57699">
        <ele>119.6</ele>
        <time>2021-09-12T10:35:08Z</time>
      </trkpt>
      <trkpt lat="49.16669" lon="1.57711">
        <ele>119.2</ele>
        <time>2021-09-12T10:35:10Z</time>
      </trkpt>
      <trkpt lat="49.1666" lon="1.57722">
        <ele>119</ele>
        <time>2021-09-12T10:35:12Z</time>
      </trkpt>
      <trkpt lat="49.16651" lon="1.57734">
        <ele>118.8</ele>
        <time>2021-09-12T10:35:14Z</time>
      </trkpt>
      <trkpt lat="49.16647" lon="1.57741">
        <ele>118.8</ele>
        <time>2021-09-12T10:35:15Z</time>
      </trkpt>
      <trkpt lat="49.16627" lon="1.57781">
        <ele>118</ele>
        <time>2021-09-12T10:35:20Z</time>
      </trkpt>
      <trkpt lat="49.1662" lon="1.57798">
        <ele>117.8</ele>
        <time>2021-09-12T10:35:22Z</time>
      </trkpt>
      <trkpt lat="49.16608" lon="1.57824">
        <ele>117</ele>
        <time>2021-09-12T10:35:25Z</time>
      </trkpt>
      <trkpt lat="49.16582" lon="1.57874">
        <ele>116</ele>
        <time>2021-09-12T10:35:31Z</time>
      </trkpt>
      <trkpt lat="49.16548" lon="1.57935">
        <ele>114.6</ele>
        <time>2021-09-12T10:35:38Z</time>
      </trkpt>
      <trkpt lat="49.16533" lon="1.5796">
        <ele>113.2</ele>
        <time>2021-09-12T10:35:41Z</time>
      </trkpt>
      <trkpt lat="49.16523" lon="1.57977">
        <ele>112.2</ele>
        <time>2021-09-12T10:35:43Z</time>
      </trkpt>
      <trkpt lat="49.16508" lon="1.58002">
        <ele>110.6</ele>
        <time>2021-09-12T10:35:46Z</time>
      </trkpt>
      <trkpt lat="49.16503" lon="1.58011">
        <ele>110.4</ele>
        <time>2021-09-12T10:35:47Z</time>
      </trkpt>
      <trkpt lat="49.16484" lon="1.58047">
        <ele>109.6</ele>
        <time>2021-09-12T10:35:51Z</time>
      </trkpt>
      <trkpt lat="49.16474" lon="1.58066">
        <ele>108.8</ele>
        <time>2021-09-12T10:35:53Z</time>
      </trkpt>
      <trkpt lat="49.16466" lon="1.58085">
        <ele>108.4</ele>
        <time>2021-09-12T10:35:55Z</time>
      </trkpt>
      <trkpt lat="49.16453" lon="1.58117">
        <ele>107.6</ele>
        <time>2021-09-12T10:35:58Z</time>
      </trkpt>
      <trkpt lat="49.16448" lon="1.58127">
        <ele>107</ele>
        <time>2021-09-12T10:35:59Z</time>
      </trkpt>
      <trkpt lat="49.16433" lon="1.58158">
        <ele>105.8</ele>
        <time>2021-09-12T10:36:02Z</time>
      </trkpt>
      <trkpt lat="49.16417" lon="1.5819">
        <ele>104.6</ele>
        <time>2021-09-12T10:36:05Z</time>
      </trkpt>
      <trkpt lat="49.164" lon="1.58224">
        <ele>102.8</ele>
        <time>2021-09-12T10:36:08Z</time>
      </trkpt>
      <trkpt lat="49.16388" lon="1.58247">
        <ele>101.6</ele>
        <time>2021-09-12T10:36:10Z</time>
      </trkpt>
      <trkpt lat="49.16383" lon="1.58259">
        <ele>100.8</ele>
        <time>2021-09-12T10:36:11Z</time>
      </trkpt>
      <trkpt lat="49.16377" lon="1.58271">
        <ele>100</ele>
        <time>2021-09-12T10:36:12Z</time>
      </trkpt>
      <trkpt lat="49.16366" lon="1.58295">
        <ele>99</ele>
        <time>2021-09-12T10:36:14Z</time>
      </trkpt>
      <trkpt lat="49.16349" lon="1.58331">
        <ele>97.4</ele>
        <time>2021-09-12T10:36:17Z</time>
      </trkpt>
      <trkpt lat="49.16343" lon="1.58343">
        <ele>96.6</ele>
        <time>2021-09-12T10:36:18Z</time>
      </trkpt>
      <trkpt lat="49.16338" lon="1.58354">
        <ele>96</ele>
        <time>2021-09-12T10:36:19Z</time>
      </trkpt>
      <trkpt lat="49.16323" lon="1.58389">
        <ele>93.6</ele>
        <time>2021-09-12T10:36:22Z</time>
      </trkpt>
      <trkpt lat="49.16319" lon="1.58401">
        <ele>92.6</ele>
        <time>2021-09-12T10:36:23Z</time>
      </trkpt>
      <trkpt lat="49.16315" lon="1.58412">
        <ele>91.6</ele>
        <time>2021-09-12T10:36:24Z</time>
      </trkpt>
      <trkpt lat="49.1631" lon="1.58424">
        <ele>91</ele>
        <time>2021-09-12T10:36:25Z</time>
      </trkpt>
      <trkpt lat="49.16306" lon="1.58436">
        <ele>90.4</ele>
        <time>2021-09-12T10:36:26Z</time>
      </trkpt>
      <trkpt lat="49.16288" lon="1.58485">
        <ele>89.2</ele>
        <time>2021-09-12T10:36:30Z</time>
      </trkpt>
      <trkpt lat="49.16273" lon="1.58522">
        <ele>88</ele>
        <time>2021-09-12T10:36:33Z</time>
      </trkpt>
      <trkpt lat="49.16259" lon="1.58556">
        <ele>86.4</ele>
        <time>2021-09-12T10:36:36Z</time>
      </trkpt>
      <trkpt lat="49.16248" lon="1.58577">
        <ele>85.4</ele>
        <time>2021-09-12T10:36:38Z</time>
      </trkpt>
      <trkpt lat="49.16237" lon="1.58597">
        <ele>83.4</ele>
        <time>2021-09-12T10:36:40Z</time>
      </trkpt>
      <trkpt lat="49.16232" lon="1.58607">
        <ele>82.2</ele>
        <time>2021-09-12T10:36:41Z</time>
      </trkpt>
      <trkpt lat="49.16218" lon="1.58633">
        <ele>81.2</ele>
        <time>2021-09-12T10:36:44Z</time>
      </trkpt>
      <trkpt lat="49.16197" lon="1.58668">
        <ele>81</ele>
        <time>2021-09-12T10:36:49Z</time>
      </trkpt>
      <trkpt lat="49.16193" lon="1.58673">
        <ele>81</ele>
        <time>2021-09-12T10:36:50Z</time>
      </trkpt>
      <trkpt lat="49.16184" lon="1.58679">
        <ele>81</ele>
        <time>2021-09-12T10:36:52Z</time>
      </trkpt>
      <trkpt lat="49.16146" lon="1.58696">
        <ele>81</ele>
        <time>2021-09-12T10:37:00Z</time>
      </trkpt>
      <trkpt lat="49.16141" lon="1.58699">
        <ele>81</ele>
        <time>2021-09-12T10:37:01Z</time>
      </trkpt>
      <trkpt lat="49.1612" lon="1.58707">
        <ele>81</ele>
        <time>2021-09-12T10:37:05Z</time>
      </trkpt>
      <trkpt lat="49.16109" lon="1.5871">
        <ele>80.8</ele>
        <time>2021-09-12T10:37:07Z</time>
      </trkpt>
      <trkpt lat="49.16087" lon="1.58717">
        <ele>80.2</ele>
        <time>2021-09-12T10:37:11Z</time>
      </trkpt>
      <trkpt lat="49.16082" lon="1.58718">
        <ele>80.2</ele>
        <time>2021-09-12T10:37:12Z</time>
      </trkpt>
      <trkpt lat="49.16043" lon="1.58721">
        <ele>80</ele>
        <time>2021-09-12T10:37:19Z</time>
      </trkpt>
      <trkpt lat="49.15986" lon="1.58717">
        <ele>79.8</ele>
        <time>2021-09-12T10:37:29Z</time>
      </trkpt>
      <trkpt lat="49.15981" lon="1.58716">
        <ele>79.8</ele>
        <time>2021-09-12T10:37:30Z</time>
      </trkpt>
      <trkpt lat="49.15967" lon="1.58717">
        <ele>79.8</ele>
        <time>2021-09-12T10:37:33Z</time>
      </trkpt>
      <trkpt lat="49.15963" lon="1.58719">
        <ele>79.8</ele>
        <time>2021-09-12T10:37:34Z</time>
      </trkpt>
      <trkpt lat="49.15961" lon="1.58722">
        <ele>79.8</ele>
        <time>2021-09-12T10:37:37Z</time>
      </trkpt>
      <trkpt lat="49.15961" lon="1.58722">
        <ele>79.8</ele>
        <time>2021-09-12T10:37:38Z</time>
      </trkpt>
      <trkpt lat="49.15959" lon="1.5872">
        <ele>80.6</ele>
        <time>2021-09-12T10:38:24Z</time>
      </trkpt>
      <trkpt lat="49.15955" lon="1.58715">
        <ele>80.6</ele>
        <time>2021-09-12T10:38:27Z</time>
      </trkpt>
      <trkpt lat="49.15949" lon="1.58712">
        <ele>80.6</ele>
        <time>2021-09-12T10:38:29Z</time>
      </trkpt>
      <trkpt lat="49.1594" lon="1.5871">
        <ele>80.6</ele>
        <time>2021-09-12T10:38:31Z</time>
      </trkpt>
      <trkpt lat="49.15903" lon="1.58705">
        <ele>80.4</ele>
        <time>2021-09-12T10:38:38Z</time>
      </trkpt>
      <trkpt lat="49.15869" lon="1.58691">
        <ele>79.4</ele>
        <time>2021-09-12T10:38:44Z</time>
      </trkpt>
      <trkpt lat="49.15863" lon="1.58689">
        <ele>79.4</ele>
        <time>2021-09-12T10:38:45Z</time>
      </trkpt>
      <trkpt lat="49.15853" lon="1.58693">
        <ele>79</ele>
        <time>2021-09-12T10:38:47Z</time>
      </trkpt>
      <trkpt lat="49.15846" lon="1.58703">
        <ele>78.8</ele>
        <time>2021-09-12T10:38:49Z</time>
      </trkpt>
      <trkpt lat="49.15843" lon="1.5871">
        <ele>78.6</ele>
        <time>2021-09-12T10:38:50Z</time>
      </trkpt>
      <trkpt lat="49.1584" lon="1.58723">
        <ele>78.6</ele>
        <time>2021-09-12T10:38:52Z</time>
      </trkpt>
      <trkpt lat="49.15836" lon="1.58739">
        <ele>78.6</ele>
        <time>2021-09-12T10:38:55Z</time>
      </trkpt>
      <trkpt lat="49.15833" lon="1.58763">
        <ele>78.8</ele>
        <time>2021-09-12T10:39:01Z</time>
      </trkpt>
      <trkpt lat="49.15831" lon="1.58774">
        <ele>80</ele>
        <time>2021-09-12T10:39:04Z</time>
      </trkpt>
      <trkpt lat="49.15831" lon="1.58784">
        <ele>81.2</ele>
        <time>2021-09-12T10:39:07Z</time>
      </trkpt>
      <trkpt lat="49.15831" lon="1.58791">
        <ele>81.8</ele>
        <time>2021-09-12T10:39:09Z</time>
      </trkpt>
      <trkpt lat="49.15831" lon="1.58798">
        <ele>82.4</ele>
        <time>2021-09-12T10:39:11Z</time>
      </trkpt>
      <trkpt lat="49.15832" lon="1.5881">
        <ele>84.2</ele>
        <time>2021-09-12T10:39:15Z</time>
      </trkpt>
      <trkpt lat="49.15832" lon="1.58816">
        <ele>84.6</ele>
        <time>2021-09-12T10:39:17Z</time>
      </trkpt>
      <trkpt lat="49.15834" lon="1.58827">
        <ele>85.4</ele>
        <time>2021-09-12T10:39:21Z</time>
      </trkpt>
      <trkpt lat="49.15835" lon="1.58835">
        <ele>86.2</ele>
        <time>2021-09-12T10:39:24Z</time>
      </trkpt>
      <trkpt lat="49.15835" lon="1.58837">
        <ele>86.4</ele>
        <time>2021-09-12T10:39:25Z</time>
      </trkpt>
      <trkpt lat="49.15835" lon="1.5884">
        <ele>86.6</ele>
        <time>2021-09-12T10:39:26Z</time>
      </trkpt>
      <trkpt lat="49.15837" lon="1.58853">
        <ele>87.4</ele>
        <time>2021-09-12T10:39:31Z</time>
      </trkpt>
      <trkpt lat="49.15839" lon="1.58862">
        <ele>88.2</ele>
        <time>2021-09-12T10:39:35Z</time>
      </trkpt>
      <trkpt lat="49.15841" lon="1.58867">
        <ele>88.6</ele>
        <time>2021-09-12T10:39:37Z</time>
      </trkpt>
      <trkpt lat="49.15844" lon="1.58877">
        <ele>89.2</ele>
        <time>2021-09-12T10:39:41Z</time>
      </trkpt>
      <trkpt lat="49.15845" lon="1.58885">
        <ele>90</ele>
        <time>2021-09-12T10:39:44Z</time>
      </trkpt>
      <trkpt lat="49.15849" lon="1.58896">
        <ele>90.8</ele>
        <time>2021-09-12T10:39:49Z</time>
      </trkpt>
      <trkpt lat="49.1585" lon="1.58901">
        <ele>91.2</ele>
        <time>2021-09-12T10:39:51Z</time>
      </trkpt>
      <trkpt lat="49.15853" lon="1.58913">
        <ele>92.2</ele>
        <time>2021-09-12T10:39:56Z</time>
      </trkpt>
      <trkpt lat="49.15855" lon="1.5892">
        <ele>93.2</ele>
        <time>2021-09-12T10:39:59Z</time>
      </trkpt>
      <trkpt lat="49.15856" lon="1.58924">
        <ele>93.6</ele>
        <time>2021-09-12T10:40:01Z</time>
      </trkpt>
      <trkpt lat="49.1586" lon="1.58936">
        <ele>94.8</ele>
        <time>2021-09-12T10:40:06Z</time>
      </trkpt>
      <trkpt lat="49.15861" lon="1.58941">
        <ele>95.2</ele>
        <time>2021-09-12T10:40:08Z</time>
      </trkpt>
      <trkpt lat="49.15865" lon="1.58949">
        <ele>96</ele>
        <time>2021-09-12T10:40:12Z</time>
      </trkpt>
      <trkpt lat="49.15869" lon="1.58959">
        <ele>97</ele>
        <time>2021-09-12T10:40:17Z</time>
      </trkpt>
      <trkpt lat="49.15876" lon="1.58972">
        <ele>98.2</ele>
        <time>2021-09-12T10:40:24Z</time>
      </trkpt>
      <trkpt lat="49.15881" lon="1.58981">
        <ele>99.4</ele>
        <time>2021-09-12T10:40:29Z</time>
      </trkpt>
      <trkpt lat="49.15887" lon="1.58991">
        <ele>100.6</ele>
        <time>2021-09-12T10:40:35Z</time>
      </trkpt>
      <trkpt lat="49.15893" lon="1.59">
        <ele>101.6</ele>
        <time>2021-09-12T10:40:40Z</time>
      </trkpt>
      <trkpt lat="49.15897" lon="1.59006">
        <ele>102.6</ele>
        <time>2021-09-12T10:40:44Z</time>
      </trkpt>
      <trkpt lat="49.15898" lon="1.59008">
        <ele>102.8</ele>
        <time>2021-09-12T10:40:45Z</time>
      </trkpt>
      <trkpt lat="49.15903" lon="1.59017">
        <ele>103.8</ele>
        <time>2021-09-12T10:40:50Z</time>
      </trkpt>
      <trkpt lat="49.15905" lon="1.59023">
        <ele>104.4</ele>
        <time>2021-09-12T10:40:53Z</time>
      </trkpt>
      <trkpt lat="49.15907" lon="1.59027">
        <ele>104.8</ele>
        <time>2021-09-12T10:40:55Z</time>
      </trkpt>
      <trkpt lat="49.15912" lon="1.59037">
        <ele>105.8</ele>
        <time>2021-09-12T10:41:00Z</time>
      </trkpt>
      <trkpt lat="49.15914" lon="1.59042">
        <ele>106.4</ele>
        <time>2021-09-12T10:41:02Z</time>
      </trkpt>
      <trkpt lat="49.15917" lon="1.59053">
        <ele>107</ele>
        <time>2021-09-12T10:41:07Z</time>
      </trkpt>
      <trkpt lat="49.1592" lon="1.59062">
        <ele>107.8</ele>
        <time>2021-09-12T10:41:11Z</time>
      </trkpt>
      <trkpt lat="49.15921" lon="1.59067">
        <ele>108</ele>
        <time>2021-09-12T10:41:13Z</time>
      </trkpt>
      <trkpt lat="49.15923" lon="1.59084">
        <ele>109.2</ele>
        <time>2021-09-12T10:41:20Z</time>
      </trkpt>
      <trkpt lat="49.15924" lon="1.59089">
        <ele>109.4</ele>
        <time>2021-09-12T10:41:22Z</time>
      </trkpt>
      <trkpt lat="49.15924" lon="1.591">
        <ele>110.2</ele>
        <time>2021-09-12T10:41:26Z</time>
      </trkpt>
      <trkpt lat="49.15924" lon="1.59112">
        <ele>111</ele>
        <time>2021-09-12T10:41:31Z</time>
      </trkpt>
      <trkpt lat="49.15924" lon="1.5912">
        <ele>111.4</ele>
        <time>2021-09-12T10:41:34Z</time>
      </trkpt>
      <trkpt lat="49.15924" lon="1.59137">
        <ele>112.4</ele>
        <time>2021-09-12T10:41:40Z</time>
      </trkpt>
      <trkpt lat="49.15924" lon="1.59145">
        <ele>113.2</ele>
        <time>2021-09-12T10:41:43Z</time>
      </trkpt>
      <trkpt lat="49.15923" lon="1.5915">
        <ele>113.6</ele>
        <time>2021-09-12T10:41:45Z</time>
      </trkpt>
      <trkpt lat="49.15923" lon="1.59163">
        <ele>114.6</ele>
        <time>2021-09-12T10:41:50Z</time>
      </trkpt>
      <trkpt lat="49.15923" lon="1.59166">
        <ele>114.6</ele>
        <time>2021-09-12T10:41:51Z</time>
      </trkpt>
      <trkpt lat="49.15922" lon="1.59184">
        <ele>115.8</ele>
        <time>2021-09-12T10:41:57Z</time>
      </trkpt>
      <trkpt lat="49.15921" lon="1.59215">
        <ele>116.8</ele>
        <time>2021-09-12T10:42:06Z</time>
      </trkpt>
      <trkpt lat="49.15921" lon="1.59226">
        <ele>117.2</ele>
        <time>2021-09-12T10:42:09Z</time>
      </trkpt>
      <trkpt lat="49.15919" lon="1.59249">
        <ele>117.8</ele>
        <time>2021-09-12T10:42:15Z</time>
      </trkpt>
      <trkpt lat="49.15917" lon="1.59265">
        <ele>118</ele>
        <time>2021-09-12T10:42:19Z</time>
      </trkpt>
      <trkpt lat="49.15911" lon="1.59306">
        <ele>118.8</ele>
        <time>2021-09-12T10:42:29Z</time>
      </trkpt>
      <trkpt lat="49.15911" lon="1.59311">
        <ele>118.8</ele>
        <time>2021-09-12T10:42:30Z</time>
      </trkpt>
      <trkpt lat="49.15908" lon="1.59346">
        <ele>119.2</ele>
        <time>2021-09-12T10:42:36Z</time>
      </trkpt>
      <trkpt lat="49.15906" lon="1.5939">
        <ele>119.4</ele>
        <time>2021-09-12T10:42:43Z</time>
      </trkpt>
      <trkpt lat="49.15904" lon="1.59434">
        <ele>120</ele>
        <time>2021-09-12T10:42:50Z</time>
      </trkpt>
      <trkpt lat="49.15903" lon="1.5944">
        <ele>120.2</ele>
        <time>2021-09-12T10:42:51Z</time>
      </trkpt>
      <trkpt lat="49.15899" lon="1.59477">
        <ele>121.2</ele>
        <time>2021-09-12T10:42:57Z</time>
      </trkpt>
      <trkpt lat="49.15898" lon="1.59496">
        <ele>121.6</ele>
        <time>2021-09-12T10:43:00Z</time>
      </trkpt>
      <trkpt lat="49.15896" lon="1.59533">
        <ele>121.8</ele>
        <time>2021-09-12T10:43:07Z</time>
      </trkpt>
      <trkpt lat="49.15896" lon="1.59537">
        <ele>121.8</ele>
        <time>2021-09-12T10:43:10Z</time>
      </trkpt>
      <trkpt lat="49.15894" lon="1.59541">
        <ele>121.6</ele>
        <time>2021-09-12T10:44:01Z</time>
      </trkpt>
      <trkpt lat="49.15894" lon="1.59544">
        <ele>121.6</ele>
        <time>2021-09-12T10:44:05Z</time>
      </trkpt>
      <trkpt lat="49.15894" lon="1.59544">
        <ele>121.4</ele>
        <time>2021-09-12T10:44:07Z</time>
      </trkpt>
      <trkpt lat="49.15895" lon="1.59549">
        <ele>121.6</ele>
        <time>2021-09-12T10:47:00Z</time>
      </trkpt>
      <trkpt lat="49.15895" lon="1.59551">
        <ele>121.6</ele>
        <time>2021-09-12T10:47:01Z</time>
      </trkpt>
      <trkpt lat="49.15894" lon="1.59566">
        <ele>121.6</ele>
        <time>2021-09-12T10:47:06Z</time>
      </trkpt>
      <trkpt lat="49.15892" lon="1.59592">
        <ele>121.6</ele>
        <time>2021-09-12T10:47:11Z</time>
      </trkpt>
      <trkpt lat="49.15889" lon="1.59634">
        <ele>121.4</ele>
        <time>2021-09-12T10:47:17Z</time>
      </trkpt>
      <trkpt lat="49.15885" lon="1.5967">
        <ele>121</ele>
        <time>2021-09-12T10:47:23Z</time>
      </trkpt>
      <trkpt lat="49.15881" lon="1.59707">
        <ele>120.4</ele>
        <time>2021-09-12T10:47:30Z</time>
      </trkpt>
      <trkpt lat="49.15879" lon="1.5973">
        <ele>120.4</ele>
        <time>2021-09-12T10:47:33Z</time>
      </trkpt>
      <trkpt lat="49.15876" lon="1.59753">
        <ele>120</ele>
        <time>2021-09-12T10:47:36Z</time>
      </trkpt>
      <trkpt lat="49.15872" lon="1.5978">
        <ele>119.4</ele>
        <time>2021-09-12T10:47:40Z</time>
      </trkpt>
      <trkpt lat="49.15868" lon="1.59807">
        <ele>118.8</ele>
        <time>2021-09-12T10:47:44Z</time>
      </trkpt>
      <trkpt lat="49.15867" lon="1.59821">
        <ele>118.4</ele>
        <time>2021-09-12T10:47:46Z</time>
      </trkpt>
      <trkpt lat="49.15866" lon="1.59834">
        <ele>118</ele>
        <time>2021-09-12T10:47:48Z</time>
      </trkpt>
      <trkpt lat="49.15862" lon="1.59855">
        <ele>117.4</ele>
        <time>2021-09-12T10:47:51Z</time>
      </trkpt>
      <trkpt lat="49.15861" lon="1.59863">
        <ele>117.4</ele>
        <time>2021-09-12T10:47:52Z</time>
      </trkpt>
      <trkpt lat="49.1586" lon="1.59871">
        <ele>117.4</ele>
        <time>2021-09-12T10:47:53Z</time>
      </trkpt>
      <trkpt lat="49.15857" lon="1.59886">
        <ele>117.2</ele>
        <time>2021-09-12T10:47:55Z</time>
      </trkpt>
      <trkpt lat="49.15854" lon="1.59892">
        <ele>117</ele>
        <time>2021-09-12T10:47:56Z</time>
      </trkpt>
      <trkpt lat="49.15847" lon="1.59911">
        <ele>116.6</ele>
        <time>2021-09-12T10:47:59Z</time>
      </trkpt>
      <trkpt lat="49.15842" lon="1.59923">
        <ele>116</ele>
        <time>2021-09-12T10:48:01Z</time>
      </trkpt>
      <trkpt lat="49.1584" lon="1.59929">
        <ele>115.8</ele>
        <time>2021-09-12T10:48:02Z</time>
      </trkpt>
      <trkpt lat="49.15834" lon="1.59941">
        <ele>115.2</ele>
        <time>2021-09-12T10:48:05Z</time>
      </trkpt>
      <trkpt lat="49.15831" lon="1.59941">
        <ele>115.2</ele>
        <time>2021-09-12T10:48:06Z</time>
      </trkpt>
      <trkpt lat="49.15825" lon="1.5993">
        <ele>115</ele>
        <time>2021-09-12T10:48:09Z</time>
      </trkpt>
      <trkpt lat="49.15812" lon="1.59899">
        <ele>114.2</ele>
        <time>2021-09-12T10:48:15Z</time>
      </trkpt>
      <trkpt lat="49.15797" lon="1.59866">
        <ele>114</ele>
        <time>2021-09-12T10:48:21Z</time>
      </trkpt>
      <trkpt lat="49.15781" lon="1.5983">
        <ele>114.2</ele>
        <time>2021-09-12T10:48:28Z</time>
      </trkpt>
      <trkpt lat="49.15776" lon="1.59821">
        <ele>114.2</ele>
        <time>2021-09-12T10:48:30Z</time>
      </trkpt>
      <trkpt lat="49.15764" lon="1.59803">
        <ele>114.8</ele>
        <time>2021-09-12T10:48:36Z</time>
      </trkpt>
      <trkpt lat="49.15762" lon="1.59802">
        <ele>115</ele>
        <time>2021-09-12T10:48:38Z</time>
      </trkpt>
      <trkpt lat="49.15761" lon="1.59805">
        <ele>115.4</ele>
        <time>2021-09-12T10:48:40Z</time>
      </trkpt>
      <trkpt lat="49.15762" lon="1.59812">
        <ele>115.6</ele>
        <time>2021-09-12T10:48:43Z</time>
      </trkpt>
      <trkpt lat="49.1576" lon="1.59819">
        <ele>115.6</ele>
        <time>2021-09-12T10:48:45Z</time>
      </trkpt>
      <trkpt lat="49.15749" lon="1.59836">
        <ele>115.6</ele>
        <time>2021-09-12T10:48:49Z</time>
      </trkpt>
      <trkpt lat="49.15744" lon="1.59843">
        <ele>115.6</ele>
        <time>2021-09-12T10:48:51Z</time>
      </trkpt>
      <trkpt lat="49.15741" lon="1.59842">
        <ele>115.6</ele>
        <time>2021-09-12T10:48:52Z</time>
      </trkpt>
      <trkpt lat="49.15739" lon="1.59837">
        <ele>115</ele>
        <time>2021-09-12T10:48:55Z</time>
      </trkpt>
      <trkpt lat="49.15739" lon="1.59837">
        <ele>114.6</ele>
        <time>2021-09-12T10:48:56Z</time>
      </trkpt>
    </trkseg>
  </trk>
</gpx>